# Wetter Temperatur Luftdruck Luftfeuchtigkeit Sichtweite Windgeschwindigkeit Windrichtung Zeit
1 Clouds 8 994 87 10000 4.1 180 20:56 17.10.2019
2 Clouds 8 994 87 10000 4.1 180 20:56 17.10.2019
3 Clouds 8 994 87 10000 4.1 180 20:37 17.10.2019
4 Clouds 8 994 87 10000 3.6 180 20:18 17.10.2019
5 Clouds 8 994 87 10000 4.1 180 19:42 17.10.2019
6 Clouds 8 994 87 10000 4.1 180 19:42 17.10.2019
7 Clouds 8 994 81 10000 4.1 190 19:21 17.10.2019
8 Rain 8 994 93 10000 3.1 220 18:59 17.10.2019
9 Rain 9 994 93 10000 3.1 220 18:39 17.10.2019
10 Rain 9 994 87 10000 4.1 250 18:21 17.10.2019
11 Rain 9 994 81 10000 4.1 230 17:44 17.10.2019
12 Rain 11 994 66 10000 5.7 200 17:25 17.10.2019
13 Rain 12 994 66 10000 5.7 200 16:59 17.10.2019
14 Rain 12 994 66 10000 5.1 200 16:41 17.10.2019
15 Clouds 12 994 58 10000 5.7 170 16:19 17.10.2019
16 Clouds 12 994 58 10000 5.7 170 16:19 17.10.2019
17 Clouds 12 995 62 10000 5.7 160 15:57 17.10.2019
18 Clouds 12 995 62 10000 5.7 160 15:39 17.10.2019
19 Rain 12 995 71 10000 4.1 150 15:20 17.10.2019
20 Rain 12 995 71 10000 4.1 150 15:20 17.10.2019
21 Rain 12 995 71 10000 4.1 150 14:57 17.10.2019
22 Rain 12 995 71 10000 4.1 150 14:38 17.10.2019
23 Clouds 12 996 71 10000 6.2 190 14:20 17.10.2019
24 Clouds 12 996 66 10000 5.7 200 13:41 17.10.2019
25 Clouds 12 996 66 10000 4.1 200 13:21 17.10.2019
26 Clouds 12 996 71 10000 3.6 170 12:58 17.10.2019
27 Clouds 12 996 71 10000 3.6 170 12:39 17.10.2019
28 Clouds 13 997 66 10000 4.1 190 12:19 17.10.2019
29 Clouds 11 997 71 10000 3.6 160 11:56 17.10.2019
30 Clouds 12 997 71 10000 3.6 160 11:37 17.10.2019
31 Clouds 11 997 71 10000 4.6 160 11:18 17.10.2019
32 Clouds 10 997 76 10000 5.1 160 10:42 17.10.2019
33 Clouds 10 997 76 10000 5.1 160 10:42 17.10.2019
34 Clouds 10 998 71 10000 2.6 150 10:20 17.10.2019
35 Clouds 10 998 71 10000 3.1 140 09:57 17.10.2019
36 Clouds 10 998 71 10000 3.1 140 09:38 17.10.2019
37 Clouds 9 998 76 10000 3.6 150 09:19 17.10.2019
38 Clouds 9 998 71 10000 4.6 180 08:49 17.10.2019
39 Clouds 9 998 76 10000 4.1 180 08:27 17.10.2019
40 Clouds 9 998 76 10000 3.6 190 08:00 17.10.2019
41 Clouds 9 998 76 10000 3.6 190 07:41 17.10.2019
42 Clouds 9 998 76 10000 4.1 200 07:21 17.10.2019
43 Clouds 9 998 76 10000 5.1 190 06:55 17.10.2019
44 Clouds 9 998 76 10000 5.1 190 06:37 17.10.2019
45 Clouds 9 998 76 10000 4.1 190 06:18 17.10.2019
46 -273 0 0 0 0 0 05:40 17.10.2019
47 Clouds 9 999 76 10000 6.2 170 05:19 17.10.2019
48 Clouds 9 999 76 10000 4.1 170 04:48 17.10.2019
49 Clouds 9 1000 81 10000 4.1 170 03:46 17.10.2019
50 Clouds 8 1000 76 10000 4.6 180 01:57 17.10.2019
51 Clouds 8 1000 76 10000 4.6 180 01:57 17.10.2019
52 Clear 8 1001 76 10000 3.1 170 00:42 17.10.2019
53 Clear 8 1001 76 10000 2.6 170 00:21 17.10.2019
54 Clear 8 1001 76 10000 4.1 190 23:59 16.10.2019
55 Clear 8 1001 76 10000 4.1 190 23:40 16.10.2019
56 Clear 8 1001 76 10000 4.1 180 23:18 16.10.2019
57 Clear 9 1001 71 10000 3.1 200 22:54 16.10.2019
58 Clear 9 1001 71 10000 3.1 200 22:36 16.10.2019
59 Clear 9 1001 71 10000 3.1 200 22:36 16.10.2019
60 Clouds 8 1001 71 10000 4.1 190 22:18 16.10.2019
61 Clouds 9 1001 71 10000 3.1 180 21:54 16.10.2019
62 Clouds 9 1001 71 10000 3.1 180 21:54 16.10.2019
63 Clouds 9 1001 71 10000 3.1 180 21:54 16.10.2019
64 Clouds 9 1001 71 10000 3.1 180 21:36 16.10.2019
65 Clouds 9 1001 71 10000 3.1 190 21:18 16.10.2019
66 Clouds 9 1001 71 10000 3.1 180 20:55 16.10.2019
67 Clouds 9 1001 71 10000 3.1 180 20:55 16.10.2019
68 Clouds 9 1001 71 10000 3.1 180 20:37 16.10.2019
69 Clouds 9 1001 71 10000 3.1 180 20:37 16.10.2019
70 Clouds 10 1001 71 10000 2.6 170 20:19 16.10.2019
71 Clouds 10 1001 66 10000 2.1 190 19:40 16.10.2019
72 Clouds 10 1001 66 10000 2.1 190 19:40 16.10.2019
73 Clouds 11 1001 66 10000 3.1 200 19:21 16.10.2019
74 Clouds 11 1001 66 10000 3.1 200 19:21 16.10.2019
75 Clouds 11 1001 66 10000 3.1 200 19:21 16.10.2019
76 Clouds 11 1000 66 10000 3.1 210 18:58 16.10.2019
77 Clouds 11 1000 66 10000 3.1 210 18:37 16.10.2019
78 Clouds 12 1000 62 10000 4.1 220 18:18 16.10.2019
79 Clouds 13 1000 58 10000 4.1 220 17:55 16.10.2019
80 Clouds 13 1000 58 10000 4.1 220 17:37 16.10.2019
81 Clouds 13 1000 62 10000 4.1 220 17:18 16.10.2019
82 Clouds 13 1000 58 10000 4.1 240 16:55 16.10.2019
83 Clouds 13 1000 58 10000 4.1 240 16:37 16.10.2019
84 Clouds 13 1000 58 10000 4.6 230 16:18 16.10.2019
85 Clouds 13 1001 62 10000 4.6 250 15:40 16.10.2019
86 Clouds 13 1001 71 10000 5.1 240 15:19 16.10.2019
87 Clouds 13 1001 71 10000 5.1 240 14:58 16.10.2019
88 Clouds 13 1001 71 10000 5.1 240 14:40 16.10.2019
89 Clouds 13 1000 66 10000 5.1 250 14:21 16.10.2019
90 Clouds 13 1000 71 10000 4.1 240 13:58 16.10.2019
91 Clouds 12 1000 71 10000 4.1 240 13:39 16.10.2019
92 Clouds 12 1000 71 10000 4.6 250 13:21 16.10.2019
93 Clouds 12 1000 76 10000 4.6 250 12:44 16.10.2019
94 Clouds 11 1000 81 10000 6.2 250 12:20 16.10.2019
95 Clouds 11 1000 81 10000 4.1 250 11:55 16.10.2019
96 Clouds 10 1000 81 10000 4.1 250 11:37 16.10.2019
97 Clouds 10 999 81 10000 3.6 230 11:18 16.10.2019
98 Clouds 9 999 87 10000 3.6 230 10:36 16.10.2019
99 Clouds 8 999 93 10000 3.1 240 10:18 16.10.2019
100 Clouds 8 998 93 10000 3.6 250 09:41 16.10.2019
101 Clouds 8 998 93 10000 3.6 250 09:40 16.10.2019
102 Clouds 7 998 93 10000 4.6 240 09:22 16.10.2019
103 Clouds 7 997 93 10000 4.1 250 08:57 16.10.2019
104 Clouds 7 997 93 10000 4.1 250 08:38 16.10.2019
105 Clouds 7 997 93 10000 4.1 250 08:20 16.10.2019
106 Clouds 8 997 87 10000 4.1 250 07:42 16.10.2019
107 Clouds 8 997 87 10000 4.1 250 07:23 16.10.2019
108 Clouds 8 996 93 10000 4.6 260 06:51 16.10.2019
109 Clouds 8 995 87 10000 3.6 260 06:30 16.10.2019
110 Clouds 9 995 93 10000 7.7 270 04:48 16.10.2019
111 Clouds 13 994 93 10000 5.7 150 02:51 16.10.2019
112 Drizzle 13 995 87 10000 6.7 150 01:21 16.10.2019
113 Drizzle 13 995 87 10000 6.2 150 00:59 16.10.2019
114 Drizzle 13 995 87 10000 6.2 150 00:40 16.10.2019
115 Clouds 13 996 82 10000 6.7 150 23:59 15.10.2019
116 Clouds 13 996 82 10000 6.7 150 23:38 15.10.2019
117 Clouds 13 996 82 10000 5.7 150 23:20 15.10.2019
118 Clouds 13 996 82 10000 6.2 150 22:55 15.10.2019
119 Clouds 13 996 82 10000 6.2 150 22:37 15.10.2019
120 Clouds 13 996 82 10000 5.1 140 22:18 15.10.2019
121 Clouds 13 996 82 10000 5.1 140 22:18 15.10.2019
122 Clouds 12 997 81 10000 4.1 150 21:55 15.10.2019
123 Clouds 12 997 81 10000 4.1 150 21:36 15.10.2019
124 Clouds 12 997 81 10000 4.1 150 21:36 15.10.2019
125 Clouds 12 998 81 10000 5.7 160 21:18 15.10.2019
126 Clouds 12 998 76 10000 5.1 150 20:55 15.10.2019
127 Clouds 12 998 81 10000 4.6 150 20:37 15.10.2019
128 Clouds 12 998 81 10000 4.6 150 20:19 15.10.2019
129 Clouds 12 998 76 10000 4.6 160 19:55 15.10.2019
130 Clouds 12 998 76 10000 4.6 160 19:36 15.10.2019
131 Clouds 12 998 76 10000 4.6 160 19:36 15.10.2019
132 Clouds 12 998 71 10000 3.6 170 19:18 15.10.2019
133 Clouds 12 999 71 10000 4.1 190 18:42 15.10.2019
134 Clouds 12 999 66 10000 4.1 200 18:23 15.10.2019
135 Clouds 13 999 71 10000 4.6 200 17:55 15.10.2019
136 Clouds 13 999 71 10000 4.6 200 17:37 15.10.2019
137 Clouds 13 999 67 10000 4.1 220 17:18 15.10.2019
138 Clouds 14 999 71 10000 3.1 230 16:43 15.10.2019
139 Clouds 14 999 87 10000 1.5 0 16:22 15.10.2019
140 Rain 13 1000 93 10000 1.5 0 15:57 15.10.2019
141 Rain 13 1000 93 10000 1.5 0 15:57 15.10.2019
142 Rain 13 1000 93 10000 1.5 0 15:39 15.10.2019
143 Rain 13 1000 93 10000 1.5 0 15:39 15.10.2019
144 Drizzle 13 1000 93 7000 2.1 260 15:19 15.10.2019
145 Drizzle 13 1000 93 6000 4.1 150 14:55 15.10.2019
146 Drizzle 13 1000 93 6000 4.1 150 14:55 15.10.2019
147 Drizzle 13 1000 93 6000 4.1 150 14:36 15.10.2019
148 Clouds 13 1000 76 10000 3.1 160 14:18 15.10.2019
149 Clouds 14 1000 76 10000 3.1 150 13:43 15.10.2019
150 Clouds 14 1000 72 10000 2.1 150 13:20 15.10.2019
151 Clouds 13 1001 76 10000 1.5 0 12:46 15.10.2019
152 Clouds 12 1001 87 10000 1.5 0 12:23 15.10.2019
153 Clouds 12 1001 87 10000 2.1 250 11:59 15.10.2019
154 Clouds 12 1001 87 10000 2.1 250 11:41 15.10.2019
155 Clouds 12 1001 87 10000 1.5 0 11:20 15.10.2019
156 Clouds 12 1001 87 10000 1.5 0 11:20 15.10.2019
157 Clouds 11 1001 93 10000 1.5 0 10:46 15.10.2019
158 Clouds 10 1001 100 10000 1 0 10:24 15.10.2019
159 Rain 9 1001 100 10000 1 0 09:59 15.10.2019
160 Rain 8 1001 100 10000 1 0 09:40 15.10.2019
161 Rain 8 1001 100 10000 1 0 09:21 15.10.2019
162 Clouds 9 1001 93 10000 1.5 0 08:58 15.10.2019
163 -273 0 0 0 0 0 08:39 15.10.2019
164 Clouds 9 1001 93 10000 2.6 120 08:19 15.10.2019
165 Clouds 9 1001 93 10000 2.6 110 07:43 15.10.2019
166 Clouds 9 1001 93 10000 1.5 0 07:23 15.10.2019
167 Clouds 9 1001 93 10000 2.1 130 06:57 15.10.2019
168 Clouds 9 1001 93 10000 2.1 130 06:39 15.10.2019
169 Clouds 8 1001 100 10000 2.6 110 05:56 15.10.2019
170 Clouds 8 1001 100 10000 2.6 110 05:36 15.10.2019
171 Clouds 7 1001 100 10000 1 0 04:48 15.10.2019
172 Clouds 6 1001 100 10000 2.6 100 04:19 15.10.2019
173 Fog 8 1002 100 6000 0.5 0 03:35 15.10.2019
174 Fog 8 1002 100 10000 1.5 90 03:35 15.10.2019
175 Clouds 8 1002 93 10000 1.5 80 01:57 15.10.2019
176 Clouds 8 1002 93 10000 1.5 80 01:39 15.10.2019
177 Clouds 9 1003 93 10000 1.5 0 00:59 15.10.2019
178 Clouds 10 1003 93 10000 2.1 110 00:25 15.10.2019
179 Clouds 10 1003 93 10000 1.5 120 23:58 14.10.2019
180 Clouds 11 1003 93 10000 1.5 120 23:37 14.10.2019
181 Clouds 11 1003 93 10000 1.5 120 23:37 14.10.2019
182 Clouds 11 1003 93 10000 2.6 100 23:18 14.10.2019
183 Clouds 11 1003 93 10000 3.1 100 22:39 14.10.2019
184 Clouds 11 1003 87 10000 2.6 100 22:20 14.10.2019
185 Clouds 11 1003 87 10000 2.6 120 21:57 14.10.2019
186 Clouds 11 1003 87 10000 3.6 130 21:39 14.10.2019
187 Clouds 11 1003 87 10000 3.6 130 21:20 14.10.2019
188 Clouds 12 1003 87 10000 2.6 130 20:57 14.10.2019
189 Clouds 12 1003 87 10000 3.6 140 20:38 14.10.2019
190 Clouds 12 1003 87 10000 3.6 140 20:19 14.10.2019
191 Clouds 12 1003 87 10000 4.6 140 19:44 14.10.2019
192 -273 0 0 0 0 0 19:26 14.10.2019
193 Clouds 13 1002 87 10000 5.1 130 18:59 14.10.2019
194 Clouds 13 1002 87 10000 5.1 130 18:40 14.10.2019
195 Clouds 13 1003 87 10000 4.6 140 18:21 14.10.2019
196 Clouds 13 1003 82 10000 4.6 140 17:59 14.10.2019
197 Clouds 13 1003 82 10000 4.6 140 17:41 14.10.2019
198 Clouds 14 1003 82 10000 5.7 140 17:22 14.10.2019
199 Clouds 14 1003 87 10000 5.1 140 16:45 14.10.2019
200 Clouds 14 1003 82 10000 6.2 140 16:22 14.10.2019
201 Clouds 14 1003 87 10000 4.6 140 15:58 14.10.2019
202 Clouds 14 1003 87 10000 4.6 140 15:38 14.10.2019
203 Clouds 14 1003 93 10000 5.1 140 15:20 14.10.2019
204 Clouds 13 1003 93 10000 5.7 140 14:43 14.10.2019
205 Drizzle 13 1003 93 10000 5.1 140 14:24 14.10.2019
206 Rain 13 1004 87 10000 6.2 140 13:57 14.10.2019
207 Rain 13 1004 87 10000 6.2 140 13:39 14.10.2019
208 Rain 13 1004 93 10000 5.1 140 13:20 14.10.2019
209 Rain 12 1004 87 10000 4.6 140 12:41 14.10.2019
210 Rain 12 1004 93 10000 6.2 150 12:20 14.10.2019
211 Rain 12 1004 100 10000 2.6 150 11:48 14.10.2019
212 Rain 11 1004 100 10000 1 0 11:27 14.10.2019
213 Rain 11 1004 100 10000 3.1 110 10:59 14.10.2019
214 Rain 10 1004 100 10000 3.1 110 10:41 14.10.2019
215 Rain 10 1004 100 3500 4.1 90 10:21 14.10.2019
216 Rain 10 1004 100 3500 4.1 90 10:21 14.10.2019
217 Rain 10 1004 93 8000 2.6 100 09:57 14.10.2019
218 Rain 9 1004 93 8000 2.6 100 09:38 14.10.2019
219 Rain 9 1004 100 10000 2.1 90 09:19 14.10.2019
220 Rain 9 1004 93 10000 4.1 70 08:46 14.10.2019
221 Rain 9 1005 93 10000 4.1 70 08:23 14.10.2019
222 Clouds 8 1005 100 10000 2.6 80 07:44 14.10.2019
223 Rain 7 1005 100 10000 2.6 90 07:21 14.10.2019
224 Clouds 7 1005 93 10000 2.6 80 06:54 14.10.2019
225 Clouds 6 1006 93 10000 3.1 80 06:27 14.10.2019
226 Clouds 5 1006 100 10000 2.6 90 05:50 14.10.2019
227 Clouds 4 1006 93 10000 1.5 120 04:49 14.10.2019
228 Clouds 4 1006 100 10000 2.12 90.594 03:48 14.10.2019
229 Clouds 5 1006 93 10000 1 0 03:21 14.10.2019
230 Clouds 6 1006 93 10000 2.6 210 01:36 14.10.2019
231 Clouds 7 1006 87 10000 2.1 210 01:18 14.10.2019
232 Clouds 7 1005 87 10000 1.5 0 00:21 14.10.2019
233 Clouds 7 1005 87 10000 1.5 0 23:46 13.10.2019
234 Clouds 7 1005 93 10000 2.1 250 23:21 13.10.2019
235 Clouds 7 1005 87 10000 1.5 0 22:59 13.10.2019
236 Clouds 7 1005 87 10000 1.5 0 22:41 13.10.2019
237 Clouds 7 1005 93 10000 2.6 290 22:21 13.10.2019
238 Clouds 8 1004 81 10000 2.6 220 21:58 13.10.2019
239 Clouds 8 1004 81 10000 2.6 220 21:38 13.10.2019
240 Clouds 9 1004 81 10000 2.6 220 21:19 13.10.2019
241 Clouds 9 1003 81 10000 2.6 230 20:58 13.10.2019
242 Clouds 9 1003 81 10000 2.6 230 20:58 13.10.2019
243 Clouds 9 1003 81 10000 2.6 230 20:58 13.10.2019
244 Clouds 9 1003 81 10000 2.6 230 20:39 13.10.2019
245 Clouds 9 1003 81 10000 2.6 230 20:39 13.10.2019
246 Rain 10 1003 81 10000 2.6 220 20:21 13.10.2019
247 Rain 10 1003 81 10000 2.6 220 20:21 13.10.2019
248 Rain 11 1002 76 10000 1.5 0 19:59 13.10.2019
249 Rain 10 1002 81 10000 1.5 0 19:39 13.10.2019
250 Rain 10 1002 81 10000 1.5 0 19:21 13.10.2019
251 Clouds 11 1002 76 10000 2.6 220 18:58 13.10.2019
252 Clouds 12 1002 76 10000 2.6 220 18:37 13.10.2019
253 Clouds 12 1001 71 10000 2.6 240 18:19 13.10.2019
254 Clouds 12 1001 71 10000 2.6 240 18:19 13.10.2019
255 Clouds 12 1001 71 10000 3.1 240 17:57 13.10.2019
256 Clouds 13 1001 71 10000 3.1 240 17:39 13.10.2019
257 Clouds 13 1001 76 10000 2.1 280 17:21 13.10.2019
258 Clouds 13 1001 76 10000 3.1 270 16:43 13.10.2019
259 Clouds 12 1000 81 10000 4.1 280 16:19 13.10.2019
260 Rain 12 1000 81 10000 5.1 280 15:57 13.10.2019
261 Rain 12 1000 81 10000 5.1 280 15:57 13.10.2019
262 Rain 11 1000 81 10000 5.1 280 15:38 13.10.2019
263 Rain 11 1000 87 10000 4.6 290 15:19 13.10.2019
264 Rain 11 1000 81 10000 5.1 310 14:57 13.10.2019
265 Rain 11 1000 81 10000 5.1 310 14:56 13.10.2019
266 Rain 11 1000 81 10000 5.1 310 14:38 13.10.2019
267 Rain 11 999 81 10000 4.6 310 14:18 13.10.2019
268 Rain 10 999 87 10000 4.1 330 13:41 13.10.2019
269 Rain 10 999 93 10000 3.6 340 13:22 13.10.2019
270 Rain 10 999 100 10000 3.6 320 12:59 13.10.2019
271 Rain 9 999 100 10000 3.6 320 12:39 13.10.2019
272 Rain 9 999 100 10000 2.6 360 12:20 13.10.2019
273 Rain 9 999 100 10000 3.1 30 11:58 13.10.2019
274 Rain 9 999 100 10000 3.1 30 11:39 13.10.2019
275 Rain 9 999 93 10000 2.6 360 11:20 13.10.2019
276 Rain 8 999 100 10000 2.1 330 10:43 13.10.2019
277 Rain 8 1000 100 10000 1 0 10:24 13.10.2019
278 Rain 9 999 93 10000 0.5 0 09:59 13.10.2019
279 Rain 9 999 93 10000 0.5 0 09:59 13.10.2019
280 Rain 8 999 93 10000 0.5 0 09:39 13.10.2019
281 Rain 9 999 93 10000 1 0 09:20 13.10.2019
282 Rain 9 999 100 10000 1 0 08:43 13.10.2019
283 Rain 9 999 93 10000 1.5 0 08:25 13.10.2019
284 Rain 9 999 93 10000 1.5 0 08:25 13.10.2019
285 Rain 9 1000 93 10000 1.5 160 07:51 13.10.2019
286 Rain 8 1000 100 10000 1.5 150 07:32 13.10.2019
287 Clouds 8 1000 93 10000 1.5 0 06:51 13.10.2019
288 Clouds 8 1000 100 10000 1 0 06:23 13.10.2019
289 Clouds 8 1001 100 10000 1 120 04:59 13.10.2019
290 Clouds 8 1001 100 10000 1 120 04:33 13.10.2019
291 Clouds 9 1002 93 10000 1.5 180 02:50 13.10.2019
292 Clouds 8 1002 100 10000 2.1 200 02:27 13.10.2019
293 Clouds 8 1003 93 10000 2.1 190 01:34 13.10.2019
294 Clouds 9 1003 87 10000 0.5 360 00:53 13.10.2019
295 Clouds 9 1003 87 10000 2.1 190 00:23 13.10.2019
296 Clouds 9 1003 87 10000 1 0 23:59 12.10.2019
297 Clouds 9 1003 87 10000 1 0 23:40 12.10.2019
298 Clouds 10 1003 81 10000 1.5 0 23:22 12.10.2019
299 Clouds 9 1003 81 10000 1.5 0 22:58 12.10.2019
300 Clouds 10 1003 81 10000 1.5 0 22:40 12.10.2019
301 Clouds 9 1003 87 10000 1.5 0 22:21 12.10.2019
302 Clouds 10 1003 81 10000 1.5 0 21:56 12.10.2019
303 Clouds 10 1003 81 10000 1.5 0 21:38 12.10.2019
304 Clouds 10 1003 81 10000 2.6 230 21:19 12.10.2019
305 Clouds 10 1003 81 10000 2.1 220 20:44 12.10.2019
306 Rain 10 1003 76 10000 2.1 240 20:26 12.10.2019
307 Rain 11 1003 81 10000 5.1 200 19:42 12.10.2019
308 Rain 12 1003 71 10000 1.5 0 19:23 12.10.2019
309 Rain 13 1003 66 10000 2.1 200 18:59 12.10.2019
310 Rain 13 1003 66 10000 2.1 200 18:59 12.10.2019
311 Rain 13 1003 66 10000 2.1 200 18:41 12.10.2019
312 Rain 14 1003 62 10000 2.6 210 18:23 12.10.2019
313 Rain 14 1003 58 10000 3.1 240 17:45 12.10.2019
314 Rain 14 1003 58 10000 4.1 220 17:20 12.10.2019
315 Rain 14 1003 58 10000 5.1 210 16:56 12.10.2019
316 Rain 14 1003 58 10000 5.1 210 16:38 12.10.2019
317 Rain 15 1003 62 10000 3.6 210 16:19 12.10.2019
318 Rain 15 1004 71 10000 3.6 230 15:44 12.10.2019
319 Clouds 15 1004 67 10000 3.1 250 15:25 12.10.2019
320 Clouds 15 1004 67 10000 3.1 250 15:25 12.10.2019
321 Clouds 15 1004 67 10000 3.1 250 15:25 12.10.2019
322 Clouds 14 1004 62 10000 3.6 230 14:57 12.10.2019
323 Clouds 15 1004 62 10000 3.6 230 14:38 12.10.2019
324 Clouds 14 1004 67 10000 3.6 230 14:19 12.10.2019
325 Clouds 13 1004 66 10000 4.1 230 13:44 12.10.2019
326 Clouds 13 1004 66 10000 4.1 230 13:26 12.10.2019
327 Clouds 13 1004 71 10000 3.6 230 12:41 12.10.2019
328 Clouds 12 1004 76 10000 4.1 220 12:22 12.10.2019
329 Clouds 12 1004 76 10000 4.1 220 12:22 12.10.2019
330 Clouds 12 1004 76 10000 3.1 230 11:59 12.10.2019
331 Clouds 11 1004 76 10000 3.1 230 11:40 12.10.2019
332 Clouds 10 1004 81 10000 3.1 220 11:22 12.10.2019
333 Clouds 10 1004 81 10000 2.6 230 10:56 12.10.2019
334 Clouds 9 1004 81 10000 2.6 230 10:37 12.10.2019
335 Clouds 8 1003 93 10000 2.6 210 10:18 12.10.2019
336 -273 0 0 0 0 0 09:55 12.10.2019
337 Clouds 7 1003 93 10000 2.6 220 09:37 12.10.2019
338 Clouds 6 1003 93 10000 2.6 220 09:19 12.10.2019
339 Clouds 7 1003 93 10000 2.6 220 08:42 12.10.2019
340 Clouds 7 1003 93 10000 2.6 220 08:22 12.10.2019
341 Clouds 7 1003 93 10000 2.6 210 07:40 12.10.2019
342 Clouds 7 1003 93 10000 2.6 220 07:22 12.10.2019
343 Clouds 7 1003 93 10000 2.6 230 05:54 12.10.2019
344 Clouds 7 1003 93 10000 2.1 220 05:25 12.10.2019
345 Clouds 8 1003 93 10000 2.6 230 04:29 12.10.2019
346 Clouds 8 1003 93 10000 3.1 230 03:42 12.10.2019
347 Clouds 9 1003 87 10000 2.6 240 02:37 12.10.2019
348 Clouds 9 1003 81 10000 3.1 240 01:30 12.10.2019
349 Clouds 10 1002 81 10000 3.1 230 00:44 12.10.2019
350 Clouds 10 1002 81 10000 3.1 240 00:24 12.10.2019
351 Clouds 10 1002 81 10000 3.6 230 23:41 11.10.2019
352 Clouds 10 1002 81 10000 3.6 230 23:21 11.10.2019
353 Clouds 10 1002 87 10000 3.6 230 22:59 11.10.2019
354 Clouds 10 1002 87 10000 3.6 230 22:37 11.10.2019
355 Clouds 10 1001 81 10000 4.1 230 22:18 11.10.2019
356 Clouds 10 1001 81 10000 4.6 240 21:40 11.10.2019
357 Clouds 10 1000 81 10000 4.1 240 21:21 11.10.2019
358 Clouds 11 1000 81 10000 4.6 230 20:54 11.10.2019
359 Clouds 11 1000 81 10000 4.6 230 20:54 11.10.2019
360 Clouds 11 1000 81 10000 4.6 230 20:36 11.10.2019
361 Clouds 11 1000 81 10000 4.6 240 20:18 11.10.2019
362 Clouds 11 1000 71 10000 4.6 240 19:54 11.10.2019
363 Clouds 11 1000 71 10000 4.6 240 19:54 11.10.2019
364 Clouds 11 1000 71 10000 4.6 240 19:36 11.10.2019
365 Clouds 11 1000 76 10000 6.2 250 19:18 11.10.2019
366 Clouds 11 1000 76 10000 6.2 250 19:18 11.10.2019
367 Rain 12 1000 76 10000 5.7 250 18:39 11.10.2019
368 Rain 12 1000 76 10000 5.7 250 18:19 11.10.2019
369 Rain 12 1000 76 10000 6.7 250 17:59 11.10.2019
370 Clouds 12 1000 71 10000 6.2 250 17:38 11.10.2019
371 Clouds 13 1000 71 10000 6.2 250 17:19 11.10.2019
372 Clouds 13 1000 76 10000 6.2 250 16:59 11.10.2019
373 Clouds 13 1000 76 10000 6.2 250 16:39 11.10.2019
374 Clouds 13 1000 76 10000 6.2 250 16:39 11.10.2019
375 Clouds 13 1000 76 10000 6.2 250 16:39 11.10.2019
376 Clouds 13 999 71 10000 7.2 250 16:19 11.10.2019
377 Clouds 13 1000 66 10000 6.2 250 15:55 11.10.2019
378 Clouds 13 1000 66 10000 6.2 250 15:36 11.10.2019
379 Clouds 13 999 62 10000 6.2 250 15:18 11.10.2019
380 Clouds 14 999 67 10000 6.2 250 14:42 11.10.2019
381 Clouds 14 999 67 10000 5.7 250 14:21 11.10.2019
382 Clouds 14 999 71 10000 6.2 250 13:46 11.10.2019
383 Clouds 13 999 71 10000 6.2 250 13:26 11.10.2019
384 Clouds 13 999 76 10000 4.6 240 12:58 11.10.2019
385 Clouds 13 999 76 10000 4.6 240 12:40 11.10.2019
386 Clouds 13 999 76 10000 5.1 230 12:21 11.10.2019
387 Clouds 12 999 81 10000 4.1 240 11:59 11.10.2019
388 Clouds 12 999 81 10000 4.1 240 11:39 11.10.2019
389 Clouds 11 999 87 10000 4.6 240 11:21 11.10.2019
390 Clouds 11 998 87 10000 4.1 240 10:56 11.10.2019
391 Clouds 11 998 87 10000 4.1 240 10:56 11.10.2019
392 Clouds 11 998 87 10000 4.1 240 10:36 11.10.2019
393 Clouds 10 998 87 10000 4.1 240 10:18 11.10.2019
394 Clouds 10 998 87 10000 3.1 250 09:42 11.10.2019
395 Clouds 11 998 87 10000 2.6 230 09:21 11.10.2019
396 Clouds 11 998 87 10000 3.1 240 08:59 11.10.2019
397 Clouds 11 998 87 10000 3.1 240 08:39 11.10.2019
398 Rain 11 998 87 10000 3.6 230 08:20 11.10.2019
399 Rain 11 998 87 10000 3.6 230 07:53 11.10.2019
400 Rain 11 998 87 10000 3.6 240 07:34 11.10.2019
401 Clouds 11 998 87 10000 5.1 240 06:50 11.10.2019
402 Clouds 12 998 81 10000 5.1 230 06:25 11.10.2019
403 Clouds 12 998 81 10000 6.2 240 05:48 11.10.2019
404 Rain 12 999 81 10000 5.7 240 05:30 11.10.2019
405 Rain 12 999 87 10000 5.7 230 04:58 11.10.2019
406 Rain 12 1000 87 10000 5.1 230 03:40 11.10.2019
407 Rain 13 1000 93 10000 8.7 260 01:26 11.10.2019
408 Clouds 13 999 82 10000 7.7 230 00:31 11.10.2019
409 Rain 13 999 82 10000 7.2 230 23:58 10.10.2019
410 Rain 13 999 82 10000 7.2 230 23:40 10.10.2019
411 Clouds 13 999 82 10000 6.7 220 23:19 10.10.2019
412 Clouds 13 999 82 10000 7.2 230 22:56 10.10.2019
413 Clouds 13 999 82 10000 7.2 230 22:36 10.10.2019
414 Rain 13 1000 82 10000 6.7 240 22:18 10.10.2019
415 Rain 13 1000 82 10000 6.7 240 22:18 10.10.2019
416 Rain 13 1000 82 10000 6.2 240 21:42 10.10.2019
417 Rain 13 1000 82 10000 6.2 240 21:42 10.10.2019
418 Clouds 13 1000 82 10000 6.7 240 21:22 10.10.2019
419 Clouds 12 1000 87 10000 6.2 240 20:59 10.10.2019
420 Clouds 12 1000 87 10000 6.2 240 20:40 10.10.2019
421 Rain 12 1000 87 10000 5.1 240 20:20 10.10.2019
422 Rain 13 1000 87 10000 5.7 240 19:57 10.10.2019
423 Rain 13 1000 87 10000 5.7 240 19:39 10.10.2019
424 Rain 12 1000 100 8000 5.7 260 19:19 10.10.2019
425 Rain 14 1000 87 10000 5.1 250 18:42 10.10.2019
426 Drizzle 14 1001 82 8000 7.7 230 18:21 10.10.2019
427 Rain 15 1001 67 10000 5.7 240 17:59 10.10.2019
428 Rain 15 1001 67 10000 5.7 240 17:40 10.10.2019
429 Rain 15 1000 63 10000 7.2 240 17:19 10.10.2019
430 Clouds 16 1001 59 10000 7.2 240 16:57 10.10.2019
431 Clouds 16 1001 67 10000 7.2 240 16:37 10.10.2019
432 Clouds 16 1001 67 10000 7.2 240 16:19 10.10.2019
433 Clouds 15 1002 72 10000 7.7 230 15:42 10.10.2019
434 Clouds 15 1002 77 10000 7.2 230 15:23 10.10.2019
435 Drizzle 15 1003 77 10000 7.2 230 14:58 10.10.2019
436 Clouds 15 1003 82 10000 6.7 230 14:37 10.10.2019
437 Clouds 15 1003 82 10000 6.7 230 14:19 10.10.2019
438 Rain 14 1003 82 10000 6.2 220 13:58 10.10.2019
439 Rain 13 1003 82 10000 6.2 220 13:39 10.10.2019
440 Clouds 13 1004 82 10000 6.2 220 13:18 10.10.2019
441 Clouds 12 1005 87 10000 5.7 210 12:42 10.10.2019
442 Rain 11 1005 87 10000 4.6 190 12:21 10.10.2019
443 Rain 11 1006 87 10000 4.6 200 11:58 10.10.2019
444 Rain 11 1006 87 10000 4.6 200 11:40 10.10.2019
445 Rain 10 1006 93 10000 4.1 210 11:19 10.10.2019
446 Rain 10 1006 93 9000 4.1 230 10:47 10.10.2019
447 Clouds 10 1006 87 10000 4.6 220 10:28 10.10.2019
448 Clouds 10 1006 87 10000 4.6 220 10:28 10.10.2019
449 Clouds 10 1006 87 10000 4.1 230 09:59 10.10.2019
450 Clouds 10 1006 87 10000 4.1 230 09:41 10.10.2019
451 Clouds 10 1006 87 10000 4.1 230 09:23 10.10.2019
452 Clouds 10 1006 87 10000 3.6 240 08:59 10.10.2019
453 Clouds 10 1006 87 10000 3.6 240 08:40 10.10.2019
454 Clouds 10 1006 87 10000 3.6 230 08:20 10.10.2019
455 Clouds 10 1006 87 10000 5.1 230 07:47 10.10.2019
456 Clouds 10 1006 87 10000 4.6 240 07:26 10.10.2019
457 Clouds 10 1006 87 10000 4.6 250 06:55 10.10.2019
458 Clouds 10 1006 81 10000 5.1 240 06:36 10.10.2019
459 Clouds 10 1005 81 10000 5.1 250 05:39 10.10.2019
460 Clouds 10 1005 87 10000 6.2 250 05:18 10.10.2019
461 Clouds 10 1005 87 10000 6.2 240 04:34 10.10.2019
462 Clouds 9 1004 87 10000 5.7 250 02:29 10.10.2019
463 Clouds 9 1004 87 10000 5.1 240 01:37 10.10.2019
464 Clouds 9 1004 87 10000 5.1 240 01:18 10.10.2019
465 Clouds 9 1004 87 10000 5.1 250 00:29 10.10.2019
466 Clouds 9 1004 87 10000 5.1 240 23:42 09.10.2019
467 Clouds 9 1003 87 10000 4.6 240 23:24 09.10.2019
468 Clouds 10 1003 81 10000 5.1 250 22:59 09.10.2019
469 Clouds 10 1003 81 10000 5.1 250 22:41 09.10.2019
470 Clouds 9 1003 87 10000 5.1 240 22:22 09.10.2019
471 Clouds 9 1003 87 10000 5.1 240 22:22 09.10.2019
472 Clouds 10 1003 81 10000 5.1 250 21:56 09.10.2019
473 Clouds 10 1003 81 10000 5.1 250 21:56 09.10.2019
474 Clouds 10 1003 81 10000 5.1 250 21:38 09.10.2019
475 Clouds 10 1003 81 10000 5.1 250 21:38 09.10.2019
476 Clouds 10 1002 81 10000 4.6 240 21:18 09.10.2019
477 Clouds 9 1002 87 10000 3.6 240 20:54 09.10.2019
478 Clouds 9 1002 87 10000 3.6 240 20:36 09.10.2019
479 Clouds 10 1002 81 10000 5.1 250 20:18 09.10.2019
480 Clouds 10 1002 81 10000 5.1 250 20:18 09.10.2019
481 Clouds 10 1002 81 10000 4.1 240 19:43 09.10.2019
482 Clouds 10 1001 81 10000 5.1 250 19:22 09.10.2019
483 Rain 11 1001 81 10000 4.6 250 18:39 09.10.2019
484 Rain 11 1001 93 10000 6.2 290 18:21 09.10.2019
485 Rain 12 1001 71 10000 6.2 250 17:58 09.10.2019
486 Rain 12 1001 71 10000 6.2 250 17:40 09.10.2019
487 Clouds 12 1000 66 10000 6.7 250 17:22 09.10.2019
488 Clouds 12 1000 66 10000 6.7 250 16:57 09.10.2019
489 Clouds 12 1000 66 10000 6.7 250 16:38 09.10.2019
490 Clouds 12 1000 62 10000 6.7 240 16:20 09.10.2019
491 Clouds 12 1000 62 10000 6.7 240 16:20 09.10.2019
492 Clouds 12 1000 62 10000 7.7 240 15:55 09.10.2019
493 Clouds 12 1000 62 10000 7.7 240 15:37 09.10.2019
494 Clouds 12 1000 62 10000 7.7 240 15:37 09.10.2019
495 Clouds 12 1000 66 10000 6.7 250 15:18 09.10.2019
496 Clouds 12 1001 71 10000 7.2 250 14:45 09.10.2019
497 Clouds 12 1001 71 10000 4.6 240 14:19 09.10.2019
498 Clouds 12 1001 71 10000 7.2 240 13:59 09.10.2019
499 Clouds 11 1001 71 10000 7.2 240 13:38 09.10.2019
500 Clouds 11 1001 71 10000 5.7 250 13:18 09.10.2019
501 Clouds 11 1000 76 10000 4.6 240 12:44 09.10.2019
502 Clouds 10 1001 81 10000 5.1 240 12:23 09.10.2019
503 Clouds 10 1001 81 10000 5.7 240 11:58 09.10.2019
504 Clouds 10 1001 81 10000 5.7 240 11:39 09.10.2019
505 Clouds 10 1000 76 10000 6.7 250 11:20 09.10.2019
506 Clouds 9 1000 81 10000 5.1 240 10:58 09.10.2019
507 Clouds 9 1000 81 10000 5.1 240 10:40 09.10.2019
508 Clouds 9 1000 81 10000 5.7 240 10:18 09.10.2019
509 Clouds 8 1000 87 10000 4.6 240 09:43 09.10.2019
510 Clouds 8 1000 87 10000 5.7 250 09:20 09.10.2019
511 Clouds 8 1000 87 10000 5.1 240 08:57 09.10.2019
512 Clouds 8 1000 87 10000 5.1 240 08:37 09.10.2019
513 Clouds 8 1000 87 10000 5.1 240 08:37 09.10.2019
514 Clouds 8 1000 87 10000 5.1 240 08:18 09.10.2019
515 Clouds 8 1000 87 10000 5.1 240 07:46 09.10.2019
516 Clouds 8 1000 87 10000 4.1 240 07:24 09.10.2019
517 Clouds 8 1000 87 10000 4.6 240 06:54 09.10.2019
518 Clouds 9 1000 81 10000 4.6 240 06:20 09.10.2019
519 Clouds 9 1000 87 10000 4.6 240 05:46 09.10.2019
520 Clouds 9 1000 87 10000 4.6 240 05:46 09.10.2019
521 Clouds 9 1000 87 10000 4.1 230 04:41 09.10.2019
522 Clouds 9 1000 87 10000 4.1 230 03:24 09.10.2019
523 Clouds 10 1000 81 10000 6.2 240 01:48 09.10.2019
524 Clouds 10 1000 81 10000 6.7 250 01:21 09.10.2019
525 Clouds 10 1000 81 10000 6.7 250 00:58 09.10.2019
526 Clouds 10 1000 81 10000 6.7 250 00:40 09.10.2019
527 Clouds 10 1000 81 10000 5.7 240 00:21 09.10.2019
528 Clouds 10 1000 81 10000 5.1 230 23:57 08.10.2019
529 Clouds 10 1000 81 10000 5.1 230 23:36 08.10.2019
530 Rain 10 1000 81 10000 5.7 230 23:18 08.10.2019
531 Rain 10 1000 81 10000 5.1 230 22:39 08.10.2019
532 Clouds 10 1000 81 10000 4.6 240 22:20 08.10.2019
533 Clouds 10 1000 81 10000 4.6 240 22:20 08.10.2019
534 Clouds 10 1000 81 10000 4.6 240 22:20 08.10.2019
535 Clouds 10 1000 81 10000 5.7 230 21:57 08.10.2019
536 Clouds 10 1000 81 10000 5.7 230 21:39 08.10.2019
537 Clouds 11 1000 76 10000 5.7 240 21:19 08.10.2019
538 Clouds 11 1000 76 10000 5.1 240 20:57 08.10.2019
539 Clouds 11 1000 76 10000 5.1 240 20:39 08.10.2019
540 Rain 11 999 81 10000 4.6 240 20:21 08.10.2019
541 Rain 11 999 81 10000 5.1 240 19:58 08.10.2019
542 Rain 11 999 81 10000 5.1 240 19:58 08.10.2019
543 Rain 11 999 81 10000 5.1 240 19:40 08.10.2019
544 Clouds 12 999 76 10000 5.7 240 19:21 08.10.2019
545 Clouds 12 999 76 10000 5.7 240 19:21 08.10.2019
546 Rain 12 999 71 10000 6.7 240 18:55 08.10.2019
547 Rain 12 999 71 10000 6.7 240 18:36 08.10.2019
548 Clouds 13 999 66 10000 7.2 250 18:18 08.10.2019
549 Clouds 12 998 66 10000 8.7 240 17:40 08.10.2019
550 Rain 12 998 66 10000 7.7 250 17:21 08.10.2019
551 Rain 13 999 62 10000 7.2 240 16:59 08.10.2019
552 Rain 13 999 62 10000 7.2 240 16:40 08.10.2019
553 Rain 13 998 62 10000 7.7 240 16:21 08.10.2019
554 Rain 14 999 62 10000 7.2 250 15:41 08.10.2019
555 Rain 14 999 62 10000 7.2 240 15:22 08.10.2019
556 Clouds 14 999 58 10000 7.7 250 14:58 08.10.2019
557 Clouds 14 999 58 10000 7.7 250 14:58 08.10.2019
558 Clouds 14 999 58 10000 7.7 250 14:39 08.10.2019
559 Clouds 13 1000 66 10000 7.7 230 14:21 08.10.2019
560 Clouds 13 1000 66 10000 6.7 230 13:57 08.10.2019
561 Clouds 13 1000 66 10000 6.7 230 13:38 08.10.2019
562 Clouds 13 1000 66 10000 6.2 230 13:19 08.10.2019
563 Clouds 13 1000 66 10000 5.1 230 12:58 08.10.2019
564 Clouds 13 1000 66 10000 5.1 230 12:38 08.10.2019
565 Clouds 12 1000 71 10000 5.7 240 12:18 08.10.2019
566 Clouds 12 1000 71 10000 5.7 240 11:42 08.10.2019
567 Clouds 12 1000 71 10000 6.7 240 11:24 08.10.2019
568 Clouds 11 1000 76 10000 5.1 240 10:58 08.10.2019
569 Clouds 11 1000 76 10000 5.1 240 10:37 08.10.2019
570 Clouds 11 1001 76 10000 6.2 230 10:19 08.10.2019
571 Clouds 10 1001 76 10000 4.6 220 09:55 08.10.2019
572 Clouds 10 1001 76 10000 4.6 220 09:37 08.10.2019
573 Clouds 10 1001 76 10000 5.1 230 09:19 08.10.2019
574 Clouds 10 1001 76 10000 5.1 240 08:42 08.10.2019
575 Clouds 11 1000 76 10000 5.1 240 08:23 08.10.2019
576 Clouds 11 1000 76 10000 5.1 240 08:23 08.10.2019
577 Clouds 11 1001 81 10000 6.7 240 07:44 08.10.2019
578 Clouds 11 1001 81 10000 5.7 230 07:21 08.10.2019
579 Clouds 11 1001 81 10000 5.7 230 06:51 08.10.2019
580 Clouds 11 1001 81 10000 6.2 220 06:28 08.10.2019
581 Clouds 11 1001 81 10000 5.7 220 05:46 08.10.2019
582 Clouds 11 1002 81 10000 6.2 220 05:26 08.10.2019
583 Clouds 11 1002 81 10000 4.6 230 04:31 08.10.2019
584 Clouds 11 1003 81 10000 5.7 220 03:27 08.10.2019
585 Clear 11 1003 81 10000 5.1 220 02:36 08.10.2019
586 Clear 11 1003 81 10000 5.7 230 01:45 08.10.2019
587 Clear 11 1004 81 10000 4.6 220 01:26 08.10.2019
588 Clouds 11 1004 81 10000 4.6 230 00:46 08.10.2019
589 Clouds 11 1004 76 10000 5.1 230 00:20 08.10.2019
590 Clouds 11 1004 81 10000 5.1 230 23:39 07.10.2019
591 Clouds 11 1005 76 10000 4.1 230 23:20 07.10.2019
592 Clouds 11 1005 81 10000 2.6 230 22:56 07.10.2019
593 Clouds 11 1005 81 10000 2.6 230 22:37 07.10.2019
594 Rain 12 1005 81 10000 3.6 230 22:19 07.10.2019
595 Rain 12 1005 81 10000 4.1 230 21:55 07.10.2019
596 Rain 12 1005 81 10000 4.1 230 21:37 07.10.2019
597 Rain 12 1005 82 8000 3.6 240 21:18 07.10.2019
598 Clouds 12 1005 71 10000 2.1 230 20:57 07.10.2019
599 Clouds 12 1005 71 10000 2.1 230 20:38 07.10.2019
600 Clouds 13 1005 71 10000 2.6 230 20:19 07.10.2019
601 Clouds 14 1005 67 10000 3.1 220 19:55 07.10.2019
602 Clouds 14 1005 67 10000 3.1 220 19:54 07.10.2019
603 Clouds 14 1005 67 10000 3.1 220 19:54 07.10.2019
604 Clouds 14 1005 67 10000 3.1 220 19:36 07.10.2019
605 Clouds 15 1005 62 10000 4.1 240 19:18 07.10.2019
606 Clouds 15 1005 59 10000 4.6 240 18:42 07.10.2019
607 Clouds 16 1005 67 10000 4.6 250 18:19 07.10.2019
608 Rain 15 1005 82 10000 6.2 270 17:58 07.10.2019
609 Rain 16 1005 82 10000 6.2 270 17:40 07.10.2019
610 Rain 16 1005 82 10000 6.2 270 17:40 07.10.2019
611 Rain 16 1005 82 10000 6.2 270 17:40 07.10.2019
612 Clouds 16 1005 67 10000 4.6 220 17:19 07.10.2019
613 Clouds 16 1006 67 10000 4.6 230 16:46 07.10.2019
614 Clouds 16 1006 67 10000 4.6 230 16:46 07.10.2019
615 Clouds 16 1006 67 10000 5.7 230 16:28 07.10.2019
616 Clouds 16 1006 72 10000 5.7 240 15:57 07.10.2019
617 Clouds 16 1006 72 10000 5.7 240 15:39 07.10.2019
618 Clouds 16 1006 72 10000 5.7 230 15:21 07.10.2019
619 Clouds 15 1006 77 10000 5.7 230 14:41 07.10.2019
620 Clouds 15 1006 77 10000 5.7 230 14:23 07.10.2019
621 Clouds 15 1006 77 10000 4.6 230 13:45 07.10.2019
622 Clouds 14 1006 77 10000 4.6 240 13:21 07.10.2019
623 Clouds 14 1006 82 10000 4.1 230 12:58 07.10.2019
624 Clouds 14 1006 82 10000 4.1 230 12:58 07.10.2019
625 Clouds 14 1006 82 10000 4.1 230 12:40 07.10.2019
626 Clouds 14 1006 82 10000 3.6 240 12:21 07.10.2019
627 Clouds 14 1006 82 10000 3.6 230 11:59 07.10.2019
628 Clouds 14 1006 82 10000 3.6 230 11:40 07.10.2019
629 Clouds 14 1006 82 10000 3.6 230 11:40 07.10.2019
630 Clouds 14 1006 87 10000 4.1 220 11:21 07.10.2019
631 Drizzle 14 1006 87 10000 3.1 210 10:56 07.10.2019
632 Drizzle 14 1006 87 10000 3.1 210 10:37 07.10.2019
633 Drizzle 14 1005 87 10000 5.1 160 10:19 07.10.2019
634 Drizzle 13 1006 87 10000 6.2 170 09:38 07.10.2019
635 Rain 13 1006 82 10000 7.2 170 09:20 07.10.2019
636 Clouds 13 1006 82 10000 7.7 170 08:43 07.10.2019
637 Drizzle 13 1006 87 10000 8.7 160 08:20 07.10.2019
638 Drizzle 13 1006 87 10000 7.2 150 07:49 07.10.2019
639 Drizzle 12 1006 93 10000 9.8 160 07:28 07.10.2019
640 Rain 12 1007 93 10000 9.8 160 06:58 07.10.2019
641 Rain 12 1007 93 10000 9.8 160 06:39 07.10.2019
642 Rain 12 1007 93 10000 7.7 150 06:20 07.10.2019
643 Rain 11 1009 93 10000 6.7 150 05:26 07.10.2019
644 Rain 11 1009 87 10000 7.2 150 04:50 07.10.2019
645 Rain 11 1010 87 10000 8.2 160 03:48 07.10.2019
646 Rain 11 1010 87 10000 8.2 160 03:48 07.10.2019
647 Rain 11 1012 87 10000 5.7 150 03:30 07.10.2019
648 Rain 11 1012 81 10000 3.6 150 02:37 07.10.2019
649 Rain 11 1012 76 10000 3.6 170 02:19 07.10.2019
650 Rain 11 1012 76 10000 3.6 170 02:19 07.10.2019
651 Rain 11 1012 76 10000 3.1 170 01:23 07.10.2019
652 Rain 11 1012 81 10000 4.1 160 00:53 07.10.2019
653 Clear 11 1013 81 10000 3.1 170 00:26 07.10.2019
654 Clear 11 1013 81 10000 2.6 160 23:59 06.10.2019
655 Clear 11 1013 81 10000 2.6 160 23:40 06.10.2019
656 Clear 11 1013 81 10000 2.6 170 23:20 06.10.2019
657 Clear 11 1014 81 10000 1.5 0 22:56 06.10.2019
658 Clear 11 1014 81 10000 1.5 0 22:37 06.10.2019
659 Clear 11 1014 81 10000 1.5 0 22:37 06.10.2019
660 Clear 10 1014 87 10000 2.1 130 22:19 06.10.2019
661 Clouds 10 1014 87 10000 2.1 190 21:55 06.10.2019
662 Clouds 10 1014 87 10000 2.1 190 21:36 06.10.2019
663 Clouds 10 1015 81 10000 1.5 180 21:18 06.10.2019
664 Clouds 10 1015 81 10000 2.1 240 20:54 06.10.2019
665 Clouds 10 1015 81 10000 2.1 240 20:36 06.10.2019
666 Clouds 10 1015 81 10000 2.1 240 20:36 06.10.2019
667 Clouds 11 1015 71 10000 2.1 250 20:36 06.10.2019
668 Clouds 12 1015 71 10000 2.1 250 20:18 06.10.2019
669 Clouds 12 1015 76 10000 2.1 260 19:55 06.10.2019
670 Clouds 12 1015 76 10000 2.1 260 19:55 06.10.2019
671 Clouds 12 1015 76 10000 2.1 260 19:36 06.10.2019
672 Clouds 13 1015 71 10000 3.1 260 19:18 06.10.2019
673 Clouds 13 1015 76 10000 4.6 270 18:55 06.10.2019
674 Clouds 13 1015 76 10000 4.6 270 18:55 06.10.2019
675 Clouds 13 1015 76 10000 4.6 270 18:36 06.10.2019
676 Clouds 14 1014 71 10000 5.7 280 18:18 06.10.2019
677 Clouds 14 1014 71 10000 5.7 280 18:18 06.10.2019
678 Clouds 14 1014 71 10000 5.7 280 17:42 06.10.2019
679 Clouds 14 1015 76 10000 7.2 280 17:20 06.10.2019
680 Clouds 15 1015 67 10000 8.2 280 16:55 06.10.2019
681 Clouds 15 1015 67 10000 8.2 280 16:55 06.10.2019
682 Clouds 15 1015 67 10000 8.2 280 16:37 06.10.2019
683 Clouds 15 1014 62 10000 8.2 290 16:18 06.10.2019
684 Clouds 14 1014 67 10000 8.2 290 15:42 06.10.2019
685 Clouds 14 1014 67 10000 8.2 290 15:42 06.10.2019
686 Clouds 14 1014 67 10000 8.2 290 15:21 06.10.2019
687 Clouds 14 1014 72 10000 7.7 300 14:44 06.10.2019
688 Clouds 14 1014 71 10000 8.2 280 14:26 06.10.2019
689 Clouds 14 1013 76 10000 8.2 290 13:59 06.10.2019
690 Clouds 14 1013 76 10000 8.2 290 13:40 06.10.2019
691 Clouds 14 1013 76 10000 9.3 280 13:21 06.10.2019
692 Clouds 13 1013 82 10000 8.7 280 12:58 06.10.2019
693 Clouds 12 1013 81 10000 8.7 280 12:39 06.10.2019
694 Clouds 12 1013 81 10000 8.7 280 12:21 06.10.2019
695 Clouds 12 1012 81 10000 8.2 280 11:58 06.10.2019
696 Clouds 12 1012 81 10000 8.2 280 11:39 06.10.2019
697 Clouds 11 1012 81 10000 8.2 280 11:20 06.10.2019
698 Clouds 10 1012 93 10000 6.2 270 10:46 06.10.2019
699 Clouds 10 1012 93 10000 6.7 270 10:27 06.10.2019
700 Clouds 9 1011 93 10000 7.2 270 09:58 06.10.2019
701 Clouds 10 1011 93 10000 7.2 270 09:40 06.10.2019
702 Clouds 9 1011 93 10000 6.7 270 09:19 06.10.2019
703 Clouds 9 1011 93 10000 6.7 270 09:19 06.10.2019
704 Clouds 9 1010 93 10000 7.2 280 08:45 06.10.2019
705 Clouds 10 1010 93 10000 7.2 270 08:21 06.10.2019
706 Clouds 10 1010 93 10000 6.7 270 07:57 06.10.2019
707 Clouds 10 1010 93 10000 6.7 270 07:38 06.10.2019
708 Clouds 10 1009 93 10000 6.7 270 06:32 06.10.2019
709 Clouds 10 1009 93 10000 6.2 270 05:35 06.10.2019
710 Clouds 11 1008 93 10000 5.7 270 04:27 06.10.2019
711 Clouds 12 1008 93 10000 6.7 270 02:47 06.10.2019
712 Clouds 12 1007 93 10000 6.7 270 02:27 06.10.2019
713 Clouds 12 1007 93 10000 6.2 280 01:46 06.10.2019
714 Clouds 12 1007 93 10000 6.7 270 01:27 06.10.2019
715 Clouds 12 1007 93 10000 7.2 270 00:59 06.10.2019
716 Clouds 12 1007 93 10000 5.7 280 00:29 06.10.2019
717 Clouds 13 1007 100 10000 6.2 270 23:46 05.10.2019
718 Rain 13 1006 93 10000 6.7 270 23:23 05.10.2019
719 Rain 13 1006 93 10000 6.2 260 22:59 05.10.2019
720 Rain 13 1006 93 10000 6.2 260 22:40 05.10.2019
721 Rain 13 1006 100 10000 4.1 220 22:21 05.10.2019
722 Rain 13 1006 100 5000 4.6 160 21:57 05.10.2019
723 Rain 13 1006 100 5000 4.6 160 21:57 05.10.2019
724 Rain 13 1006 100 5000 4.6 160 21:39 05.10.2019
725 Rain 14 1006 100 4000 4.6 150 21:20 05.10.2019
726 Rain 14 1006 93 4000 5.1 150 20:56 05.10.2019
727 Rain 14 1006 93 4000 5.1 150 20:38 05.10.2019
728 Rain 14 1006 93 9000 4.6 150 20:19 05.10.2019
729 Rain 14 1007 100 9000 5.1 140 19:38 05.10.2019
730 Rain 13 1007 100 8000 4.6 140 19:20 05.10.2019
731 Rain 14 1007 93 4000 6.2 150 18:57 05.10.2019
732 Rain 14 1007 93 4000 6.2 150 18:39 05.10.2019
733 Rain 14 1007 93 7000 5.7 150 18:20 05.10.2019
734 Drizzle 14 1008 93 6000 5.7 150 17:46 05.10.2019
735 Drizzle 14 1008 100 5000 5.1 160 17:27 05.10.2019
736 Rain 14 1008 93 7000 5.1 150 16:59 05.10.2019
737 Rain 14 1008 93 8000 4.6 150 16:41 05.10.2019
738 Rain 14 1008 93 8000 4.6 150 16:21 05.10.2019
739 Rain 14 1008 93 8000 4.1 140 15:57 05.10.2019
740 Rain 15 1008 93 8000 4.1 140 15:39 05.10.2019
741 Rain 15 1009 100 9000 4.1 140 15:21 05.10.2019
742 Rain 15 1009 93 9000 4.6 150 14:56 05.10.2019
743 Rain 15 1009 93 9000 4.6 150 14:56 05.10.2019
744 Rain 15 1009 93 9000 4.6 150 14:38 05.10.2019
745 Clouds 15 1010 87 10000 4.6 150 14:19 05.10.2019
746 Clouds 14 1010 93 10000 4.1 140 13:41 05.10.2019
747 Rain 14 1010 93 10000 5.1 150 13:21 05.10.2019
748 Clouds 14 1010 87 10000 4.6 140 12:46 05.10.2019
749 Clouds 14 1010 87 10000 4.6 150 12:20 05.10.2019
750 Clouds 13 1010 93 10000 3.6 140 11:54 05.10.2019
751 Clouds 13 1010 93 10000 3.6 140 11:36 05.10.2019
752 Rain 12 1010 93 10000 2.6 140 11:18 05.10.2019
753 Rain 12 1010 87 10000 2.6 180 10:44 05.10.2019
754 Clouds 12 1010 87 10000 3.1 150 10:24 05.10.2019
755 Clouds 12 1010 87 10000 2.6 140 09:57 05.10.2019
756 Clouds 11 1010 87 10000 2.6 140 09:38 05.10.2019
757 Clouds 11 1010 93 10000 3.1 140 09:20 05.10.2019
758 Clouds 11 1010 93 10000 3.1 140 09:20 05.10.2019
759 Clouds 11 1010 93 10000 2.6 130 08:39 05.10.2019
760 Clouds 10 1010 100 8000 2.1 140 08:19 05.10.2019
761 Clouds 10 1010 100 8000 2.1 140 08:19 05.10.2019
762 Clouds 10 1010 100 8000 2.1 110 07:53 05.10.2019
763 Clouds 10 1010 100 8000 2.1 110 07:32 05.10.2019
764 Clouds 10 1010 93 10000 1 0 06:58 05.10.2019
765 Clouds 10 1010 100 10000 1.5 0 06:26 05.10.2019
766 Clouds 10 1010 100 10000 1 0 05:40 05.10.2019
767 Clouds 10 1011 100 10000 0.5 360 03:42 05.10.2019
768 Clouds 10 1011 100 10000 0.5 360 03:42 05.10.2019
769 Clouds 11 1011 100 10000 1 0 03:22 05.10.2019
770 Clouds 11 1011 93 10000 1 0 01:30 05.10.2019
771 Clouds 11 1010 100 10000 0.5 0 00:58 05.10.2019
772 Clouds 11 1010 100 10000 0.5 0 00:40 05.10.2019
773 Clouds 11 1010 100 10000 0.5 0 00:22 05.10.2019
774 Clouds 11 1010 100 10000 2.6 50 23:43 04.10.2019
775 Clouds 11 1010 100 10000 2.6 50 23:43 04.10.2019
776 Clouds 11 1010 100 10000 2.1 30 23:24 04.10.2019
777 Clouds 11 1010 100 10000 1.5 320 22:58 04.10.2019
778 Clouds 11 1010 100 10000 1.5 320 22:38 04.10.2019
779 Clouds 11 1010 100 10000 1.5 320 22:38 04.10.2019
780 Clouds 12 1009 93 10000 2.1 30 22:19 04.10.2019
781 Clouds 12 1009 93 10000 3.1 50 21:55 04.10.2019
782 Clouds 13 1009 93 10000 3.1 50 21:36 04.10.2019
783 Clouds 13 1009 93 10000 3.1 50 21:36 04.10.2019
784 Clouds 13 1009 93 10000 2.6 30 21:18 04.10.2019
785 Clouds 13 1010 93 10000 3.1 340 20:42 04.10.2019
786 Clouds 13 1009 93 10000 3.6 340 20:23 04.10.2019
787 Clouds 13 1008 93 10000 4.6 350 19:57 04.10.2019
788 Clouds 14 1008 93 10000 4.6 350 19:39 04.10.2019
789 Clouds 14 1007 87 10000 4.1 350 19:20 04.10.2019
790 Clouds 14 1007 87 10000 4.1 20 18:56 04.10.2019
791 Clouds 14 1007 87 10000 4.1 20 18:37 04.10.2019
792 Clouds 14 1006 87 10000 4.6 30 18:18 04.10.2019
793 Clouds 14 1006 93 10000 3.6 360 17:40 04.10.2019
794 Clouds 14 1005 87 10000 4.6 10 17:22 04.10.2019
795 Clouds 14 1005 87 10000 4.6 10 17:22 04.10.2019
796 Clouds 14 1005 87 10000 6.7 360 16:58 04.10.2019
797 Clouds 14 1005 87 10000 6.7 360 16:39 04.10.2019
798 Clouds 14 1005 87 10000 6.7 360 16:39 04.10.2019
799 Clouds 14 1005 87 10000 6.7 350 16:18 04.10.2019
800 Clouds 14 1005 87 10000 6.7 350 16:18 04.10.2019
801 Clouds 14 1005 87 10000 6.7 350 16:18 04.10.2019
802 Clouds 14 1004 87 10000 7.2 10 15:56 04.10.2019
803 Clouds 14 1004 87 10000 7.2 10 15:38 04.10.2019
804 Clouds 14 1004 87 10000 7.2 10 15:38 04.10.2019
805 Clouds 14 1003 87 10000 6.7 350 15:19 04.10.2019
806 Clouds 15 1002 82 10000 6.7 360 14:55 04.10.2019
807 Clouds 15 1002 82 10000 6.7 360 14:37 04.10.2019
808 Clouds 15 1001 82 10000 7.7 10 14:19 04.10.2019
809 Clouds 15 1000 87 10000 7.2 360 13:44 04.10.2019
810 Clouds 14 1000 87 10000 7.2 360 13:44 04.10.2019
811 Clouds 15 998 93 10000 5.1 340 13:21 04.10.2019
812 -273 0 0 0 0 0 12:54 04.10.2019
813 Rain 14 997 93 10000 5.1 280 12:36 04.10.2019
814 Rain 13 997 100 9000 3.6 250 12:18 04.10.2019
815 Rain 13 996 93 7000 4.1 240 11:42 04.10.2019
816 Rain 13 996 93 7000 4.1 240 11:41 04.10.2019
817 Rain 13 996 93 7000 4.1 240 11:41 04.10.2019
818 Rain 12 996 100 4000 4.1 230 11:21 04.10.2019
819 Rain 12 996 93 3000 5.7 230 10:41 04.10.2019
820 Rain 11 995 100 3000 5.7 220 10:21 04.10.2019
821 Rain 11 995 100 3000 5.7 220 10:21 04.10.2019
822 Rain 11 995 100 3000 5.7 220 10:21 04.10.2019
823 Rain 11 996 100 3000 5.7 220 09:50 04.10.2019
824 Rain 11 996 100 3000 5.7 220 09:32 04.10.2019
825 Drizzle 11 996 93 5000 6.2 230 08:59 04.10.2019
826 Drizzle 11 996 93 5000 6.2 230 08:41 04.10.2019
827 Drizzle 11 996 93 5000 6.7 230 08:23 04.10.2019
828 Drizzle 11 997 93 5000 6.2 230 07:47 04.10.2019
829 Rain 11 997 93 5000 6.7 230 07:23 04.10.2019
830 Rain 11 997 93 5000 6.2 230 06:48 04.10.2019
831 Drizzle 11 998 93 5000 5.7 230 06:27 04.10.2019
832 Rain 11 998 93 5000 5.7 230 06:27 04.10.2019
833 Drizzle 11 998 93 5000 5.7 230 05:52 04.10.2019
834 Drizzle 11 998 81 10000 6.7 230 05:19 04.10.2019
835 Drizzle 12 999 87 10000 5.7 220 03:56 04.10.2019
836 Drizzle 12 999 81 10000 5.7 230 02:54 04.10.2019
837 Clouds 12 999 81 10000 5.1 230 02:21 04.10.2019
838 Clouds 12 999 81 10000 5.7 230 01:43 04.10.2019
839 Rain 12 999 81 10000 6.2 240 01:24 04.10.2019
840 Rain 12 999 87 10000 6.2 240 00:18 04.10.2019
841 Clouds 12 999 82 10000 5.7 240 23:37 03.10.2019
842 Clouds 13 1000 82 10000 5.7 240 23:18 03.10.2019
843 Clouds 13 999 82 10000 5.7 240 22:57 03.10.2019
844 Clouds 13 999 82 10000 5.7 240 22:57 03.10.2019
845 Clouds 13 999 82 10000 5.7 240 22:39 03.10.2019
846 Clouds 13 1000 87 10000 5.7 240 22:21 03.10.2019
847 Clouds 13 1000 87 10000 5.7 240 22:21 03.10.2019
848 Clouds 14 999 82 10000 5.7 240 21:56 03.10.2019
849 Clouds 14 999 82 10000 5.7 240 21:37 03.10.2019
850 Clouds 14 999 82 10000 5.7 240 21:37 03.10.2019
851 Rain 14 999 87 10000 5.1 240 21:19 03.10.2019
852 Rain 14 999 93 9000 6.7 240 20:56 03.10.2019
853 Rain 14 999 93 9000 6.7 240 20:37 03.10.2019
854 Rain 15 999 87 8000 3.1 160 20:19 03.10.2019
855 Drizzle 14 999 93 10000 4.1 150 19:55 03.10.2019
856 Drizzle 14 999 93 10000 4.1 150 19:36 03.10.2019
857 Drizzle 14 999 93 10000 5.1 140 19:18 03.10.2019
858 Drizzle 14 1000 100 9000 5.7 140 18:40 03.10.2019
859 Rain 14 1000 93 6000 8.2 150 18:20 03.10.2019
860 Rain 14 1001 93 6000 10.3 150 17:59 03.10.2019
861 Rain 13 1001 93 6000 10.3 150 17:41 03.10.2019
862 Rain 13 1002 93 6000 9.8 150 17:20 03.10.2019
863 Drizzle 13 1003 93 9000 9.8 150 16:54 03.10.2019
864 Drizzle 13 1003 93 9000 9.8 150 16:36 03.10.2019
865 Drizzle 13 1004 87 10000 10.8 150 16:18 03.10.2019
866 Clouds 14 1004 87 10000 10.8 150 15:41 03.10.2019
867 Rain 13 1005 87 10000 10.3 150 15:23 03.10.2019
868 Rain 13 1006 87 10000 7.2 150 14:54 03.10.2019
869 Rain 13 1006 87 10000 7.2 150 14:36 03.10.2019
870 Rain 12 1007 87 10000 7.2 150 14:18 03.10.2019
871 Clouds 13 1008 76 10000 8.7 160 13:41 03.10.2019
872 Clouds 13 1008 76 10000 7.7 160 13:19 03.10.2019
873 Clouds 13 1008 76 10000 6.7 150 12:57 03.10.2019
874 Clouds 13 1008 76 10000 6.7 150 12:38 03.10.2019
875 Clouds 13 1010 76 10000 8.2 160 12:19 03.10.2019
876 Clouds 12 1010 82 10000 8.2 160 11:42 03.10.2019
877 Clouds 12 1011 81 10000 6.2 140 11:23 03.10.2019
878 Clouds 12 1012 81 10000 6.7 150 10:59 03.10.2019
879 Clouds 12 1012 81 10000 6.7 150 10:40 03.10.2019
880 Clouds 11 1013 76 10000 6.7 150 10:19 03.10.2019
881 Clouds 11 1013 76 10000 6.7 150 10:19 03.10.2019
882 Clouds 11 1013 76 10000 6.2 150 09:58 03.10.2019
883 Clouds 10 1013 76 10000 6.2 150 09:40 03.10.2019
884 Clouds 10 1013 76 10000 3.6 140 09:21 03.10.2019
885 Clouds 9 1014 81 10000 5.1 160 08:45 03.10.2019
886 Clouds 8 1014 76 10000 2.6 150 08:27 03.10.2019
887 Clouds 8 1015 76 10000 4.1 150 07:57 03.10.2019
888 Clouds 8 1015 71 10000 4.1 150 07:39 03.10.2019
889 Clouds 8 1015 71 10000 4.1 150 07:19 03.10.2019
890 Clouds 8 1015 71 10000 4.1 150 07:19 03.10.2019
891 Clouds 8 1016 71 10000 3.1 140 06:49 03.10.2019
892 -273 0 0 0 0 0 06:24 03.10.2019
893 Clouds 7 1017 81 10000 2.6 130 05:46 03.10.2019
894 Clouds 7 1017 81 10000 2.1 150 05:19 03.10.2019
895 Clouds 6 1018 93 10000 1 0 04:27 03.10.2019
896 Clouds 7 1020 81 10000 1 210 03:24 03.10.2019
897 Clouds 7 1020 81 10000 1.5 190 02:38 03.10.2019
898 Clouds 7 1021 75 10000 1.5 0 01:51 03.10.2019
899 Clouds 7 1021 75 10000 1.5 0 01:32 03.10.2019
900 Clouds 7 1021 81 10000 1 0 00:47 03.10.2019
901 Clouds 7 1021 87 10000 1 0 00:19 03.10.2019
902 Clouds 7 1022 87 10000 1 140 23:43 02.10.2019
903 Clouds 8 1022 81 10000 1 160 23:21 02.10.2019
904 Clouds 8 1022 81 10000 1 170 22:44 02.10.2019
905 Clouds 8 1022 87 10000 0.5 0 22:22 02.10.2019
906 Clouds 8 1022 87 10000 0.5 360 21:57 02.10.2019
907 Clouds 8 1022 87 10000 0.5 360 21:57 02.10.2019
908 Clouds 8 1022 87 10000 0.5 360 21:38 02.10.2019
909 Clouds 9 1022 81 10000 0.37 234.408 21:20 02.10.2019
910 Clouds 9 1022 81 10000 0.37 234.408 21:20 02.10.2019
911 Clouds 9 1022 81 10000 1 320 20:57 02.10.2019
912 Clouds 9 1022 81 10000 1 320 20:38 02.10.2019
913 Clouds 10 1022 71 10000 1 310 20:20 02.10.2019
914 Clouds 10 1022 61 10000 1.5 0 19:55 02.10.2019
915 Clouds 10 1022 61 10000 1.5 0 19:54 02.10.2019
916 Clouds 10 1022 61 10000 1.5 0 19:54 02.10.2019
917 Clouds 10 1022 61 10000 1.5 0 19:54 02.10.2019
918 Clouds 10 1022 61 10000 1.5 0 19:54 02.10.2019
919 Clouds 10 1022 61 10000 1.5 0 19:36 02.10.2019
920 Clouds 10 1022 61 10000 1.5 0 19:36 02.10.2019
921 Clouds 11 1022 66 10000 2.1 330 19:18 02.10.2019
922 Clouds 11 1022 66 10000 2.1 350 18:55 02.10.2019
923 Clouds 11 1022 66 10000 2.1 350 18:36 02.10.2019
924 Clouds 11 1022 57 10000 2.6 340 18:18 02.10.2019
925 Clouds 11 1022 66 10000 3.1 340 17:42 02.10.2019
926 Clouds 11 1022 58 10000 3.1 340 17:21 02.10.2019
927 Clouds 12 1022 62 10000 3.6 320 16:58 02.10.2019
928 Clouds 11 1022 62 10000 3.6 320 16:38 02.10.2019
929 Clouds 11 1021 62 10000 3.1 320 16:20 02.10.2019
930 Clouds 11 1021 62 10000 3.1 320 15:56 02.10.2019
931 Clouds 11 1022 62 10000 2.6 320 15:37 02.10.2019
932 Clouds 11 1022 62 10000 2.6 320 15:18 02.10.2019
933 Clouds 11 1022 62 10000 3.1 330 14:44 02.10.2019
934 Clouds 11 1022 62 10000 3.1 330 14:25 02.10.2019
935 Clouds 11 1022 71 10000 3.6 320 13:57 02.10.2019
936 Clouds 11 1022 66 10000 3.6 340 13:39 02.10.2019
937 Clouds 10 1021 76 10000 3.6 320 13:21 02.10.2019
938 Clouds 10 1021 76 10000 4.6 320 12:40 02.10.2019
939 Clouds 10 1021 76 10000 4.6 320 12:22 02.10.2019
940 Clouds 9 1021 81 10000 4.6 310 11:59 02.10.2019
941 Clouds 8 1021 87 10000 4.1 310 11:41 02.10.2019
942 Clouds 8 1021 87 10000 4.1 310 11:20 02.10.2019
943 Clouds 7 1020 93 10000 4.6 300 10:38 02.10.2019
944 Clouds 5 1020 93 10000 5.1 300 10:19 02.10.2019
945 Clouds 4 1020 100 10000 5.1 290 09:41 02.10.2019
946 Clouds 4 1020 100 10000 5.1 290 09:20 02.10.2019
947 Clouds 3 1019 93 10000 4.6 290 08:56 02.10.2019
948 Clouds 3 1019 93 10000 5.1 290 08:38 02.10.2019
949 Clouds 3 1019 93 10000 5.1 290 08:19 02.10.2019
950 Clouds 3 1018 93 10000 3.6 280 07:41 02.10.2019
951 Clouds 3 1017 100 10000 4.6 300 07:22 02.10.2019
952 Clouds 2 1017 100 10000 4.6 300 06:57 02.10.2019
953 Clouds 4 1017 93 10000 4.1 300 05:56 02.10.2019
954 Clouds 4 1017 93 10000 5.1 290 05:25 02.10.2019
955 Clouds 4 1017 93 10000 5.1 290 05:25 02.10.2019
956 Clouds 4 1017 93 10000 4.6 290 04:58 02.10.2019
957 Clouds 4 1017 93 10000 4.6 300 03:53 02.10.2019
958 Clouds 4 1017 93 10000 5.1 300 03:19 02.10.2019
959 Clouds 4 1016 93 10000 5.1 290 02:24 02.10.2019
960 Clouds 4 1016 93 10000 5.1 290 02:24 02.10.2019
961 Clouds 5 1016 93 10000 5.1 300 01:52 02.10.2019
962 Clouds 5 1015 86 10000 4.6 290 00:51 02.10.2019
963 Clouds 6 1015 86 10000 5.7 310 00:29 02.10.2019
964 Clouds 6 1014 87 10000 4.6 310 23:46 01.10.2019
965 Clouds 7 1014 87 10000 4.6 310 23:27 01.10.2019
966 Clouds 7 1013 81 10000 4.1 310 22:59 01.10.2019
967 Clouds 7 1012 81 10000 3.6 320 22:41 01.10.2019
968 Clouds 7 1012 81 10000 3.6 320 22:20 01.10.2019
969 Clouds 7 1012 81 10000 5.1 330 21:59 01.10.2019
970 Clouds 8 1011 75 10000 5.1 350 21:40 01.10.2019
971 Clouds 8 1011 75 10000 5.1 350 21:22 01.10.2019
972 Clouds 8 1011 75 10000 5.1 350 21:22 01.10.2019
973 Clouds 9 1011 75 10000 5.1 350 20:57 01.10.2019
974 Clouds 9 1010 76 10000 5.7 360 20:38 01.10.2019
975 Clouds 10 1009 76 10000 6.2 350 20:20 01.10.2019
976 Clouds 10 1009 76 10000 6.2 350 19:56 01.10.2019
977 Clouds 10 1009 76 10000 7.2 360 19:38 01.10.2019
978 Clouds 10 1008 87 10000 6.2 360 19:19 01.10.2019
979 Clouds 10 1007 81 10000 7.2 10 18:41 01.10.2019
980 Clouds 10 1007 81 10000 7.2 10 18:23 01.10.2019
981 Clouds 10 1007 81 10000 9.3 10 17:59 01.10.2019
982 Clouds 10 1006 87 10000 9.3 10 17:40 01.10.2019
983 Clouds 10 1006 87 10000 9.3 10 17:20 01.10.2019
984 Clouds 10 1006 87 10000 9.3 10 17:20 01.10.2019
985 Drizzle 10 1006 93 6000 7.7 10 16:58 01.10.2019
986 Rain 10 1005 100 3000 9.8 10 16:40 01.10.2019
987 Rain 10 1005 100 3000 9.8 10 16:21 01.10.2019
988 Rain 10 1004 100 2500 10.8 10 15:46 01.10.2019
989 Rain 10 1004 93 2500 10.3 10 15:23 01.10.2019
990 Rain 10 1003 93 2500 10.8 10 14:55 01.10.2019
991 Drizzle 10 1002 100 2500 10.3 20 14:37 01.10.2019
992 Drizzle 10 1002 100 2500 10.3 20 14:18 01.10.2019
993 Drizzle 10 1001 93 2500 13.9 20 13:40 01.10.2019
994 Drizzle 10 1000 93 2500 14.4 10 13:21 01.10.2019
995 Drizzle 10 1000 93 2500 14.4 10 12:59 01.10.2019
996 Drizzle 10 999 93 2500 13.9 10 12:41 01.10.2019
997 Rain 10 998 100 2500 13.9 360 12:19 01.10.2019
998 Rain 10 998 100 2500 13.9 360 11:58 01.10.2019
999 Rain 10 998 93 3500 13.4 350 11:38 01.10.2019
1000 Rain 10 998 93 3000 10.8 360 11:19 01.10.2019
1001 Rain 10 998 93 3000 10.8 360 10:58 01.10.2019
1002 Rain 10 998 100 3000 8.7 360 10:40 01.10.2019
1003 Rain 10 998 100 3000 8.7 360 10:21 01.10.2019
1004 Rain 10 997 100 2500 8.7 10 09:40 01.10.2019
1005 Rain 10 997 100 2500 8.7 10 09:21 01.10.2019
1006 Drizzle 11 996 93 10000 8.7 20 08:42 01.10.2019
1007 Drizzle 11 996 93 10000 8.7 20 08:24 01.10.2019
1008 Drizzle 11 996 93 10000 6.2 10 07:49 01.10.2019
1009 Drizzle 11 996 100 10000 5.7 20 07:25 01.10.2019
1010 Drizzle 11 996 93 10000 5.7 30 06:48 01.10.2019
1011 Drizzle 11 996 100 10000 5.1 30 06:20 01.10.2019
1012 Drizzle 12 996 93 10000 5.1 20 05:46 01.10.2019
1013 Drizzle 12 996 93 10000 5.1 20 05:18 01.10.2019
1014 Drizzle 12 996 100 9000 4.1 30 04:30 01.10.2019
1015 Drizzle 12 996 100 10000 5.1 280 02:29 01.10.2019
1016 Rain 12 996 100 5000 5.1 260 01:59 01.10.2019
1017 Rain 12 996 100 6000 3.6 250 00:59 01.10.2019
1018 Drizzle 12 995 100 5000 1.5 0 00:29 01.10.2019
1019 Drizzle 12 995 100 5000 1.5 0 00:29 01.10.2019
1020 Rain 12 995 100 6000 3.1 60 23:57 30.09.2019
1021 Rain 12 996 100 4000 3.6 70 23:39 30.09.2019
1022 Rain 12 996 100 4000 3.6 70 23:20 30.09.2019
1023 Rain 13 996 100 6000 9.3 90 22:43 30.09.2019
1024 Rain 13 996 100 6000 9.3 90 22:25 30.09.2019
1025 Rain 12 996 93 5000 8.7 80 21:58 30.09.2019
1026 Rain 12 997 93 5000 10.3 80 21:38 30.09.2019
1027 Rain 12 997 93 5000 10.3 80 21:19 30.09.2019
1028 Rain 12 997 93 3000 8.7 70 20:57 30.09.2019
1029 Rain 12 998 100 3500 9.8 90 20:39 30.09.2019
1030 Rain 12 998 100 3500 9.8 90 20:20 30.09.2019
1031 Rain 12 998 100 3500 9.3 90 19:56 30.09.2019
1032 Rain 12 999 100 4500 8.2 100 19:38 30.09.2019
1033 Drizzle 12 1000 100 10000 6.7 120 19:19 30.09.2019
1034 Drizzle 12 1000 100 10000 6.7 120 18:57 30.09.2019
1035 Drizzle 12 1000 100 10000 6.7 120 18:57 30.09.2019
1036 Rain 12 1000 100 7000 6.7 120 18:37 30.09.2019
1037 Rain 12 1000 100 7000 6.7 120 18:19 30.09.2019
1038 Rain 12 1002 100 5000 5.7 120 17:42 30.09.2019
1039 Rain 12 1002 100 5000 5.7 120 17:22 30.09.2019
1040 Rain 12 1003 100 5000 6.2 110 16:57 30.09.2019
1041 Rain 12 1003 100 6000 7.2 100 16:39 30.09.2019
1042 Rain 12 1003 100 6000 7.2 100 16:19 30.09.2019
1043 Rain 13 1004 93 8000 5.7 100 15:57 30.09.2019
1044 Rain 13 1005 93 10000 5.1 100 15:37 30.09.2019
1045 Rain 13 1005 93 10000 5.1 100 15:19 30.09.2019
1046 Rain 13 1005 93 10000 4.6 110 14:57 30.09.2019
1047 Rain 13 1006 93 10000 4.6 110 14:37 30.09.2019
1048 Rain 13 1006 93 10000 4.6 110 14:18 30.09.2019
1049 Rain 13 1007 93 10000 4.1 100 13:56 30.09.2019
1050 Rain 12 1007 93 10000 4.1 110 13:37 30.09.2019
1051 Rain 12 1007 93 10000 4.1 110 13:19 30.09.2019
1052 Clouds 12 1008 87 10000 3.1 100 12:41 30.09.2019
1053 Clouds 11 1008 87 10000 3.1 100 12:21 30.09.2019
1054 Clouds 10 1008 93 10000 3.1 120 11:56 30.09.2019
1055 Clouds 10 1008 93 10000 3.1 120 11:56 30.09.2019
1056 Clouds 10 1009 93 10000 2.1 150 11:37 30.09.2019
1057 Clouds 10 1009 93 10000 2.1 150 11:18 30.09.2019
1058 Fog 9 1009 100 10000 0.5 0 10:40 30.09.2019
1059 Fog 9 1009 100 10000 0.5 0 10:19 30.09.2019
1060 Fog 8 1009 100 10000 0.5 0 09:58 30.09.2019
1061 Fog 8 1009 100 10000 0.5 0 09:58 30.09.2019
1062 Fog 7 1009 100 6000 1.5 0 09:39 30.09.2019
1063 Fog 7 1009 100 6000 1.5 0 09:20 30.09.2019
1064 Rain 6 1009 100 800 2.1 290 08:47 30.09.2019
1065 Rain 6 1009 100 800 3.1 270 08:28 30.09.2019
1066 Rain 6 1009 93 7000 3.6 280 07:45 30.09.2019
1067 Rain 6 1009 93 7000 3.6 280 07:45 30.09.2019
1068 Clouds 6 1009 93 7000 3.6 280 07:27 30.09.2019
1069 Clouds 6 1009 93 7000 3.6 280 07:27 30.09.2019
1070 Clouds 7 1009 100 10000 4.1 280 06:56 30.09.2019
1071 Clouds 7 1009 100 10000 3.1 260 06:33 30.09.2019
1072 Clouds 7 1009 100 10000 2.6 250 05:48 30.09.2019
1073 Clouds 8 1009 100 10000 2.1 250 04:32 30.09.2019
1074 Clouds 8 1009 100 10000 2.1 250 04:32 30.09.2019
1075 Clouds 9 1009 100 10000 3.1 260 02:48 30.09.2019
1076 Clouds 9 1009 93 10000 3.6 260 01:37 30.09.2019
1077 Clouds 10 1008 87 10000 2.6 250 00:42 30.09.2019
1078 Clouds 10 1008 87 10000 2.6 250 00:21 30.09.2019
1079 Clouds 10 1007 93 10000 4.6 280 23:47 29.09.2019
1080 Clouds 10 1007 93 10000 4.6 280 23:27 29.09.2019
1081 Clouds 10 1007 93 10000 3.1 270 22:59 29.09.2019
1082 Clouds 10 1006 93 10000 3.6 280 22:40 29.09.2019
1083 Clouds 10 1006 93 10000 3.6 280 22:22 29.09.2019
1084 Clouds 11 1006 93 10000 3.6 290 21:57 29.09.2019
1085 Clouds 12 1006 87 10000 4.1 280 21:37 29.09.2019
1086 Clouds 12 1006 87 10000 4.1 280 21:19 29.09.2019
1087 Clouds 12 1005 87 10000 5.1 300 20:45 29.09.2019
1088 Clouds 13 1005 82 10000 4.6 300 20:20 29.09.2019
1089 Clouds 14 1004 76 10000 5.7 290 19:59 29.09.2019
1090 Clouds 14 1004 76 10000 5.7 280 19:38 29.09.2019
1091 Clouds 14 1004 76 10000 5.7 280 19:19 29.09.2019
1092 Clouds 15 1003 72 10000 6.2 290 18:56 29.09.2019
1093 Clouds 16 1003 67 10000 5.7 300 18:38 29.09.2019
1094 Clouds 16 1003 67 10000 5.7 300 18:38 29.09.2019
1095 Clouds 16 1003 72 10000 5.1 290 18:19 29.09.2019
1096 Clouds 16 1003 72 10000 5.1 290 17:58 29.09.2019
1097 Clouds 16 1002 72 10000 6.2 300 17:40 29.09.2019
1098 Clouds 16 1002 72 10000 6.2 300 17:20 29.09.2019
1099 Clouds 15 1002 72 10000 5.7 310 16:58 29.09.2019
1100 Clouds 16 1001 72 10000 5.1 320 16:40 29.09.2019
1101 Clouds 15 1001 76 10000 6.7 320 16:19 29.09.2019
1102 Clouds 15 1001 76 10000 6.7 320 15:57 29.09.2019
1103 Clouds 15 1001 76 10000 6.7 320 15:57 29.09.2019
1104 Clouds 15 1001 72 10000 6.7 310 15:36 29.09.2019
1105 Clouds 15 1001 72 10000 6.7 310 15:18 29.09.2019
1106 Clouds 14 1000 77 10000 6.7 320 14:55 29.09.2019
1107 Clouds 14 1000 82 10000 8.2 320 14:36 29.09.2019
1108 Clouds 14 1000 82 10000 8.2 320 14:18 29.09.2019
1109 Clouds 14 999 82 10000 6.2 320 13:42 29.09.2019
1110 Clouds 14 999 82 10000 6.2 320 13:19 29.09.2019
1111 Clouds 13 998 87 10000 6.7 320 12:58 29.09.2019
1112 Clouds 13 997 87 10000 6.7 330 12:40 29.09.2019
1113 Clouds 13 997 87 10000 6.7 330 12:21 29.09.2019
1114 Clouds 12 997 87 10000 6.7 330 11:57 29.09.2019
1115 Clouds 12 996 93 10000 7.2 330 11:39 29.09.2019
1116 Clouds 12 996 93 10000 7.2 330 11:19 29.09.2019
1117 Clouds 12 995 93 10000 7.2 320 10:57 29.09.2019
1118 Clouds 12 995 93 10000 7.2 320 10:57 29.09.2019
1119 Clouds 11 995 100 10000 7.7 320 10:37 29.09.2019
1120 Clouds 11 995 100 10000 7.7 320 10:18 29.09.2019
1121 Clouds 11 995 100 10000 7.7 320 10:18 29.09.2019
1122 Clouds 11 994 93 10000 8.2 330 09:47 29.09.2019
1123 Clouds 11 994 93 10000 7.7 330 09:21 29.09.2019
1124 Rain 11 993 93 10000 7.2 330 08:59 29.09.2019
1125 Rain 11 992 100 10000 7.2 350 08:39 29.09.2019
1126 Rain 11 992 100 10000 7.2 350 08:20 29.09.2019
1127 Rain 11 992 93 9000 7.2 360 07:43 29.09.2019
1128 Rain 11 991 100 6000 7.7 10 07:24 29.09.2019
1129 Rain 11 991 100 6000 7.7 10 07:24 29.09.2019
1130 Rain 11 991 100 6000 7.7 10 07:24 29.09.2019
1131 Rain 12 991 93 4500 7.7 20 06:43 29.09.2019
1132 Rain 12 991 93 5000 8.2 40 05:27 29.09.2019
1133 Rain 12 991 93 5000 8.2 40 04:38 29.09.2019
1134 Rain 12 991 93 5000 8.2 40 04:18 29.09.2019
1135 Rain 12 993 93 7000 8.7 50 02:47 29.09.2019
1136 Rain 12 994 100 6000 7.2 80 02:18 29.09.2019
1137 Rain 12 995 100 6000 5.1 100 01:32 29.09.2019
1138 Rain 12 995 100 7000 6.7 90 00:52 29.09.2019
1139 Rain 11 997 100 9000 4.6 90 00:20 29.09.2019
1140 Rain 11 998 93 10000 4.1 100 23:43 28.09.2019
1141 Rain 11 998 93 10000 4.1 100 23:22 28.09.2019
1142 Rain 11 998 100 10000 4.1 110 22:57 28.09.2019
1143 Rain 11 999 93 10000 3.6 130 22:38 28.09.2019
1144 Rain 11 999 93 10000 3.6 130 22:20 28.09.2019
1145 Rain 12 1000 87 10000 4.1 150 21:56 28.09.2019
1146 Rain 12 1000 87 10000 4.1 150 21:38 28.09.2019
1147 Rain 12 1000 87 10000 4.1 150 21:19 28.09.2019
1148 Rain 13 1000 87 10000 3.6 140 20:57 28.09.2019
1149 Rain 12 1000 87 10000 3.6 140 20:57 28.09.2019
1150 Rain 13 1001 82 10000 1.5 0 20:37 28.09.2019
1151 Rain 13 1001 82 10000 1.5 0 20:18 28.09.2019
1152 Clouds 13 1001 82 10000 1 200 19:55 28.09.2019
1153 Clouds 13 1002 77 10000 2.6 200 19:36 28.09.2019
1154 Clouds 13 1002 77 10000 2.6 200 19:18 28.09.2019
1155 Clouds 14 1003 77 10000 3.1 210 18:41 28.09.2019
1156 Clouds 14 1003 82 10000 3.1 210 18:22 28.09.2019
1157 Clouds 14 1003 77 10000 3.1 210 18:22 28.09.2019
1158 Clouds 15 1003 82 10000 3.1 210 17:59 28.09.2019
1159 Clouds 15 1003 82 10000 3.1 220 17:40 28.09.2019
1160 Clouds 15 1003 82 10000 3.1 220 17:21 28.09.2019
1161 Rain 15 1003 82 10000 4.1 230 16:49 28.09.2019
1162 Rain 15 1004 72 10000 5.1 230 16:29 28.09.2019
1163 Rain 15 1004 77 10000 4.6 240 15:59 28.09.2019
1164 Rain 16 1004 72 10000 5.1 230 15:39 28.09.2019
1165 Rain 16 1004 72 10000 5.1 230 15:21 28.09.2019
1166 Rain 16 1004 72 10000 5.7 240 14:55 28.09.2019
1167 Rain 16 1004 72 10000 5.1 240 14:36 28.09.2019
1168 Rain 16 1004 72 10000 5.1 240 14:18 28.09.2019
1169 Rain 16 1004 72 10000 5.1 240 14:18 28.09.2019
1170 Clouds 15 1004 82 10000 5.7 250 13:43 28.09.2019
1171 Clouds 15 1004 82 10000 5.7 250 13:20 28.09.2019
1172 Clouds 16 1004 77 10000 5.7 250 12:55 28.09.2019
1173 Clouds 15 1004 82 10000 6.2 250 12:36 28.09.2019
1174 Clouds 15 1004 82 10000 6.2 250 12:18 28.09.2019
1175 Drizzle 15 1003 87 10000 5.7 250 11:40 28.09.2019
1176 Drizzle 14 1003 87 10000 5.7 250 11:20 28.09.2019
1177 Rain 14 1003 87 10000 6.2 250 10:44 28.09.2019
1178 Rain 13 1003 87 10000 6.2 250 10:21 28.09.2019
1179 Clouds 13 1002 93 10000 6.2 250 09:59 28.09.2019
1180 Clouds 13 1002 93 10000 5.7 250 09:40 28.09.2019
1181 Clouds 13 1002 93 10000 5.7 250 09:19 28.09.2019
1182 Clouds 13 1001 87 10000 6.7 260 08:48 28.09.2019
1183 Clouds 13 1001 93 10000 6.2 250 08:29 28.09.2019
1184 Clouds 13 1001 93 10000 6.7 250 07:57 28.09.2019
1185 Clouds 13 1000 93 10000 7.2 250 07:38 28.09.2019
1186 Clouds 13 1000 93 10000 7.2 250 07:19 28.09.2019
1187 Clouds 13 1000 87 10000 6.2 250 06:38 28.09.2019
1188 Clouds 13 1000 87 10000 6.2 250 06:20 28.09.2019
1189 Clouds 13 1000 87 10000 5.7 250 05:25 28.09.2019
1190 Rain 13 1000 93 10000 6.2 250 04:54 28.09.2019
1191 Rain 13 1000 93 10000 5.1 240 04:29 28.09.2019
1192 Rain 13 1000 93 7000 5.7 250 03:41 28.09.2019
1193 Rain 13 1000 93 6000 5.7 250 02:59 28.09.2019
1194 Drizzle 13 1000 87 10000 5.1 240 02:40 28.09.2019
1195 Drizzle 13 1000 87 10000 5.1 240 02:19 28.09.2019
1196 Rain 12 1000 93 10000 5.7 230 01:42 28.09.2019
1197 Rain 12 1000 93 10000 5.7 230 01:19 28.09.2019
1198 Rain 12 1000 93 9000 5.1 220 00:45 28.09.2019
1199 Rain 12 1000 93 9000 5.1 220 00:27 28.09.2019
1200 Clouds 12 1001 81 10000 4.1 230 23:39 27.09.2019
1201 Clouds 12 1001 81 10000 4.1 230 23:21 27.09.2019
1202 Rain 12 1001 87 10000 4.1 230 22:49 27.09.2019
1203 Rain 12 1001 87 10000 4.1 230 22:21 27.09.2019
1204 Clouds 12 1001 76 10000 4.1 230 22:00 27.09.2019
1205 Clouds 12 1001 76 10000 4.1 240 21:40 27.09.2019
1206 Clouds 12 1001 76 10000 4.1 240 21:21 27.09.2019
1207 Clouds 13 1000 82 10000 4.6 240 20:59 27.09.2019
1208 Clouds 13 1000 82 10000 6.2 260 20:40 27.09.2019
1209 Clouds 13 1000 82 10000 6.2 260 20:20 27.09.2019
1210 Clouds 13 1000 82 10000 5.7 250 19:57 27.09.2019
1211 Clouds 13 1000 76 10000 6.2 250 19:39 27.09.2019
1212 Clouds 14 1000 76 10000 6.2 250 19:20 27.09.2019
1213 Rain 14 999 67 10000 7.7 260 18:42 27.09.2019
1214 Rain 14 999 67 10000 7.7 260 18:24 27.09.2019
1215 -273 0 0 0 0 0 17:56 27.09.2019
1216 Clouds 15 998 67 10000 9.3 280 17:38 27.09.2019
1217 Clouds 15 998 67 10000 9.3 280 17:20 27.09.2019
1218 Clouds 15 998 67 10000 9.3 280 17:20 27.09.2019
1219 Clouds 15 998 63 10000 9.3 270 16:57 27.09.2019
1220 Clouds 15 997 67 10000 8.7 270 16:37 27.09.2019
1221 Clouds 15 997 67 10000 8.7 270 16:37 27.09.2019
1222 Clouds 15 997 67 10000 8.7 270 16:18 27.09.2019
1223 Clouds 15 997 67 10000 8.7 270 16:18 27.09.2019
1224 Clouds 15 997 72 10000 10.3 270 16:18 27.09.2019
1225 Clouds 15 997 72 10000 10.3 270 15:46 27.09.2019
1226 Clouds 14 997 76 10000 9.3 280 15:21 27.09.2019
1227 Clouds 14 997 76 10000 9.3 280 14:59 27.09.2019
1228 Rain 14 996 76 10000 9.8 280 14:41 27.09.2019
1229 Rain 14 996 76 10000 9.8 280 14:21 27.09.2019
1230 Rain 14 996 76 10000 8.7 270 13:58 27.09.2019
1231 Rain 14 996 76 10000 8.7 270 13:58 27.09.2019
1232 Rain 13 995 82 10000 9.3 290 13:39 27.09.2019
1233 Rain 13 995 82 10000 9.3 290 13:21 27.09.2019
1234 Rain 13 995 82 10000 9.3 290 13:21 27.09.2019
1235 Rain 13 995 87 10000 8.2 280 12:54 27.09.2019
1236 Rain 12 994 93 10000 6.2 270 12:24 27.09.2019
1237 Rain 12 994 93 10000 4.6 260 11:58 27.09.2019
1238 Rain 12 994 93 10000 4.6 250 11:38 27.09.2019
1239 Rain 12 994 93 10000 4.6 250 11:20 27.09.2019
1240 Rain 12 994 93 9000 4.6 250 10:43 27.09.2019
1241 Rain 12 993 93 10000 4.6 230 10:23 27.09.2019
1242 Drizzle 12 993 93 6000 5.1 220 09:58 27.09.2019
1243 Drizzle 12 993 87 10000 5.1 210 09:40 27.09.2019
1244 Drizzle 12 993 87 10000 5.1 210 09:19 27.09.2019
1245 Rain 12 994 87 10000 4.6 220 08:42 27.09.2019
1246 Rain 12 994 87 10000 4.6 220 08:21 27.09.2019
1247 Clouds 12 994 87 10000 4.6 210 07:55 27.09.2019
1248 Rain 12 994 87 10000 5.7 210 07:37 27.09.2019
1249 Clouds 12 994 87 10000 4.6 200 07:18 27.09.2019
1250 Clouds 12 995 87 10000 4.1 190 06:40 27.09.2019
1251 Clouds 12 995 87 10000 4.1 190 06:21 27.09.2019
1252 Rain 11 995 87 10000 3.1 210 05:45 27.09.2019
1253 Rain 11 995 87 10000 3.1 210 05:26 27.09.2019
1254 Clouds 11 996 93 10000 4.1 220 03:40 27.09.2019
1255 Rain 12 996 93 10000 4.1 220 01:56 27.09.2019
1256 Rain 12 996 87 10000 5.1 220 01:32 27.09.2019
1257 Rain 12 996 87 10000 3.6 220 00:41 27.09.2019
1258 Clouds 12 996 87 10000 4.6 220 23:57 26.09.2019
1259 Clouds 12 996 81 10000 4.1 220 23:39 26.09.2019
1260 Clouds 12 996 81 10000 4.1 220 23:20 26.09.2019
1261 Clouds 12 996 87 10000 4.1 220 22:58 26.09.2019
1262 Clouds 12 996 87 10000 4.1 220 22:58 26.09.2019
1263 Clouds 12 996 81 10000 4.1 220 22:40 26.09.2019
1264 Clouds 12 996 87 10000 3.1 210 22:18 26.09.2019
1265 Rain 12 996 87 10000 3.1 210 21:59 26.09.2019
1266 Rain 12 995 87 10000 3.6 220 21:38 26.09.2019
1267 Rain 12 995 87 10000 3.6 220 21:19 26.09.2019
1268 Rain 12 995 87 10000 3.6 220 21:19 26.09.2019
1269 Rain 12 995 93 10000 5.1 210 20:58 26.09.2019
1270 Rain 13 994 87 10000 4.1 230 20:40 26.09.2019
1271 Rain 13 994 87 10000 4.1 230 20:21 26.09.2019
1272 Rain 13 994 87 10000 4.1 230 19:59 26.09.2019
1273 Rain 13 994 93 10000 4.1 230 19:39 26.09.2019
1274 Rain 14 994 87 10000 5.1 230 19:18 26.09.2019
1275 Rain 14 994 87 10000 5.1 230 18:56 26.09.2019
1276 Rain 14 994 67 10000 5.7 210 18:36 26.09.2019
1277 Rain 14 994 67 10000 5.7 210 18:18 26.09.2019
1278 Rain 15 995 67 10000 7.2 220 17:38 26.09.2019
1279 Rain 15 995 67 10000 7.2 220 17:38 26.09.2019
1280 Rain 15 995 67 10000 7.2 220 17:38 26.09.2019
1281 Rain 15 995 67 10000 7.2 220 17:38 26.09.2019
1282 Rain 15 995 67 10000 7.2 220 17:19 26.09.2019
1283 Clouds 16 995 67 10000 8.7 220 16:57 26.09.2019
1284 Rain 15 995 72 10000 6.2 220 16:39 26.09.2019
1285 Rain 16 995 72 10000 6.2 220 16:19 26.09.2019
1286 Rain 16 995 67 10000 6.7 220 15:56 26.09.2019
1287 Rain 16 995 67 10000 7.7 220 15:36 26.09.2019
1288 Rain 16 995 67 10000 7.7 220 15:18 26.09.2019
1289 Clouds 15 995 72 10000 6.7 220 14:41 26.09.2019
1290 Clouds 16 995 72 10000 6.7 220 14:22 26.09.2019
1291 Clouds 15 995 72 10000 6.2 230 13:58 26.09.2019
1292 Clouds 15 995 76 10000 5.7 220 13:40 26.09.2019
1293 Clouds 14 995 76 10000 5.7 220 13:19 26.09.2019
1294 Clouds 14 995 76 10000 5.7 230 12:55 26.09.2019
1295 Clouds 14 995 76 10000 5.7 220 12:36 26.09.2019
1296 Clouds 14 995 76 10000 5.7 220 12:18 26.09.2019
1297 Clouds 13 995 82 10000 5.7 220 11:42 26.09.2019
1298 Clouds 13 995 82 10000 5.7 220 11:21 26.09.2019
1299 Clouds 13 995 87 10000 4.6 220 10:43 26.09.2019
1300 Clouds 12 995 87 10000 4.6 220 10:25 26.09.2019
1301 Clouds 12 995 87 10000 4.6 220 10:25 26.09.2019
1302 Clouds 12 995 87 10000 4.6 220 09:59 26.09.2019
1303 Clouds 12 995 87 10000 4.6 220 09:59 26.09.2019
1304 Clouds 12 995 87 10000 4.6 220 09:59 26.09.2019
1305 Clouds 12 995 87 10000 5.1 220 09:41 26.09.2019
1306 Clouds 12 995 87 10000 5.1 220 09:22 26.09.2019
1307 Clouds 12 995 87 10000 4.1 220 08:54 26.09.2019
1308 Clouds 12 994 82 10000 4.1 220 08:32 26.09.2019
1309 Clouds 12 994 87 10000 4.6 220 07:58 26.09.2019
1310 Clouds 12 994 87 10000 3.6 210 07:40 26.09.2019
1311 Clouds 12 994 87 10000 4.6 220 07:19 26.09.2019
1312 Clouds 12 994 87 10000 3.6 220 06:43 26.09.2019
1313 Clouds 12 994 87 10000 3.6 220 06:24 26.09.2019
1314 Clouds 13 994 82 10000 3.6 230 05:40 26.09.2019
1315 Clouds 12 994 87 10000 3.6 230 05:20 26.09.2019
1316 Rain 13 995 87 10000 5.1 230 02:38 26.09.2019
1317 Rain 14 994 93 10000 4.6 230 01:49 26.09.2019
1318 Rain 14 994 93 10000 4.6 230 01:49 26.09.2019
1319 Rain 15 994 93 10000 4.1 220 01:26 26.09.2019
1320 Clouds 15 994 93 10000 3.6 220 00:48 26.09.2019
1321 Rain 15 994 87 10000 5.1 220 00:28 26.09.2019
1322 Rain 15 994 87 10000 4.1 190 23:45 25.09.2019
1323 Rain 15 995 87 9000 3.1 180 23:27 25.09.2019
1324 Rain 15 995 93 9000 4.1 170 22:56 25.09.2019
1325 Rain 15 995 93 9000 4.1 170 22:56 25.09.2019
1326 Rain 15 995 93 9000 4.1 170 22:56 25.09.2019
1327 Rain 16 995 87 10000 4.1 150 22:38 25.09.2019
1328 Rain 16 995 87 10000 4.1 150 22:20 25.09.2019
1329 Rain 16 995 87 10000 4.1 150 22:20 25.09.2019
1330 Rain 16 995 87 10000 4.6 160 21:56 25.09.2019
1331 Clouds 16 996 77 10000 3.6 150 21:37 25.09.2019
1332 -273 0 0 0 0 0 21:18 25.09.2019
1333 Clouds 16 996 82 10000 2.6 190 20:56 25.09.2019
1334 Clouds 16 996 77 10000 3.1 190 20:37 25.09.2019
1335 Clouds 16 996 77 10000 3.1 190 20:19 25.09.2019
1336 Clouds 16 997 82 10000 3.1 200 20:19 25.09.2019
1337 Clouds 16 997 72 10000 4.1 200 19:41 25.09.2019
1338 Clouds 16 997 72 10000 4.1 200 19:41 25.09.2019
1339 Clouds 17 997 72 10000 3.6 220 19:21 25.09.2019
1340 Clouds 17 997 72 10000 3.6 220 18:57 25.09.2019
1341 Clouds 17 997 67 10000 4.6 210 18:39 25.09.2019
1342 Clouds 17 997 67 10000 4.6 210 18:20 25.09.2019
1343 Clouds 17 998 77 10000 4.1 220 17:58 25.09.2019
1344 Clouds 16 998 77 10000 4.1 220 17:36 25.09.2019
1345 Clouds 16 998 77 10000 4.1 220 17:18 25.09.2019
1346 Rain 17 998 82 10000 3.1 230 16:44 25.09.2019
1347 Rain 17 998 82 10000 3.1 230 16:26 25.09.2019
1348 Rain 17 998 77 10000 3.1 230 15:57 25.09.2019
1349 Rain 17 998 72 10000 4.1 220 15:39 25.09.2019
1350 Rain 18 998 72 10000 4.1 220 15:20 25.09.2019
1351 Clouds 18 999 82 10000 3.6 240 14:44 25.09.2019
1352 Clouds 17 999 82 10000 3.6 240 14:25 25.09.2019
1353 Rain 17 999 87 10000 4.6 240 13:59 25.09.2019
1354 Clouds 17 998 82 10000 3.6 230 13:40 25.09.2019
1355 Clouds 17 998 88 10000 2.6 240 13:20 25.09.2019
1356 Clouds 17 998 88 10000 2.6 240 12:58 25.09.2019
1357 Clouds 16 998 93 10000 3.6 250 12:38 25.09.2019
1358 Clouds 16 998 93 10000 3.6 250 12:20 25.09.2019
1359 Drizzle 15 998 100 8000 3.1 250 11:41 25.09.2019
1360 Drizzle 15 998 100 8000 3.1 250 11:21 25.09.2019
1361 Drizzle 14 998 93 8000 3.6 260 10:56 25.09.2019
1362 Drizzle 14 998 93 6000 3.1 250 10:38 25.09.2019
1363 Drizzle 14 998 93 6000 3.1 250 10:19 25.09.2019
1364 Drizzle 14 997 93 6000 3.1 250 09:43 25.09.2019
1365 Mist 13 997 100 9000 3.1 250 09:23 25.09.2019
1366 Rain 13 997 100 9000 3.1 260 08:59 25.09.2019
1367 Rain 13 997 100 10000 4.6 260 08:41 25.09.2019
1368 Rain 13 997 100 10000 4.6 260 08:20 25.09.2019
1369 Clouds 13 997 100 10000 3.6 270 07:42 25.09.2019
1370 Clouds 13 997 100 10000 3.6 270 07:23 25.09.2019
1371 Clouds 14 996 100 10000 3.1 260 06:58 25.09.2019
1372 Clouds 14 996 100 10000 4.1 270 06:37 25.09.2019
1373 Clouds 13 996 100 10000 2.6 260 05:47 25.09.2019
1374 Clouds 13 996 100 10000 2.6 260 05:20 25.09.2019
1375 Clouds 13 995 100 10000 2.6 300 03:21 25.09.2019
1376 Clouds 12 994 100 10000 2.1 350 01:39 25.09.2019
1377 Clouds 12 994 100 10000 3.1 360 00:41 25.09.2019
1378 Clouds 12 994 100 10000 3.1 360 00:23 25.09.2019
1379 Clouds 12 994 100 10000 0.5 0 23:44 24.09.2019
1380 Clouds 12 994 100 10000 0.5 0 23:22 24.09.2019
1381 Clouds 13 994 87 10000 0.5 360 22:58 24.09.2019
1382 Clouds 13 994 93 10000 1 0 22:38 24.09.2019
1383 Clouds 13 994 93 10000 1 0 22:19 24.09.2019
1384 Clouds 14 994 93 10000 2.6 100 21:55 24.09.2019
1385 Clouds 14 994 93 10000 2.6 100 21:55 24.09.2019
1386 Clouds 15 994 87 10000 1 0 21:37 24.09.2019
1387 Clouds 15 994 82 10000 1.5 0 21:18 24.09.2019
1388 Clouds 15 994 82 10000 1.5 0 20:56 24.09.2019
1389 Clouds 16 994 82 10000 2.6 220 20:38 24.09.2019
1390 Clouds 16 994 82 10000 2.6 220 20:19 24.09.2019
1391 Clouds 17 994 72 10000 3.6 220 19:43 24.09.2019
1392 Clouds 17 994 72 10000 3.6 220 19:21 24.09.2019
1393 Clouds 17 994 68 10000 3.6 210 18:58 24.09.2019
1394 Clouds 17 994 68 10000 2.6 160 18:39 24.09.2019
1395 Clouds 17 994 68 10000 2.6 160 18:21 24.09.2019
1396 Clouds 18 994 68 10000 2.1 140 17:57 24.09.2019
1397 Clouds 18 994 68 10000 2.1 140 17:38 24.09.2019
1398 Clouds 18 994 68 10000 2.1 140 17:20 24.09.2019
1399 Clouds 18 995 72 10000 2.6 200 16:42 24.09.2019
1400 Clouds 18 995 72 10000 2.6 200 16:21 24.09.2019
1401 Clouds 17 995 68 10000 2.6 160 15:59 24.09.2019
1402 Clouds 18 995 63 10000 2.6 190 15:41 24.09.2019
1403 Clouds 18 995 63 10000 2.6 190 15:22 24.09.2019
1404 Clouds 18 995 63 10000 2.6 190 15:22 24.09.2019
1405 Clouds 18 995 72 10000 3.1 230 14:40 24.09.2019
1406 Clouds 18 995 72 10000 3.1 230 14:19 24.09.2019
1407 Clouds 18 996 72 10000 4.1 210 13:45 24.09.2019
1408 Clouds 17 996 77 10000 2.6 180 13:24 24.09.2019
1409 Clouds 17 996 77 10000 2.6 170 12:59 24.09.2019
1410 Clouds 17 996 77 10000 2.6 170 12:39 24.09.2019
1411 Clouds 16 996 82 10000 2.1 160 12:18 24.09.2019
1412 Clouds 16 996 82 10000 2.1 160 12:18 24.09.2019
1413 Clouds 15 996 87 10000 2.1 180 11:42 24.09.2019
1414 Clouds 15 996 87 10000 2.1 180 11:21 24.09.2019
1415 Clouds 14 996 87 10000 1.5 0 10:56 24.09.2019
1416 Clouds 14 995 93 10000 1 0 10:36 24.09.2019
1417 Clouds 14 995 93 10000 1 0 10:18 24.09.2019
1418 Clouds 13 995 93 10000 0.5 360 09:45 24.09.2019
1419 Clouds 14 995 93 10000 2.1 260 09:27 24.09.2019
1420 Rain 14 995 100 10000 1.5 0 08:57 24.09.2019
1421 Rain 14 996 100 8000 2.1 240 08:38 24.09.2019
1422 Rain 14 996 100 8000 2.1 240 08:19 24.09.2019
1423 Rain 14 996 100 8000 2.1 240 08:19 24.09.2019
1424 Rain 14 996 100 5000 1.5 0 07:52 24.09.2019
1425 Rain 15 996 100 10000 3.6 160 07:25 24.09.2019
1426 Rain 15 996 100 10000 3.6 160 06:56 24.09.2019
1427 Clouds 15 996 93 10000 3.6 140 06:32 24.09.2019
1428 Clouds 15 997 93 10000 3.1 130 05:51 24.09.2019
1429 Clouds 15 997 93 10000 3.1 130 05:20 24.09.2019
1430 Clouds 15 997 93 10000 4.1 160 03:44 24.09.2019
1431 Clouds 15 997 93 10000 3.6 140 02:48 24.09.2019
1432 Clouds 15 998 87 10000 3.1 140 02:30 24.09.2019
1433 Clouds 16 998 88 10000 3.1 200 00:44 24.09.2019
1434 Clouds 16 998 88 10000 3.1 200 00:26 24.09.2019
1435 Rain 16 998 93 10000 3.1 190 23:58 23.09.2019
1436 Rain 16 998 93 10000 3.1 180 23:40 23.09.2019
1437 Rain 16 998 93 10000 3.1 180 23:20 23.09.2019
1438 Rain 16 998 93 10000 3.6 190 22:39 23.09.2019
1439 Rain 16 998 93 10000 3.6 190 22:21 23.09.2019
1440 Clouds 16 998 88 10000 4.1 200 21:58 23.09.2019
1441 Clouds 16 998 88 10000 2.1 170 21:40 23.09.2019
1442 Clouds 16 998 88 10000 2.1 170 21:19 23.09.2019
1443 Clouds 16 997 93 10000 2.1 150 20:55 23.09.2019
1444 Clouds 16 997 100 10000 2.6 140 20:36 23.09.2019
1445 Clouds 16 997 100 10000 2.6 140 20:18 23.09.2019
1446 Clouds 16 997 100 10000 4.1 150 19:39 23.09.2019
1447 Clouds 16 997 100 10000 4.1 150 19:21 23.09.2019
1448 Drizzle 15 997 100 7000 6.7 150 18:57 23.09.2019
1449 Drizzle 15 998 100 4000 7.2 120 18:38 23.09.2019
1450 Drizzle 15 998 100 5000 7.7 130 18:18 23.09.2019
1451 Drizzle 15 998 100 5000 7.7 130 17:55 23.09.2019
1452 Drizzle 14 999 93 8000 7.2 140 17:37 23.09.2019
1453 Drizzle 14 999 93 8000 7.2 140 17:18 23.09.2019
1454 Rain 14 1000 100 9000 7.7 140 16:40 23.09.2019
1455 Rain 14 1000 100 9000 7.7 140 16:22 23.09.2019
1456 Rain 14 1000 93 7000 7.7 150 15:59 23.09.2019
1457 Drizzle 14 1001 93 4000 7.2 140 15:41 23.09.2019
1458 Drizzle 14 1001 93 4000 7.2 140 15:20 23.09.2019
1459 Drizzle 15 1001 87 10000 6.7 130 14:59 23.09.2019
1460 Drizzle 15 1002 93 10000 6.2 140 14:39 23.09.2019
1461 Drizzle 15 1002 93 10000 6.2 140 14:19 23.09.2019
1462 Clouds 15 1002 87 10000 6.2 150 13:57 23.09.2019
1463 Clouds 15 1003 87 10000 5.7 150 13:37 23.09.2019
1464 Drizzle 15 1003 87 10000 4.6 140 13:18 23.09.2019
1465 Clouds 14 1003 87 10000 5.7 160 12:41 23.09.2019
1466 Clouds 14 1003 87 10000 5.7 160 12:21 23.09.2019
1467 Clouds 14 1004 82 10000 4.6 160 11:55 23.09.2019
1468 Clouds 13 1004 87 10000 3.1 140 11:37 23.09.2019
1469 Clouds 13 1004 87 10000 3.1 140 11:18 23.09.2019
1470 Clouds 13 1004 87 10000 3.1 140 11:18 23.09.2019
1471 Clouds 12 1004 87 10000 2.6 140 10:44 23.09.2019
1472 Clouds 11 1004 81 10000 2.1 140 10:20 23.09.2019
1473 Clouds 10 1004 93 10000 2.6 160 09:43 23.09.2019
1474 Clouds 9 1004 93 10000 2.6 160 09:25 23.09.2019
1475 Clouds 9 1004 100 10000 2.1 150 08:58 23.09.2019
1476 Clear 9 1004 100 10000 2.1 180 08:39 23.09.2019
1477 Clear 9 1004 100 10000 2.1 180 08:19 23.09.2019
1478 Clouds 9 1004 100 10000 2.6 200 07:38 23.09.2019
1479 Clouds 8 1004 100 10000 2.6 200 07:20 23.09.2019
1480 Clouds 9 1004 93 10000 2.6 230 06:20 23.09.2019
1481 Clouds 10 1004 93 10000 3.1 240 05:38 23.09.2019
1482 Clouds 11 1004 93 10000 3.1 230 04:58 23.09.2019
1483 Clouds 11 1004 87 10000 4.6 240 03:59 23.09.2019
1484 Drizzle 12 1003 87 10000 5.1 240 01:26 23.09.2019
1485 Rain 13 1002 93 10000 5.1 250 00:38 23.09.2019
1486 Rain 12 1002 93 10000 5.1 250 00:18 23.09.2019
1487 Rain 13 1001 93 10000 5.7 250 23:41 22.09.2019
1488 Rain 13 1001 93 10000 5.7 250 23:21 22.09.2019
1489 Rain 13 1001 100 10000 5.1 250 22:55 22.09.2019
1490 Rain 13 1000 100 10000 6.7 260 22:37 22.09.2019
1491 Rain 13 1000 100 10000 6.7 260 22:18 22.09.2019
1492 Rain 13 999 93 6000 5.7 250 21:42 22.09.2019
1493 Rain 13 999 93 6000 5.7 250 21:42 22.09.2019
1494 Rain 13 999 93 6000 5.7 250 21:20 22.09.2019
1495 Rain 14 998 87 10000 1.5 0 20:45 22.09.2019
1496 Rain 14 998 87 10000 1.5 0 20:45 22.09.2019
1497 Rain 14 998 87 10000 1.5 0 20:27 22.09.2019
1498 Rain 15 998 87 10000 1.5 0 19:59 22.09.2019
1499 Rain 15 998 87 10000 2.1 130 19:40 22.09.2019
1500 Rain 15 998 87 10000 2.1 130 19:40 22.09.2019
1501 Rain 15 998 87 10000 2.1 130 19:20 22.09.2019
1502 Rain 15 999 87 10000 4.1 150 18:57 22.09.2019
1503 Rain 15 999 87 10000 4.1 150 18:57 22.09.2019
1504 Rain 16 999 87 10000 4.6 140 18:38 22.09.2019
1505 Rain 15 999 87 10000 4.6 140 18:18 22.09.2019
1506 Clouds 17 999 88 10000 4.1 130 17:46 22.09.2019
1507 Clouds 17 999 88 10000 4.1 130 17:27 22.09.2019
1508 Clouds 17 999 82 10000 5.1 140 16:58 22.09.2019
1509 Clouds 17 999 88 10000 5.7 140 16:39 22.09.2019
1510 Clouds 17 999 88 10000 5.7 140 16:20 22.09.2019
1511 Clouds 17 999 88 10000 4.6 130 15:45 22.09.2019
1512 Clouds 17 999 93 10000 4.1 120 15:26 22.09.2019
1513 Clouds 17 999 93 9000 4.1 120 14:55 22.09.2019
1514 Clouds 16 999 100 9000 2.6 100 14:37 22.09.2019
1515 Clouds 16 999 100 9000 2.6 100 14:19 22.09.2019
1516 Drizzle 16 999 93 10000 2.6 130 13:42 22.09.2019
1517 Drizzle 16 999 93 10000 2.6 130 13:24 22.09.2019
1518 Clouds 16 999 93 10000 2.6 120 12:57 22.09.2019
1519 Clouds 16 999 93 10000 2.6 120 12:57 22.09.2019
1520 Drizzle 16 999 93 10000 4.1 150 12:39 22.09.2019
1521 Drizzle 16 999 93 10000 4.1 150 12:18 22.09.2019
1522 Clouds 16 999 93 10000 3.1 160 11:55 22.09.2019
1523 Clouds 15 999 100 10000 2.6 140 11:36 22.09.2019
1524 Clouds 15 999 100 10000 2.6 140 11:18 22.09.2019
1525 Rain 15 998 100 10000 3.1 80 10:42 22.09.2019
1526 Rain 15 999 100 10000 2.6 110 10:20 22.09.2019
1527 Rain 15 999 100 10000 2.6 110 10:20 22.09.2019
1528 Rain 15 998 100 8000 4.1 110 09:43 22.09.2019
1529 Rain 15 998 100 8000 4.1 110 09:43 22.09.2019
1530 Rain 15 998 100 8000 4.1 110 09:43 22.09.2019
1531 Rain 15 998 100 8000 4.1 110 09:21 22.09.2019
1532 Rain 15 998 100 3500 3.6 110 08:56 22.09.2019
1533 Rain 15 998 100 3000 4.1 160 08:38 22.09.2019
1534 Rain 15 998 100 5000 2.1 110 08:19 22.09.2019
1535 Rain 15 998 100 5000 2.1 110 07:43 22.09.2019
1536 Drizzle 16 998 93 7000 2.1 120 07:25 22.09.2019
1537 Drizzle 16 999 93 7000 2.1 140 06:57 22.09.2019
1538 Drizzle 16 999 93 7000 3.1 120 06:31 22.09.2019
1539 Rain 16 1000 93 9000 5.1 150 03:54 22.09.2019
1540 Clouds 16 1001 93 9000 5.1 150 02:44 22.09.2019
1541 Clouds 16 1001 93 9000 5.1 150 02:24 22.09.2019
1542 Clouds 16 1001 100 9000 4.6 150 01:35 22.09.2019
1543 Rain 16 1002 100 9000 3.1 150 00:40 22.09.2019
1544 Rain 16 1002 100 9000 3.1 150 00:21 22.09.2019
1545 Rain 16 1002 100 9000 3.1 150 00:21 22.09.2019
1546 Rain 16 1002 100 9000 4.6 150 23:45 21.09.2019
1547 Rain 16 1002 100 9000 4.6 150 23:27 21.09.2019
1548 Rain 16 1003 93 9000 3.6 130 22:40 21.09.2019
1549 Rain 16 1003 93 9000 3.6 130 22:21 21.09.2019
1550 Rain 16 1003 93 10000 2.6 130 21:58 21.09.2019
1551 Rain 16 1003 93 10000 4.1 110 21:40 21.09.2019
1552 Rain 16 1003 93 10000 4.1 110 21:18 21.09.2019
1553 Rain 16 1003 93 10000 4.1 110 21:18 21.09.2019
1554 Rain 17 1003 82 9000 3.6 140 20:41 21.09.2019
1555 Rain 17 1003 82 9000 3.6 140 20:23 21.09.2019
1556 Rain 17 1003 82 10000 3.6 140 19:57 21.09.2019
1557 Rain 17 1003 82 10000 3.6 140 19:57 21.09.2019
1558 Rain 17 1003 77 10000 4.1 140 19:39 21.09.2019
1559 Rain 17 1003 68 10000 5.7 140 19:18 21.09.2019
1560 Rain 17 1004 68 10000 4.6 150 18:39 21.09.2019
1561 Clouds 18 1004 68 10000 5.7 150 18:21 21.09.2019
1562 Clouds 18 1004 68 10000 5.7 150 17:42 21.09.2019
1563 Clouds 18 1004 68 10000 5.7 150 17:42 21.09.2019
1564 Clouds 18 1004 68 10000 5.7 150 17:23 21.09.2019
1565 Clouds 18 1004 68 10000 5.7 150 17:23 21.09.2019
1566 Clouds 18 1004 68 10000 5.7 150 17:23 21.09.2019
1567 Clouds 19 1005 63 10000 6.7 150 16:56 21.09.2019
1568 Clouds 19 1005 59 10000 6.2 150 16:37 21.09.2019
1569 Clouds 19 1005 59 10000 6.2 150 16:18 21.09.2019
1570 Clouds 18 1005 56 10000 7.2 150 15:42 21.09.2019
1571 Clouds 19 1005 56 10000 7.2 150 15:20 21.09.2019
1572 Clouds 19 1006 59 10000 9.3 160 14:47 21.09.2019
1573 Clouds 18 1006 59 10000 9.8 150 14:28 21.09.2019
1574 Clouds 18 1005 59 10000 8.7 150 13:45 21.09.2019
1575 Clouds 18 1005 59 10000 8.7 150 13:26 21.09.2019
1576 Clouds 18 1006 59 10000 7.7 140 12:59 21.09.2019
1577 Clouds 18 1006 63 10000 7.7 140 12:41 21.09.2019
1578 Clouds 17 1006 63 10000 7.7 140 12:21 21.09.2019
1579 Clouds 17 1006 59 10000 6.7 130 11:58 21.09.2019
1580 Clouds 17 1007 67 10000 7.7 130 11:39 21.09.2019
1581 Clouds 17 1007 67 10000 7.7 130 11:19 21.09.2019
1582 Clouds 15 1008 72 10000 5.1 120 10:41 21.09.2019
1583 Clouds 15 1008 72 10000 5.1 120 10:21 21.09.2019
1584 Clouds 15 1008 72 10000 5.1 130 09:57 21.09.2019
1585 Clouds 14 1008 76 10000 5.7 130 09:38 21.09.2019
1586 Clouds 14 1008 76 10000 5.7 130 09:19 21.09.2019
1587 Clouds 14 1008 76 10000 6.7 140 08:50 21.09.2019
1588 Clear 13 1008 71 10000 6.2 140 08:22 21.09.2019
1589 Clear 13 1009 76 10000 6.7 140 07:40 21.09.2019
1590 Clear 14 1009 76 10000 5.1 130 07:20 21.09.2019
1591 Clear 14 1010 76 10000 4.6 140 06:36 21.09.2019
1592 Clear 12 1010 87 10000 5.7 130 05:51 21.09.2019
1593 Clear 12 1011 87 10000 4.1 130 04:48 21.09.2019
1594 Clear 13 1011 87 10000 2.6 130 04:29 21.09.2019
1595 Clear 15 1012 87 10000 5.1 150 02:26 21.09.2019
1596 Clear 15 1013 77 10000 4.6 150 01:50 21.09.2019
1597 Clear 15 1013 77 10000 4.6 150 01:32 21.09.2019
1598 Clear 15 1014 82 10000 4.6 130 00:26 21.09.2019
1599 Clear 15 1014 87 10000 3.6 130 23:58 20.09.2019
1600 Clear 15 1014 87 10000 2.6 110 23:31 20.09.2019
1601 Clouds 14 1015 87 10000 3.1 70 22:59 20.09.2019
1602 Clouds 13 1015 93 10000 3.1 60 22:38 20.09.2019
1603 Clouds 12 1015 93 10000 3.1 60 22:20 20.09.2019
1604 Clouds 13 1015 76 10000 3.1 40 21:55 20.09.2019
1605 Clouds 13 1016 82 10000 3.6 70 21:37 20.09.2019
1606 Clouds 13 1016 82 10000 3.6 70 21:18 20.09.2019
1607 Clear 14 1016 87 10000 5.1 90 20:41 20.09.2019
1608 Clear 14 1016 87 10000 5.1 90 20:21 20.09.2019
1609 Clear 16 1017 72 10000 5.1 110 19:58 20.09.2019
1610 Clear 16 1017 72 10000 5.7 120 19:39 20.09.2019
1611 Clear 16 1017 72 10000 5.7 120 19:20 20.09.2019
1612 Clouds 17 1018 63 10000 4.6 140 18:40 20.09.2019
1613 Clouds 17 1018 63 10000 4.6 140 18:20 20.09.2019
1614 Clouds 17 1018 63 10000 5.7 140 17:58 20.09.2019
1615 Clouds 17 1019 63 10000 6.7 140 17:40 20.09.2019
1616 Clouds 17 1019 63 10000 6.7 140 17:40 20.09.2019
1617 Clouds 17 1019 63 10000 6.7 140 17:21 20.09.2019
1618 Clouds 18 1020 63 10000 6.7 140 16:41 20.09.2019
1619 Clouds 18 1020 63 10000 6.7 140 16:19 20.09.2019
1620 Clouds 18 1021 63 10000 6.7 140 15:43 20.09.2019
1621 Clouds 18 1021 63 10000 6.7 140 15:24 20.09.2019
1622 Clouds 18 1021 63 10000 6.7 140 15:24 20.09.2019
1623 Clouds 18 1022 59 10000 6.7 140 14:59 20.09.2019
1624 Clouds 18 1022 59 10000 6.7 140 14:41 20.09.2019
1625 Clouds 18 1022 59 10000 6.7 140 14:41 20.09.2019
1626 Clouds 18 1022 72 10000 6.7 130 14:18 20.09.2019
1627 Clouds 18 1022 72 10000 6.7 130 14:18 20.09.2019
1628 Clouds 17 1023 72 10000 5.1 140 13:47 20.09.2019
1629 Clouds 17 1023 72 10000 5.1 140 13:27 20.09.2019
1630 Clouds 17 1023 72 10000 5.1 140 12:57 20.09.2019
1631 Clouds 17 1023 82 10000 4.6 130 12:36 20.09.2019
1632 Clouds 17 1023 82 10000 4.6 130 12:18 20.09.2019
1633 Clouds 16 1024 93 10000 3.6 120 11:48 20.09.2019
1634 Clouds 15 1024 87 10000 3.6 120 11:20 20.09.2019
1635 Mist 14 1024 93 3000 3.6 140 10:43 20.09.2019
1636 Mist 13 1024 93 3000 3.6 140 10:24 20.09.2019
1637 Mist 12 1024 100 1200 3.6 130 09:55 20.09.2019
1638 Fog 12 1024 100 1200 3.1 120 09:36 20.09.2019
1639 Fog 11 1024 100 1200 3.1 120 09:18 20.09.2019
1640 Clouds 10 1025 93 10000 0.5 0 08:41 20.09.2019
1641 Clouds 11 1025 93 10000 0.5 0 08:22 20.09.2019
1642 Clouds 11 1025 93 10000 2.6 140 07:45 20.09.2019
1643 Clouds 11 1025 93 10000 2.6 140 07:26 20.09.2019
1644 Clouds 11 1026 93 9000 2.6 140 06:44 20.09.2019
1645 Clouds 11 1026 93 9000 2.6 140 06:44 20.09.2019
1646 Clouds 9 1026 93 9000 2.6 140 06:20 20.09.2019
1647 Clouds 9 1026 100 9000 3.1 140 05:43 20.09.2019
1648 Clouds 9 1027 100 7000 3.6 130 03:31 20.09.2019
1649 Clouds 9 1027 100 7000 3.6 130 03:31 20.09.2019
1650 Clouds 10 1028 100 7000 3.1 130 02:51 20.09.2019
1651 Mist 10 1028 93 5000 1.5 0 01:44 20.09.2019
1652 Clouds 10 1028 93 7000 2.6 100 00:48 20.09.2019
1653 Clouds 12 1029 93 8000 2.1 120 00:21 20.09.2019
1654 Clouds 12 1029 93 8000 2.1 120 00:21 20.09.2019
1655 Clouds 13 1029 100 9000 2.6 120 23:41 19.09.2019
1656 Clouds 13 1029 100 9000 2.6 120 23:19 19.09.2019
1657 Clouds 12 1029 100 9000 2.6 130 22:54 19.09.2019
1658 Clear 13 1029 93 10000 3.6 110 22:36 19.09.2019
1659 Clear 14 1029 87 10000 3.1 130 22:18 19.09.2019
1660 Clear 14 1029 87 10000 3.1 130 21:55 19.09.2019
1661 Clear 14 1029 87 10000 3.1 120 21:36 19.09.2019
1662 Clear 14 1029 87 10000 3.1 120 21:18 19.09.2019
1663 Clear 14 1029 87 10000 3.1 120 21:18 19.09.2019
1664 Clouds 15 1029 82 10000 3.6 110 20:43 19.09.2019
1665 Clouds 16 1029 82 10000 3.6 110 20:20 19.09.2019
1666 Clouds 17 1029 72 10000 3.1 120 19:55 19.09.2019
1667 Clouds 17 1029 72 10000 3.1 130 19:37 19.09.2019
1668 Clear 18 1029 67 10000 3.1 130 19:18 19.09.2019
1669 Clear 18 1029 63 10000 4.1 110 18:42 19.09.2019
1670 Clear 18 1029 63 10000 4.1 110 18:42 19.09.2019
1671 Clear 18 1030 63 10000 3.1 130 18:23 19.09.2019
1672 Clear 18 1030 63 10000 3.1 130 17:44 19.09.2019
1673 Clear 18 1030 63 10000 3.1 130 17:25 19.09.2019
1674 Clear 18 1030 63 10000 3.6 130 16:59 19.09.2019
1675 Clear 19 1030 68 10000 3.6 120 16:40 19.09.2019
1676 Clear 19 1030 68 10000 3.6 120 16:20 19.09.2019
1677 Clear 19 1031 63 10000 3.1 130 15:41 19.09.2019
1678 Clear 19 1031 63 10000 3.1 130 15:22 19.09.2019
1679 Clear 19 1031 63 10000 2.6 130 14:58 19.09.2019
1680 Clear 19 1031 68 10000 2.1 140 14:39 19.09.2019
1681 Clear 18 1031 68 10000 2.6 140 14:21 19.09.2019
1682 Clear 18 1031 68 10000 2.6 140 13:57 19.09.2019
1683 Clear 18 1031 63 10000 2.6 130 13:37 19.09.2019
1684 Clear 18 1031 68 10000 2.1 140 13:18 19.09.2019
1685 Clear 17 1031 67 10000 2.1 150 12:37 19.09.2019
1686 Clear 17 1031 67 10000 2.1 150 12:18 19.09.2019
1687 Clear 15 1031 82 10000 2.1 110 11:41 19.09.2019
1688 Clear 15 1031 82 10000 2.1 110 11:22 19.09.2019
1689 Clear 15 1031 87 10000 1 0 11:22 19.09.2019
1690 Clear 14 1031 87 10000 1 0 10:59 19.09.2019
1691 Clear 12 1031 93 10000 0.71 144.038 10:39 19.09.2019
1692 Clear 12 1031 93 10000 0.71 144.038 10:21 19.09.2019
1693 Clear 12 1031 93 10000 0.71 144.038 10:21 19.09.2019
1694 Clear 10 1031 100 10000 0.5 360 09:57 19.09.2019
1695 Clear 8 1031 100 10000 0.71 144.038 09:39 19.09.2019
1696 Rain 8 1031 100 10000 0.76 273.704 09:19 19.09.2019
1697 Rain 7 1031 100 10000 1 320 08:50 19.09.2019
1698 Clear 7 1030 100 10000 3.6 290 08:23 19.09.2019
1699 Clear 7 1030 100 10000 3.6 290 07:44 19.09.2019
1700 Clear 7 1031 100 10000 2.1 300 07:22 19.09.2019
1701 Clear 7 1031 100 10000 2.1 300 06:57 19.09.2019
1702 Clear 7 1031 100 10000 1 320 06:37 19.09.2019
1703 Clear 7 1030 93 10000 1 320 06:19 19.09.2019
1704 Clear 7 1030 100 10000 1 320 05:42 19.09.2019
1705 Clear 8 1030 93 10000 1.5 320 04:18 19.09.2019
1706 Clear 9 1031 100 10000 0.24 111.351 03:20 19.09.2019
1707 Fog 9 1031 100 10000 1 180 01:40 19.09.2019
1708 Fog 9 1031 100 10000 1 180 01:19 19.09.2019
1709 Clear 9 1031 100 10000 1 180 00:42 19.09.2019
1710 Clear 9 1031 100 10000 1 180 00:18 19.09.2019
1711 Clear 10 1031 93 10000 1.5 160 23:37 18.09.2019
1712 Clear 11 1031 93 10000 1.5 160 23:18 18.09.2019
1713 Clear 11 1031 100 10000 2.1 150 22:38 18.09.2019
1714 Clear 11 1031 100 10000 2.1 150 22:19 18.09.2019
1715 Clear 12 1030 87 10000 2.1 120 21:57 18.09.2019
1716 Clear 12 1030 87 10000 2.6 120 21:39 18.09.2019
1717 Clear 13 1030 87 10000 2.6 120 21:18 18.09.2019
1718 Clear 13 1030 82 10000 2.6 110 20:57 18.09.2019
1719 Clear 13 1030 82 10000 2.6 110 20:57 18.09.2019
1720 Clear 15 1030 77 10000 2.6 120 20:39 18.09.2019
1721 Clear 16 1030 67 10000 2.1 140 20:20 18.09.2019
1722 Clear 16 1030 67 10000 2.1 140 20:20 18.09.2019
1723 Clear 17 1030 67 10000 2.1 140 19:56 18.09.2019
1724 Clear 17 1030 63 10000 2.6 160 19:37 18.09.2019
1725 Clouds 17 1030 67 10000 3.1 140 19:18 18.09.2019
1726 Clouds 18 1030 59 10000 2.6 140 18:54 18.09.2019
1727 Clouds 18 1030 59 10000 2.6 140 18:36 18.09.2019
1728 Clouds 18 1030 59 10000 2.6 140 18:18 18.09.2019
1729 Clouds 18 1030 59 10000 3.1 150 17:41 18.09.2019
1730 Clouds 18 1030 59 10000 3.1 150 17:20 18.09.2019
1731 Clouds 18 1030 63 10000 3.1 150 16:59 18.09.2019
1732 Clouds 18 1030 59 10000 3.1 150 16:41 18.09.2019
1733 Clouds 18 1030 59 10000 3.1 150 16:22 18.09.2019
1734 Clouds 18 1030 55 10000 2.6 130 15:56 18.09.2019
1735 Clouds 18 1030 55 10000 2.6 130 15:56 18.09.2019
1736 Clouds 18 1031 55 10000 2.1 120 15:38 18.09.2019
1737 Clear 18 1031 52 10000 1 0 15:20 18.09.2019
1738 Clear 18 1031 52 10000 1 0 14:58 18.09.2019
1739 Clear 18 1031 59 10000 2.1 210 14:40 18.09.2019
1740 Clear 17 1031 59 10000 2.1 210 14:21 18.09.2019
1741 Clear 18 1031 55 10000 1.5 0 13:58 18.09.2019
1742 Clear 18 1031 55 10000 1.5 0 13:58 18.09.2019
1743 Clear 17 1031 59 10000 1 0 13:37 18.09.2019
1744 Clear 17 1031 59 10000 1 0 13:18 18.09.2019
1745 Clear 16 1031 62 10000 2.1 250 12:42 18.09.2019
1746 Clear 16 1031 62 10000 2.1 250 12:22 18.09.2019
1747 Clear 14 1031 76 10000 2.1 250 11:40 18.09.2019
1748 Clear 14 1031 76 10000 2.1 250 11:40 18.09.2019
1749 Clear 14 1031 76 10000 2.1 250 11:20 18.09.2019
1750 Clear 12 1031 81 10000 2.1 260 10:58 18.09.2019
1751 Clear 11 1030 93 10000 2.1 280 10:39 18.09.2019
1752 Clear 10 1030 93 10000 2.1 280 10:20 18.09.2019
1753 Clear 9 1030 100 10000 1.5 0 09:55 18.09.2019
1754 Clear 7 1030 100 10000 2.1 270 09:37 18.09.2019
1755 Clear 7 1030 100 10000 2.1 270 09:18 18.09.2019
1756 Clear 6 1029 93 10000 1.5 260 08:41 18.09.2019
1757 Clear 6 1029 93 10000 1.5 260 08:21 18.09.2019
1758 Clear 5 1029 100 10000 2.1 260 07:45 18.09.2019
1759 Clear 5 1029 100 10000 2.6 270 07:23 18.09.2019
1760 -273 0 0 0 0 0 06:55 18.09.2019
1761 Clear 6 1029 100 10000 2.6 280 06:29 18.09.2019
1762 Clear 5 1029 100 10000 2.6 270 05:39 18.09.2019
1763 Clear 6 1029 100 10000 1 120 03:49 18.09.2019
1764 Clouds 6 1029 93 10000 2.1 100 02:41 18.09.2019
1765 Clouds 7 1029 100 10000 1.5 110 01:50 18.09.2019
1766 Clouds 8 1029 100 10000 1 130 00:57 18.09.2019
1767 Clouds 7 1029 100 10000 1 130 00:34 18.09.2019
1768 Clouds 8 1029 93 10000 1 160 23:48 17.09.2019
1769 Clouds 8 1029 93 10000 1 160 23:48 17.09.2019
1770 Clouds 8 1029 93 10000 1 160 23:26 17.09.2019
1771 Clouds 8 1029 93 10000 2.1 110 22:59 17.09.2019
1772 Clouds 9 1029 93 10000 1 0 22:41 17.09.2019
1773 Clouds 9 1029 93 10000 1 0 22:22 17.09.2019
1774 Clouds 11 1028 71 10000 1.5 0 21:54 17.09.2019
1775 Clouds 11 1028 71 10000 1.5 0 21:36 17.09.2019
1776 Clouds 11 1028 71 10000 1.5 0 21:18 17.09.2019
1777 Clouds 11 1028 71 10000 1.5 0 21:18 17.09.2019
1778 Clouds 11 1028 71 10000 1.5 0 21:18 17.09.2019
1779 Clouds 13 1028 66 10000 2.1 160 20:57 17.09.2019
1780 Clouds 13 1028 62 10000 1 0 20:38 17.09.2019
1781 Clouds 14 1028 58 10000 1.5 0 20:20 17.09.2019
1782 Clouds 15 1028 58 10000 1.5 0 19:57 17.09.2019
1783 Clouds 15 1028 58 10000 2.1 100 19:38 17.09.2019
1784 Clouds 15 1028 58 10000 2.6 140 19:18 17.09.2019
1785 Clouds 16 1028 55 10000 2.6 100 18:43 17.09.2019
1786 Clouds 16 1028 55 10000 2.6 100 18:22 17.09.2019
1787 Clouds 16 1029 58 10000 2.6 80 17:56 17.09.2019
1788 Clouds 16 1029 58 10000 2.6 80 17:38 17.09.2019
1789 Clouds 16 1029 58 10000 2.6 80 17:19 17.09.2019
1790 Clouds 16 1029 59 10000 3.1 80 16:42 17.09.2019
1791 Clouds 16 1029 59 10000 3.1 80 16:22 17.09.2019
1792 Clouds 16 1028 59 10000 3.1 20 15:59 17.09.2019
1793 Clouds 16 1028 55 10000 3.6 10 15:38 17.09.2019
1794 Clouds 16 1028 55 10000 3.6 10 15:19 17.09.2019
1795 Clouds 16 1028 55 10000 3.6 10 15:19 17.09.2019
1796 Clouds 16 1028 62 10000 3.6 340 14:56 17.09.2019
1797 Clouds 16 1028 62 10000 3.6 340 14:56 17.09.2019
1798 Clouds 15 1028 62 10000 3.1 360 14:37 17.09.2019
1799 Clouds 15 1028 62 10000 3.1 360 14:19 17.09.2019
1800 Clouds 15 1029 62 10000 3.6 10 13:43 17.09.2019
1801 Clouds 14 1029 62 10000 3.6 10 13:23 17.09.2019
1802 Clouds 14 1028 67 10000 4.1 10 12:56 17.09.2019
1803 Clouds 14 1028 67 10000 4.1 10 12:56 17.09.2019
1804 Clouds 14 1028 71 10000 4.6 340 12:37 17.09.2019
1805 Clouds 13 1028 81 10000 4.1 330 12:18 17.09.2019
1806 Clouds 12 1028 76 10000 4.1 310 11:42 17.09.2019
1807 Clouds 12 1028 76 10000 4.1 310 11:24 17.09.2019
1808 Clouds 12 1028 81 10000 3.6 300 11:24 17.09.2019
1809 Clouds 11 1028 81 10000 3.6 300 10:55 17.09.2019
1810 Clouds 10 1028 93 10000 3.6 290 10:37 17.09.2019
1811 Clouds 9 1028 93 10000 3.6 290 10:18 17.09.2019
1812 Clouds 8 1028 93 10000 3.6 290 09:41 17.09.2019
1813 Clouds 7 1028 93 10000 3.6 290 09:21 17.09.2019
1814 Clouds 6 1027 100 10000 4.1 290 08:50 17.09.2019
1815 Clouds 6 1027 100 10000 4.6 290 08:32 17.09.2019
1816 Clouds 6 1027 93 10000 4.6 290 07:59 17.09.2019
1817 Clouds 6 1027 100 10000 4.1 290 07:39 17.09.2019
1818 Clouds 6 1027 100 10000 4.1 290 07:39 17.09.2019
1819 Clouds 6 1027 100 10000 4.1 290 07:39 17.09.2019
1820 Clouds 6 1027 100 10000 3.6 300 07:19 17.09.2019
1821 Clouds 7 1027 100 10000 3.6 300 06:45 17.09.2019
1822 Clouds 6 1027 100 10000 3.6 300 06:20 17.09.2019
1823 Clouds 7 1026 100 10000 3.1 280 05:47 17.09.2019
1824 Clouds 7 1026 100 10000 3.1 310 04:29 17.09.2019
1825 Clouds 7 1026 100 10000 3.1 310 04:29 17.09.2019
1826 Rain 7 1026 100 10000 3.1 300 02:57 17.09.2019
1827 Clear 7 1026 100 10000 3.1 300 02:38 17.09.2019
1828 Clear 8 1026 93 10000 3.6 290 01:24 17.09.2019
1829 Clear 8 1026 93 10000 4.1 280 00:40 17.09.2019
1830 Clear 8 1026 93 10000 2.6 260 23:39 16.09.2019
1831 Clear 8 1026 93 10000 2.6 260 23:19 16.09.2019
1832 Clear 9 1026 87 10000 2.6 260 22:56 16.09.2019
1833 Clear 9 1026 87 10000 2.6 260 22:56 16.09.2019
1834 Clouds 8 1026 93 10000 2.6 270 22:37 16.09.2019
1835 Clouds 8 1026 93 10000 2.6 270 22:19 16.09.2019
1836 Clouds 11 1026 87 10000 2.1 260 21:41 16.09.2019
1837 Clouds 11 1026 87 10000 2.1 260 21:22 16.09.2019
1838 Clouds 12 1025 81 10000 3.6 290 20:59 16.09.2019
1839 Clouds 12 1025 82 10000 2.6 310 20:40 16.09.2019
1840 Clouds 13 1025 82 10000 2.6 310 20:20 16.09.2019
1841 Clouds 13 1025 82 10000 3.1 10 19:57 16.09.2019
1842 Clouds 13 1025 82 10000 2.6 350 19:38 16.09.2019
1843 Clouds 13 1025 82 10000 2.6 350 19:18 16.09.2019
1844 Clouds 14 1025 71 10000 2.6 360 18:46 16.09.2019
1845 Clouds 14 1025 71 10000 2.6 360 18:27 16.09.2019
1846 Clouds 14 1025 76 10000 3.1 360 17:57 16.09.2019
1847 Clouds 13 1025 82 10000 2.6 10 17:38 16.09.2019
1848 Clouds 13 1025 82 10000 2.6 50 17:19 16.09.2019
1849 Clouds 13 1025 82 10000 2.6 50 16:44 16.09.2019
1850 Drizzle 13 1025 87 10000 4.1 60 16:22 16.09.2019
1851 Drizzle 13 1025 82 10000 3.6 50 15:58 16.09.2019
1852 Drizzle 14 1025 82 10000 3.1 40 15:39 16.09.2019
1853 Drizzle 14 1025 82 10000 3.1 40 15:21 16.09.2019
1854 Drizzle 14 1025 82 10000 3.1 40 14:58 16.09.2019
1855 Drizzle 14 1025 87 10000 3.1 30 14:40 16.09.2019
1856 Drizzle 13 1025 87 10000 3.1 30 14:21 16.09.2019
1857 Rain 13 1025 100 10000 4.1 10 13:43 16.09.2019
1858 Rain 13 1025 100 10000 4.1 10 13:22 16.09.2019
1859 Rain 13 1024 100 8000 3.1 10 12:59 16.09.2019
1860 Drizzle 13 1024 100 4000 4.1 20 12:39 16.09.2019
1861 Drizzle 12 1024 100 3500 3.6 50 12:21 16.09.2019
1862 Drizzle 12 1024 100 3500 3.6 50 11:46 16.09.2019
1863 Rain 12 1024 100 3500 3.6 50 11:23 16.09.2019
1864 Rain 12 1024 100 3500 3.6 50 10:56 16.09.2019
1865 Rain 12 1023 100 3500 3.6 60 10:38 16.09.2019
1866 Rain 12 1023 100 3500 3.6 60 10:19 16.09.2019
1867 Rain 12 1023 100 2500 3.6 50 09:55 16.09.2019
1868 Rain 12 1023 100 2500 3.6 50 09:36 16.09.2019
1869 Rain 12 1023 100 2500 3.6 50 09:18 16.09.2019
1870 Rain 12 1022 100 4000 3.6 50 08:41 16.09.2019
1871 Rain 12 1022 100 4000 3.6 50 08:41 16.09.2019
1872 Rain 12 1022 100 4000 3.6 50 08:22 16.09.2019
1873 Rain 12 1022 100 4000 4.1 60 07:43 16.09.2019
1874 Drizzle 12 1022 100 4000 4.1 60 07:24 16.09.2019
1875 Drizzle 12 1022 100 5000 3.6 70 06:58 16.09.2019
1876 Rain 12 1022 100 5000 4.1 60 06:39 16.09.2019
1877 Rain 12 1022 100 5000 4.1 60 06:20 16.09.2019
1878 Rain 13 1022 100 5000 3.6 50 05:42 16.09.2019
1879 Rain 13 1022 100 5000 3.6 50 05:21 16.09.2019
1880 Rain 13 1022 100 6000 3.1 80 03:37 16.09.2019
1881 Rain 13 1023 100 5000 4.1 80 01:31 16.09.2019
1882 Rain 13 1023 100 5000 3.6 90 00:38 16.09.2019
1883 Rain 13 1023 100 5000 3.6 90 00:20 16.09.2019
1884 Rain 13 1023 100 5000 2.6 110 23:39 15.09.2019
1885 Rain 13 1023 100 5000 2.6 110 23:20 15.09.2019
1886 Rain 13 1023 100 2000 3.1 90 22:40 15.09.2019
1887 Rain 13 1023 100 2000 3.1 90 22:21 15.09.2019
1888 Rain 13 1023 100 2000 3.1 80 21:58 15.09.2019
1889 Rain 13 1023 100 2000 3.1 90 21:39 15.09.2019
1890 Rain 13 1023 100 2000 3.1 90 21:39 15.09.2019
1891 Rain 13 1023 100 2000 3.1 90 21:39 15.09.2019
1892 Rain 13 1023 100 2000 3.1 90 21:39 15.09.2019
1893 Rain 13 1023 100 2000 3.1 90 21:21 15.09.2019
1894 Rain 14 1023 100 2000 3.1 90 20:57 15.09.2019
1895 Rain 14 1023 100 2000 3.1 90 20:57 15.09.2019
1896 Rain 14 1023 93 2000 3.1 100 20:38 15.09.2019
1897 Rain 14 1023 100 2500 3.1 90 20:20 15.09.2019
1898 Rain 14 1023 93 2500 3.1 80 19:42 15.09.2019
1899 Rain 14 1023 93 2500 3.6 70 19:22 15.09.2019
1900 Rain 14 1023 100 2000 4.1 60 18:42 15.09.2019
1901 Rain 14 1023 100 2000 4.1 60 18:24 15.09.2019
1902 Rain 14 1023 100 2500 4.6 70 17:58 15.09.2019
1903 Rain 15 1023 93 2500 4.1 70 17:39 15.09.2019
1904 Rain 15 1023 93 2500 4.1 70 17:20 15.09.2019
1905 Rain 15 1024 100 3000 3.6 60 16:44 15.09.2019
1906 Rain 15 1024 100 3000 3.6 80 16:25 15.09.2019
1907 Rain 15 1024 93 2000 4.1 80 15:58 15.09.2019
1908 Rain 15 1024 93 2000 3.6 90 15:40 15.09.2019
1909 Rain 15 1024 93 2000 3.6 90 15:20 15.09.2019
1910 Rain 15 1024 93 1400 2.6 70 14:57 15.09.2019
1911 Rain 14 1024 100 2000 3.1 90 14:38 15.09.2019
1912 Rain 14 1024 100 2000 3.1 90 14:20 15.09.2019
1913 Rain 13 1025 100 2500 2.6 40 13:46 15.09.2019
1914 Drizzle 13 1025 87 4000 2.1 50 13:24 15.09.2019
1915 Drizzle 13 1025 87 6000 2.6 40 12:55 15.09.2019
1916 Drizzle 13 1025 82 7000 1.5 0 12:36 15.09.2019
1917 Drizzle 13 1025 82 7000 1.5 0 12:18 15.09.2019
1918 Rain 13 1025 87 6000 3.1 360 11:42 15.09.2019
1919 Rain 13 1025 87 6000 3.1 360 11:22 15.09.2019
1920 Rain 13 1025 93 8000 4.1 340 10:56 15.09.2019
1921 Rain 14 1025 100 6000 4.6 350 10:38 15.09.2019
1922 Drizzle 14 1025 100 6000 4.6 350 10:19 15.09.2019
1923 Drizzle 15 1024 93 2000 4.1 340 09:40 15.09.2019
1924 Drizzle 15 1024 93 2000 4.1 340 09:20 15.09.2019
1925 Drizzle 15 1024 93 9000 4.1 260 08:47 15.09.2019
1926 Drizzle 15 1024 93 2000 4.6 280 08:47 15.09.2019
1927 Drizzle 15 1024 93 9000 4.1 260 08:28 15.09.2019
1928 Drizzle 15 1024 93 9000 4.1 260 08:28 15.09.2019
1929 Drizzle 15 1023 93 9000 4.6 250 07:51 15.09.2019
1930 Drizzle 15 1023 93 8000 5.1 250 07:32 15.09.2019
1931 Clouds 15 1023 93 10000 5.7 250 06:43 15.09.2019
1932 Clouds 15 1024 82 10000 5.7 250 03:32 15.09.2019
1933 Clouds 15 1024 82 10000 6.2 250 02:42 15.09.2019
1934 Clouds 16 1024 72 10000 5.7 250 01:45 15.09.2019
1935 Clouds 16 1024 72 10000 5.7 250 01:45 15.09.2019
1936 Clouds 16 1024 72 10000 5.7 250 01:45 15.09.2019
1937 Clouds 16 1024 72 10000 5.7 250 01:27 15.09.2019
1938 Clouds 16 1025 67 10000 5.7 250 00:50 15.09.2019
1939 Clouds 16 1025 67 10000 5.7 250 00:24 15.09.2019
1940 Clouds 16 1025 63 10000 5.1 240 23:59 14.09.2019
1941 Clouds 17 1025 63 10000 4.1 230 23:41 14.09.2019
1942 Clouds 17 1025 63 10000 4.1 230 23:22 14.09.2019
1943 Clouds 16 1025 67 10000 3.6 240 22:59 14.09.2019
1944 Clouds 16 1025 59 10000 4.1 240 22:40 14.09.2019
1945 Clouds 15 1025 59 10000 4.1 240 22:21 14.09.2019
1946 Clouds 16 1026 63 10000 3.1 240 21:57 14.09.2019
1947 Clouds 16 1026 59 10000 3.1 230 21:39 14.09.2019
1948 Clouds 17 1026 59 10000 3.1 230 21:19 14.09.2019
1949 Clouds 17 1026 55 10000 3.1 230 20:55 14.09.2019
1950 -273 0 0 0 0 0 20:55 14.09.2019
1951 Clouds 17 1026 52 10000 4.1 230 20:36 14.09.2019
1952 Clouds 17 1026 52 10000 4.1 230 20:18 14.09.2019
1953 Clear 19 1026 45 10000 4.6 240 19:44 14.09.2019
1954 Clear 19 1026 45 10000 4.6 240 19:21 14.09.2019
1955 Clear 19 1026 45 10000 4.6 230 18:55 14.09.2019
1956 Clear 19 1027 45 10000 4.6 240 18:37 14.09.2019
1957 Clear 19 1027 45 10000 4.6 240 18:18 14.09.2019
1958 Clear 20 1027 45 10000 5.7 240 17:42 14.09.2019
1959 Clear 19 1027 45 10000 5.7 240 17:22 14.09.2019
1960 Clear 20 1028 45 10000 5.1 240 16:47 14.09.2019
1961 Clear 20 1028 45 10000 5.1 240 16:26 14.09.2019
1962 Clear 20 1028 48 10000 5.1 240 15:57 14.09.2019
1963 Clear 19 1029 45 10000 5.1 240 15:38 14.09.2019
1964 Clear 19 1029 45 10000 5.1 240 15:19 14.09.2019
1965 Clear 18 1029 48 10000 4.6 230 14:43 14.09.2019
1966 Clear 18 1030 48 10000 4.6 240 14:19 14.09.2019
1967 Clear 18 1029 48 10000 4.6 230 14:19 14.09.2019
1968 Clear 17 1030 48 10000 4.6 240 13:48 14.09.2019
1969 Clouds 17 1030 51 10000 4.6 230 13:23 14.09.2019
1970 Clouds 17 1030 51 10000 4.6 230 12:58 14.09.2019
1971 Clouds 16 1031 48 10000 4.1 230 12:37 14.09.2019
1972 Clouds 16 1031 48 10000 4.1 230 12:18 14.09.2019
1973 Clouds 14 1031 58 10000 3.1 220 11:40 14.09.2019
1974 Clouds 14 1031 58 10000 3.1 220 11:19 14.09.2019
1975 Clear 12 1031 66 10000 2.6 210 10:38 14.09.2019
1976 Clear 11 1031 66 10000 2.6 210 10:20 14.09.2019
1977 Clouds 10 1031 71 10000 1 0 09:57 14.09.2019
1978 Clouds 9 1032 81 10000 1 0 09:39 14.09.2019
1979 Clouds 8 1032 76 10000 0.5 0 09:19 14.09.2019
1980 Clouds 7 1032 87 10000 1.5 0 08:46 14.09.2019
1981 Clouds 7 1032 87 10000 1.5 0 08:23 14.09.2019
1982 Clouds 7 1032 87 10000 2.1 240 07:46 14.09.2019
1983 Clouds 7 1032 87 10000 2.1 240 07:28 14.09.2019
1984 Clouds 7 1033 93 10000 1.5 0 06:44 14.09.2019
1985 Clouds 7 1033 93 10000 1.5 0 06:25 14.09.2019
1986 Clouds 6 1034 93 10000 3.6 290 05:25 14.09.2019
1987 Clouds 6 1035 93 10000 3.1 290 03:45 14.09.2019
1988 Clouds 7 1035 93 10000 1 290 02:52 14.09.2019
1989 Clouds 9 1035 81 10000 1.5 210 01:50 14.09.2019
1990 Clouds 10 1035 81 10000 3.1 160 01:22 14.09.2019
1991 Clouds 9 1036 87 10000 1.5 160 00:57 14.09.2019
1992 Clouds 10 1036 81 10000 2.1 160 00:38 14.09.2019
1993 Clouds 10 1036 81 10000 2.1 160 00:19 14.09.2019
1994 Clouds 10 1036 76 10000 3.1 150 23:38 13.09.2019
1995 Clouds 11 1036 76 10000 3.1 150 23:19 13.09.2019
1996 Clouds 11 1036 76 10000 3.1 150 22:57 13.09.2019
1997 Clouds 11 1036 81 10000 3.1 160 22:38 13.09.2019
1998 Clouds 11 1036 81 10000 3.1 160 22:19 13.09.2019
1999 Clouds 13 1036 76 10000 2.6 140 21:41 13.09.2019
2000 Clouds 14 1036 76 10000 2.6 140 21:20 13.09.2019
2001 Clouds 14 1036 71 10000 2.6 140 20:59 13.09.2019
2002 Clouds 15 1037 72 10000 3.1 110 20:40 13.09.2019
2003 Clouds 15 1037 72 10000 3.1 110 20:21 13.09.2019
2004 Clouds 15 1037 72 10000 3.1 150 19:56 13.09.2019
2005 Clouds 15 1036 67 10000 4.1 160 19:37 13.09.2019
2006 Clouds 15 1036 67 10000 4.1 160 19:37 13.09.2019
2007 Clouds 16 1036 51 10000 3.6 280 19:19 13.09.2019
2008 -273 0 0 0 0 0 18:55 13.09.2019
2009 Clouds 16 1036 55 10000 2.6 300 18:36 13.09.2019
2010 Clouds 16 1036 55 10000 2.6 300 18:18 13.09.2019
2011 Clouds 16 1037 59 10000 2.6 270 17:38 13.09.2019
2012 Clouds 16 1037 59 10000 2.6 270 17:19 13.09.2019
2013 Clouds 16 1037 55 10000 3.1 300 16:41 13.09.2019
2014 Clouds 16 1037 59 10000 3.1 290 16:20 13.09.2019
2015 Clouds 16 1038 58 10000 3.1 300 15:46 13.09.2019
2016 Clouds 16 1038 58 10000 3.1 300 15:28 13.09.2019
2017 Clouds 16 1037 67 10000 3.1 290 14:59 13.09.2019
2018 Clouds 16 1037 62 10000 3.6 280 14:41 13.09.2019
2019 Clouds 16 1037 62 10000 3.6 280 14:22 13.09.2019
2020 Clouds 16 1037 62 10000 3.6 280 14:22 13.09.2019
2021 Clouds 16 1037 59 10000 3.1 300 13:54 13.09.2019
2022 Clouds 15 1037 62 10000 4.1 290 13:36 13.09.2019
2023 Clouds 15 1037 62 10000 4.1 290 13:18 13.09.2019
2024 Clouds 15 1037 62 10000 4.1 290 13:18 13.09.2019
2025 Clouds 14 1037 76 10000 3.6 280 12:41 13.09.2019
2026 Clouds 14 1037 76 10000 3.6 280 12:22 13.09.2019
2027 Clouds 14 1037 76 10000 3.6 270 11:55 13.09.2019
2028 Clouds 13 1037 81 10000 3.1 260 11:19 13.09.2019
2029 Clouds 12 1037 87 10000 3.1 260 10:39 13.09.2019
2030 Clouds 11 1037 87 10000 3.1 260 10:19 13.09.2019
2031 Clouds 10 1036 93 10000 3.1 260 09:46 13.09.2019
2032 Clouds 9 1036 93 10000 3.1 260 09:25 13.09.2019
2033 Clouds 8 1036 93 10000 3.1 250 08:59 13.09.2019
2034 Clouds 7 1036 93 10000 3.1 250 08:40 13.09.2019
2035 Clouds 7 1036 93 10000 3.1 250 08:20 13.09.2019
2036 Clear 7 1035 93 10000 3.6 260 07:46 13.09.2019
2037 Clear 7 1035 93 10000 3.6 260 07:27 13.09.2019
2038 Clear 7 1034 93 10000 3.6 260 06:48 13.09.2019
2039 Clear 7 1034 87 10000 2.6 260 05:49 13.09.2019
2040 Clear 7 1033 87 10000 3.6 270 04:57 13.09.2019
2041 Clear 8 1033 87 10000 3.6 270 03:40 13.09.2019
2042 Clear 8 1033 93 10000 2.6 260 02:20 13.09.2019
2043 Clear 8 1032 87 10000 3.1 270 01:59 13.09.2019
2044 Clear 8 1032 87 10000 3.1 270 01:33 13.09.2019
2045 Clear 9 1032 87 10000 3.6 280 00:47 13.09.2019
2046 Clear 9 1032 81 10000 4.1 280 00:21 13.09.2019
2047 Clear 10 1031 81 10000 5.1 290 23:38 12.09.2019
2048 Clear 11 1031 81 10000 5.1 290 23:19 12.09.2019
2049 Clouds 11 1030 87 10000 4.1 270 22:42 12.09.2019
2050 Clouds 11 1030 87 10000 4.1 270 22:23 12.09.2019
2051 Clouds 12 1029 81 10000 4.1 270 21:57 12.09.2019
2052 Clouds 12 1029 76 10000 3.6 290 21:38 12.09.2019
2053 Clouds 12 1029 76 10000 3.6 290 21:38 12.09.2019
2054 Clouds 12 1029 76 10000 3.6 290 21:19 12.09.2019
2055 Clouds 14 1028 82 10000 4.6 310 20:56 12.09.2019
2056 Clouds 14 1028 67 10000 6.2 300 20:37 12.09.2019
2057 Clouds 15 1028 67 10000 6.2 300 20:19 12.09.2019
2058 Clouds 15 1028 67 10000 6.2 300 20:19 12.09.2019
2059 Clouds 15 1026 77 10000 7.7 300 19:42 12.09.2019
2060 Clouds 15 1026 77 10000 7.7 300 19:20 12.09.2019
2061 Drizzle 15 1026 82 10000 8.2 300 18:58 12.09.2019
2062 Drizzle 16 1025 77 10000 7.2 310 18:37 12.09.2019
2063 Clouds 16 1024 77 10000 8.2 310 18:19 12.09.2019
2064 Clouds 16 1024 77 10000 8.2 310 17:56 12.09.2019
2065 Clouds 17 1023 77 10000 7.7 310 17:38 12.09.2019
2066 Clouds 18 1023 88 10000 9.3 310 17:19 12.09.2019
2067 Clouds 18 1022 88 10000 8.2 280 16:41 12.09.2019
2068 Clouds 18 1022 88 10000 8.2 280 16:21 12.09.2019
2069 Drizzle 20 1021 77 10000 5.7 240 15:43 12.09.2019
2070 Drizzle 20 1021 77 10000 5.7 240 15:24 12.09.2019
2071 Drizzle 20 1020 77 10000 6.2 240 14:58 12.09.2019
2072 Drizzle 20 1020 72 10000 6.7 240 14:39 12.09.2019
2073 Drizzle 20 1020 72 10000 6.7 240 14:20 12.09.2019
2074 Clouds 19 1020 77 10000 5.1 230 13:39 12.09.2019
2075 Clouds 19 1020 77 10000 5.1 230 13:39 12.09.2019
2076 Clouds 19 1020 77 10000 5.1 230 13:21 12.09.2019
2077 Clouds 18 1019 82 10000 5.7 230 12:49 12.09.2019
2078 Clouds 18 1019 82 10000 5.7 230 12:20 12.09.2019
2079 Clouds 18 1019 82 10000 5.7 230 12:20 12.09.2019
2080 Clouds 18 1019 82 10000 5.7 230 12:20 12.09.2019
2081 Clouds 18 1019 77 10000 6.2 220 11:59 12.09.2019
2082 Clouds 18 1019 77 10000 6.7 220 11:40 12.09.2019
2083 Clouds 18 1019 77 10000 6.7 220 11:21 12.09.2019
2084 -273 0 0 0 0 0 10:56 12.09.2019
2085 Clouds 18 1019 82 10000 6.2 210 10:37 12.09.2019
2086 Clouds 17 1019 82 10000 6.2 210 10:18 12.09.2019
2087 Drizzle 16 1020 87 10000 4.6 210 09:42 12.09.2019
2088 Drizzle 16 1020 87 10000 4.6 210 09:20 12.09.2019
2089 Rain 15 1020 87 10000 5.1 220 08:45 12.09.2019
2090 Rain 15 1020 87 10000 5.1 220 08:45 12.09.2019
2091 Rain 15 1020 87 10000 5.1 220 08:25 12.09.2019
2092 Rain 15 1020 87 10000 4.6 220 07:56 12.09.2019
2093 Clouds 15 1020 87 10000 4.6 210 07:36 12.09.2019
2094 Rain 14 1020 87 10000 3.1 200 07:18 12.09.2019
2095 Clouds 14 1020 77 10000 2.6 200 06:46 12.09.2019
2096 Clouds 14 1020 77 10000 2.6 200 06:18 12.09.2019
2097 Clouds 14 1020 76 10000 3.1 200 05:42 12.09.2019
2098 Clouds 14 1020 76 10000 3.1 200 05:19 12.09.2019
2099 Clear 13 1021 76 10000 3.1 220 03:58 12.09.2019
2100 Clear 13 1021 76 10000 3.6 250 01:44 12.09.2019
2101 Clear 13 1021 76 10000 3.6 250 01:26 12.09.2019
2102 Clear 13 1021 82 10000 3.6 240 00:50 12.09.2019
2103 Clear 13 1021 76 10000 4.1 240 00:31 12.09.2019
2104 Clouds 13 1021 76 10000 3.1 250 23:45 11.09.2019
2105 Clouds 13 1021 76 10000 3.1 250 23:25 11.09.2019
2106 Clouds 14 1021 72 10000 5.1 250 22:58 11.09.2019
2107 Clouds 14 1021 72 10000 3.6 250 22:38 11.09.2019
2108 Clouds 14 1020 72 10000 3.6 250 22:20 11.09.2019
2109 Clouds 14 1020 72 10000 3.6 250 21:59 11.09.2019
2110 Clouds 15 1020 72 10000 3.6 250 21:41 11.09.2019
2111 Clouds 15 1020 72 10000 3.6 250 21:22 11.09.2019
2112 Clouds 15 1019 67 10000 5.1 250 20:56 11.09.2019
2113 Clouds 15 1019 67 10000 5.1 250 20:37 11.09.2019
2114 Clouds 15 1019 67 10000 5.1 250 20:18 11.09.2019
2115 Clouds 16 1019 67 10000 5.1 260 19:55 11.09.2019
2116 Clouds 16 1019 67 10000 5.1 260 19:55 11.09.2019
2117 Clouds 16 1019 67 10000 6.7 270 19:37 11.09.2019
2118 Clouds 16 1019 67 10000 6.7 270 19:19 11.09.2019
2119 Clouds 17 1019 63 10000 6.2 270 18:42 11.09.2019
2120 Clouds 17 1019 63 10000 6.2 270 18:23 11.09.2019
2121 Clouds 17 1019 63 10000 6.2 270 18:23 11.09.2019
2122 Clouds 17 1019 63 10000 6.2 250 17:58 11.09.2019
2123 Clouds 17 1018 59 10000 6.2 250 17:40 11.09.2019
2124 Clouds 17 1018 59 10000 6.2 250 17:21 11.09.2019
2125 Clouds 18 1018 52 10000 7.2 260 16:56 11.09.2019
2126 Clouds 18 1018 59 10000 9.8 270 16:36 11.09.2019
2127 Clouds 18 1018 59 10000 9.8 270 16:18 11.09.2019
2128 Clouds 17 1017 63 10000 8.7 270 15:46 11.09.2019
2129 Clouds 17 1017 63 10000 8.7 270 15:23 11.09.2019
2130 Clouds 17 1017 59 10000 7.2 260 14:57 11.09.2019
2131 Clouds 17 1017 67 10000 8.2 290 14:38 11.09.2019
2132 Rain 17 1016 59 10000 7.7 260 14:19 11.09.2019
2133 Rain 17 1016 59 10000 7.7 260 13:55 11.09.2019
2134 Rain 17 1016 59 10000 7.7 260 13:36 11.09.2019
2135 Rain 17 1016 59 10000 7.7 260 13:18 11.09.2019
2136 Rain 16 1015 72 10000 7.7 270 12:41 11.09.2019
2137 Rain 16 1015 72 10000 7.7 270 12:21 11.09.2019
2138 Rain 16 1015 77 10000 8.7 270 11:55 11.09.2019
2139 Clouds 16 1015 82 10000 6.7 260 11:36 11.09.2019
2140 Clouds 16 1015 82 10000 6.7 260 11:18 11.09.2019
2141 Clouds 15 1014 87 10000 5.7 260 10:40 11.09.2019
2142 Clouds 15 1014 87 10000 5.7 260 10:22 11.09.2019
2143 Clouds 14 1014 87 10000 7.7 270 09:41 11.09.2019
2144 Clouds 14 1014 87 10000 7.7 270 09:20 11.09.2019
2145 Clouds 14 1013 87 10000 7.2 270 08:59 11.09.2019
2146 Rain 14 1013 87 10000 8.2 280 08:39 11.09.2019
2147 Rain 15 1012 87 8000 10.3 290 08:21 11.09.2019
2148 Drizzle 16 1011 93 7000 5.7 240 07:46 11.09.2019
2149 Drizzle 15 1011 93 7000 5.7 240 07:23 11.09.2019
2150 Drizzle 16 1011 93 7000 6.2 240 06:54 11.09.2019
2151 Drizzle 16 1011 93 7000 6.7 240 06:35 11.09.2019
2152 Drizzle 17 1011 82 10000 6.2 240 05:49 11.09.2019
2153 Drizzle 17 1011 82 10000 6.2 240 05:28 11.09.2019
2154 Drizzle 17 1011 82 10000 7.2 240 04:51 11.09.2019
2155 Drizzle 17 1012 82 10000 7.2 240 03:36 11.09.2019
2156 Clouds 16 1012 87 10000 6.2 230 02:56 11.09.2019
2157 Clouds 16 1012 87 10000 6.7 230 02:26 11.09.2019
2158 Clouds 16 1013 82 10000 7.2 230 00:53 11.09.2019
2159 Clouds 16 1013 87 10000 6.7 230 00:29 11.09.2019
2160 Rain 16 1013 82 10000 7.2 230 23:56 10.09.2019
2161 Clouds 16 1014 82 10000 6.7 220 23:38 10.09.2019
2162 Clouds 16 1014 82 10000 6.7 220 23:20 10.09.2019
2163 Rain 16 1014 77 10000 5.7 220 22:41 10.09.2019
2164 Rain 15 1014 77 10000 5.7 220 22:20 10.09.2019
2165 Clouds 15 1015 77 10000 5.1 220 21:56 10.09.2019
2166 Clouds 15 1015 72 10000 5.1 220 21:38 10.09.2019
2167 Clouds 15 1015 72 10000 5.1 220 21:20 10.09.2019
2168 Rain 14 1016 71 10000 5.7 220 20:58 10.09.2019
2169 Clouds 15 1016 67 10000 5.7 220 20:39 10.09.2019
2170 Clouds 15 1016 67 10000 5.7 220 20:21 10.09.2019
2171 Rain 14 1016 71 10000 5.7 210 19:57 10.09.2019
2172 Rain 14 1017 71 10000 6.2 210 19:37 10.09.2019
2173 Rain 14 1017 71 10000 6.2 210 19:19 10.09.2019
2174 Clouds 15 1017 67 10000 5.1 210 18:55 10.09.2019
2175 Clouds 15 1018 67 10000 4.6 210 18:37 10.09.2019
2176 Clouds 15 1018 67 10000 4.6 210 18:19 10.09.2019
2177 Clouds 15 1018 67 10000 4.6 220 17:43 10.09.2019
2178 Clouds 15 1018 67 10000 4.6 220 17:23 10.09.2019
2179 Drizzle 15 1019 58 10000 5.7 220 16:59 10.09.2019
2180 Drizzle 15 1019 62 10000 4.1 230 16:39 10.09.2019
2181 Drizzle 15 1019 62 10000 4.1 230 16:21 10.09.2019
2182 Rain 15 1019 58 10000 4.6 230 15:59 10.09.2019
2183 Clouds 15 1020 62 10000 4.1 230 15:40 10.09.2019
2184 Clouds 15 1020 62 10000 4.1 230 15:20 10.09.2019
2185 Clouds 16 1020 51 10000 5.1 240 14:41 10.09.2019
2186 Clouds 16 1020 51 10000 5.1 240 14:23 10.09.2019
2187 Clouds 15 1020 62 10000 3.6 230 13:56 10.09.2019
2188 Clouds 15 1020 62 10000 3.6 220 13:37 10.09.2019
2189 Clouds 15 1020 62 10000 3.6 220 13:19 10.09.2019
2190 Clouds 14 1021 81 10000 2.6 230 12:43 10.09.2019
2191 Clouds 13 1021 81 10000 2.6 230 12:24 10.09.2019
2192 Clouds 12 1021 87 10000 2.6 250 11:56 10.09.2019
2193 Clouds 11 1021 93 10000 3.1 250 11:38 10.09.2019
2194 Clouds 11 1021 93 10000 3.1 250 11:20 10.09.2019
2195 Clouds 9 1021 93 10000 3.6 260 10:39 10.09.2019
2196 Clouds 9 1021 93 10000 3.1 260 10:19 10.09.2019
2197 Clouds 9 1021 93 10000 3.1 260 10:19 10.09.2019
2198 Clouds 9 1021 93 10000 3.1 260 09:55 10.09.2019
2199 Clouds 8 1021 93 10000 3.6 260 09:37 10.09.2019
2200 Clouds 7 1021 100 10000 3.6 260 09:18 10.09.2019
2201 Clouds 7 1020 100 10000 3.1 250 08:43 10.09.2019
2202 Clouds 7 1020 93 10000 4.1 260 08:24 10.09.2019
2203 Clouds 7 1020 100 10000 4.1 270 07:44 10.09.2019
2204 Clouds 6 1020 100 10000 4.1 270 07:26 10.09.2019
2205 Clouds 7 1020 93 10000 4.1 270 06:51 10.09.2019
2206 Clouds 7 1020 93 10000 4.1 270 06:32 10.09.2019
2207 Clouds 7 1019 93 10000 5.1 280 04:57 10.09.2019
2208 Clouds 7 1019 93 10000 4.6 280 03:48 10.09.2019
2209 Clouds 8 1018 93 10000 3.6 290 02:23 10.09.2019
2210 Clouds 8 1018 93 10000 4.1 290 01:55 10.09.2019
2211 Clouds 8 1018 93 10000 4.1 290 01:55 10.09.2019
2212 Clouds 8 1018 87 10000 4.1 300 01:37 10.09.2019
2213 Clouds 9 1018 87 10000 4.1 300 00:46 10.09.2019
2214 Clouds 9 1018 87 10000 4.1 300 00:25 10.09.2019
2215 Clouds 9 1017 87 10000 4.1 310 23:47 09.09.2019
2216 Clouds 10 1017 87 10000 4.1 310 23:20 09.09.2019
2217 Clouds 10 1017 87 10000 5.1 320 22:56 09.09.2019
2218 Clouds 11 1017 76 10000 5.7 320 22:38 09.09.2019
2219 Clouds 12 1016 71 10000 5.1 320 22:20 09.09.2019
2220 Clouds 12 1016 71 10000 5.1 320 21:57 09.09.2019
2221 Clouds 13 1016 71 10000 4.6 330 21:38 09.09.2019
2222 Clouds 13 1015 71 10000 4.6 330 21:20 09.09.2019
2223 Clouds 13 1015 71 10000 4.6 330 20:56 09.09.2019
2224 Clouds 14 1015 67 10000 5.1 320 20:37 09.09.2019
2225 Clouds 14 1014 71 10000 6.2 320 20:19 09.09.2019
2226 Clouds 14 1014 71 10000 6.2 320 19:57 09.09.2019
2227 Clouds 14 1014 62 10000 6.7 340 19:38 09.09.2019
2228 Clouds 15 1013 62 10000 7.7 320 19:19 09.09.2019
2229 Clouds 15 1013 63 10000 7.7 310 18:57 09.09.2019
2230 Clouds 15 1013 63 10000 7.7 310 18:38 09.09.2019
2231 Clouds 15 1012 67 10000 7.2 330 18:20 09.09.2019
2232 Clouds 15 1012 67 10000 7.2 330 17:57 09.09.2019
2233 Clouds 15 1012 62 10000 8.2 320 17:39 09.09.2019
2234 Clouds 15 1012 67 10000 7.7 320 17:20 09.09.2019
2235 Clouds 16 1012 67 10000 7.7 320 16:55 09.09.2019
2236 Clouds 16 1011 59 10000 8.2 340 16:37 09.09.2019
2237 Clouds 16 1011 67 10000 8.2 340 16:18 09.09.2019
2238 Clouds 15 1011 63 10000 6.7 330 15:44 09.09.2019
2239 Clouds 16 1011 63 10000 6.7 330 15:24 09.09.2019
2240 Clouds 15 1011 72 10000 7.2 330 14:59 09.09.2019
2241 Clouds 15 1011 71 10000 7.7 340 14:40 09.09.2019
2242 Clouds 15 1011 71 10000 7.7 340 14:21 09.09.2019
2243 Clouds 14 1011 76 10000 8.7 330 13:57 09.09.2019
2244 Clouds 13 1011 87 10000 8.2 320 13:39 09.09.2019
2245 Clouds 13 1011 93 10000 6.2 330 13:18 09.09.2019
2246 Clouds 13 1011 93 10000 6.2 330 12:54 09.09.2019
2247 Rain 12 1011 93 10000 6.7 330 12:36 09.09.2019
2248 Drizzle 12 1010 93 10000 8.2 330 12:18 09.09.2019
2249 Rain 12 1010 93 10000 7.2 330 11:43 09.09.2019
2250 Rain 12 1010 93 10000 7.2 330 11:20 09.09.2019
2251 Rain 11 1010 93 10000 8.2 320 10:42 09.09.2019
2252 Rain 11 1010 93 10000 8.2 320 10:24 09.09.2019
2253 Drizzle 12 1009 93 10000 5.1 300 09:59 09.09.2019
2254 Drizzle 12 1009 93 10000 4.1 290 09:40 09.09.2019
2255 Drizzle 12 1009 93 10000 4.1 290 09:22 09.09.2019
2256 Rain 12 1009 93 7000 0.5 0 08:55 09.09.2019
2257 Rain 12 1009 93 7000 0.5 0 08:37 09.09.2019
2258 Rain 12 1009 100 9000 1 0 08:18 09.09.2019
2259 Rain 12 1009 93 10000 1.5 0 07:40 09.09.2019
2260 Rain 12 1009 93 10000 1 300 07:20 09.09.2019
2261 Rain 12 1009 93 10000 0.5 360 06:50 09.09.2019
2262 Rain 13 1009 93 10000 0.5 360 06:27 09.09.2019
2263 Rain 13 1013 93 6000 2.6 260 03:21 09.09.2019
2264 Rain 13 1013 100 10000 3.1 260 02:41 09.09.2019
2265 Rain 14 1015 93 9000 2.1 200 01:22 09.09.2019
2266 Rain 14 1015 93 10000 2.6 210 00:24 09.09.2019
2267 Rain 14 1016 82 10000 3.1 200 23:48 08.09.2019
2268 Rain 14 1016 82 10000 3.1 200 23:29 08.09.2019
2269 Rain 14 1016 82 10000 3.6 210 22:59 08.09.2019
2270 Rain 14 1017 82 10000 3.6 230 22:39 08.09.2019
2271 Clouds 15 1017 72 10000 3.6 220 22:21 08.09.2019
2272 Clouds 16 1017 72 10000 3.6 220 21:58 08.09.2019
2273 Clouds 16 1017 63 10000 2.6 230 21:39 08.09.2019
2274 Clouds 16 1017 63 10000 2.6 230 21:39 08.09.2019
2275 Clouds 16 1017 63 10000 2.6 230 21:21 08.09.2019
2276 Clouds 16 1018 67 10000 2.6 240 20:41 08.09.2019
2277 Clouds 17 1018 63 10000 2.1 220 20:22 08.09.2019
2278 Clouds 17 1018 63 10000 2.1 220 19:59 08.09.2019
2279 Clouds 17 1018 63 10000 3.1 240 19:39 08.09.2019
2280 Clouds 17 1019 63 10000 3.1 240 19:21 08.09.2019
2281 Clouds 17 1019 63 10000 3.1 240 18:58 08.09.2019
2282 Clouds 18 1019 63 10000 3.1 220 18:39 08.09.2019
2283 Clouds 18 1020 59 10000 3.1 230 18:19 08.09.2019
2284 Clouds 18 1020 59 10000 3.1 230 17:58 08.09.2019
2285 Clouds 18 1020 63 10000 2.6 230 17:37 08.09.2019
2286 Clouds 17 1021 67 10000 3.1 220 17:18 08.09.2019
2287 Clouds 18 1021 67 10000 3.1 220 16:54 08.09.2019
2288 Clouds 18 1021 67 10000 3.1 220 16:54 08.09.2019
2289 Clouds 18 1021 59 10000 1.5 0 16:36 08.09.2019
2290 Clouds 17 1021 63 10000 3.1 140 16:18 08.09.2019
2291 Clouds 17 1022 63 10000 2.1 170 15:41 08.09.2019
2292 Clouds 17 1022 63 10000 2.1 170 15:22 08.09.2019
2293 Clouds 17 1022 63 10000 3.1 210 14:59 08.09.2019
2294 Clouds 17 1022 63 10000 3.1 240 14:39 08.09.2019
2295 Clouds 17 1022 63 10000 3.1 240 14:20 08.09.2019
2296 Clouds 17 1023 59 10000 3.6 210 13:57 08.09.2019
2297 Clouds 17 1023 59 10000 3.6 210 13:38 08.09.2019
2298 Clouds 17 1023 63 10000 3.1 200 13:20 08.09.2019
2299 Clouds 17 1024 67 10000 3.1 230 12:44 08.09.2019
2300 Clouds 16 1024 72 10000 2.6 230 12:24 08.09.2019
2301 Clouds 16 1024 72 10000 2.6 230 11:59 08.09.2019
2302 Clouds 15 1024 82 10000 2.6 230 11:41 08.09.2019
2303 Clouds 14 1024 82 10000 2.1 230 11:20 08.09.2019
2304 Clouds 14 1024 82 10000 2.1 230 10:59 08.09.2019
2305 Clouds 13 1025 87 10000 2.1 250 10:41 08.09.2019
2306 Clouds 12 1025 87 10000 2.1 250 10:22 08.09.2019
2307 Clouds 11 1025 93 10000 2.6 250 10:22 08.09.2019
2308 Clouds 10 1025 93 10000 2.6 250 09:55 08.09.2019
2309 Clouds 10 1025 87 10000 2.1 250 09:37 08.09.2019
2310 Clouds 9 1025 93 10000 2.6 260 09:18 08.09.2019
2311 Clouds 9 1025 93 10000 2.6 250 08:39 08.09.2019
2312 Clouds 9 1025 93 10000 2.6 250 08:18 08.09.2019
2313 Clouds 8 1025 93 10000 3.1 260 07:41 08.09.2019
2314 Clouds 8 1026 93 10000 3.1 250 07:21 08.09.2019
2315 Clouds 9 1026 93 10000 3.1 250 06:54 08.09.2019
2316 Clouds 8 1026 93 10000 3.1 260 06:34 08.09.2019
2317 Clouds 9 1026 93 10000 2.1 250 05:39 08.09.2019
2318 Clouds 9 1027 93 10000 1.5 260 04:27 08.09.2019
2319 Clouds 10 1027 93 10000 1.5 0 03:19 08.09.2019
2320 Clouds 11 1028 93 10000 1.5 0 02:36 08.09.2019
2321 Clouds 10 1028 100 10000 1.5 0 01:53 08.09.2019
2322 Clouds 10 1028 93 10000 1 0 01:25 08.09.2019
2323 Clouds 9 1028 100 10000 1.5 150 00:46 08.09.2019
2324 Clouds 10 1028 100 10000 1.5 150 00:28 08.09.2019
2325 Clouds 10 1028 93 10000 1.5 130 23:39 07.09.2019
2326 Clouds 10 1028 93 10000 1.5 130 23:21 07.09.2019
2327 Clouds 10 1028 93 10000 1.5 160 22:59 07.09.2019
2328 Clouds 10 1028 93 10000 1.5 160 22:59 07.09.2019
2329 Clouds 10 1028 93 10000 1.5 140 22:40 07.09.2019
2330 Clouds 10 1028 93 10000 1.5 140 22:22 07.09.2019
2331 Clouds 11 1028 87 10000 2.6 100 21:54 07.09.2019
2332 Clouds 12 1028 81 10000 2.1 110 21:36 07.09.2019
2333 Clouds 13 1027 82 10000 2.6 110 21:18 07.09.2019
2334 Clouds 14 1027 67 10000 3.1 110 20:39 07.09.2019
2335 Clouds 15 1027 67 10000 2.6 330 20:20 07.09.2019
2336 Clouds 15 1027 67 10000 2.6 330 20:20 07.09.2019
2337 Clouds 16 1027 67 10000 2.6 330 19:56 07.09.2019
2338 Clouds 16 1027 63 10000 3.6 350 19:37 07.09.2019
2339 Clouds 16 1027 59 10000 3.6 330 19:19 07.09.2019
2340 Clouds 16 1027 59 10000 3.6 330 18:56 07.09.2019
2341 Clouds 16 1027 59 10000 3.1 290 18:37 07.09.2019
2342 Clouds 16 1028 63 10000 4.6 340 18:18 07.09.2019
2343 Clouds 16 1028 63 10000 4.6 340 17:56 07.09.2019
2344 Clouds 16 1027 59 10000 1.5 0 17:38 07.09.2019
2345 Clouds 16 1028 63 10000 4.1 360 17:18 07.09.2019
2346 Clouds 16 1028 55 10000 4.1 350 16:43 07.09.2019
2347 Clouds 16 1028 55 10000 4.1 350 16:23 07.09.2019
2348 Clouds 16 1027 55 10000 3.6 330 15:58 07.09.2019
2349 Clouds 16 1027 67 10000 4.6 340 15:39 07.09.2019
2350 Clouds 16 1027 67 10000 4.6 340 15:21 07.09.2019
2351 Clouds 15 1028 72 10000 4.1 10 14:55 07.09.2019
2352 Clouds 15 1028 72 10000 4.1 10 14:55 07.09.2019
2353 Clouds 15 1028 72 10000 4.1 10 14:55 07.09.2019
2354 Clouds 15 1027 62 10000 4.1 20 14:36 07.09.2019
2355 Clouds 16 1027 55 10000 3.6 320 14:18 07.09.2019
2356 Clouds 15 1027 72 10000 4.6 340 13:44 07.09.2019
2357 Clouds 15 1027 72 10000 4.6 340 13:25 07.09.2019
2358 Clouds 15 1027 72 10000 4.6 340 13:25 07.09.2019
2359 Clouds 15 1027 72 10000 5.7 320 12:54 07.09.2019
2360 Clouds 15 1027 77 10000 6.2 310 12:36 07.09.2019
2361 Clouds 15 1027 82 10000 6.2 310 12:18 07.09.2019
2362 Clouds 14 1026 87 10000 6.2 300 11:40 07.09.2019
2363 Clouds 13 1026 87 10000 5.1 290 11:21 07.09.2019
2364 Clouds 12 1026 93 10000 4.1 300 10:41 07.09.2019
2365 Clouds 12 1026 93 10000 4.1 300 10:41 07.09.2019
2366 Clouds 12 1026 87 10000 5.7 290 10:22 07.09.2019
2367 Clouds 12 1026 87 10000 5.7 290 09:58 07.09.2019
2368 Clouds 12 1026 93 10000 5.7 290 09:39 07.09.2019
2369 Clouds 11 1025 93 10000 4.6 290 09:20 07.09.2019
2370 Clouds 11 1025 93 10000 4.1 290 08:48 07.09.2019
2371 Clouds 11 1025 93 10000 4.1 290 08:29 07.09.2019
2372 Clouds 11 1025 93 10000 3.6 280 07:48 07.09.2019
2373 Clouds 11 1025 93 10000 3.6 280 07:28 07.09.2019
2374 Clouds 11 1025 93 10000 4.6 280 06:55 07.09.2019
2375 Clouds 11 1024 93 10000 4.1 270 06:35 07.09.2019
2376 Clouds 11 1024 93 10000 5.7 280 05:32 07.09.2019
2377 Clouds 11 1024 87 10000 4.1 280 04:26 07.09.2019
2378 Clouds 11 1024 87 10000 6.7 290 03:27 07.09.2019
2379 Clouds 11 1024 93 10000 5.1 270 02:21 07.09.2019
2380 Clouds 11 1024 87 10000 5.7 270 01:27 07.09.2019
2381 Clouds 12 1023 87 10000 7.2 280 00:48 07.09.2019
2382 Clouds 12 1023 87 10000 7.2 280 00:21 07.09.2019
2383 Clouds 12 1023 87 10000 5.7 290 23:55 06.09.2019
2384 Clouds 12 1023 76 10000 6.7 290 23:37 06.09.2019
2385 Clouds 12 1023 76 10000 5.7 280 23:18 06.09.2019
2386 Clouds 12 1023 76 10000 5.7 280 22:55 06.09.2019
2387 Clouds 13 1023 76 10000 5.7 290 22:36 06.09.2019
2388 Clouds 13 1022 76 10000 4.6 280 22:18 06.09.2019
2389 Clouds 13 1022 71 10000 6.7 300 21:41 06.09.2019
2390 Clouds 13 1022 71 10000 6.7 300 21:23 06.09.2019
2391 Clouds 14 1022 67 10000 6.2 300 20:59 06.09.2019
2392 Clouds 14 1021 67 10000 6.2 300 20:40 06.09.2019
2393 Clouds 14 1021 67 10000 6.2 300 20:21 06.09.2019
2394 Clouds 15 1021 62 10000 7.7 300 19:58 06.09.2019
2395 Clouds 15 1021 62 10000 10.3 300 19:39 06.09.2019
2396 Clouds 16 1021 58 10000 7.7 300 19:20 06.09.2019
2397 Clouds 15 1021 62 10000 10.3 300 19:20 06.09.2019
2398 Clouds 16 1020 62 10000 9.8 290 18:47 06.09.2019
2399 Clouds 16 1020 62 10000 9.8 290 18:28 06.09.2019
2400 Clouds 16 1020 59 10000 8.2 290 17:59 06.09.2019
2401 Clouds 16 1020 63 10000 10.3 290 17:38 06.09.2019
2402 Clouds 16 1020 63 10000 7.7 310 17:19 06.09.2019
2403 Clouds 17 1020 59 10000 8.2 300 16:42 06.09.2019
2404 Drizzle 17 1020 59 10000 8.2 290 16:19 06.09.2019
2405 Drizzle 17 1020 59 10000 8.2 290 15:56 06.09.2019
2406 Clouds 17 1020 59 10000 8.7 280 15:38 06.09.2019
2407 Clouds 16 1020 59 10000 8.7 280 15:20 06.09.2019
2408 Clouds 17 1020 63 10000 9.8 280 14:39 06.09.2019
2409 Clouds 16 1019 67 10000 10.8 280 14:18 06.09.2019
2410 Clouds 15 1019 67 10000 10.8 280 13:43 06.09.2019
2411 Clouds 15 1019 72 10000 8.7 280 13:22 06.09.2019
2412 Clouds 15 1019 71 10000 9.8 280 12:41 06.09.2019
2413 Clouds 15 1019 71 10000 9.8 280 12:23 06.09.2019
2414 Clouds 14 1019 82 10000 8.7 280 11:58 06.09.2019
2415 Clouds 14 1019 82 10000 8.7 280 11:40 06.09.2019
2416 Clouds 14 1019 87 10000 8.2 280 11:21 06.09.2019
2417 Clouds 14 1018 93 10000 5.7 270 10:43 06.09.2019
2418 Clouds 13 1018 93 10000 5.7 270 10:22 06.09.2019
2419 Drizzle 14 1018 87 6000 8.7 290 09:58 06.09.2019
2420 Drizzle 13 1018 93 8000 5.7 250 09:37 06.09.2019
2421 Drizzle 13 1018 93 3000 5.7 250 09:19 06.09.2019
2422 Drizzle 13 1018 93 10000 5.7 250 08:44 06.09.2019
2423 Drizzle 13 1018 93 10000 5.7 250 08:26 06.09.2019
2424 Drizzle 12 1018 93 8000 5.1 230 07:51 06.09.2019
2425 Drizzle 12 1018 93 8000 5.1 230 07:28 06.09.2019
2426 Drizzle 13 1019 82 10000 5.1 230 06:59 06.09.2019
2427 Drizzle 13 1019 82 10000 5.1 230 06:33 06.09.2019
2428 Rain 13 1019 82 10000 5.7 240 05:45 06.09.2019
2429 Clouds 13 1020 76 10000 6.2 240 04:54 06.09.2019
2430 Clouds 12 1020 81 10000 6.2 240 04:24 06.09.2019
2431 Rain 12 1022 76 10000 5.7 240 02:44 06.09.2019
2432 Clouds 13 1024 76 10000 4.6 240 00:57 06.09.2019
2433 Clouds 13 1024 76 10000 5.1 230 00:20 06.09.2019
2434 Clouds 13 1024 76 10000 5.1 230 00:20 06.09.2019
2435 Clouds 13 1025 76 10000 4.6 250 23:41 05.09.2019
2436 Clouds 13 1025 76 10000 4.6 250 23:22 05.09.2019
2437 Clouds 13 1025 67 10000 5.1 250 22:45 05.09.2019
2438 Clouds 13 1025 67 10000 5.1 250 22:25 05.09.2019
2439 Clouds 14 1026 67 10000 6.2 250 21:57 05.09.2019
2440 Clouds 14 1026 71 10000 4.6 250 21:38 05.09.2019
2441 Clouds 14 1025 67 10000 6.2 260 21:20 05.09.2019
2442 Clouds 15 1025 67 10000 6.2 260 20:58 05.09.2019
2443 Clouds 15 1026 63 10000 7.2 250 20:38 05.09.2019
2444 Clouds 16 1026 63 10000 8.2 260 20:20 05.09.2019
2445 Clouds 16 1026 63 10000 8.2 260 19:57 05.09.2019
2446 Clouds 16 1026 63 10000 5.7 250 19:38 05.09.2019
2447 Clouds 17 1026 59 10000 8.7 270 19:19 05.09.2019
2448 Clouds 17 1027 59 10000 7.7 280 18:41 05.09.2019
2449 Clouds 17 1027 55 10000 8.2 270 18:23 05.09.2019
2450 Clouds 17 1027 55 10000 8.2 270 17:58 05.09.2019
2451 Clouds 17 1027 55 10000 8.7 280 17:39 05.09.2019
2452 Clouds 17 1027 55 10000 8.7 280 17:39 05.09.2019
2453 Clouds 17 1027 55 10000 7.7 260 17:20 05.09.2019
2454 Clouds 17 1027 55 10000 7.7 260 17:20 05.09.2019
2455 Clouds 17 1027 59 10000 9.3 270 16:42 05.09.2019
2456 Clouds 17 1028 63 10000 9.3 270 16:22 05.09.2019
2457 Clouds 17 1028 63 10000 9.3 270 16:00 05.09.2019
2458 Clouds 17 1028 59 10000 7.2 260 15:39 05.09.2019
2459 Clouds 17 1028 59 10000 9.8 280 15:19 05.09.2019
2460 Clouds 17 1028 59 10000 9.8 280 14:56 05.09.2019
2461 Clouds 16 1028 59 10000 9.3 280 14:38 05.09.2019
2462 Clouds 16 1028 63 10000 6.2 270 14:18 05.09.2019
2463 Clouds 16 1028 67 10000 6.7 270 13:42 05.09.2019
2464 Clouds 15 1029 67 10000 8.2 280 13:19 05.09.2019
2465 Clouds 15 1028 71 10000 7.7 280 12:44 05.09.2019
2466 Clouds 14 1028 71 10000 7.7 280 12:26 05.09.2019
2467 Clouds 13 1028 76 10000 5.1 270 11:57 05.09.2019
2468 Clouds 13 1028 76 10000 5.1 270 11:38 05.09.2019
2469 Clouds 12 1028 81 10000 4.1 260 11:18 05.09.2019
2470 Clouds 11 1028 87 10000 4.6 270 10:41 05.09.2019
2471 Clouds 11 1028 87 10000 4.6 270 10:22 05.09.2019
2472 Clouds 11 1028 87 10000 6.2 270 10:22 05.09.2019
2473 Clouds 10 1028 87 10000 6.2 270 09:57 05.09.2019
2474 Clouds 10 1028 87 10000 5.1 260 09:38 05.09.2019
2475 Clouds 10 1028 87 10000 4.1 250 09:18 05.09.2019
2476 Clouds 10 1028 87 10000 4.1 250 09:18 05.09.2019
2477 Clouds 9 1027 87 10000 4.1 260 08:45 05.09.2019
2478 Clouds 9 1027 87 10000 4.1 260 08:26 05.09.2019
2479 Clouds 8 1027 87 10000 4.1 260 07:45 05.09.2019
2480 Clouds 8 1027 87 10000 4.1 260 07:27 05.09.2019
2481 Clouds 8 1027 93 10000 5.7 270 06:53 05.09.2019
2482 Clouds 8 1027 93 10000 5.7 270 06:29 05.09.2019
2483 Clouds 8 1027 87 10000 5.1 270 05:50 05.09.2019
2484 Clouds 8 1027 87 10000 5.1 270 05:30 05.09.2019
2485 Clouds 8 1027 87 10000 6.2 280 04:48 05.09.2019
2486 Clouds 8 1027 87 10000 6.2 280 04:24 05.09.2019
2487 Clouds 8 1027 81 10000 5.1 280 03:34 05.09.2019
2488 Clouds 8 1026 81 10000 7.2 300 02:45 05.09.2019
2489 Clouds 8 1026 81 10000 6.7 300 02:20 05.09.2019
2490 Clouds 9 1025 76 10000 8.7 300 01:26 05.09.2019
2491 Clouds 9 1025 76 10000 6.7 300 00:42 05.09.2019
2492 Clouds 9 1024 71 10000 8.2 300 00:20 05.09.2019
2493 Clouds 10 1024 66 10000 8.2 300 23:48 04.09.2019
2494 Clouds 10 1024 66 10000 8.2 300 23:26 04.09.2019
2495 Clouds 10 1023 66 10000 8.2 310 22:59 04.09.2019
2496 Clouds 10 1023 71 10000 8.2 310 22:38 04.09.2019
2497 Clouds 11 1022 71 10000 7.7 310 22:18 04.09.2019
2498 Rain 11 1022 76 10000 8.7 310 21:39 04.09.2019
2499 Rain 12 1021 71 10000 9.3 310 21:20 04.09.2019
2500 Rain 12 1021 71 10000 9.3 310 20:56 04.09.2019
2501 Rain 12 1020 76 10000 9.3 310 20:38 04.09.2019
2502 Clouds 12 1019 76 10000 12.3 320 20:18 04.09.2019
2503 Rain 12 1019 81 10000 12.9 320 19:55 04.09.2019
2504 Rain 13 1019 81 10000 12.9 320 19:36 04.09.2019
2505 Rain 13 1018 71 10000 12.9 300 19:18 04.09.2019
2506 Rain 13 1018 71 10000 11.8 300 18:38 04.09.2019
2507 Clouds 14 1017 71 10000 13.9 300 18:19 04.09.2019
2508 Rain 14 1016 71 10000 12.3 300 17:41 04.09.2019
2509 Rain 14 1016 71 10000 12.3 300 17:23 04.09.2019
2510 Clouds 15 1016 67 10000 11.3 300 16:58 04.09.2019
2511 Clouds 15 1015 67 10000 13.4 290 16:39 04.09.2019
2512 Clouds 15 1015 67 10000 13.4 290 16:21 04.09.2019
2513 Rain 14 1015 82 10000 11.8 290 15:55 04.09.2019
2514 Rain 15 1014 67 10000 12.9 290 15:37 04.09.2019
2515 Rain 15 1014 72 10000 11.8 290 15:18 04.09.2019
2516 Rain 15 1014 72 10000 11.8 290 14:54 04.09.2019
2517 Rain 15 1013 67 10000 12.9 280 14:36 04.09.2019
2518 Clouds 15 1013 72 10000 13.4 280 14:18 04.09.2019
2519 Rain 14 1013 93 7000 11.8 280 13:39 04.09.2019
2520 Rain 15 1013 76 10000 9.8 270 13:21 04.09.2019
2521 Drizzle 14 1013 87 10000 7.2 260 12:45 04.09.2019
2522 Drizzle 14 1013 87 10000 7.2 260 12:26 04.09.2019
2523 Clouds 14 1013 76 10000 7.2 260 11:58 04.09.2019
2524 Clouds 13 1013 82 10000 6.7 250 11:39 04.09.2019
2525 Clouds 13 1013 82 10000 6.7 250 11:21 04.09.2019
2526 Clouds 12 1013 76 10000 6.2 250 10:56 04.09.2019
2527 Clouds 12 1013 81 10000 5.7 250 10:38 04.09.2019
2528 Clouds 12 1013 81 10000 5.7 250 10:38 04.09.2019
2529 Clouds 12 1013 87 10000 4.6 240 10:19 04.09.2019
2530 Clouds 11 1014 87 10000 4.6 240 09:45 04.09.2019
2531 Clouds 11 1014 87 10000 4.6 240 09:21 04.09.2019
2532 Clouds 10 1014 87 10000 3.6 240 08:43 04.09.2019
2533 Clouds 10 1013 87 10000 4.6 250 08:24 04.09.2019
2534 Clouds 10 1013 87 10000 4.6 250 07:59 04.09.2019
2535 Clouds 10 1013 87 10000 4.1 250 07:36 04.09.2019
2536 Clouds 10 1013 87 10000 4.1 250 06:59 04.09.2019
2537 Clouds 10 1013 93 10000 4.6 250 06:39 04.09.2019
2538 Clouds 11 1014 93 10000 4.1 250 04:55 04.09.2019
2539 Clouds 11 1014 87 10000 4.6 260 04:23 04.09.2019
2540 Rain 13 1014 87 10000 6.7 270 02:51 04.09.2019
2541 Rain 14 1014 87 10000 4.6 260 01:20 04.09.2019
2542 Rain 15 1014 87 10000 3.6 260 00:45 04.09.2019
2543 Rain 15 1014 87 10000 3.6 260 00:27 04.09.2019
2544 Drizzle 15 1014 93 5000 4.6 250 23:51 03.09.2019
2545 Drizzle 16 1014 93 5000 4.6 250 23:27 03.09.2019
2546 Clouds 16 1015 88 10000 4.1 240 22:43 03.09.2019
2547 Clouds 16 1015 88 10000 4.1 240 22:25 03.09.2019
2548 Clouds 17 1015 88 10000 3.1 230 21:59 03.09.2019
2549 Clouds 17 1015 88 10000 3.6 240 21:39 03.09.2019
2550 Clouds 17 1015 88 10000 3.6 240 21:20 03.09.2019
2551 Clouds 17 1015 88 10000 3.6 240 20:57 03.09.2019
2552 Rain 17 1015 88 10000 4.1 250 20:38 03.09.2019
2553 Rain 17 1015 93 10000 4.6 260 20:20 03.09.2019
2554 Rain 17 1015 93 10000 4.6 260 19:55 03.09.2019
2555 Rain 18 1015 88 10000 4.6 270 19:55 03.09.2019
2556 Rain 18 1015 88 10000 4.6 270 19:36 03.09.2019
2557 Clouds 19 1016 77 10000 4.6 250 19:18 03.09.2019
2558 Clouds 19 1016 77 10000 4.6 250 19:18 03.09.2019
2559 Clouds 19 1016 77 10000 4.1 250 18:41 03.09.2019
2560 Clouds 20 1016 77 10000 4.1 250 18:23 03.09.2019
2561 Clouds 20 1016 77 10000 5.1 250 17:56 03.09.2019
2562 Rain 20 1016 72 10000 6.2 240 17:38 03.09.2019
2563 Clouds 20 1016 72 10000 5.7 240 17:19 03.09.2019
2564 Clouds 20 1017 68 10000 5.7 250 16:43 03.09.2019
2565 Clouds 20 1017 68 10000 5.7 250 16:22 03.09.2019
2566 Clouds 20 1017 72 10000 5.7 260 15:57 03.09.2019
2567 Clouds 20 1017 72 10000 4.6 240 15:37 03.09.2019
2568 Rain 20 1017 68 10000 6.2 240 15:19 03.09.2019
2569 Rain 20 1017 68 10000 6.2 240 14:56 03.09.2019
2570 Rain 20 1017 77 10000 6.2 250 14:37 03.09.2019
2571 Clouds 20 1018 82 10000 5.1 230 14:18 03.09.2019
2572 Clouds 20 1018 82 10000 5.1 230 14:18 03.09.2019
2573 Clouds 19 1018 82 10000 5.1 230 13:55 03.09.2019
2574 Drizzle 19 1018 77 10000 5.7 230 13:37 03.09.2019
2575 Clouds 19 1018 82 10000 5.7 230 13:18 03.09.2019
2576 Clouds 18 1018 82 10000 5.7 230 12:46 03.09.2019
2577 Clouds 18 1018 82 10000 5.7 230 12:28 03.09.2019
2578 Clouds 17 1019 87 10000 6.2 220 11:43 03.09.2019
2579 Clouds 16 1019 87 10000 6.2 220 11:25 03.09.2019
2580 Drizzle 16 1019 87 6000 5.7 230 10:59 03.09.2019
2581 Rain 15 1019 87 10000 4.6 230 10:40 03.09.2019
2582 Rain 15 1019 87 10000 4.6 230 10:21 03.09.2019
2583 Clouds 15 1019 87 10000 5.1 220 09:50 03.09.2019
2584 Rain 14 1019 82 10000 4.1 220 09:32 03.09.2019
2585 Clouds 14 1019 87 10000 5.1 220 08:57 03.09.2019
2586 Clouds 14 1019 87 10000 4.1 220 08:37 03.09.2019
2587 Rain 14 1019 87 10000 4.1 220 08:19 03.09.2019
2588 Rain 14 1019 87 10000 4.1 220 07:43 03.09.2019
2589 Rain 14 1019 87 10000 4.1 220 07:24 03.09.2019
2590 Clouds 14 1019 87 10000 4.6 230 06:47 03.09.2019
2591 Clouds 14 1019 87 10000 4.6 230 06:28 03.09.2019
2592 Clouds 13 1020 87 10000 5.1 230 03:44 03.09.2019
2593 Clouds 13 1020 87 10000 4.6 250 02:48 03.09.2019
2594 Clouds 13 1020 87 10000 4.6 250 02:27 03.09.2019
2595 Clouds 13 1020 93 10000 4.1 250 01:53 03.09.2019
2596 Clouds 13 1020 87 10000 5.1 250 01:34 03.09.2019
2597 Clouds 13 1020 82 10000 5.1 240 00:57 03.09.2019
2598 Clouds 13 1020 82 10000 4.6 230 00:27 03.09.2019
2599 Clouds 13 1019 82 10000 4.6 240 23:41 02.09.2019
2600 Clouds 13 1019 82 10000 4.6 240 23:41 02.09.2019
2601 Clouds 13 1019 82 10000 4.6 240 23:20 02.09.2019
2602 Clouds 13 1019 82 10000 4.1 250 22:58 02.09.2019
2603 Clouds 13 1019 82 10000 5.7 250 22:39 02.09.2019
2604 Clouds 14 1019 82 10000 5.7 250 22:21 02.09.2019
2605 Clouds 14 1019 82 10000 5.7 250 21:58 02.09.2019
2606 Clouds 14 1019 82 10000 6.2 250 21:40 02.09.2019
2607 Clouds 14 1019 82 10000 5.1 250 21:20 02.09.2019
2608 Clouds 14 1019 82 10000 5.1 250 20:59 02.09.2019
2609 Clouds 14 1019 87 10000 5.1 250 20:40 02.09.2019
2610 Clouds 14 1019 87 10000 5.1 250 20:40 02.09.2019
2611 Drizzle 14 1019 93 7000 6.2 260 20:19 02.09.2019
2612 Drizzle 14 1019 93 7000 6.2 260 19:57 02.09.2019
2613 Rain 15 1019 82 10000 5.1 250 19:38 02.09.2019
2614 Clouds 15 1019 93 10000 6.7 260 19:19 02.09.2019
2615 Drizzle 15 1019 82 10000 5.7 250 18:40 02.09.2019
2616 Clouds 15 1019 82 10000 4.6 240 18:22 02.09.2019
2617 Rain 15 1019 87 10000 3.1 240 17:58 02.09.2019
2618 Rain 15 1019 87 10000 3.1 240 17:58 02.09.2019
2619 Rain 15 1019 87 10000 3.1 240 17:39 02.09.2019
2620 Rain 15 1019 87 10000 3.1 240 17:21 02.09.2019
2621 Drizzle 15 1019 87 8000 4.6 240 16:58 02.09.2019
2622 Rain 15 1020 87 10000 5.7 240 16:36 02.09.2019
2623 Rain 15 1019 87 10000 4.6 230 16:18 02.09.2019
2624 Rain 15 1019 93 10000 4.1 230 15:44 02.09.2019
2625 Rain 15 1019 93 10000 8.2 230 15:22 02.09.2019
2626 Rain 15 1020 93 8000 4.6 230 14:56 02.09.2019
2627 Rain 15 1019 82 7000 5.1 240 14:37 02.09.2019
2628 Rain 15 1020 72 10000 5.7 230 14:19 02.09.2019
2629 Clouds 15 1020 77 10000 6.7 240 13:46 02.09.2019
2630 Clouds 15 1020 77 10000 6.7 240 13:25 02.09.2019
2631 Clouds 16 1020 77 10000 5.7 230 12:59 02.09.2019
2632 Clouds 15 1020 77 10000 6.2 250 12:41 02.09.2019
2633 Clouds 15 1020 77 10000 6.2 250 12:23 02.09.2019
2634 Clouds 15 1020 77 10000 6.2 240 11:56 02.09.2019
2635 Clouds 15 1020 77 10000 5.7 240 11:37 02.09.2019
2636 Clouds 15 1020 77 10000 5.7 240 11:37 02.09.2019
2637 Clouds 15 1020 82 10000 4.6 230 11:19 02.09.2019
2638 Clouds 15 1020 82 10000 5.1 230 10:42 02.09.2019
2639 Clouds 14 1020 82 10000 5.1 230 10:22 02.09.2019
2640 Clouds 14 1020 87 10000 4.6 230 09:58 02.09.2019
2641 Clouds 13 1020 87 10000 3.6 240 09:39 02.09.2019
2642 Drizzle 12 1020 87 10000 4.1 240 09:20 02.09.2019
2643 Clouds 12 1020 87 10000 4.6 240 08:43 02.09.2019
2644 Clouds 12 1020 87 10000 4.6 240 08:22 02.09.2019
2645 Clouds 12 1020 93 10000 3.6 230 07:57 02.09.2019
2646 Clouds 12 1020 93 10000 3.6 230 07:37 02.09.2019
2647 Clouds 12 1020 87 10000 3.6 230 07:19 02.09.2019
2648 Clouds 11 1020 87 10000 3.6 230 06:42 02.09.2019
2649 Clouds 11 1021 87 10000 3.6 230 05:53 02.09.2019
2650 Clouds 11 1021 87 10000 3.6 230 05:53 02.09.2019
2651 Clouds 11 1021 87 10000 3.6 230 05:53 02.09.2019
2652 Clouds 11 1021 87 10000 3.6 230 05:53 02.09.2019
2653 Clouds 11 1021 87 10000 3.6 230 05:24 02.09.2019
2654 Clouds 11 1021 87 10000 3.6 230 04:48 02.09.2019
2655 Clouds 11 1021 87 10000 4.6 240 02:20 02.09.2019
2656 Clouds 11 1021 81 10000 4.1 250 01:37 02.09.2019
2657 Clouds 12 1021 81 10000 3.6 250 00:39 02.09.2019
2658 Clouds 12 1020 76 10000 4.1 260 00:19 02.09.2019
2659 Clouds 12 1020 81 10000 3.6 250 23:39 01.09.2019
2660 Clouds 12 1020 81 10000 3.6 250 23:19 01.09.2019
2661 Clouds 13 1020 82 10000 3.6 250 22:56 01.09.2019
2662 Clouds 13 1020 82 10000 3.6 250 22:56 01.09.2019
2663 Clouds 13 1020 82 10000 3.6 250 22:38 01.09.2019
2664 Clouds 13 1020 82 10000 5.7 260 22:18 01.09.2019
2665 Clouds 13 1020 76 10000 3.1 250 21:42 01.09.2019
2666 Rain 13 1019 71 10000 4.6 250 21:23 01.09.2019
2667 Rain 14 1019 71 10000 4.6 250 20:58 01.09.2019
2668 Clouds 14 1019 71 10000 4.6 250 20:39 01.09.2019
2669 Clouds 14 1019 62 10000 4.1 250 20:19 01.09.2019
2670 Clouds 15 1019 62 10000 4.1 250 19:59 01.09.2019
2671 Clouds 15 1019 62 10000 4.1 250 19:59 01.09.2019
2672 Clouds 15 1019 62 10000 4.1 250 19:59 01.09.2019
2673 Clouds 15 1019 58 10000 4.6 240 19:40 01.09.2019
2674 Clouds 15 1019 62 10000 5.7 250 19:21 01.09.2019
2675 Clouds 15 1019 59 10000 5.7 260 18:45 01.09.2019
2676 Clouds 15 1019 62 10000 8.7 280 18:27 01.09.2019
2677 Clouds 16 1019 62 10000 8.7 280 17:59 01.09.2019
2678 Clouds 16 1019 48 10000 5.1 270 17:39 01.09.2019
2679 Clouds 16 1019 48 10000 5.1 270 17:39 01.09.2019
2680 Clouds 17 1019 48 10000 5.1 270 17:20 01.09.2019
2681 Clouds 16 1019 59 10000 7.2 280 16:41 01.09.2019
2682 Clouds 16 1019 58 10000 7.2 280 16:21 01.09.2019
2683 Clouds 16 1019 58 10000 7.2 280 15:58 01.09.2019
2684 Clouds 16 1019 58 10000 8.2 280 15:39 01.09.2019
2685 Clouds 16 1019 58 10000 8.2 280 15:20 01.09.2019
2686 Clouds 16 1019 55 10000 8.7 280 14:42 01.09.2019
2687 Clouds 16 1019 55 10000 8.7 280 14:22 01.09.2019
2688 Clouds 15 1019 58 10000 9.8 290 13:59 01.09.2019
2689 Clouds 15 1018 62 10000 9.8 280 13:40 01.09.2019
2690 Clouds 15 1018 62 10000 8.7 290 13:21 01.09.2019
2691 Clouds 15 1018 67 10000 8.7 290 12:43 01.09.2019
2692 Clouds 14 1018 67 10000 8.7 290 12:25 01.09.2019
2693 Clouds 14 1018 67 10000 8.7 290 12:25 01.09.2019
2694 Clouds 14 1018 71 10000 8.2 280 11:55 01.09.2019
2695 Clouds 13 1018 76 10000 8.7 280 11:37 01.09.2019
2696 Clouds 12 1017 76 10000 8.7 270 11:18 01.09.2019
2697 Clouds 12 1017 81 10000 7.7 270 10:43 01.09.2019
2698 Clouds 11 1017 81 10000 7.7 270 10:23 01.09.2019
2699 Clouds 11 1017 81 10000 5.7 260 09:47 01.09.2019
2700 Clouds 10 1017 81 10000 5.7 260 09:26 01.09.2019
2701 Clouds 9 1016 87 10000 4.6 250 08:46 01.09.2019
2702 Clouds 9 1016 87 10000 4.6 250 08:25 01.09.2019
2703 Clear 9 1016 87 10000 5.1 260 07:59 01.09.2019
2704 Clear 9 1016 87 10000 5.1 250 07:41 01.09.2019
2705 Clear 9 1015 87 10000 4.1 250 07:18 01.09.2019
2706 Clear 9 1015 87 10000 4.6 260 06:37 01.09.2019
2707 Clear 9 1015 87 10000 6.2 260 05:57 01.09.2019
2708 Clear 9 1015 87 10000 6.2 260 05:57 01.09.2019
2709 Clear 9 1015 87 10000 6.2 270 04:36 01.09.2019
2710 Clear 9 1015 93 10000 5.1 260 03:43 01.09.2019
2711 Clear 10 1015 87 10000 4.6 260 02:59 01.09.2019
2712 Clear 10 1015 87 10000 4.6 260 02:29 01.09.2019
2713 Clear 10 1014 81 10000 6.2 260 01:52 01.09.2019
2714 Clear 11 1014 81 10000 4.1 250 01:25 01.09.2019
2715 Clear 11 1014 81 10000 4.1 250 00:47 01.09.2019
2716 Clouds 11 1014 81 10000 5.1 270 00:23 01.09.2019
2717 Clouds 11 1014 81 10000 5.1 270 23:56 31.08.2019
2718 Clouds 11 1014 81 10000 5.7 270 23:38 31.08.2019
2719 Clouds 12 1013 76 10000 5.7 270 23:18 31.08.2019
2720 Clouds 12 1013 76 10000 5.7 270 23:18 31.08.2019
2721 Clouds 12 1013 81 10000 4.1 270 22:44 31.08.2019
2722 Rain 12 1013 76 10000 5.1 270 22:26 31.08.2019
2723 Rain 12 1013 76 10000 5.1 270 21:58 31.08.2019
2724 Clouds 12 1012 71 10000 5.1 270 21:39 31.08.2019
2725 Clouds 13 1012 67 10000 6.7 270 21:20 31.08.2019
2726 Clouds 14 1012 67 10000 7.2 280 20:49 31.08.2019
2727 Clouds 14 1012 67 10000 7.2 280 20:31 31.08.2019
2728 Clouds 15 1011 67 10000 8.7 280 19:57 31.08.2019
2729 Clouds 15 1011 67 10000 9.3 280 19:39 31.08.2019
2730 Clouds 15 1011 67 10000 9.3 280 19:39 31.08.2019
2731 Rain 15 1010 58 10000 8.2 280 19:20 31.08.2019
2732 Rain 15 1010 67 10000 10.3 290 18:40 31.08.2019
2733 Clouds 15 1010 59 10000 9.3 290 18:21 31.08.2019
2734 Clouds 16 1010 59 10000 9.3 290 17:58 31.08.2019
2735 Clouds 17 1009 55 10000 8.2 290 17:37 31.08.2019
2736 Clouds 16 1009 67 10000 5.1 260 17:19 31.08.2019
2737 Clouds 16 1009 67 10000 5.1 260 17:19 31.08.2019
2738 Clouds 16 1009 67 10000 5.1 260 17:19 31.08.2019
2739 Clouds 17 1009 67 10000 5.1 260 16:58 31.08.2019
2740 Clouds 17 1009 67 10000 5.1 260 16:58 31.08.2019
2741 Clouds 16 1009 51 10000 9.3 290 16:40 31.08.2019
2742 Clouds 17 1009 59 10000 9.8 280 16:21 31.08.2019
2743 Clouds 17 1009 59 10000 9.8 280 16:21 31.08.2019
2744 Clouds 16 1009 59 10000 9.8 280 15:57 31.08.2019
2745 Clouds 16 1009 59 10000 8.2 270 15:36 31.08.2019
2746 Clouds 15 1009 51 10000 7.7 270 15:18 31.08.2019
2747 Clouds 16 1008 67 10000 6.7 270 14:41 31.08.2019
2748 Clouds 16 1008 72 10000 8.2 270 14:22 31.08.2019
2749 Rain 16 1008 72 10000 7.7 270 13:42 31.08.2019
2750 Rain 15 1007 76 10000 11.3 280 13:23 31.08.2019
2751 Rain 14 1007 76 10000 11.3 280 12:59 31.08.2019
2752 Clouds 15 1007 71 10000 10.8 280 12:39 31.08.2019
2753 Clouds 15 1006 76 10000 8.7 270 12:20 31.08.2019
2754 Clouds 15 1006 76 10000 8.7 270 12:20 31.08.2019
2755 Clouds 14 1006 76 10000 8.7 270 11:55 31.08.2019
2756 Clouds 14 1005 82 10000 9.8 270 11:36 31.08.2019
2757 Clouds 13 1005 82 10000 9.8 270 11:18 31.08.2019
2758 Clouds 13 1005 82 10000 9.8 270 11:18 31.08.2019
2759 Clouds 13 1005 82 10000 9.3 270 10:42 31.08.2019
2760 Clouds 13 1004 87 10000 6.7 260 10:19 31.08.2019
2761 Clouds 12 1004 87 10000 6.7 260 09:57 31.08.2019
2762 Clouds 12 1004 87 10000 6.2 260 09:38 31.08.2019
2763 Clouds 12 1003 87 10000 7.2 260 09:19 31.08.2019
2764 Clouds 12 1002 87 10000 9.3 270 08:43 31.08.2019
2765 Clouds 12 1002 87 10000 9.3 270 08:23 31.08.2019
2766 Rain 14 1000 82 10000 6.7 200 07:41 31.08.2019
2767 Rain 15 1000 82 10000 5.7 170 07:22 31.08.2019
2768 Rain 15 1001 82 10000 7.2 170 06:41 31.08.2019
2769 Rain 15 1001 82 10000 7.2 170 06:41 31.08.2019
2770 Rain 15 1002 82 10000 5.7 190 06:18 31.08.2019
2771 Rain 15 1002 82 10000 5.7 190 06:18 31.08.2019
2772 Rain 16 1003 82 10000 6.7 190 05:33 31.08.2019
2773 Rain 16 1004 77 10000 7.2 190 04:36 31.08.2019
2774 Clouds 17 1005 72 10000 8.2 190 03:45 31.08.2019
2775 Clouds 17 1006 72 10000 8.7 200 02:37 31.08.2019
2776 Clouds 17 1006 72 10000 7.7 200 01:55 31.08.2019
2777 Clouds 17 1006 72 10000 7.7 210 01:34 31.08.2019
2778 Clouds 17 1007 72 10000 8.2 200 00:52 31.08.2019
2779 Clouds 17 1007 72 10000 8.2 200 00:30 31.08.2019
2780 Clear 17 1008 72 10000 7.2 210 23:58 30.08.2019
2781 Clear 17 1008 72 10000 7.2 210 23:39 30.08.2019
2782 Clear 17 1008 72 10000 6.2 200 23:18 30.08.2019
2783 Clouds 17 1009 72 10000 6.7 200 22:42 30.08.2019
2784 Clouds 17 1009 72 10000 6.7 200 22:24 30.08.2019
2785 Clouds 17 1009 72 10000 6.7 200 21:58 30.08.2019
2786 Clouds 17 1010 72 10000 7.2 200 21:38 30.08.2019
2787 Clouds 18 1010 72 10000 6.7 210 21:19 30.08.2019
2788 Clouds 18 1010 72 10000 6.7 210 20:59 30.08.2019
2789 Clouds 18 1010 68 10000 7.2 200 20:40 30.08.2019
2790 Clouds 19 1010 68 10000 7.2 200 20:20 30.08.2019
2791 Clouds 19 1010 68 10000 7.2 200 19:57 30.08.2019
2792 Clouds 19 1010 68 10000 7.2 200 19:57 30.08.2019
2793 Clouds 19 1010 68 10000 7.7 200 19:39 30.08.2019
2794 Clouds 19 1010 64 10000 8.7 210 19:19 30.08.2019
2795 Clouds 19 1010 64 10000 7.2 210 18:49 30.08.2019
2796 Clouds 19 1011 64 10000 6.2 200 18:25 30.08.2019
2797 Clouds 20 1011 64 10000 6.2 200 17:59 30.08.2019
2798 Clouds 20 1011 64 10000 7.2 220 17:40 30.08.2019
2799 Clouds 20 1011 63 10000 7.2 220 17:19 30.08.2019
2800 Clouds 19 1011 68 10000 6.7 210 16:59 30.08.2019
2801 Clouds 19 1011 68 10000 6.7 210 16:40 30.08.2019
2802 Clouds 19 1011 68 10000 6.7 210 16:40 30.08.2019
2803 Clouds 19 1011 68 10000 6.7 210 16:21 30.08.2019
2804 Drizzle 19 1011 68 10000 7.2 210 15:43 30.08.2019
2805 Drizzle 19 1011 68 10000 7.2 210 15:23 30.08.2019
2806 Drizzle 19 1011 68 10000 7.2 210 15:23 30.08.2019
2807 Clouds 18 1011 72 10000 7.2 220 14:47 30.08.2019
2808 Clouds 18 1011 72 10000 7.2 220 14:29 30.08.2019
2809 Clouds 18 1011 77 10000 6.7 220 13:58 30.08.2019
2810 Rain 17 1011 82 10000 8.7 220 13:40 30.08.2019
2811 Rain 17 1011 77 10000 7.2 220 13:22 30.08.2019
2812 Clouds 17 1011 77 10000 7.7 220 12:46 30.08.2019
2813 Clouds 17 1011 77 10000 7.7 220 12:27 30.08.2019
2814 Clouds 17 1011 77 10000 6.7 220 11:59 30.08.2019
2815 Rain 16 1011 87 10000 7.2 220 11:41 30.08.2019
2816 Rain 16 1011 87 10000 7.2 220 11:23 30.08.2019
2817 Rain 17 1011 77 10000 7.7 220 10:39 30.08.2019
2818 Clouds 17 1011 77 10000 7.7 210 10:20 30.08.2019
2819 Clouds 17 1011 77 10000 7.7 210 09:56 30.08.2019
2820 Clouds 17 1011 77 10000 7.7 210 09:56 30.08.2019
2821 Clouds 16 1011 82 10000 7.2 210 09:36 30.08.2019
2822 Clouds 16 1011 82 10000 7.2 210 09:36 30.08.2019
2823 Rain 16 1011 82 10000 6.7 210 09:18 30.08.2019
2824 Rain 16 1011 82 10000 6.7 210 09:18 30.08.2019
2825 Rain 16 1011 77 10000 7.2 210 08:44 30.08.2019
2826 Rain 16 1011 77 10000 7.2 210 08:24 30.08.2019
2827 Clouds 16 1011 77 10000 7.2 210 07:56 30.08.2019
2828 Clouds 16 1011 77 10000 7.2 210 07:37 30.08.2019
2829 Clouds 16 1011 77 10000 7.2 210 07:37 30.08.2019
2830 Clouds 16 1011 77 10000 7.2 210 07:18 30.08.2019
2831 Clouds 16 1011 77 10000 7.2 210 06:40 30.08.2019
2832 Clouds 16 1011 77 10000 6.2 210 06:21 30.08.2019
2833 Clouds 16 1012 77 10000 6.7 210 05:32 30.08.2019
2834 Clouds 16 1013 72 10000 5.7 200 03:57 30.08.2019
2835 Clouds 16 1013 72 10000 6.2 200 03:37 30.08.2019
2836 Clouds 16 1013 72 10000 6.2 200 03:37 30.08.2019
2837 Clouds 16 1013 72 10000 6.2 200 03:37 30.08.2019
2838 Clouds 15 1014 72 10000 5.1 210 02:44 30.08.2019
2839 Clouds 15 1014 77 10000 5.1 210 02:19 30.08.2019
2840 Clouds 16 1014 77 10000 4.6 220 00:57 30.08.2019
2841 Clouds 16 1014 72 10000 5.1 220 00:23 30.08.2019
2842 Clouds 16 1014 72 10000 4.1 220 23:49 29.08.2019
2843 Clouds 16 1014 72 10000 4.1 220 23:23 29.08.2019
2844 Clouds 16 1014 72 10000 4.6 230 22:58 29.08.2019
2845 Clouds 16 1014 72 10000 4.1 230 22:38 29.08.2019
2846 Clouds 16 1014 72 10000 4.1 230 22:20 29.08.2019
2847 Clouds 17 1013 72 10000 5.1 210 21:42 29.08.2019
2848 Clouds 17 1013 72 10000 5.1 210 21:42 29.08.2019
2849 Clouds 17 1013 72 10000 5.1 210 21:22 29.08.2019
2850 Clouds 17 1013 72 10000 5.1 230 20:59 29.08.2019
2851 Clouds 17 1013 68 10000 4.6 230 20:41 29.08.2019
2852 Clouds 17 1013 68 10000 4.6 230 20:20 29.08.2019
2853 Clouds 18 1013 68 10000 4.1 230 19:57 29.08.2019
2854 Clouds 18 1013 68 10000 4.1 230 19:38 29.08.2019
2855 Clouds 18 1013 72 10000 5.1 230 19:20 29.08.2019
2856 Rain 18 1013 72 10000 5.7 220 18:41 29.08.2019
2857 Rain 18 1013 77 10000 4.1 230 18:20 29.08.2019
2858 Rain 18 1013 77 10000 5.1 220 17:56 29.08.2019
2859 Rain 18 1013 77 10000 5.1 220 17:37 29.08.2019
2860 Rain 18 1012 63 10000 5.1 230 17:19 29.08.2019
2861 Clouds 19 1012 63 10000 7.7 220 16:43 29.08.2019
2862 Clouds 19 1013 63 10000 7.7 220 16:24 29.08.2019
2863 Clouds 19 1013 63 10000 7.7 220 15:58 29.08.2019
2864 Clouds 19 1012 63 10000 7.2 230 15:38 29.08.2019
2865 Clouds 19 1013 63 10000 6.7 220 15:19 29.08.2019
2866 Clouds 18 1013 68 10000 8.2 220 14:49 29.08.2019
2867 Clouds 18 1013 68 10000 8.2 220 14:22 29.08.2019
2868 Clouds 18 1013 72 10000 8.7 220 13:58 29.08.2019
2869 Clouds 17 1012 72 10000 6.7 220 13:39 29.08.2019
2870 Clouds 17 1012 72 10000 7.2 220 13:20 29.08.2019
2871 Clouds 17 1012 72 10000 7.2 220 12:58 29.08.2019
2872 Clouds 16 1012 72 10000 6.2 220 12:39 29.08.2019
2873 Clouds 16 1012 72 10000 7.7 220 12:21 29.08.2019
2874 Clouds 16 1012 77 10000 6.7 210 11:58 29.08.2019
2875 Clouds 16 1012 77 10000 6.7 210 11:37 29.08.2019
2876 Clouds 15 1012 72 10000 7.7 210 11:18 29.08.2019
2877 Clouds 15 1012 72 10000 6.7 210 10:43 29.08.2019
2878 Clouds 14 1013 76 10000 6.2 210 10:24 29.08.2019
2879 Clouds 14 1013 76 10000 5.1 210 09:42 29.08.2019
2880 Clouds 14 1013 76 10000 5.1 210 09:42 29.08.2019
2881 Clouds 14 1013 76 10000 5.1 210 09:21 29.08.2019
2882 Clouds 13 1013 76 10000 5.7 200 08:59 29.08.2019
2883 Clouds 13 1013 76 10000 4.6 200 08:40 29.08.2019
2884 Clouds 13 1013 76 10000 4.6 200 08:22 29.08.2019
2885 Clouds 13 1013 76 10000 4.1 200 07:49 29.08.2019
2886 Clouds 12 1013 76 10000 4.1 200 07:26 29.08.2019
2887 Clouds 12 1013 82 10000 3.6 220 06:48 29.08.2019
2888 Clouds 12 1013 82 10000 3.6 220 06:30 29.08.2019
2889 Clouds 12 1013 82 10000 4.1 230 05:42 29.08.2019
2890 Clouds 12 1013 82 10000 4.1 220 04:51 29.08.2019
2891 Clouds 12 1013 82 10000 4.1 220 04:29 29.08.2019
2892 Clouds 13 1013 82 10000 3.1 210 03:20 29.08.2019
2893 Clouds 13 1013 82 10000 2.6 230 01:49 29.08.2019
2894 Clouds 13 1013 82 10000 2.6 230 01:30 29.08.2019
2895 Clouds 13 1013 87 10000 2.1 230 00:42 29.08.2019
2896 Clouds 13 1013 82 10000 1.5 220 00:21 29.08.2019
2897 Clouds 13 1013 82 10000 1.5 0 23:44 28.08.2019
2898 Clouds 13 1013 82 10000 1.5 0 23:25 28.08.2019
2899 Clouds 14 1013 87 10000 1.5 0 22:59 28.08.2019
2900 Clouds 14 1013 76 10000 1 0 22:39 28.08.2019
2901 Clouds 14 1013 93 10000 1.5 270 22:18 28.08.2019
2902 Clouds 14 1013 93 10000 1.5 270 21:57 28.08.2019
2903 Clouds 14 1012 87 10000 2.1 250 21:38 28.08.2019
2904 Clouds 15 1012 77 10000 2.6 240 21:20 28.08.2019
2905 Rain 16 1012 77 10000 4.1 260 20:41 28.08.2019
2906 Rain 16 1012 77 10000 4.1 260 20:22 28.08.2019
2907 Rain 17 1012 63 10000 2.6 240 19:56 28.08.2019
2908 Rain 17 1012 63 10000 3.6 250 19:37 28.08.2019
2909 Rain 17 1012 67 10000 5.1 270 19:18 28.08.2019
2910 Rain 18 1012 55 10000 4.1 250 18:42 28.08.2019
2911 Clouds 17 1012 52 10000 3.6 240 18:21 28.08.2019
2912 Clouds 18 1012 52 10000 3.6 240 17:55 28.08.2019
2913 Clouds 18 1012 52 10000 4.1 250 17:37 28.08.2019
2914 Clouds 18 1012 52 10000 4.1 250 17:37 28.08.2019
2915 Clouds 18 1012 55 10000 3.6 240 17:19 28.08.2019
2916 Clouds 18 1012 59 10000 3.6 240 16:42 28.08.2019
2917 Clouds 17 1012 52 10000 4.6 260 16:18 28.08.2019
2918 Clouds 18 1012 52 10000 4.6 260 15:54 28.08.2019
2919 Clouds 18 1012 45 10000 4.6 260 15:36 28.08.2019
2920 Clouds 17 1012 55 10000 5.7 280 15:18 28.08.2019
2921 Clouds 17 1012 55 10000 5.7 280 14:55 28.08.2019
2922 Clouds 17 1011 59 10000 6.2 270 14:36 28.08.2019
2923 Clouds 17 1011 59 10000 5.7 260 14:18 28.08.2019
2924 Clouds 16 1011 62 10000 6.7 270 13:39 28.08.2019
2925 Clouds 16 1011 67 10000 6.7 270 13:20 28.08.2019
2926 Clouds 16 1011 67 10000 6.7 270 12:56 28.08.2019
2927 Clouds 15 1011 72 10000 5.1 260 12:38 28.08.2019
2928 Clouds 15 1011 82 10000 5.1 270 12:20 28.08.2019
2929 Clouds 14 1011 82 10000 4.1 260 11:40 28.08.2019
2930 Clouds 14 1011 82 10000 4.1 260 11:22 28.08.2019
2931 Clouds 13 1011 82 10000 5.7 280 10:57 28.08.2019
2932 Clouds 13 1011 82 10000 5.7 280 10:56 28.08.2019
2933 Clouds 13 1011 82 10000 5.7 280 10:56 28.08.2019
2934 Clouds 13 1010 87 10000 7.2 270 10:37 28.08.2019
2935 Clouds 12 1010 87 10000 5.1 260 10:19 28.08.2019
2936 Drizzle 12 1010 87 9000 4.6 250 09:41 28.08.2019
2937 Drizzle 12 1010 87 8000 5.7 250 09:21 28.08.2019
2938 Drizzle 12 1009 93 6000 5.1 250 08:40 28.08.2019
2939 Drizzle 12 1008 93 10000 6.2 240 08:22 28.08.2019
2940 Drizzle 12 1008 93 10000 6.2 240 07:59 28.08.2019
2941 Clouds 13 1008 82 10000 6.2 240 07:37 28.08.2019
2942 Clouds 13 1008 76 10000 5.7 240 07:18 28.08.2019
2943 Clouds 14 1007 77 10000 6.2 240 06:44 28.08.2019
2944 Clouds 14 1008 77 10000 5.1 220 05:52 28.08.2019
2945 Clouds 15 1007 77 10000 6.7 210 04:28 28.08.2019
2946 Clouds 16 1009 82 10000 5.7 150 01:56 28.08.2019
2947 Clouds 16 1009 77 10000 4.6 150 01:30 28.08.2019
2948 Clouds 16 1010 72 10000 3.6 180 00:43 28.08.2019
2949 Clouds 16 1010 72 10000 4.6 190 00:21 28.08.2019
2950 Clouds 16 1010 72 10000 4.6 200 23:43 27.08.2019
2951 Clouds 15 1011 77 10000 3.6 180 23:22 27.08.2019
2952 Clouds 15 1011 77 10000 3.6 180 23:22 27.08.2019
2953 Clouds 16 1011 77 10000 3.6 180 22:57 27.08.2019
2954 Clouds 16 1011 72 10000 5.1 190 22:38 27.08.2019
2955 Clouds 16 1011 72 10000 5.1 190 22:20 27.08.2019
2956 Clouds 16 1011 72 10000 5.1 200 21:56 27.08.2019
2957 Clouds 16 1011 72 10000 4.1 190 21:37 27.08.2019
2958 Clouds 16 1011 77 10000 4.6 200 21:18 27.08.2019
2959 Drizzle 17 1011 77 10000 3.6 190 20:42 27.08.2019
2960 Drizzle 17 1011 77 10000 3.6 190 20:22 27.08.2019
2961 Clouds 17 1011 68 10000 4.1 200 19:58 27.08.2019
2962 Clouds 17 1011 72 10000 4.6 210 19:40 27.08.2019
2963 Clouds 17 1012 72 10000 5.1 210 19:22 27.08.2019
2964 Clouds 18 1012 68 10000 4.1 220 18:54 27.08.2019
2965 Clouds 19 1012 68 10000 4.1 220 18:36 27.08.2019
2966 Clouds 18 1012 64 10000 4.1 220 18:18 27.08.2019
2967 Clouds 19 1012 68 10000 4.6 220 17:42 27.08.2019
2968 Clouds 19 1012 68 10000 4.6 220 17:22 27.08.2019
2969 Clouds 19 1012 68 10000 4.6 220 17:22 27.08.2019
2970 Clouds 19 1012 56 10000 2.1 160 16:48 27.08.2019
2971 Clouds 20 1013 64 10000 4.6 110 16:28 27.08.2019
2972 Clouds 20 1013 64 10000 4.6 110 16:28 27.08.2019
2973 Clouds 20 1013 64 10000 4.6 110 15:58 27.08.2019
2974 Clouds 20 1013 68 10000 4.1 110 15:40 27.08.2019
2975 Clouds 20 1013 64 10000 3.6 120 15:21 27.08.2019
2976 Clouds 20 1013 64 10000 3.6 120 14:58 27.08.2019
2977 Clouds 20 1013 64 10000 3.6 160 14:39 27.08.2019
2978 Clouds 19 1014 64 10000 2.6 130 14:19 27.08.2019
2979 Clouds 19 1014 68 10000 1.5 0 13:42 27.08.2019
2980 Clouds 19 1014 68 10000 1.5 0 13:22 27.08.2019
2981 Clouds 19 1014 72 10000 2.1 160 12:55 27.08.2019
2982 Clouds 18 1014 72 10000 2.6 130 12:36 27.08.2019
2983 Clouds 18 1014 68 10000 2.1 150 12:18 27.08.2019
2984 Clouds 18 1014 68 10000 2.1 150 12:18 27.08.2019
2985 Clouds 18 1014 68 10000 2.1 150 12:18 27.08.2019
2986 Clouds 17 1015 72 10000 1.5 0 11:42 27.08.2019
2987 Clouds 17 1015 72 10000 1.5 0 11:22 27.08.2019
2988 Clouds 16 1015 77 10000 2.6 180 10:42 27.08.2019
2989 Clouds 16 1015 77 10000 2.6 180 10:20 27.08.2019
2990 Clouds 15 1015 82 10000 2.1 190 09:57 27.08.2019
2991 Clouds 14 1015 87 10000 1 0 09:38 27.08.2019
2992 Clouds 13 1015 87 10000 3.01 199.591 09:19 27.08.2019
2993 Clouds 12 1015 87 10000 2.6 210 08:46 27.08.2019
2994 Clouds 12 1015 87 10000 2.6 210 08:26 27.08.2019
2995 Clouds 12 1015 93 10000 2.1 220 07:56 27.08.2019
2996 Clouds 12 1015 93 10000 1.5 0 07:37 27.08.2019
2997 Clouds 11 1015 93 10000 1.5 240 07:18 27.08.2019
2998 Clouds 12 1015 87 10000 2.1 220 06:48 27.08.2019
2999 Clouds 13 1015 87 10000 2.1 220 06:19 27.08.2019
3000 Clouds 13 1015 87 10000 2.1 240 05:29 27.08.2019
3001 Clouds 12 1016 93 10000 2.6 230 03:45 27.08.2019
3002 Clouds 12 1016 93 10000 2.6 230 03:21 27.08.2019
3003 Clouds 12 1016 82 10000 2.1 220 01:48 27.08.2019
3004 Clouds 13 1016 82 10000 2.1 220 01:26 27.08.2019
3005 Clouds 13 1016 93 10000 2.1 290 00:49 27.08.2019
3006 Clouds 13 1016 93 10000 2.1 290 00:28 27.08.2019
3007 Clouds 13 1016 93 10000 1.5 260 23:44 26.08.2019
3008 Clouds 13 1016 93 10000 1.5 260 23:25 26.08.2019
3009 Clouds 14 1016 93 10000 2.6 320 22:59 26.08.2019
3010 Clouds 14 1016 87 10000 1 170 22:37 26.08.2019
3011 Clouds 15 1016 82 10000 1 150 22:19 26.08.2019
3012 Clouds 16 1016 82 10000 1 150 21:40 26.08.2019
3013 Clouds 17 1016 82 10000 1.5 0 21:22 26.08.2019
3014 Clouds 18 1016 82 10000 1.5 0 20:59 26.08.2019
3015 Clouds 19 1016 82 10000 1.5 0 20:40 26.08.2019
3016 Clouds 19 1016 82 10000 2.6 140 20:20 26.08.2019
3017 Clouds 19 1016 82 10000 3.1 140 19:58 26.08.2019
3018 Clouds 19 1016 82 10000 3.1 140 19:39 26.08.2019
3019 Clouds 19 1016 82 10000 2.6 130 19:19 26.08.2019
3020 Clouds 20 1017 72 10000 3.1 130 18:39 26.08.2019
3021 Clouds 20 1016 72 10000 2.1 130 18:21 26.08.2019
3022 Clouds 20 1017 72 10000 2.6 140 17:59 26.08.2019
3023 Clouds 20 1017 72 10000 3.1 140 17:41 26.08.2019
3024 Clouds 20 1017 72 10000 3.1 140 17:19 26.08.2019
3025 Clouds 20 1017 77 10000 3.1 140 16:56 26.08.2019
3026 Clouds 20 1017 77 10000 3.1 140 16:56 26.08.2019
3027 Clouds 20 1017 68 10000 4.1 150 16:38 26.08.2019
3028 Clouds 20 1017 68 10000 4.1 150 16:18 26.08.2019
3029 Clouds 20 1018 72 10000 4.6 150 15:42 26.08.2019
3030 Clouds 20 1018 72 10000 4.6 150 15:22 26.08.2019
3031 Clouds 19 1017 72 10000 4.1 140 14:56 26.08.2019
3032 Clouds 19 1017 72 10000 4.1 150 14:37 26.08.2019
3033 Clouds 19 1017 72 10000 4.1 150 14:18 26.08.2019
3034 Clouds 20 1018 64 10000 3.6 140 13:41 26.08.2019
3035 Clouds 19 1018 63 10000 3.1 230 13:21 26.08.2019
3036 Clouds 19 1018 72 10000 2.6 240 12:46 26.08.2019
3037 Clouds 18 1018 72 10000 2.6 230 12:28 26.08.2019
3038 Clouds 17 1018 77 10000 2.6 250 11:58 26.08.2019
3039 Clouds 17 1019 77 10000 3.1 280 11:37 26.08.2019
3040 Clouds 16 1019 77 10000 3.1 280 11:19 26.08.2019
3041 Clouds 15 1019 82 10000 4.6 270 10:54 26.08.2019
3042 Clouds 14 1019 87 10000 4.1 270 10:36 26.08.2019
3043 Clouds 15 1019 87 10000 4.1 270 10:18 26.08.2019
3044 Clouds 13 1019 93 10000 3.1 280 09:41 26.08.2019
3045 Clouds 13 1019 87 10000 4.1 280 09:23 26.08.2019
3046 Clouds 12 1019 93 10000 3.6 280 08:55 26.08.2019
3047 Clouds 12 1019 93 10000 3.6 280 08:55 26.08.2019
3048 Clouds 12 1018 93 10000 3.6 270 08:37 26.08.2019
3049 Clouds 12 1018 93 10000 3.6 270 08:18 26.08.2019
3050 Clouds 11 1018 93 10000 2.6 250 07:42 26.08.2019
3051 Clouds 10 1018 93 10000 2.6 250 07:23 26.08.2019
3052 Clouds 11 1018 93 10000 2.6 260 06:49 26.08.2019
3053 Clouds 11 1018 93 10000 2.6 260 06:25 26.08.2019
3054 Clouds 12 1019 93 10000 2.6 250 05:51 26.08.2019
3055 Clouds 13 1019 93 10000 3.1 240 04:31 26.08.2019
3056 Clouds 13 1019 93 10000 3.1 260 03:19 26.08.2019
3057 Clouds 14 1019 93 10000 3.1 260 01:40 26.08.2019
3058 Clouds 13 1019 93 10000 1 270 01:21 26.08.2019
3059 Clouds 15 1019 93 10000 2.1 310 00:41 26.08.2019
3060 Clouds 15 1019 93 10000 1.5 320 00:22 26.08.2019
3061 Clouds 15 1019 93 10000 2.1 320 23:43 25.08.2019
3062 Clouds 15 1019 93 10000 2.1 310 23:19 25.08.2019
3063 Clouds 16 1019 87 10000 1.5 310 22:57 25.08.2019
3064 Clouds 16 1019 87 10000 1.5 320 22:38 25.08.2019
3065 Clouds 16 1019 87 10000 1.5 320 22:20 25.08.2019
3066 Clouds 17 1019 82 10000 2.1 320 21:57 25.08.2019
3067 Clouds 17 1019 82 10000 2.1 320 21:37 25.08.2019
3068 Clouds 18 1019 82 10000 2.6 310 21:18 25.08.2019
3069 Clouds 19 1018 77 10000 3.6 290 20:40 25.08.2019
3070 Clouds 20 1018 72 10000 4.1 280 20:20 25.08.2019
3071 Clouds 20 1018 72 10000 4.1 270 19:58 25.08.2019
3072 Clouds 20 1018 72 10000 3.1 270 19:38 25.08.2019
3073 Clouds 20 1018 72 10000 3.1 270 19:19 25.08.2019
3074 Clouds 20 1018 72 10000 3.1 240 18:57 25.08.2019
3075 Clouds 20 1018 77 10000 3.6 250 18:39 25.08.2019
3076 Clouds 20 1018 77 10000 3.6 250 18:20 25.08.2019
3077 Clouds 19 1018 77 10000 3.6 240 17:43 25.08.2019
3078 Clouds 20 1018 72 10000 4.6 220 17:25 25.08.2019
3079 Clouds 19 1018 82 10000 4.1 240 16:54 25.08.2019
3080 Clouds 19 1018 77 10000 3.6 220 16:36 25.08.2019
3081 Clouds 19 1018 77 10000 3.6 220 16:18 25.08.2019
3082 Clouds 19 1018 82 10000 4.1 260 15:42 25.08.2019
3083 Clouds 19 1018 82 10000 4.1 260 15:23 25.08.2019
3084 Clouds 19 1017 82 10000 4.1 250 14:42 25.08.2019
3085 Clouds 19 1017 88 10000 3.6 250 14:24 25.08.2019
3086 Clouds 18 1017 88 10000 2.6 260 13:56 25.08.2019
3087 Clouds 19 1017 88 10000 3.1 230 13:37 25.08.2019
3088 Clouds 19 1017 88 10000 3.1 230 13:18 25.08.2019
3089 Drizzle 17 1017 93 8000 3.1 250 12:41 25.08.2019
3090 Mist 18 1017 93 5000 3.1 270 12:23 25.08.2019
3091 Mist 17 1017 93 4000 3.1 270 11:58 25.08.2019
3092 Mist 16 1017 93 4000 3.1 270 11:38 25.08.2019
3093 Drizzle 16 1017 93 2000 4.1 270 11:20 25.08.2019
3094 Drizzle 16 1017 93 3000 2.6 240 10:56 25.08.2019
3095 Drizzle 16 1017 93 3000 2.6 240 10:37 25.08.2019
3096 Mist 16 1016 100 5000 1.5 0 10:19 25.08.2019
3097 Mist 16 1016 100 5000 1.5 0 09:42 25.08.2019
3098 Mist 16 1016 100 4000 2.1 240 09:24 25.08.2019
3099 Mist 15 1016 93 3000 1.5 0 08:47 25.08.2019
3100 Mist 15 1016 93 2000 2.1 250 08:29 25.08.2019
3101 Mist 14 1016 100 2500 2.1 250 07:54 25.08.2019
3102 Mist 14 1015 100 2500 1.5 0 07:32 25.08.2019
3103 Mist 14 1015 100 2500 1.5 0 07:32 25.08.2019
3104 Fog 13 1015 100 5000 1.5 280 06:39 25.08.2019
3105 Clouds 13 1015 100 8000 0.94 230.856 05:27 25.08.2019
3106 Clouds 13 1015 100 10000 0.5 310 03:45 25.08.2019
3107 Clouds 13 1015 100 10000 1.5 0 02:43 25.08.2019
3108 Clouds 13 1015 100 10000 1 120 01:54 25.08.2019
3109 Clouds 14 1015 93 10000 1.5 0 00:54 25.08.2019
3110 Clouds 15 1015 87 10000 1 0 00:23 25.08.2019
3111 Clouds 16 1015 82 10000 4.1 100 23:58 24.08.2019
3112 Clouds 15 1015 82 10000 4.1 100 23:39 24.08.2019
3113 Clouds 16 1015 87 10000 4.6 80 23:21 24.08.2019
3114 Clear 16 1015 82 10000 2.1 90 22:42 24.08.2019
3115 Clear 16 1015 82 10000 2.1 90 22:19 24.08.2019
3116 Clear 17 1014 82 10000 2.6 80 21:59 24.08.2019
3117 Clear 18 1014 82 10000 2.6 80 21:40 24.08.2019
3118 Clear 18 1014 77 10000 3.1 100 21:21 24.08.2019
3119 Clear 19 1014 72 10000 1.5 0 20:58 24.08.2019
3120 Clear 19 1014 72 10000 1.5 0 20:39 24.08.2019
3121 Clear 19 1014 72 10000 2.1 120 20:19 24.08.2019
3122 Clear 20 1014 72 10000 6.2 100 19:57 24.08.2019
3123 Clear 20 1014 72 10000 5.7 110 19:38 24.08.2019
3124 Clear 20 1014 72 10000 5.7 110 19:20 24.08.2019
3125 Clear 21 1014 64 10000 4.6 120 18:46 24.08.2019
3126 Clear 21 1015 64 10000 4.1 120 18:24 24.08.2019
3127 Clear 21 1015 64 10000 5.1 120 17:46 24.08.2019
3128 Clear 21 1015 64 10000 5.1 120 17:46 24.08.2019
3129 Clear 21 1015 60 10000 5.1 130 17:28 24.08.2019
3130 Clear 21 1015 68 10000 5.1 140 16:57 24.08.2019
3131 Clouds 22 1015 64 10000 5.7 120 16:38 24.08.2019
3132 Clouds 22 1015 64 10000 5.7 120 16:19 24.08.2019
3133 Clouds 23 1015 64 10000 4.1 130 15:44 24.08.2019
3134 Clouds 22 1015 68 10000 5.7 130 15:26 24.08.2019
3135 Clouds 21 1016 68 10000 5.7 130 14:57 24.08.2019
3136 Clouds 22 1016 68 10000 5.7 130 14:39 24.08.2019
3137 Clouds 21 1016 68 10000 5.7 150 14:18 24.08.2019
3138 Clouds 21 1016 68 10000 5.7 150 13:43 24.08.2019
3139 Clouds 21 1016 68 10000 5.1 140 13:23 24.08.2019
3140 Clouds 20 1016 72 10000 4.6 140 12:59 24.08.2019
3141 Clouds 20 1016 72 10000 4.6 140 12:40 24.08.2019
3142 Clouds 20 1016 72 10000 4.6 140 12:22 24.08.2019
3143 Clouds 20 1016 72 10000 4.6 140 12:22 24.08.2019
3144 Clouds 19 1016 72 10000 5.7 150 11:49 24.08.2019
3145 Clouds 19 1016 77 10000 5.1 140 11:31 24.08.2019
3146 Clouds 18 1016 82 10000 4.6 120 10:59 24.08.2019
3147 Clouds 18 1016 82 10000 4.6 120 10:38 24.08.2019
3148 Clouds 17 1016 82 10000 4.6 130 10:20 24.08.2019
3149 Clouds 16 1016 82 9000 4.6 130 09:42 24.08.2019
3150 Clouds 16 1016 82 9000 3.6 140 09:19 24.08.2019
3151 Clouds 14 1016 87 10000 3.6 140 08:43 24.08.2019
3152 Clouds 14 1016 87 10000 3.1 140 08:25 24.08.2019
3153 Clouds 13 1016 87 9000 3.1 140 07:52 24.08.2019
3154 Clouds 13 1016 93 10000 3.1 140 07:30 24.08.2019
3155 Clouds 13 1017 93 10000 1.5 0 06:52 24.08.2019
3156 Clouds 12 1017 93 10000 1.5 0 06:21 24.08.2019
3157 Clouds 12 1017 93 10000 1 0 05:36 24.08.2019
3158 Clouds 12 1017 93 10000 1.5 360 03:48 24.08.2019
3159 Clouds 12 1018 100 10000 1 0 03:28 24.08.2019
3160 Clouds 12 1018 93 10000 1 0 02:18 24.08.2019
3161 Clouds 13 1018 81 10000 1.77 188.212 01:25 24.08.2019
3162 Clouds 13 1018 87 10000 1 0 00:47 24.08.2019
3163 Clouds 14 1018 76 10000 1.5 0 00:23 24.08.2019
3164 Clouds 14 1018 76 10000 1.5 0 00:23 24.08.2019
3165 Clouds 14 1018 87 10000 0.5 0 23:45 23.08.2019
3166 Clouds 14 1018 87 10000 1 0 23:20 23.08.2019
3167 Clouds 15 1018 87 10000 2.1 110 22:45 23.08.2019
3168 Clouds 15 1018 87 10000 2.1 130 22:27 23.08.2019
3169 Clouds 16 1018 82 10000 3.6 150 21:56 23.08.2019
3170 Clouds 16 1018 77 10000 2.6 150 21:37 23.08.2019
3171 Clouds 16 1018 77 10000 2.6 150 21:37 23.08.2019
3172 Clouds 16 1018 77 10000 2.6 150 21:19 23.08.2019
3173 Clouds 17 1018 68 10000 3.6 160 20:51 23.08.2019
3174 Clouds 17 1018 68 10000 3.1 90 20:33 23.08.2019
3175 Clouds 18 1019 68 10000 4.6 130 19:47 23.08.2019
3176 Clouds 19 1019 72 10000 5.7 150 19:19 23.08.2019
3177 Clouds 19 1019 72 10000 5.1 150 18:56 23.08.2019
3178 Clouds 20 1019 72 10000 6.2 150 18:37 23.08.2019
3179 Clouds 20 1019 72 10000 6.2 150 18:19 23.08.2019
3180 Clouds 20 1020 64 10000 4.6 140 17:42 23.08.2019
3181 Clouds 19 1020 68 10000 3.6 220 17:24 23.08.2019
3182 Clouds 20 1020 64 10000 4.6 230 16:56 23.08.2019
3183 Clouds 20 1020 64 10000 4.6 230 16:38 23.08.2019
3184 Clouds 21 1020 60 10000 3.6 230 16:20 23.08.2019
3185 Clouds 20 1020 64 10000 3.1 160 15:40 23.08.2019
3186 Clouds 20 1020 64 10000 4.1 170 15:22 23.08.2019
3187 Clouds 20 1020 64 10000 4.1 160 14:56 23.08.2019
3188 Clouds 21 1020 64 10000 4.1 160 14:38 23.08.2019
3189 Clouds 21 1020 64 10000 4.6 210 14:20 23.08.2019
3190 Clouds 21 1021 60 10000 4.1 210 13:42 23.08.2019
3191 Clouds 21 1021 64 10000 5.1 210 13:23 23.08.2019
3192 Clouds 20 1021 64 10000 5.7 210 13:00 23.08.2019
3193 Clouds 20 1021 64 10000 5.7 210 12:41 23.08.2019
3194 Clouds 20 1021 64 10000 6.2 200 12:22 23.08.2019
3195 Clouds 19 1021 68 10000 5.1 220 11:58 23.08.2019
3196 Clouds 19 1021 68 10000 4.6 210 11:39 23.08.2019
3197 Clouds 19 1021 68 10000 4.6 210 11:19 23.08.2019
3198 Clouds 18 1021 68 10000 5.1 210 10:56 23.08.2019
3199 Clouds 18 1021 68 10000 5.1 210 10:38 23.08.2019
3200 Clouds 18 1021 72 10000 3.6 210 10:18 23.08.2019
3201 Clouds 17 1021 77 10000 3.6 210 09:43 23.08.2019
3202 Clouds 16 1021 82 10000 3.6 200 09:20 23.08.2019
3203 Clouds 15 1021 87 10000 2.1 200 08:45 23.08.2019
3204 Clouds 14 1021 93 10000 1 0 08:22 23.08.2019
3205 Clouds 14 1021 87 10000 1.5 0 07:59 23.08.2019
3206 Clouds 14 1021 87 10000 1.5 0 07:40 23.08.2019
3207 Clouds 14 1021 87 10000 2.1 230 07:22 23.08.2019
3208 Clouds 15 1020 87 10000 2.1 220 06:41 23.08.2019
3209 Clouds 15 1020 87 10000 2.1 220 06:22 23.08.2019
3210 Clouds 16 1020 87 10000 2.6 210 05:44 23.08.2019
3211 Clouds 16 1020 87 10000 3.1 210 05:25 23.08.2019
3212 Clouds 16 1020 88 10000 3.1 210 03:46 23.08.2019
3213 Clouds 18 1021 82 10000 3.1 220 02:38 23.08.2019
3214 Clouds 18 1021 82 10000 3.1 220 02:20 23.08.2019
3215 Clouds 18 1021 82 10000 3.6 210 00:58 23.08.2019
3216 Clouds 18 1021 82 10000 3.1 210 00:39 23.08.2019
3217 Clouds 18 1021 82 10000 3.1 210 00:18 23.08.2019
3218 Clouds 18 1020 82 10000 2.1 220 23:41 22.08.2019
3219 Clouds 18 1020 82 10000 2.1 220 23:21 22.08.2019
3220 Clouds 19 1020 77 10000 2.6 210 22:42 22.08.2019
3221 Clouds 19 1020 77 10000 2.6 210 22:24 22.08.2019
3222 Clouds 19 1020 77 10000 3.1 210 21:58 22.08.2019
3223 Clouds 19 1019 77 10000 3.6 240 21:40 22.08.2019
3224 Clouds 19 1019 77 10000 3.6 240 21:22 22.08.2019
3225 Clouds 20 1019 72 10000 4.1 240 20:58 22.08.2019
3226 Clouds 20 1018 72 10000 6.2 250 20:39 22.08.2019
3227 Clouds 20 1018 72 10000 6.2 250 20:20 22.08.2019
3228 Clouds 20 1018 72 10000 6.2 250 20:20 22.08.2019
3229 Clouds 20 1018 72 10000 6.7 250 19:56 22.08.2019
3230 Clouds 20 1018 72 10000 6.7 250 19:38 22.08.2019
3231 Clouds 20 1018 72 10000 6.7 250 19:38 22.08.2019
3232 Clouds 20 1018 72 10000 6.7 250 19:20 22.08.2019
3233 Clouds 21 1018 77 10000 7.2 250 18:57 22.08.2019
3234 Clouds 20 1018 77 10000 5.7 250 18:39 22.08.2019
3235 Clouds 20 1018 77 10000 5.7 250 18:18 22.08.2019
3236 Drizzle 19 1018 93 10000 6.7 240 17:43 22.08.2019
3237 Drizzle 19 1018 88 7000 7.2 240 17:24 22.08.2019
3238 Drizzle 19 1018 88 7000 7.2 240 16:59 22.08.2019
3239 Drizzle 19 1018 88 7000 7.2 240 16:40 22.08.2019
3240 Drizzle 19 1018 77 7000 5.7 230 16:21 22.08.2019
3241 Drizzle 19 1018 77 7000 5.7 230 16:21 22.08.2019
3242 Drizzle 19 1018 77 7000 5.7 230 16:21 22.08.2019
3243 Clouds 19 1018 82 10000 5.1 220 15:59 22.08.2019
3244 Clouds 19 1018 82 10000 5.1 220 15:40 22.08.2019
3245 Drizzle 19 1018 82 6000 5.7 230 15:21 22.08.2019
3246 Clouds 19 1018 77 10000 4.6 230 14:57 22.08.2019
3247 Clouds 19 1018 77 10000 5.1 230 14:38 22.08.2019
3248 Clouds 19 1018 77 10000 5.1 230 14:18 22.08.2019
3249 Clouds 19 1017 77 10000 5.7 230 13:56 22.08.2019
3250 Clouds 19 1017 77 10000 5.1 230 13:37 22.08.2019
3251 Clouds 19 1017 77 10000 5.1 230 13:18 22.08.2019
3252 Clouds 18 1018 88 10000 5.1 220 12:40 22.08.2019
3253 Drizzle 17 1018 82 10000 5.7 240 12:21 22.08.2019
3254 Drizzle 17 1018 87 10000 5.1 230 11:55 22.08.2019
3255 Rain 17 1017 82 10000 4.6 220 11:36 22.08.2019
3256 Rain 17 1017 82 10000 4.6 220 11:18 22.08.2019
3257 Rain 17 1017 82 10000 4.6 220 11:18 22.08.2019
3258 Clouds 16 1017 87 10000 4.1 230 10:57 22.08.2019
3259 Clouds 16 1017 87 10000 4.1 220 10:36 22.08.2019
3260 Clouds 16 1017 87 10000 4.1 220 10:18 22.08.2019
3261 Clouds 16 1017 87 10000 4.1 220 09:40 22.08.2019
3262 Clouds 16 1017 87 10000 4.6 230 09:21 22.08.2019
3263 Clouds 15 1017 93 10000 4.6 220 08:58 22.08.2019
3264 Clouds 15 1017 93 10000 3.1 220 08:39 22.08.2019
3265 Rain 15 1017 100 9000 2.1 220 08:20 22.08.2019
3266 Rain 15 1017 93 5000 3.6 230 07:42 22.08.2019
3267 Rain 15 1017 93 5000 3.6 230 07:23 22.08.2019
3268 Rain 15 1017 87 10000 4.1 230 06:55 22.08.2019
3269 Rain 15 1017 87 10000 5.1 220 06:37 22.08.2019
3270 Rain 15 1017 87 10000 5.1 220 06:18 22.08.2019
3271 Clouds 15 1017 93 10000 2.1 230 04:42 22.08.2019
3272 Clouds 15 1018 93 10000 2.6 200 02:56 22.08.2019
3273 Clouds 15 1018 93 10000 2.1 200 02:34 22.08.2019
3274 Clouds 14 1018 93 10000 1.5 0 01:26 22.08.2019
3275 Rain 14 1018 100 10000 2.6 230 00:48 22.08.2019
3276 Rain 14 1018 100 9000 2.6 220 00:30 22.08.2019
3277 Rain 13 1018 93 10000 2.6 220 23:58 21.08.2019
3278 Rain 13 1018 93 9000 3.6 250 23:39 21.08.2019
3279 Rain 13 1018 93 9000 3.6 250 23:19 21.08.2019
3280 Rain 14 1018 93 7000 4.6 260 22:55 21.08.2019
3281 Rain 14 1018 93 7000 4.6 260 22:37 21.08.2019
3282 Rain 14 1018 93 5000 6.7 270 22:19 21.08.2019
3283 Rain 15 1017 93 4000 5.1 210 21:55 21.08.2019
3284 Rain 15 1017 87 10000 6.2 210 21:36 21.08.2019
3285 Rain 15 1017 87 10000 6.2 210 21:18 21.08.2019
3286 Rain 15 1017 87 10000 6.7 210 20:43 21.08.2019
3287 Rain 15 1017 87 10000 6.7 210 20:24 21.08.2019
3288 Rain 15 1017 87 10000 6.7 210 19:57 21.08.2019
3289 Rain 15 1017 87 10000 7.7 210 19:39 21.08.2019
3290 Rain 15 1017 87 10000 7.7 210 19:20 21.08.2019
3291 Rain 15 1018 87 10000 6.7 210 18:55 21.08.2019
3292 Rain 15 1018 87 10000 8.2 200 18:37 21.08.2019
3293 Rain 15 1018 87 10000 8.2 200 18:19 21.08.2019
3294 Rain 15 1018 82 10000 7.2 200 17:42 21.08.2019
3295 Rain 15 1018 82 10000 7.7 200 17:20 21.08.2019
3296 Rain 15 1019 82 10000 7.2 200 16:54 21.08.2019
3297 Rain 15 1019 82 10000 7.2 200 16:36 21.08.2019
3298 Rain 15 1019 82 10000 6.7 200 16:18 21.08.2019
3299 Rain 16 1019 77 10000 5.1 200 15:42 21.08.2019
3300 Rain 16 1019 77 10000 6.2 200 15:22 21.08.2019
3301 Rain 16 1020 72 10000 6.7 200 14:59 21.08.2019
3302 Rain 16 1020 72 10000 6.7 200 14:39 21.08.2019
3303 Clouds 16 1020 72 10000 7.2 200 14:21 21.08.2019
3304 Clouds 16 1020 72 10000 7.2 200 14:21 21.08.2019
3305 Clouds 16 1020 72 10000 5.1 200 13:58 21.08.2019
3306 Clouds 16 1020 72 10000 5.1 200 13:40 21.08.2019
3307 Clouds 16 1020 72 10000 6.2 200 13:19 21.08.2019
3308 Clouds 15 1021 72 10000 5.7 200 12:43 21.08.2019
3309 Clouds 15 1021 72 10000 5.7 200 12:25 21.08.2019
3310 Clouds 15 1021 72 10000 5.7 200 11:59 21.08.2019
3311 Clouds 15 1021 72 10000 5.7 200 11:41 21.08.2019
3312 Clouds 15 1021 72 10000 6.2 210 11:22 21.08.2019
3313 Clouds 15 1022 77 10000 5.1 210 10:57 21.08.2019
3314 Clouds 15 1022 77 10000 4.6 210 10:38 21.08.2019
3315 Clouds 15 1022 77 10000 4.6 210 10:20 21.08.2019
3316 Clouds 15 1022 77 10000 4.6 200 09:57 21.08.2019
3317 Clouds 15 1022 77 10000 4.6 200 09:37 21.08.2019
3318 Clouds 15 1022 77 10000 4.6 200 09:37 21.08.2019
3319 Clouds 14 1022 82 10000 4.1 180 09:18 21.08.2019
3320 Clouds 13 1022 82 10000 2.6 180 08:44 21.08.2019
3321 Clouds 13 1022 82 10000 2.6 180 08:44 21.08.2019
3322 Clouds 12 1022 87 10000 3.1 190 08:24 21.08.2019
3323 Clouds 11 1022 87 10000 3.1 200 07:43 21.08.2019
3324 Clouds 11 1022 87 10000 2.6 200 07:24 21.08.2019
3325 Clouds 11 1022 87 10000 2.6 210 06:50 21.08.2019
3326 Clouds 12 1022 87 10000 3.1 210 06:28 21.08.2019
3327 Clouds 12 1022 87 10000 2.6 190 05:47 21.08.2019
3328 Clouds 12 1023 87 10000 3.1 180 05:25 21.08.2019
3329 Clouds 12 1023 87 10000 2.1 230 03:56 21.08.2019
3330 Clouds 12 1023 93 10000 3.1 230 01:52 21.08.2019
3331 Clouds 13 1023 93 10000 3.1 240 01:23 21.08.2019
3332 Clouds 13 1022 87 10000 4.1 250 00:38 21.08.2019
3333 Clouds 13 1022 87 10000 4.1 250 00:18 21.08.2019
3334 Clouds 13 1022 87 10000 3.6 240 23:43 20.08.2019
3335 Clouds 14 1022 93 10000 2.1 230 23:19 20.08.2019
3336 Clouds 14 1022 93 10000 4.1 250 22:58 20.08.2019
3337 Clouds 14 1022 93 10000 4.1 250 22:39 20.08.2019
3338 Clouds 14 1022 93 10000 3.6 250 22:21 20.08.2019
3339 Clouds 14 1022 93 10000 5.1 250 21:57 20.08.2019
3340 Clouds 14 1022 93 10000 5.1 250 21:57 20.08.2019
3341 Clouds 14 1022 93 10000 5.1 250 21:38 20.08.2019
3342 Rain 14 1021 93 10000 5.1 250 21:19 20.08.2019
3343 Rain 15 1021 87 10000 4.6 250 20:56 20.08.2019
3344 Rain 15 1021 87 10000 4.6 250 20:56 20.08.2019
3345 Rain 15 1021 93 10000 3.1 240 20:36 20.08.2019
3346 Rain 15 1021 93 10000 3.1 240 20:36 20.08.2019
3347 Rain 15 1021 93 10000 3.1 240 20:18 20.08.2019
3348 Rain 15 1021 87 10000 3.1 240 19:39 20.08.2019
3349 Rain 15 1021 87 10000 3.1 240 19:20 20.08.2019
3350 Rain 15 1021 87 10000 4.1 240 18:55 20.08.2019
3351 Rain 15 1020 82 10000 3.6 230 18:37 20.08.2019
3352 Rain 15 1020 82 10000 3.6 230 18:18 20.08.2019
3353 Rain 16 1020 82 10000 3.6 230 17:55 20.08.2019
3354 Rain 16 1020 82 10000 3.1 240 17:37 20.08.2019
3355 Rain 16 1021 87 10000 3.6 210 17:18 20.08.2019
3356 Rain 15 1021 87 10000 2.6 200 16:41 20.08.2019
3357 Rain 15 1021 87 10000 2.6 200 16:23 20.08.2019
3358 Rain 15 1021 82 10000 2.6 220 15:42 20.08.2019
3359 Rain 15 1021 82 10000 2.6 200 15:19 20.08.2019
3360 Rain 15 1021 82 10000 2.6 200 14:56 20.08.2019
3361 Rain 15 1021 77 10000 3.1 220 14:38 20.08.2019
3362 Drizzle 15 1021 82 6000 4.6 240 14:20 20.08.2019
3363 Drizzle 15 1021 82 6000 4.6 240 13:56 20.08.2019
3364 Clouds 15 1021 67 10000 3.6 230 13:56 20.08.2019
3365 Clouds 15 1021 67 10000 3.6 230 13:37 20.08.2019
3366 Clouds 15 1020 67 10000 4.1 240 13:18 20.08.2019
3367 Clouds 15 1021 67 10000 4.1 240 12:50 20.08.2019
3368 Clouds 15 1021 67 10000 4.1 240 12:25 20.08.2019
3369 Clouds 15 1021 72 10000 3.1 230 11:56 20.08.2019
3370 Clouds 15 1021 76 10000 4.1 220 11:38 20.08.2019
3371 Clouds 14 1020 76 10000 3.1 240 11:18 20.08.2019
3372 Clouds 14 1020 76 10000 3.6 240 10:56 20.08.2019
3373 Clouds 13 1020 76 10000 3.6 240 10:37 20.08.2019
3374 Clouds 12 1020 87 10000 3.1 240 10:18 20.08.2019
3375 Clouds 11 1020 87 10000 4.1 240 09:41 20.08.2019
3376 Clouds 11 1020 87 10000 4.1 240 09:22 20.08.2019
3377 Clear 10 1019 93 10000 3.1 250 08:43 20.08.2019
3378 Clear 9 1019 93 10000 3.1 250 08:24 20.08.2019
3379 Clear 9 1019 87 10000 2.6 260 07:58 20.08.2019
3380 Clear 9 1019 87 10000 2.6 260 07:40 20.08.2019
3381 Clear 9 1019 87 10000 3.1 260 07:22 20.08.2019
3382 Clear 9 1019 87 10000 4.1 250 06:48 20.08.2019
3383 Clear 9 1018 87 10000 3.1 240 06:22 20.08.2019
3384 Clear 9 1018 87 10000 3.6 250 05:48 20.08.2019
3385 Clear 10 1018 87 10000 3.6 250 04:45 20.08.2019
3386 Clear 10 1018 81 10000 4.1 260 03:26 20.08.2019
3387 Clear 11 1017 87 10000 3.6 260 02:32 20.08.2019
3388 Clear 11 1017 81 10000 5.1 260 01:22 20.08.2019
3389 Clouds 11 1017 81 10000 5.7 270 00:48 20.08.2019
3390 Clouds 12 1017 81 10000 5.7 270 00:30 20.08.2019
3391 Clouds 12 1016 81 10000 5.1 260 23:52 19.08.2019
3392 Clouds 12 1016 87 10000 5.1 270 23:19 19.08.2019
3393 Clouds 12 1016 87 10000 5.1 270 22:59 19.08.2019
3394 Rain 13 1015 76 10000 6.2 270 22:41 19.08.2019
3395 Rain 13 1015 76 10000 5.7 270 22:21 19.08.2019
3396 Rain 13 1015 76 10000 5.7 270 21:58 19.08.2019
3397 Rain 14 1014 71 10000 6.2 260 21:39 19.08.2019
3398 Rain 14 1014 71 10000 6.2 260 21:20 19.08.2019
3399 Rain 15 1014 67 10000 6.7 270 20:58 19.08.2019
3400 Rain 15 1014 67 10000 6.7 260 20:38 19.08.2019
3401 Rain 15 1013 72 10000 5.7 260 20:19 19.08.2019
3402 Rain 15 1013 72 10000 5.7 260 19:55 19.08.2019
3403 -273 0 0 0 0 0 19:55 19.08.2019
3404 Rain 15 1013 72 10000 8.2 270 19:37 19.08.2019
3405 Rain 16 1013 63 10000 7.2 280 19:18 19.08.2019
3406 Rain 17 1012 63 10000 7.2 260 18:42 19.08.2019
3407 Rain 16 1013 67 10000 6.2 270 18:24 19.08.2019
3408 Rain 16 1013 67 10000 6.2 270 17:58 19.08.2019
3409 Rain 16 1012 67 10000 6.7 280 17:40 19.08.2019
3410 Rain 16 1012 72 10000 6.2 260 17:19 19.08.2019
3411 Rain 17 1012 72 10000 6.2 260 16:58 19.08.2019
3412 Rain 16 1012 72 10000 5.7 260 16:37 19.08.2019
3413 Rain 16 1012 72 10000 5.7 260 16:18 19.08.2019
3414 Rain 17 1012 87 10000 6.2 270 15:45 19.08.2019
3415 Rain 16 1012 76 6000 8.2 310 15:20 19.08.2019
3416 Rain 17 1011 59 10000 5.1 260 14:57 19.08.2019
3417 Rain 17 1011 59 10000 6.2 260 14:37 19.08.2019
3418 Rain 17 1011 59 10000 6.2 260 14:19 19.08.2019
3419 Clouds 17 1011 63 10000 6.2 250 13:56 19.08.2019
3420 Clouds 17 1011 59 10000 5.1 250 13:36 19.08.2019
3421 Clouds 17 1011 59 10000 5.1 250 13:18 19.08.2019
3422 Clouds 16 1010 63 10000 9.3 280 12:43 19.08.2019
3423 Clouds 16 1010 63 10000 9.3 280 12:43 19.08.2019
3424 Clouds 15 1010 67 10000 6.7 260 12:23 19.08.2019
3425 Clouds 16 1010 72 10000 6.2 250 11:56 19.08.2019
3426 Clouds 15 1010 76 10000 5.7 260 11:36 19.08.2019
3427 Clouds 15 1010 76 10000 5.7 260 11:18 19.08.2019
3428 Clouds 14 1010 82 10000 6.2 250 10:40 19.08.2019
3429 Clouds 14 1009 82 10000 5.7 250 10:19 19.08.2019
3430 Clouds 13 1009 87 10000 6.2 260 09:56 19.08.2019
3431 Clouds 13 1009 87 10000 6.2 260 09:38 19.08.2019
3432 Clouds 12 1009 87 10000 5.1 250 09:20 19.08.2019
3433 Clouds 11 1009 93 10000 3.6 240 08:45 19.08.2019
3434 Clouds 11 1009 93 10000 4.6 250 08:25 19.08.2019
3435 Clouds 11 1008 93 10000 4.1 240 07:57 19.08.2019
3436 Clouds 11 1008 93 10000 4.1 240 07:39 19.08.2019
3437 Clouds 11 1008 93 10000 3.6 240 07:19 19.08.2019
3438 Clouds 11 1008 93 10000 3.6 240 07:19 19.08.2019
3439 Clear 11 1008 93 10000 3.6 240 06:36 19.08.2019
3440 Clear 11 1008 93 10000 3.1 230 05:28 19.08.2019
3441 Clear 11 1007 87 10000 2.1 240 04:34 19.08.2019
3442 Clear 11 1007 93 10000 4.6 260 03:28 19.08.2019
3443 Clouds 11 1007 93 10000 4.1 260 02:53 19.08.2019
3444 Clouds 12 1006 87 10000 4.6 260 01:37 19.08.2019
3445 Clouds 12 1005 87 10000 4.6 260 00:49 19.08.2019
3446 Clouds 13 1005 87 10000 4.6 260 00:25 19.08.2019
3447 Rain 12 1005 87 10000 3.6 260 23:57 18.08.2019
3448 Rain 13 1004 87 10000 5.7 260 23:37 18.08.2019
3449 Rain 13 1004 87 10000 5.7 260 23:19 18.08.2019
3450 Rain 13 1004 87 10000 5.1 260 22:40 18.08.2019
3451 Rain 13 1003 82 10000 5.7 270 22:21 18.08.2019
3452 Rain 14 1003 76 10000 5.1 260 21:57 18.08.2019
3453 Clouds 14 1003 76 10000 5.1 260 21:39 18.08.2019
3454 Clouds 15 1002 67 10000 5.7 270 21:20 18.08.2019
3455 Clouds 16 1002 63 10000 5.1 260 20:54 18.08.2019
3456 Clouds 17 1002 67 10000 4.1 240 20:36 18.08.2019
3457 Clouds 17 1002 67 10000 4.1 240 20:18 18.08.2019
3458 Clouds 16 1001 67 10000 5.1 240 19:41 18.08.2019
3459 Clouds 16 1001 67 10000 5.1 240 19:23 18.08.2019
3460 Rain 15 1001 77 10000 5.7 240 18:56 18.08.2019
3461 Rain 15 1001 77 10000 5.7 240 18:56 18.08.2019
3462 Rain 15 1000 82 10000 4.1 230 18:38 18.08.2019
3463 Rain 15 1000 82 10000 4.1 230 18:20 18.08.2019
3464 Rain 15 1001 87 10000 5.7 230 17:54 18.08.2019
3465 Rain 15 1000 77 10000 5.1 250 17:36 18.08.2019
3466 Rain 15 1000 77 10000 5.1 250 17:18 18.08.2019
3467 Rain 16 1000 68 10000 8.2 250 16:42 18.08.2019
3468 Clouds 16 1000 72 10000 6.7 240 16:23 18.08.2019
3469 Rain 16 999 77 10000 6.2 250 15:59 18.08.2019
3470 Rain 15 999 77 10000 6.2 250 15:39 18.08.2019
3471 Rain 16 999 77 10000 5.7 240 15:20 18.08.2019
3472 Rain 16 999 63 10000 5.7 240 14:57 18.08.2019
3473 Rain 16 999 63 10000 5.7 240 14:38 18.08.2019
3474 Rain 16 999 72 10000 6.2 240 14:19 18.08.2019
3475 Rain 16 999 82 7000 6.7 250 13:56 18.08.2019
3476 Rain 14 999 82 7000 6.7 250 13:37 18.08.2019
3477 Rain 15 999 77 4000 6.7 240 13:19 18.08.2019
3478 Rain 14 999 82 10000 6.2 240 12:41 18.08.2019
3479 Rain 15 998 72 10000 7.2 240 12:22 18.08.2019
3480 Rain 15 998 72 10000 6.7 240 11:55 18.08.2019
3481 Rain 15 998 72 10000 6.7 240 11:36 18.08.2019
3482 Clouds 15 997 71 10000 7.2 240 11:18 18.08.2019
3483 Clouds 13 997 76 10000 6.2 240 10:41 18.08.2019
3484 Clouds 13 997 81 10000 5.7 230 10:21 18.08.2019
3485 Clouds 12 997 81 10000 6.7 240 09:50 18.08.2019
3486 Clouds 12 997 81 10000 6.7 230 09:22 18.08.2019
3487 Clouds 12 997 81 10000 6.2 240 08:54 18.08.2019
3488 Clouds 12 996 81 10000 6.7 240 08:36 18.08.2019
3489 Clouds 12 996 81 10000 6.7 240 08:18 18.08.2019
3490 Clouds 11 996 81 10000 6.7 230 07:43 18.08.2019
3491 Clouds 12 996 81 10000 6.7 240 07:24 18.08.2019
3492 Clear 11 997 81 10000 6.2 240 05:48 18.08.2019
3493 Clear 11 997 81 10000 5.7 230 04:53 18.08.2019
3494 Clear 12 998 81 10000 4.6 220 03:36 18.08.2019
3495 Clear 12 998 81 10000 4.6 230 02:46 18.08.2019
3496 Clear 12 998 81 10000 5.1 220 02:23 18.08.2019
3497 Clouds 13 998 76 10000 4.6 230 01:30 18.08.2019
3498 Clouds 13 999 82 10000 5.1 230 00:56 18.08.2019
3499 Clouds 13 999 82 10000 4.6 230 00:37 18.08.2019
3500 Clouds 13 999 82 10000 4.6 230 00:18 18.08.2019
3501 Clouds 13 999 82 10000 3.6 230 23:56 17.08.2019
3502 Clouds 13 999 76 10000 3.6 220 23:36 17.08.2019
3503 Clouds 13 999 76 10000 3.6 220 23:18 17.08.2019
3504 Clouds 13 999 76 10000 3.6 220 23:18 17.08.2019
3505 Rain 14 999 62 10000 4.1 230 22:41 17.08.2019
3506 Rain 15 999 62 10000 4.6 230 22:23 17.08.2019
3507 Rain 16 998 59 10000 4.6 230 21:59 17.08.2019
3508 Rain 16 998 59 10000 5.1 240 21:40 17.08.2019
3509 Rain 16 998 59 10000 5.1 240 21:21 17.08.2019
3510 Rain 18 998 55 10000 4.1 230 20:40 17.08.2019
3511 Clouds 18 998 59 10000 5.1 230 20:21 17.08.2019
3512 Rain 18 998 55 10000 5.7 240 19:57 17.08.2019
3513 Rain 18 998 59 10000 5.7 230 19:39 17.08.2019
3514 Rain 18 998 59 10000 5.7 230 19:20 17.08.2019
3515 Rain 18 998 59 10000 5.7 230 19:20 17.08.2019
3516 Rain 18 998 59 10000 6.2 220 18:41 17.08.2019
3517 Rain 17 998 59 10000 6.2 220 18:19 17.08.2019
3518 Rain 18 998 55 10000 7.2 220 17:58 17.08.2019
3519 Rain 18 998 52 10000 6.7 240 17:40 17.08.2019
3520 Rain 18 998 52 10000 6.7 240 17:21 17.08.2019
3521 Rain 18 998 52 10000 6.7 240 17:21 17.08.2019
3522 Clouds 18 998 59 10000 7.2 230 16:45 17.08.2019
3523 Clouds 18 999 59 10000 6.2 230 16:26 17.08.2019
3524 Clouds 18 999 63 10000 6.2 220 15:59 17.08.2019
3525 Clouds 17 999 63 10000 6.2 220 15:40 17.08.2019
3526 Rain 17 999 67 10000 6.7 220 15:20 17.08.2019
3527 Rain 17 999 67 10000 7.2 220 14:43 17.08.2019
3528 Rain 17 999 67 10000 6.2 240 14:23 17.08.2019
3529 Rain 16 999 63 10000 5.1 230 13:49 17.08.2019
3530 Rain 17 999 63 10000 6.7 230 13:23 17.08.2019
3531 Clouds 16 999 63 10000 6.7 240 12:59 17.08.2019
3532 Clouds 15 999 67 10000 6.2 230 12:41 17.08.2019
3533 Clouds 16 999 67 10000 6.2 230 12:19 17.08.2019
3534 Clouds 15 999 72 10000 5.7 240 11:56 17.08.2019
3535 Clouds 15 999 72 10000 6.2 230 11:36 17.08.2019
3536 Clouds 15 999 72 10000 6.2 230 11:18 17.08.2019
3537 Clouds 15 999 76 10000 5.7 230 10:39 17.08.2019
3538 Clouds 15 999 76 10000 5.7 230 10:19 17.08.2019
3539 Clouds 14 999 76 10000 4.6 230 09:49 17.08.2019
3540 Clouds 13 999 82 10000 4.6 230 09:30 17.08.2019
3541 Clouds 12 999 87 10000 4.6 230 08:54 17.08.2019
3542 Clouds 12 998 87 10000 4.1 230 08:25 17.08.2019
3543 Clouds 12 998 87 10000 4.1 230 07:52 17.08.2019
3544 Clouds 12 998 87 10000 3.6 230 07:22 17.08.2019
3545 Clouds 12 998 87 10000 3.6 230 07:22 17.08.2019
3546 Clouds 12 998 87 10000 4.1 230 06:54 17.08.2019
3547 Clouds 13 998 87 10000 4.1 250 05:35 17.08.2019
3548 Clouds 13 997 87 10000 4.1 250 04:29 17.08.2019
3549 Rain 14 997 87 10000 5.1 230 03:33 17.08.2019
3550 Clouds 14 996 87 10000 4.1 210 01:47 17.08.2019
3551 Clouds 14 996 87 10000 4.1 200 01:28 17.08.2019
3552 Clouds 14 997 87 10000 3.6 220 00:55 17.08.2019
3553 Rain 14 997 87 10000 4.1 220 00:28 17.08.2019
3554 Rain 15 997 82 10000 4.1 240 23:50 16.08.2019
3555 Clouds 15 997 87 10000 3.6 240 23:27 16.08.2019
3556 Clouds 15 997 87 10000 4.6 260 22:56 16.08.2019
3557 Clouds 16 997 87 10000 4.6 260 22:38 16.08.2019
3558 Rain 16 996 72 10000 4.1 240 22:19 16.08.2019
3559 Clouds 17 996 72 10000 3.1 250 21:40 16.08.2019
3560 Clouds 17 996 63 10000 4.6 250 21:20 16.08.2019
3561 Clouds 18 996 63 10000 4.6 250 20:56 16.08.2019
3562 Clouds 19 996 59 10000 5.1 250 20:37 16.08.2019
3563 Rain 19 996 59 10000 5.1 250 20:18 16.08.2019
3564 Clouds 19 996 60 10000 5.7 250 19:43 16.08.2019
3565 Clouds 19 996 64 10000 6.7 270 19:23 16.08.2019
3566 Clouds 20 996 68 10000 5.7 260 18:44 16.08.2019
3567 Clouds 20 996 72 10000 3.6 240 18:26 16.08.2019
3568 Rain 20 996 93 10000 3.6 230 17:59 16.08.2019
3569 Rain 19 996 93 10000 3.6 230 17:41 16.08.2019
3570 Rain 19 996 93 5000 6.7 260 17:23 16.08.2019
3571 Rain 20 997 73 10000 6.7 200 16:42 16.08.2019
3572 Rain 20 997 73 10000 6.7 200 16:22 16.08.2019
3573 Rain 20 997 73 10000 5.7 210 15:59 16.08.2019
3574 Rain 19 997 77 10000 6.2 210 15:40 16.08.2019
3575 Rain 19 997 77 10000 6.2 210 15:21 16.08.2019
3576 Clouds 20 998 82 10000 2.6 230 14:58 16.08.2019
3577 Rain 19 999 88 10000 3.1 230 14:39 16.08.2019
3578 Rain 20 999 88 10000 3.1 230 14:19 16.08.2019
3579 Rain 19 999 93 10000 4.1 230 13:41 16.08.2019
3580 Clouds 19 999 82 10000 5.7 220 13:23 16.08.2019
3581 Clouds 19 999 82 10000 6.2 210 12:58 16.08.2019
3582 Clouds 18 999 88 10000 6.2 210 12:37 16.08.2019
3583 Rain 18 999 82 10000 6.2 200 12:19 16.08.2019
3584 Rain 18 999 82 10000 6.2 200 12:19 16.08.2019
3585 Rain 17 1000 82 10000 6.2 200 11:42 16.08.2019
3586 Rain 17 1000 82 10000 6.2 200 11:24 16.08.2019
3587 Rain 17 1000 82 10000 6.2 200 11:24 16.08.2019
3588 Clouds 16 1001 82 10000 6.7 190 10:43 16.08.2019
3589 Clouds 16 1001 82 10000 6.7 190 10:25 16.08.2019
3590 Rain 16 1001 82 10000 7.2 190 09:56 16.08.2019
3591 Rain 15 1001 87 10000 7.7 190 09:37 16.08.2019
3592 Rain 16 1001 82 10000 7.2 190 09:37 16.08.2019
3593 Rain 15 1001 87 10000 7.7 190 09:18 16.08.2019
3594 Rain 15 1002 87 10000 6.7 190 08:41 16.08.2019
3595 Rain 15 1002 87 10000 5.7 190 08:21 16.08.2019
3596 Rain 14 1003 87 10000 7.2 200 07:54 16.08.2019
3597 Rain 14 1004 93 10000 6.2 190 07:33 16.08.2019
3598 Rain 14 1005 87 10000 6.2 200 06:57 16.08.2019
3599 Rain 14 1005 87 10000 7.7 190 06:31 16.08.2019
3600 Rain 15 1006 87 10000 5.7 200 05:41 16.08.2019
3601 Rain 15 1008 77 10000 4.6 180 04:28 16.08.2019
3602 Clouds 15 1009 82 10000 5.1 200 02:40 16.08.2019
3603 Clouds 16 1010 72 10000 5.1 210 01:33 16.08.2019
3604 Clouds 16 1011 77 10000 3.6 200 00:59 16.08.2019
3605 Clouds 16 1011 77 10000 3.6 200 00:40 16.08.2019
3606 Clouds 16 1011 72 10000 2.6 190 00:20 16.08.2019
3607 Clouds 16 1012 72 10000 2.6 190 23:44 15.08.2019
3608 Clouds 16 1012 72 10000 2.1 210 23:21 15.08.2019
3609 Clouds 16 1012 72 10000 1 0 22:57 15.08.2019
3610 Clouds 16 1012 72 10000 1 0 22:39 15.08.2019
3611 Clouds 16 1012 72 10000 2.1 230 22:39 15.08.2019
3612 Clouds 16 1012 72 10000 2.1 230 22:39 15.08.2019
3613 Clouds 16 1012 72 10000 2.1 230 22:20 15.08.2019
3614 Clouds 18 1013 68 10000 1.5 0 21:54 15.08.2019
3615 Clouds 18 1013 68 10000 2.1 260 21:36 15.08.2019
3616 Clouds 18 1013 68 10000 2.1 260 21:18 15.08.2019
3617 Clouds 19 1013 63 10000 5.7 280 20:42 15.08.2019
3618 Clouds 19 1013 63 10000 6.7 270 20:21 15.08.2019
3619 Clouds 19 1013 63 10000 6.7 270 20:21 15.08.2019
3620 Clouds 19 1013 63 10000 6.7 270 20:21 15.08.2019
3621 Clouds 20 1013 64 10000 3.6 250 19:57 15.08.2019
3622 Clouds 20 1013 64 10000 3.6 250 19:38 15.08.2019
3623 Clouds 20 1013 68 10000 4.1 250 19:20 15.08.2019
3624 Clouds 20 1013 68 10000 3.1 240 18:46 15.08.2019
3625 Clouds 20 1013 68 10000 3.1 240 18:23 15.08.2019
3626 Clouds 20 1013 64 10000 5.1 270 17:57 15.08.2019
3627 Clouds 19 1013 64 10000 5.1 270 17:37 15.08.2019
3628 Rain 19 1013 72 10000 4.1 270 17:19 15.08.2019
3629 Rain 19 1014 59 10000 5.1 270 16:48 15.08.2019
3630 Clouds 19 1014 59 10000 4.6 260 16:28 15.08.2019
3631 Clouds 19 1014 59 10000 6.7 270 15:59 15.08.2019
3632 Clouds 19 1014 59 10000 5.7 270 15:38 15.08.2019
3633 Clouds 19 1014 59 10000 5.7 270 15:19 15.08.2019
3634 Clouds 18 1013 59 10000 7.2 290 14:43 15.08.2019
3635 Clouds 18 1013 59 10000 7.2 290 14:24 15.08.2019
3636 Clouds 18 1013 59 10000 6.7 280 13:59 15.08.2019
3637 Clouds 18 1013 59 10000 6.7 280 13:40 15.08.2019
3638 Clouds 18 1013 59 10000 7.2 280 13:21 15.08.2019
3639 Clouds 17 1013 67 10000 8.2 280 12:59 15.08.2019
3640 Clouds 17 1013 63 10000 9.8 280 12:39 15.08.2019
3641 Clouds 16 1013 63 10000 9.8 280 12:19 15.08.2019
3642 Clouds 16 1012 72 10000 9.3 290 11:57 15.08.2019
3643 Clouds 15 1012 72 10000 9.3 290 11:37 15.08.2019
3644 Clouds 15 1012 67 10000 8.7 280 11:18 15.08.2019
3645 Clouds 15 1012 76 10000 8.7 280 10:57 15.08.2019
3646 Clouds 15 1012 76 10000 7.7 280 10:36 15.08.2019
3647 Clouds 15 1012 76 10000 7.7 280 10:18 15.08.2019
3648 Clouds 14 1011 76 10000 7.7 270 09:41 15.08.2019
3649 Clouds 13 1011 82 10000 7.2 270 09:21 15.08.2019
3650 Rain 13 1010 82 9000 7.7 280 08:38 15.08.2019
3651 Rain 13 1010 82 9000 7.7 280 08:20 15.08.2019
3652 Clouds 13 1009 82 10000 8.2 270 07:54 15.08.2019
3653 Clouds 13 1009 82 10000 10.3 280 07:36 15.08.2019
3654 Clouds 13 1009 82 10000 10.3 280 07:18 15.08.2019
3655 Clouds 13 1008 87 10000 9.8 280 06:40 15.08.2019
3656 Clouds 13 1008 87 10000 9.8 280 06:40 15.08.2019
3657 Clouds 13 1008 87 10000 8.2 270 06:21 15.08.2019
3658 Clouds 13 1007 87 10000 9.3 270 05:29 15.08.2019
3659 Clouds 14 1007 82 10000 9.3 270 04:51 15.08.2019
3660 Drizzle 14 1006 87 10000 8.7 270 03:51 15.08.2019
3661 Rain 15 1006 87 9000 6.7 260 02:53 15.08.2019
3662 Clouds 15 1005 87 10000 6.2 260 02:24 15.08.2019
3663 Rain 15 1005 87 10000 6.7 260 01:39 15.08.2019
3664 Clouds 15 1005 87 10000 6.7 260 00:54 15.08.2019
3665 Clouds 16 1005 82 10000 6.2 250 00:36 15.08.2019
3666 Clouds 16 1005 82 10000 6.2 250 00:18 15.08.2019
3667 Clouds 16 1005 82 10000 5.7 250 23:41 14.08.2019
3668 Clouds 16 1005 82 10000 5.7 250 23:20 14.08.2019
3669 Rain 16 1005 82 10000 4.6 250 22:59 14.08.2019
3670 Rain 16 1005 82 10000 4.6 250 22:40 14.08.2019
3671 Rain 16 1005 82 10000 6.7 260 22:22 14.08.2019
3672 Rain 17 1005 77 10000 5.7 250 21:57 14.08.2019
3673 Clouds 17 1004 77 10000 5.7 260 21:38 14.08.2019
3674 Clouds 17 1004 77 10000 5.7 260 21:20 14.08.2019
3675 Clouds 17 1004 72 10000 4.1 250 20:54 14.08.2019
3676 Clouds 17 1004 72 10000 7.7 270 20:36 14.08.2019
3677 Clouds 17 1004 72 10000 7.7 270 20:18 14.08.2019
3678 Rain 18 1004 88 10000 9.8 280 19:40 14.08.2019
3679 Rain 18 1004 88 10000 9.8 280 19:22 14.08.2019
3680 Rain 19 1003 82 10000 8.2 270 18:57 14.08.2019
3681 Rain 20 1003 82 10000 6.2 260 18:39 14.08.2019
3682 Rain 20 1003 82 10000 6.2 260 18:39 14.08.2019
3683 Rain 20 1003 82 10000 6.2 260 18:20 14.08.2019
3684 Rain 19 1003 77 10000 3.6 260 17:58 14.08.2019
3685 Rain 20 1003 82 10000 3.6 250 17:37 14.08.2019
3686 Rain 20 1003 82 10000 3.6 250 17:19 14.08.2019
3687 Rain 21 1004 73 10000 3.6 230 16:55 14.08.2019
3688 Rain 20 1004 77 10000 5.7 280 16:36 14.08.2019
3689 Rain 20 1004 77 10000 5.7 280 16:18 14.08.2019
3690 Rain 19 1004 82 10000 5.7 270 15:42 14.08.2019
3691 Rain 19 1004 82 10000 5.7 270 15:18 14.08.2019
3692 Drizzle 20 1004 77 10000 3.6 260 14:54 14.08.2019
3693 Clouds 19 1004 82 10000 3.1 260 14:36 14.08.2019
3694 Clouds 19 1004 82 10000 3.1 260 14:18 14.08.2019
3695 Clouds 19 1004 82 10000 3.1 280 13:43 14.08.2019
3696 Clouds 18 1004 88 10000 3.1 260 13:23 14.08.2019
3697 Drizzle 18 1004 82 10000 3.1 270 12:56 14.08.2019
3698 Drizzle 18 1005 88 10000 3.1 250 12:38 14.08.2019
3699 Drizzle 18 1005 88 10000 3.1 250 12:38 14.08.2019
3700 Drizzle 18 1005 88 10000 3.1 250 12:20 14.08.2019
3701 Drizzle 17 1005 88 10000 2.1 140 11:48 14.08.2019
3702 Rain 17 1005 88 9000 3.6 140 11:23 14.08.2019
3703 Rain 17 1005 88 9000 3.6 140 11:23 14.08.2019
3704 Clouds 17 1005 93 8000 4.1 140 10:59 14.08.2019
3705 Drizzle 16 1005 93 9000 4.6 140 10:40 14.08.2019
3706 Drizzle 16 1005 93 9000 4.6 140 10:22 14.08.2019
3707 Drizzle 16 1005 93 9000 5.1 140 09:45 14.08.2019
3708 Drizzle 16 1006 93 9000 5.1 150 09:22 14.08.2019
3709 Drizzle 15 1006 100 6000 4.6 140 08:52 14.08.2019
3710 Drizzle 15 1006 100 7000 4.1 150 08:34 14.08.2019
3711 Drizzle 15 1007 93 9000 4.1 150 07:58 14.08.2019
3712 Drizzle 15 1007 93 9000 4.1 150 07:39 14.08.2019
3713 Clouds 15 1007 93 10000 3.6 140 07:21 14.08.2019
3714 Clouds 15 1008 93 10000 4.1 140 06:43 14.08.2019
3715 Drizzle 15 1009 93 10000 3.1 140 05:48 14.08.2019
3716 Drizzle 15 1010 93 9000 2.6 140 04:45 14.08.2019
3717 Drizzle 14 1012 93 5000 1.5 0 02:56 14.08.2019
3718 Rain 14 1012 93 10000 1 0 02:26 14.08.2019
3719 Rain 14 1012 93 10000 2.1 150 01:38 14.08.2019
3720 Drizzle 14 1013 93 9000 1.5 180 00:51 14.08.2019
3721 Rain 14 1013 93 10000 1.5 0 23:47 13.08.2019
3722 Rain 14 1013 87 10000 2.6 160 23:23 13.08.2019
3723 Rain 14 1014 87 10000 2.1 150 22:57 13.08.2019
3724 Rain 14 1014 87 10000 2.1 150 22:39 13.08.2019
3725 Rain 14 1014 87 10000 2.1 150 22:39 13.08.2019
3726 Rain 14 1014 82 10000 1.5 140 22:20 13.08.2019
3727 Clouds 15 1014 87 10000 2.1 100 21:57 13.08.2019
3728 Clouds 15 1014 87 10000 2.1 100 21:37 13.08.2019
3729 Clouds 15 1014 87 10000 2.1 100 21:18 13.08.2019
3730 Clouds 15 1015 82 10000 3.1 100 20:45 13.08.2019
3731 Clouds 15 1015 82 10000 2.6 110 20:20 13.08.2019
3732 Rain 15 1015 77 10000 4.1 160 19:58 13.08.2019
3733 Rain 15 1015 77 10000 4.1 160 19:40 13.08.2019
3734 Rain 15 1015 72 10000 1.5 0 19:21 13.08.2019
3735 Rain 16 1015 82 10000 1.5 0 18:42 13.08.2019
3736 Rain 16 1015 82 10000 3.1 240 18:23 13.08.2019
3737 Rain 15 1016 82 10000 3.1 290 17:58 13.08.2019
3738 Rain 16 1016 82 10000 3.1 290 17:39 13.08.2019
3739 Rain 15 1016 87 4000 4.1 190 17:19 13.08.2019
3740 Rain 16 1016 67 10000 3.1 130 16:56 13.08.2019
3741 Rain 16 1016 67 10000 3.1 130 16:37 13.08.2019
3742 Clouds 16 1016 63 10000 3.6 140 16:19 13.08.2019
3743 Clouds 17 1016 55 10000 1.5 0 15:39 13.08.2019
3744 Clouds 17 1016 55 10000 1.5 0 15:20 13.08.2019
3745 Clouds 17 1016 55 10000 2.1 250 14:57 13.08.2019
3746 Clouds 17 1016 55 10000 2.1 250 14:57 13.08.2019
3747 Clouds 16 1016 51 10000 3.1 260 14:38 13.08.2019
3748 Clouds 16 1016 51 10000 3.1 260 14:38 13.08.2019
3749 Clouds 16 1016 51 10000 3.1 260 14:18 13.08.2019
3750 Clouds 16 1016 51 10000 3.1 260 14:18 13.08.2019
3751 Clouds 16 1017 67 10000 3.1 260 13:41 13.08.2019
3752 Clouds 16 1017 67 10000 3.1 260 13:21 13.08.2019
3753 Clouds 16 1017 67 10000 3.1 280 12:58 13.08.2019
3754 Clouds 16 1017 67 10000 3.1 260 12:40 13.08.2019
3755 Clouds 16 1017 67 10000 3.1 260 12:21 13.08.2019
3756 Clouds 15 1017 71 10000 4.1 270 11:57 13.08.2019
3757 Clouds 15 1017 76 10000 4.6 270 11:37 13.08.2019
3758 Clouds 15 1017 76 10000 4.6 270 11:18 13.08.2019
3759 Clouds 14 1017 76 10000 4.1 270 10:55 13.08.2019
3760 Clouds 13 1017 87 10000 3.1 250 10:36 13.08.2019
3761 Clouds 13 1017 87 10000 3.1 250 10:18 13.08.2019
3762 Clouds 12 1017 87 10000 3.6 250 09:42 13.08.2019
3763 Clouds 11 1017 87 10000 4.1 250 09:23 13.08.2019
3764 Clouds 10 1017 87 10000 3.1 250 08:43 13.08.2019
3765 Clouds 9 1017 93 10000 3.6 250 08:22 13.08.2019
3766 Clouds 8 1017 93 10000 3.6 250 07:56 13.08.2019
3767 Clouds 8 1017 93 10000 3.1 250 07:32 13.08.2019
3768 Clouds 9 1017 87 10000 3.1 250 06:53 13.08.2019
3769 Clouds 9 1016 87 10000 3.1 240 06:34 13.08.2019
3770 Clouds 9 1016 93 10000 3.6 250 05:34 13.08.2019
3771 Clouds 10 1017 93 10000 2.6 260 02:38 13.08.2019
3772 Drizzle 11 1017 87 10000 3.6 270 01:58 13.08.2019
3773 Clouds 10 1016 87 10000 3.6 260 00:55 13.08.2019
3774 Clouds 10 1016 93 10000 3.1 260 00:36 13.08.2019
3775 Clouds 10 1016 87 10000 2.6 270 23:49 12.08.2019
3776 Clouds 11 1016 93 10000 3.1 320 23:24 12.08.2019
3777 Clouds 11 1016 81 10000 4.6 270 22:57 12.08.2019
3778 Clouds 11 1016 81 10000 4.6 270 22:38 12.08.2019
3779 Clouds 12 1016 81 10000 2.6 260 22:19 12.08.2019
3780 Clouds 12 1016 81 10000 3.6 270 21:55 12.08.2019
3781 Clouds 12 1016 81 10000 3.6 270 21:55 12.08.2019
3782 -273 0 0 0 0 0 21:36 12.08.2019
3783 Clouds 13 1015 87 10000 1.5 0 21:18 12.08.2019
3784 Rain 13 1015 87 10000 4.41 299.351 20:55 12.08.2019
3785 Rain 13 1015 87 10000 1.5 0 20:36 12.08.2019
3786 Rain 13 1015 87 10000 1.5 0 20:18 12.08.2019
3787 Rain 13 1015 87 10000 1 0 19:54 12.08.2019
3788 Rain 13 1015 87 10000 1 0 19:54 12.08.2019
3789 Rain 13 1015 87 10000 2.6 110 19:36 12.08.2019
3790 Rain 13 1015 87 10000 2.6 110 19:18 12.08.2019
3791 Rain 13 1015 93 10000 2.6 50 18:41 12.08.2019
3792 Rain 14 1015 82 10000 4.6 350 18:21 12.08.2019
3793 Rain 15 1014 67 10000 3.6 240 17:58 12.08.2019
3794 Rain 15 1014 67 10000 3.6 240 17:40 12.08.2019
3795 Rain 15 1014 72 10000 2.6 250 17:21 12.08.2019
3796 Rain 15 1015 93 10000 3.6 250 16:56 12.08.2019
3797 Rain 15 1015 93 10000 3.6 250 16:56 12.08.2019
3798 Rain 15 1015 93 10000 3.6 250 16:37 12.08.2019
3799 Rain 15 1014 63 10000 3.1 250 16:19 12.08.2019
3800 Rain 17 1014 63 10000 4.1 230 15:54 12.08.2019
3801 Rain 16 1014 63 10000 3.6 230 15:36 12.08.2019
3802 Rain 16 1014 63 10000 3.6 230 15:18 12.08.2019
3803 Rain 17 1014 63 10000 4.1 240 14:42 12.08.2019
3804 Rain 16 1014 63 10000 4.1 240 14:23 12.08.2019
3805 Clouds 16 1015 67 10000 3.6 230 13:59 12.08.2019
3806 Clouds 16 1015 67 10000 3.6 230 13:41 12.08.2019
3807 Clouds 15 1015 67 10000 4.1 250 13:22 12.08.2019
3808 Clouds 16 1015 63 10000 5.1 250 12:43 12.08.2019
3809 Clouds 15 1015 67 10000 4.6 250 12:22 12.08.2019
3810 Clouds 14 1015 76 10000 4.1 250 11:47 12.08.2019
3811 Clouds 14 1015 71 10000 4.1 260 11:47 12.08.2019
3812 Clouds 14 1015 76 10000 4.1 250 11:29 12.08.2019
3813 Clouds 14 1015 76 10000 3.6 250 10:59 12.08.2019
3814 Clouds 13 1015 76 10000 3.6 250 10:40 12.08.2019
3815 Clouds 13 1015 76 10000 3.6 250 10:40 12.08.2019
3816 Clouds 13 1015 81 10000 3.1 250 10:21 12.08.2019
3817 Clouds 12 1015 81 10000 3.1 250 09:55 12.08.2019
3818 Clouds 12 1015 81 10000 3.1 250 09:36 12.08.2019
3819 Clouds 11 1015 87 10000 3.6 240 09:36 12.08.2019
3820 Clouds 11 1015 87 10000 3.6 240 09:18 12.08.2019
3821 Clouds 11 1015 87 10000 3.6 240 09:18 12.08.2019
3822 Clouds 9 1015 93 10000 3.1 250 08:40 12.08.2019
3823 Clouds 9 1015 93 10000 3.6 250 08:22 12.08.2019
3824 Clouds 9 1015 93 10000 2.6 250 07:56 12.08.2019
3825 Clouds 8 1014 93 10000 2.6 250 07:35 12.08.2019
3826 Clouds 8 1014 93 10000 2.6 260 06:54 12.08.2019
3827 Clouds 8 1014 93 10000 3.1 260 06:20 12.08.2019
3828 Clouds 9 1014 87 10000 4.1 270 04:29 12.08.2019
3829 Clouds 9 1014 87 10000 3.6 270 02:43 12.08.2019
3830 Clouds 9 1014 87 10000 4.1 280 01:45 12.08.2019
3831 Clouds 10 1014 81 10000 4.1 290 01:18 12.08.2019
3832 Clouds 10 1014 81 10000 4.6 290 00:54 12.08.2019
3833 Clouds 10 1014 81 10000 4.6 290 00:36 12.08.2019
3834 Clouds 11 1014 81 10000 4.1 280 00:18 12.08.2019
3835 Clouds 11 1014 87 10000 3.6 280 23:39 11.08.2019
3836 Clouds 11 1014 87 10000 3.6 280 23:39 11.08.2019
3837 Clouds 11 1014 81 10000 4.1 290 23:19 11.08.2019
3838 Clouds 12 1013 81 10000 4.1 290 22:56 11.08.2019
3839 Clouds 12 1013 76 10000 4.1 290 22:37 11.08.2019
3840 Clouds 13 1013 76 10000 4.1 290 22:18 11.08.2019
3841 Clouds 14 1013 71 10000 3.6 310 21:56 11.08.2019
3842 Clouds 14 1013 67 10000 6.2 310 21:38 11.08.2019
3843 Clouds 14 1013 67 10000 6.2 310 21:19 11.08.2019
3844 Clouds 15 1012 62 10000 6.2 320 20:44 11.08.2019
3845 Clouds 15 1012 62 10000 5.7 310 20:23 11.08.2019
3846 Clouds 15 1011 62 10000 6.2 290 19:56 11.08.2019
3847 Clouds 15 1011 62 10000 6.2 290 19:55 11.08.2019
3848 Clouds 15 1011 62 10000 6.2 290 19:36 11.08.2019
3849 Clouds 16 1011 59 10000 6.7 300 19:18 11.08.2019
3850 Clouds 16 1011 63 10000 6.7 300 18:39 11.08.2019
3851 Clouds 16 1011 63 10000 6.7 300 18:19 11.08.2019
3852 Clouds 16 1011 63 10000 5.7 290 17:54 11.08.2019
3853 Clouds 16 1011 59 10000 8.2 290 17:36 11.08.2019
3854 Clouds 16 1011 59 10000 8.2 290 17:18 11.08.2019
3855 Clouds 17 1011 55 10000 7.7 290 16:40 11.08.2019
3856 Clouds 17 1011 59 10000 7.2 310 16:22 11.08.2019
3857 Clouds 16 1011 67 10000 7.2 310 15:57 11.08.2019
3858 Clouds 16 1011 67 10000 7.2 310 15:39 11.08.2019
3859 Clouds 17 1011 59 10000 7.7 300 15:21 11.08.2019
3860 Clouds 16 1010 67 10000 7.2 310 14:55 11.08.2019
3861 Clouds 16 1010 67 10000 7.2 310 14:37 11.08.2019
3862 Clouds 16 1010 77 10000 5.7 300 14:19 11.08.2019
3863 Clouds 15 1010 77 10000 7.7 300 13:42 11.08.2019
3864 Clouds 15 1010 77 10000 6.2 310 13:23 11.08.2019
3865 Clouds 15 1010 77 10000 7.2 310 12:44 11.08.2019
3866 Clouds 14 1009 77 10000 8.7 300 12:22 11.08.2019
3867 Clouds 14 1009 82 10000 7.7 300 11:41 11.08.2019
3868 Clouds 14 1009 87 10000 7.2 290 11:23 11.08.2019
3869 Clouds 14 1008 82 10000 7.7 300 10:57 11.08.2019
3870 Clouds 13 1008 87 10000 6.7 300 10:39 11.08.2019
3871 Clouds 13 1008 87 10000 6.7 300 10:21 11.08.2019
3872 Drizzle 13 1008 93 10000 6.7 290 09:55 11.08.2019
3873 Drizzle 13 1008 93 10000 5.7 280 09:37 11.08.2019
3874 Drizzle 13 1008 93 10000 5.7 280 09:18 11.08.2019
3875 Drizzle 13 1007 93 10000 6.2 280 08:43 11.08.2019
3876 Rain 12 1007 100 10000 5.1 280 08:25 11.08.2019
3877 Rain 12 1007 93 10000 5.1 290 07:49 11.08.2019
3878 Rain 12 1006 93 10000 5.7 290 07:21 11.08.2019
3879 Rain 13 1006 93 10000 5.7 290 06:39 11.08.2019
3880 Rain 13 1005 93 10000 5.7 280 05:34 11.08.2019
3881 Rain 14 1004 93 8000 5.1 300 03:36 11.08.2019
3882 Rain 14 1003 93 6000 5.1 290 02:46 11.08.2019
3883 Rain 14 1002 100 8000 4.6 290 01:36 11.08.2019
3884 Rain 14 1002 100 10000 3.1 260 00:59 11.08.2019
3885 Rain 14 1002 100 10000 3.1 260 00:41 11.08.2019
3886 Rain 14 1001 93 6000 3.6 250 00:23 11.08.2019
3887 Rain 14 1001 93 10000 3.6 250 23:43 10.08.2019
3888 Rain 14 1001 93 10000 4.1 240 23:23 10.08.2019
3889 Rain 15 1000 87 10000 5.1 240 22:43 10.08.2019
3890 Rain 15 1000 87 9000 5.7 240 22:24 10.08.2019
3891 Drizzle 15 1000 87 10000 5.1 230 21:57 10.08.2019
3892 Drizzle 15 1000 87 10000 5.7 230 21:38 10.08.2019
3893 Drizzle 15 1000 87 10000 5.7 230 21:18 10.08.2019
3894 Drizzle 15 1000 87 9000 5.7 230 20:56 10.08.2019
3895 Drizzle 15 999 87 5000 6.2 240 20:37 10.08.2019
3896 Drizzle 16 999 87 5000 6.2 240 20:18 10.08.2019
3897 Rain 16 999 82 10000 6.2 240 19:39 10.08.2019
3898 Clouds 16 998 72 10000 7.7 240 19:20 10.08.2019
3899 Clouds 17 998 77 10000 6.7 240 18:40 10.08.2019
3900 Clouds 17 998 77 10000 6.7 240 18:40 10.08.2019
3901 Clouds 17 998 77 10000 6.7 240 18:22 10.08.2019
3902 Drizzle 16 997 82 10000 7.7 240 17:45 10.08.2019
3903 Rain 16 997 87 10000 7.7 240 17:25 10.08.2019
3904 Rain 17 996 88 6000 7.2 240 16:47 10.08.2019
3905 Clouds 17 996 88 10000 7.2 240 16:28 10.08.2019
3906 Rain 17 996 88 6000 6.7 250 15:56 10.08.2019
3907 Rain 17 995 88 10000 7.2 250 15:26 10.08.2019
3908 Rain 17 995 93 6000 7.2 250 14:45 10.08.2019
3909 Rain 18 994 88 10000 7.2 240 14:23 10.08.2019
3910 Rain 18 994 88 1500 6.2 240 13:57 10.08.2019
3911 Drizzle 18 993 88 10000 6.2 250 13:39 10.08.2019
3912 Drizzle 18 993 88 10000 6.2 250 13:18 10.08.2019
3913 Drizzle 18 993 88 10000 6.2 250 13:18 10.08.2019
3914 Clouds 18 992 82 10000 6.7 250 12:41 10.08.2019
3915 Clouds 18 992 82 10000 6.7 250 12:21 10.08.2019
3916 Clouds 18 992 88 10000 5.7 260 11:56 10.08.2019
3917 Drizzle 18 991 88 10000 6.2 250 11:37 10.08.2019
3918 Drizzle 18 991 88 10000 6.2 250 11:19 10.08.2019
3919 Drizzle 17 990 93 10000 5.7 250 10:39 10.08.2019
3920 Drizzle 17 990 93 10000 5.7 250 10:20 10.08.2019
3921 Drizzle 17 990 93 10000 5.7 250 10:20 10.08.2019
3922 Rain 17 989 93 10000 5.7 250 09:44 10.08.2019
3923 Rain 17 989 93 10000 4.6 250 09:25 10.08.2019
3924 Drizzle 17 988 93 10000 5.1 240 08:59 10.08.2019
3925 Drizzle 17 988 93 10000 4.6 230 08:38 10.08.2019
3926 Drizzle 17 988 93 10000 4.6 230 08:19 10.08.2019
3927 Drizzle 16 987 93 10000 4.1 240 07:48 10.08.2019
3928 Drizzle 16 987 93 10000 4.6 240 07:26 10.08.2019
3929 Rain 16 987 93 10000 4.6 230 06:47 10.08.2019
3930 Drizzle 17 986 93 10000 4.6 220 06:18 10.08.2019
3931 Drizzle 17 986 93 10000 4.1 230 05:22 10.08.2019
3932 Rain 17 985 93 10000 4.6 220 04:18 10.08.2019
3933 Clouds 17 985 88 10000 3.6 200 02:51 10.08.2019
3934 Clouds 17 985 93 10000 2.6 170 01:57 10.08.2019
3935 Clouds 17 985 93 10000 2.6 170 01:57 10.08.2019
3936 Drizzle 16 985 93 10000 3.1 160 01:37 10.08.2019
3937 Drizzle 16 985 93 10000 3.1 160 01:19 10.08.2019
3938 Drizzle 16 985 93 10000 4.6 160 00:43 10.08.2019
3939 Drizzle 17 985 88 10000 5.1 160 00:20 10.08.2019
3940 Rain 16 985 82 10000 4.1 140 23:41 09.08.2019
3941 Clouds 16 985 88 10000 5.7 150 23:22 09.08.2019
3942 Clouds 17 985 82 10000 5.1 150 22:56 09.08.2019
3943 Clouds 17 985 82 10000 5.1 150 22:56 09.08.2019
3944 Clouds 17 985 82 10000 5.1 150 22:37 09.08.2019
3945 Clouds 17 985 82 10000 5.7 160 22:19 09.08.2019
3946 Rain 17 985 88 10000 5.1 150 21:41 09.08.2019
3947 Rain 17 985 88 10000 4.1 150 21:22 09.08.2019
3948 Clouds 17 985 82 10000 5.1 150 20:58 09.08.2019
3949 Rain 17 985 82 10000 6.7 160 20:39 09.08.2019
3950 Rain 17 985 82 10000 6.7 160 20:39 09.08.2019
3951 Rain 17 985 82 10000 6.7 160 20:20 09.08.2019
3952 Rain 18 986 88 8000 6.2 150 19:44 09.08.2019
3953 Rain 18 986 88 8000 6.2 150 19:23 09.08.2019
3954 Rain 17 986 93 8000 7.7 160 18:59 09.08.2019
3955 Rain 18 986 88 8000 7.2 150 18:39 09.08.2019
3956 Rain 18 986 88 8000 7.2 150 18:21 09.08.2019
3957 Rain 17 986 93 6000 5.1 140 17:45 09.08.2019
3958 Rain 17 987 88 6000 7.2 140 17:25 09.08.2019
3959 Rain 17 988 88 6000 6.7 140 16:58 09.08.2019
3960 Rain 18 988 82 9000 7.7 140 16:38 09.08.2019
3961 Rain 18 988 82 9000 7.7 140 16:20 09.08.2019
3962 Drizzle 19 989 88 9000 6.7 140 15:42 09.08.2019
3963 Clouds 19 989 82 10000 6.7 140 15:42 09.08.2019
3964 Drizzle 19 989 88 9000 6.7 140 15:22 09.08.2019
3965 Rain 19 989 88 9000 8.7 150 14:59 09.08.2019
3966 -273 0 0 0 0 0 14:59 09.08.2019
3967 Rain 19 989 88 7000 8.7 150 14:40 09.08.2019
3968 -273 0 0 0 0 0 14:21 09.08.2019
3969 Clouds 18 990 88 9000 7.7 150 13:46 09.08.2019
3970 Clouds 18 990 88 9000 6.7 140 13:23 09.08.2019
3971 Drizzle 18 990 93 8000 6.7 140 12:58 09.08.2019
3972 Rain 18 991 93 5000 8.7 150 12:40 09.08.2019
3973 Rain 18 991 93 5000 8.7 150 12:21 09.08.2019
3974 Rain 18 991 82 10000 6.7 150 11:42 09.08.2019
3975 Clouds 18 991 82 10000 6.7 150 11:21 09.08.2019
3976 Clouds 17 991 88 9000 3.1 140 10:57 09.08.2019
3977 Clouds 17 991 88 9000 3.1 140 10:38 09.08.2019
3978 Clouds 17 991 88 9000 3.1 140 10:38 09.08.2019
3979 Rain 17 992 77 9000 3.6 140 10:20 09.08.2019
3980 Clouds 17 992 82 10000 2.6 140 09:41 09.08.2019
3981 Clouds 16 992 82 10000 3.1 150 09:19 09.08.2019
3982 Clouds 16 992 93 10000 3.1 180 08:45 09.08.2019
3983 Clouds 16 992 93 10000 4.6 210 08:25 09.08.2019
3984 Drizzle 16 992 93 10000 4.6 180 07:58 09.08.2019
3985 Drizzle 16 992 93 10000 4.6 180 07:40 09.08.2019
3986 Drizzle 16 992 93 10000 4.6 180 07:40 09.08.2019
3987 Drizzle 16 992 93 5000 5.1 150 07:20 09.08.2019
3988 Rain 16 992 100 4000 5.7 120 06:44 09.08.2019
3989 Rain 16 992 100 4000 7.2 110 06:21 09.08.2019
3990 Rain 16 993 100 9000 7.2 120 05:45 09.08.2019
3991 Rain 15 999 93 6000 7.7 100 02:29 09.08.2019
3992 Rain 15 1000 87 10000 8.7 90 01:26 09.08.2019
3993 Rain 15 1001 87 10000 8.7 90 00:42 09.08.2019
3994 Rain 15 1002 87 10000 8.2 90 00:23 09.08.2019
3995 Rain 15 1002 82 10000 7.7 80 23:57 08.08.2019
3996 Rain 15 1003 82 10000 9.3 90 23:37 08.08.2019
3997 Rain 15 1003 82 10000 9.3 90 23:19 08.08.2019
3998 Clouds 15 1003 82 10000 8.2 90 22:55 08.08.2019
3999 Clouds 15 1004 82 10000 6.7 80 22:36 08.08.2019
4000 Clouds 15 1004 82 10000 6.7 80 22:18 08.08.2019
4001 Clouds 15 1005 82 10000 6.7 90 21:42 08.08.2019
4002 Clouds 15 1005 82 10000 6.7 90 21:42 08.08.2019
4003 Clouds 15 1005 82 10000 5.1 90 21:23 08.08.2019
4004 Clouds 15 1005 82 10000 6.7 90 20:57 08.08.2019
4005 Clouds 16 1005 82 10000 6.7 90 20:39 08.08.2019
4006 Clouds 16 1006 77 10000 6.7 90 20:19 08.08.2019
4007 Clouds 16 1007 82 10000 5.7 90 19:48 08.08.2019
4008 Clouds 16 1007 77 10000 6.7 90 19:29 08.08.2019
4009 Clouds 17 1007 77 10000 6.2 90 18:59 08.08.2019
4010 Clouds 18 1007 72 10000 7.2 80 18:40 08.08.2019
4011 Clouds 18 1007 72 10000 7.2 80 18:18 08.08.2019
4012 Clouds 19 1008 63 10000 4.6 120 17:42 08.08.2019
4013 Clouds 19 1008 63 10000 4.6 120 17:24 08.08.2019
4014 Clouds 20 1008 68 10000 4.6 110 16:57 08.08.2019
4015 Clouds 19 1008 68 10000 4.6 110 16:39 08.08.2019
4016 Clouds 19 1008 68 10000 4.6 110 16:39 08.08.2019
4017 Clouds 19 1008 68 10000 4.6 120 16:20 08.08.2019
4018 Clouds 19 1009 63 10000 4.6 130 15:57 08.08.2019
4019 Clouds 18 1009 68 10000 3.6 120 15:37 08.08.2019
4020 Clouds 19 1009 68 10000 3.6 120 15:19 08.08.2019
4021 Clouds 18 1009 72 10000 4.6 100 14:38 08.08.2019
4022 Clouds 18 1009 72 10000 4.6 110 14:18 08.08.2019
4023 Clouds 18 1009 72 10000 4.1 100 13:42 08.08.2019
4024 Clouds 18 1009 72 10000 3.6 100 13:23 08.08.2019
4025 Clouds 18 1009 72 10000 3.1 90 12:57 08.08.2019
4026 Clouds 18 1009 77 10000 3.1 90 12:37 08.08.2019
4027 Clouds 17 1009 77 10000 3.1 90 12:18 08.08.2019
4028 Clouds 17 1009 82 10000 1 0 11:42 08.08.2019
4029 Clouds 17 1009 82 10000 1 0 11:23 08.08.2019
4030 Clouds 17 1009 82 10000 1 0 11:23 08.08.2019
4031 Clouds 16 1009 93 10000 1 0 10:41 08.08.2019
4032 Clouds 16 1009 93 10000 1 0 10:41 08.08.2019
4033 Clouds 16 1009 93 10000 1 0 10:41 08.08.2019
4034 Clouds 15 1009 93 10000 1 320 10:22 08.08.2019
4035 -273 0 0 0 0 0 10:22 08.08.2019
4036 Clouds 14 1009 100 8000 1.5 0 09:57 08.08.2019
4037 Fog 14 1009 93 600 1.5 0 09:39 08.08.2019
4038 Fog 14 1009 93 600 1.5 0 09:19 08.08.2019
4039 Fog 12 1008 100 700 3.6 280 08:40 08.08.2019
4040 Fog 12 1008 100 600 2.6 280 08:21 08.08.2019
4041 Fog 12 1008 100 900 2.6 270 07:42 08.08.2019
4042 Clouds 11 1008 100 9000 2.6 260 07:21 08.08.2019
4043 Clouds 12 1008 100 10000 1.5 0 06:58 08.08.2019
4044 Clouds 12 1008 100 10000 1.5 0 06:40 08.08.2019
4045 Clouds 12 1008 93 10000 2.1 240 05:54 08.08.2019
4046 Clouds 12 1008 93 10000 2.6 260 05:27 08.08.2019
4047 Clouds 12 1008 100 10000 2.6 250 03:54 08.08.2019
4048 Clouds 11 1008 100 10000 2.1 260 03:35 08.08.2019
4049 Clouds 13 1007 93 10000 3.6 280 01:39 08.08.2019
4050 Clouds 14 1007 87 10000 3.6 280 00:45 08.08.2019
4051 Clouds 14 1007 87 10000 3.1 270 00:18 08.08.2019
4052 Clouds 15 1007 82 10000 3.1 260 23:22 07.08.2019
4053 Clouds 16 1007 82 10000 3.1 260 22:59 07.08.2019
4054 Clouds 16 1007 82 10000 3.1 260 22:41 07.08.2019
4055 Clouds 17 1006 77 10000 3.1 260 22:20 07.08.2019
4056 Clouds 17 1006 68 10000 5.7 280 21:56 07.08.2019
4057 Clouds 17 1005 68 10000 4.1 270 21:38 07.08.2019
4058 Clouds 17 1005 68 10000 4.1 270 21:38 07.08.2019
4059 Clouds 17 1005 68 10000 4.1 270 21:19 07.08.2019
4060 Clouds 18 1005 63 10000 5.1 270 20:56 07.08.2019
4061 Clouds 19 1005 60 10000 5.7 290 20:37 07.08.2019
4062 Clouds 19 1005 60 10000 5.7 290 20:19 07.08.2019
4063 Rain 19 1005 60 10000 7.7 300 19:40 07.08.2019
4064 Rain 19 1005 68 10000 5.1 290 19:22 07.08.2019
4065 Clouds 20 1005 60 10000 6.2 270 18:59 07.08.2019
4066 Clouds 20 1004 60 10000 5.7 270 18:39 07.08.2019
4067 Clouds 20 1004 60 10000 5.7 270 18:19 07.08.2019
4068 Clouds 21 1004 52 10000 6.2 280 17:54 07.08.2019
4069 Clouds 21 1004 52 10000 6.2 280 17:36 07.08.2019
4070 Clouds 20 1005 64 10000 7.2 280 17:18 07.08.2019
4071 Clouds 20 1005 64 10000 7.2 280 17:18 07.08.2019
4072 Clouds 21 1004 60 10000 6.2 270 16:55 07.08.2019
4073 Clouds 20 1004 60 10000 6.2 270 16:37 07.08.2019
4074 Clouds 20 1004 60 10000 6.2 270 16:18 07.08.2019
4075 Clouds 19 1005 63 10000 5.7 270 15:42 07.08.2019
4076 Clouds 19 1005 63 10000 5.1 270 15:20 07.08.2019
4077 Clouds 18 1005 72 10000 6.2 280 14:49 07.08.2019
4078 Drizzle 18 1004 67 10000 6.7 270 14:30 07.08.2019
4079 Clouds 18 1004 68 10000 5.1 270 13:57 07.08.2019
4080 Clouds 18 1004 68 10000 5.1 270 13:38 07.08.2019
4081 Clouds 18 1004 68 10000 5.1 270 13:19 07.08.2019
4082 Clouds 18 1004 72 10000 5.1 270 12:56 07.08.2019
4083 Clouds 17 1004 77 10000 5.7 290 12:37 07.08.2019
4084 Clouds 17 1004 77 10000 5.7 290 12:19 07.08.2019
4085 Drizzle 15 1003 93 10000 5.7 270 11:43 07.08.2019
4086 Drizzle 15 1003 93 10000 5.7 270 11:21 07.08.2019
4087 Clouds 15 1003 93 10000 5.7 280 10:58 07.08.2019
4088 Clouds 15 1002 93 10000 4.6 270 10:40 07.08.2019
4089 Clouds 15 1002 93 10000 4.6 270 10:19 07.08.2019
4090 Drizzle 14 1002 93 10000 4.1 250 09:46 07.08.2019
4091 Drizzle 14 1002 93 10000 4.1 250 09:22 07.08.2019
4092 Drizzle 14 1002 93 10000 4.6 250 08:57 07.08.2019
4093 Drizzle 14 1002 93 10000 4.6 250 08:39 07.08.2019
4094 Rain 14 1002 87 8000 4.6 250 08:21 07.08.2019
4095 Clouds 14 1002 87 10000 5.1 250 07:43 07.08.2019
4096 Clouds 13 1002 87 10000 4.6 250 07:21 07.08.2019
4097 Clouds 13 1002 93 10000 4.1 250 06:40 07.08.2019
4098 Clouds 13 1002 93 10000 4.6 250 05:59 07.08.2019
4099 Rain 13 1002 87 10000 5.7 260 04:58 07.08.2019
4100 Rain 14 1001 87 10000 4.6 240 03:21 07.08.2019
4101 Clouds 14 1001 87 10000 4.1 240 02:50 07.08.2019
4102 Clouds 14 1001 87 10000 4.1 240 02:22 07.08.2019
4103 Clouds 14 1002 82 10000 3.1 240 01:42 07.08.2019
4104 Clouds 14 1001 87 10000 4.6 250 00:51 07.08.2019
4105 Clouds 14 1001 87 10000 4.1 240 00:22 07.08.2019
4106 Clouds 14 1001 87 10000 4.1 230 23:44 06.08.2019
4107 Rain 14 1001 87 10000 4.1 230 23:22 06.08.2019
4108 Rain 15 1001 87 10000 4.1 230 22:58 06.08.2019
4109 Rain 15 1001 87 10000 4.1 230 22:38 06.08.2019
4110 Rain 15 1001 87 10000 3.6 240 22:20 06.08.2019
4111 Rain 15 1001 87 10000 3.6 240 22:20 06.08.2019
4112 Rain 15 1000 82 10000 5.1 250 21:43 06.08.2019
4113 Rain 16 1000 77 10000 4.6 250 21:25 06.08.2019
4114 Rain 16 1000 77 10000 5.1 260 20:59 06.08.2019
4115 Rain 17 1000 77 10000 5.1 260 20:40 06.08.2019
4116 Rain 17 1000 77 10000 4.6 250 20:22 06.08.2019
4117 Rain 17 1000 82 10000 4.1 260 19:45 06.08.2019
4118 Rain 17 1000 82 10000 4.1 260 19:26 06.08.2019
4119 Rain 17 1000 87 10000 4.1 270 18:54 06.08.2019
4120 Rain 17 1000 82 10000 5.1 270 18:36 06.08.2019
4121 Rain 17 1000 82 10000 5.1 270 18:18 06.08.2019
4122 Rain 17 1000 82 10000 5.7 290 17:54 06.08.2019
4123 Rain 18 1000 72 6000 7.2 250 17:36 06.08.2019
4124 Rain 18 1000 72 6000 7.2 250 17:18 06.08.2019
4125 Rain 18 1000 72 6000 7.2 250 17:18 06.08.2019
4126 Rain 18 999 68 10000 6.2 250 16:41 06.08.2019
4127 Rain 18 999 77 10000 5.7 240 16:21 06.08.2019
4128 Rain 18 999 87 10000 5.1 230 15:57 06.08.2019
4129 Rain 18 999 72 5000 6.2 230 15:38 06.08.2019
4130 Rain 18 999 72 5000 6.2 230 15:20 06.08.2019
4131 Rain 18 1000 77 10000 5.1 220 14:44 06.08.2019
4132 Rain 17 1000 87 10000 5.7 210 14:25 06.08.2019
4133 Rain 16 1000 87 5000 4.6 230 13:58 06.08.2019
4134 Rain 17 1000 82 10000 4.1 220 13:39 06.08.2019
4135 Rain 17 1000 82 10000 4.1 220 13:20 06.08.2019
4136 Rain 17 1000 77 10000 4.6 220 12:57 06.08.2019
4137 Rain 17 1000 77 10000 4.6 220 12:39 06.08.2019
4138 Rain 17 1001 72 10000 4.1 230 12:21 06.08.2019
4139 Clouds 17 1000 72 10000 5.1 230 11:42 06.08.2019
4140 Clouds 16 1001 77 10000 4.6 220 11:19 06.08.2019
4141 Clouds 16 1001 87 10000 4.6 220 10:42 06.08.2019
4142 Clouds 16 1001 82 10000 5.1 220 10:42 06.08.2019
4143 Clouds 16 1001 82 10000 5.1 220 10:42 06.08.2019
4144 Clouds 15 1001 87 10000 4.6 220 10:23 06.08.2019
4145 Clouds 15 1001 87 10000 4.6 220 09:58 06.08.2019
4146 Clouds 15 1001 87 10000 4.1 210 09:38 06.08.2019
4147 Clouds 15 1001 87 10000 4.1 210 09:19 06.08.2019
4148 Rain 14 1001 93 10000 3.6 200 08:42 06.08.2019
4149 Rain 14 1001 93 10000 3.1 200 08:24 06.08.2019
4150 Rain 14 1001 93 10000 3.1 210 07:36 06.08.2019
4151 Rain 14 1001 93 8000 3.1 200 06:53 06.08.2019
4152 Rain 14 1001 87 8000 3.1 220 06:35 06.08.2019
4153 Rain 15 1002 82 10000 3.6 220 05:55 06.08.2019
4154 Rain 15 1002 77 10000 4.6 220 04:32 06.08.2019
4155 Clouds 15 1002 72 10000 6.2 220 01:55 06.08.2019
4156 Rain 15 1002 72 10000 4.6 220 01:24 06.08.2019
4157 Clouds 15 1003 77 10000 4.6 210 00:30 06.08.2019
4158 Clouds 15 1003 72 10000 5.1 200 23:46 05.08.2019
4159 Clouds 16 1003 72 10000 4.1 200 23:19 05.08.2019
4160 Clouds 16 1003 72 10000 4.1 200 22:41 05.08.2019
4161 Clouds 16 1003 67 10000 5.7 210 22:23 05.08.2019
4162 Rain 17 1003 63 10000 5.7 220 21:55 05.08.2019
4163 Rain 18 1003 63 10000 5.7 210 21:36 05.08.2019
4164 Rain 18 1003 63 10000 5.7 210 21:18 05.08.2019
4165 Clouds 18 1003 59 10000 5.1 210 20:54 05.08.2019
4166 Rain 18 1003 59 10000 6.7 220 20:36 05.08.2019
4167 Rain 18 1003 59 10000 6.7 220 20:18 05.08.2019
4168 Rain 18 1003 82 10000 5.7 240 19:40 05.08.2019
4169 Rain 18 1003 82 10000 5.7 240 19:21 05.08.2019
4170 Rain 19 1003 64 10000 6.2 200 18:45 05.08.2019
4171 Rain 19 1003 56 10000 6.7 210 18:22 05.08.2019
4172 Rain 19 1003 60 10000 5.7 210 17:58 05.08.2019
4173 Rain 19 1003 60 10000 5.7 210 17:40 05.08.2019
4174 Rain 19 1003 64 10000 4.6 240 17:22 05.08.2019
4175 Rain 20 1004 56 10000 6.7 210 16:45 05.08.2019
4176 Rain 20 1004 56 10000 5.1 210 16:24 05.08.2019
4177 Rain 18 1004 56 10000 3.6 210 15:44 05.08.2019
4178 Rain 19 1004 59 10000 5.1 220 15:21 05.08.2019
4179 Rain 20 1004 59 10000 5.1 220 14:55 05.08.2019
4180 Clouds 20 1005 59 10000 5.1 230 14:37 05.08.2019
4181 Clouds 20 1005 59 10000 5.1 230 14:19 05.08.2019
4182 Clouds 19 1005 59 10000 5.1 230 13:40 05.08.2019
4183 Clouds 19 1005 68 10000 4.6 240 13:20 05.08.2019
4184 Clouds 18 1005 68 10000 5.1 230 12:44 05.08.2019
4185 Clouds 17 1005 72 10000 4.6 220 12:20 05.08.2019
4186 Clouds 17 1005 77 10000 5.1 210 11:45 05.08.2019
4187 Clouds 16 1005 72 10000 4.6 230 11:26 05.08.2019
4188 Clouds 16 1005 72 10000 4.1 210 10:50 05.08.2019
4189 Clouds 16 1005 77 10000 4.6 230 10:32 05.08.2019
4190 Clouds 15 1005 82 10000 3.6 220 09:58 05.08.2019
4191 Clouds 15 1005 82 10000 3.6 220 09:40 05.08.2019
4192 Clouds 14 1005 82 10000 4.1 220 09:21 05.08.2019
4193 Clouds 13 1005 87 10000 3.6 210 08:44 05.08.2019
4194 Clouds 13 1005 87 10000 2.6 200 08:25 05.08.2019
4195 Clouds 12 1005 93 10000 2.6 200 07:54 05.08.2019
4196 Clouds 12 1005 93 10000 2.1 220 07:31 05.08.2019
4197 Clouds 12 1005 93 10000 2.1 210 06:58 05.08.2019
4198 Clouds 12 1005 87 10000 3.6 220 06:29 05.08.2019
4199 Clouds 12 1005 87 10000 3.1 220 05:41 05.08.2019
4200 Clouds 13 1005 87 10000 3.6 230 04:55 05.08.2019
4201 Clouds 13 1005 87 10000 4.1 240 03:56 05.08.2019
4202 Clouds 13 1005 93 10000 3.6 230 03:20 05.08.2019
4203 Clouds 13 1005 87 10000 3.6 230 02:26 05.08.2019
4204 Rain 14 1004 93 10000 5.1 240 01:32 05.08.2019
4205 Clouds 15 1004 93 10000 5.7 160 00:41 05.08.2019
4206 Clouds 15 1004 93 10000 5.7 160 00:21 05.08.2019
4207 Clouds 15 1004 93 10000 4.6 150 23:44 04.08.2019
4208 Rain 16 1004 93 10000 4.1 140 23:24 04.08.2019
4209 Rain 16 1005 93 9000 1.5 0 22:58 04.08.2019
4210 Rain 16 1005 93 9000 1.5 0 22:38 04.08.2019
4211 Rain 16 1005 100 9000 1.5 0 22:20 04.08.2019
4212 Rain 16 1006 88 9000 4.1 170 21:59 04.08.2019
4213 Rain 16 1006 88 9000 4.1 170 21:41 04.08.2019
4214 Rain 16 1006 88 10000 2.6 140 21:20 04.08.2019
4215 Rain 17 1006 82 8000 3.1 130 20:43 04.08.2019
4216 Rain 17 1006 77 10000 4.6 140 20:19 04.08.2019
4217 Clouds 18 1006 68 10000 6.2 180 19:56 04.08.2019
4218 Rain 18 1006 72 10000 6.7 170 19:37 04.08.2019
4219 Rain 18 1006 72 10000 6.7 170 19:18 04.08.2019
4220 Clouds 19 1007 60 10000 5.1 150 18:42 04.08.2019
4221 Clouds 19 1007 60 10000 5.1 150 18:20 04.08.2019
4222 Clouds 20 1007 60 10000 5.7 140 17:44 04.08.2019
4223 Clouds 20 1007 72 10000 5.1 140 17:24 04.08.2019
4224 Clouds 20 1007 72 10000 5.1 140 16:55 04.08.2019
4225 Clouds 20 1008 77 10000 4.6 130 16:36 04.08.2019
4226 Clouds 21 1008 77 10000 4.6 130 16:18 04.08.2019
4227 Clouds 20 1008 77 10000 5.7 120 15:39 04.08.2019
4228 Clouds 21 1009 77 9000 4.1 140 15:20 04.08.2019
4229 Rain 20 1009 77 10000 4.6 140 14:44 04.08.2019
4230 Clouds 20 1009 72 10000 5.7 150 14:26 04.08.2019
4231 Clouds 19 1010 72 10000 4.6 150 13:47 04.08.2019
4232 Clouds 19 1010 72 10000 4.6 150 13:27 04.08.2019
4233 Clouds 20 1010 60 10000 3.6 190 12:57 04.08.2019
4234 Clouds 19 1010 60 10000 3.6 190 12:39 04.08.2019
4235 Clouds 19 1010 60 10000 3.1 140 12:21 04.08.2019
4236 Clouds 19 1010 77 10000 3.1 130 11:48 04.08.2019
4237 Clouds 19 1010 77 10000 3.1 160 11:23 04.08.2019
4238 Clouds 18 1010 72 10000 2.1 140 10:48 04.08.2019
4239 Clouds 18 1011 77 10000 2.1 150 10:23 04.08.2019
4240 Clouds 16 1011 82 10000 2.6 100 09:47 04.08.2019
4241 Clouds 16 1011 87 10000 1 100 09:27 04.08.2019
4242 Clouds 15 1011 93 10000 1 0 08:59 04.08.2019
4243 Clouds 15 1011 100 10000 1 0 08:35 04.08.2019
4244 Clouds 14 1011 93 9000 1.5 0 07:55 04.08.2019
4245 Mist 14 1011 93 3500 1 0 07:29 04.08.2019
4246 Clouds 14 1011 93 6000 2.6 170 06:42 04.08.2019
4247 Clouds 14 1011 93 9000 2.6 150 06:19 04.08.2019
4248 Rain 15 1012 87 10000 2.6 180 03:37 04.08.2019
4249 Rain 16 1012 93 10000 3.1 150 01:52 04.08.2019
4250 Rain 17 1013 88 10000 3.1 160 01:32 04.08.2019
4251 Rain 17 1012 88 10000 4.1 140 00:42 04.08.2019
4252 Rain 17 1013 82 10000 4.6 160 00:24 04.08.2019
4253 Clouds 17 1013 88 10000 4.1 140 23:55 03.08.2019
4254 Clouds 17 1013 88 10000 5.1 150 23:36 03.08.2019
4255 Clouds 17 1013 88 10000 5.1 150 23:18 03.08.2019
4256 Clouds 17 1013 87 10000 5.1 150 22:39 03.08.2019
4257 Clouds 17 1013 87 10000 5.1 150 22:19 03.08.2019
4258 Clouds 18 1013 88 10000 4.6 140 21:39 03.08.2019
4259 Clouds 18 1013 77 10000 3.1 130 21:21 03.08.2019
4260 Clouds 18 1013 77 10000 4.1 150 20:45 03.08.2019
4261 Clouds 18 1014 77 10000 3.6 140 20:24 03.08.2019
4262 Clouds 19 1014 82 10000 4.6 150 19:55 03.08.2019
4263 Clouds 19 1014 82 10000 4.6 140 19:36 03.08.2019
4264 Clouds 19 1014 82 10000 4.6 140 19:18 03.08.2019
4265 Clouds 19 1014 88 10000 4.1 140 18:40 03.08.2019
4266 Clouds 19 1015 82 10000 4.6 140 18:21 03.08.2019
4267 Clouds 19 1015 82 10000 4.6 140 17:42 03.08.2019
4268 Rain 19 1015 88 10000 4.1 130 17:19 03.08.2019
4269 Rain 19 1015 82 10000 4.6 140 16:38 03.08.2019
4270 Clouds 19 1015 82 10000 4.6 140 16:20 03.08.2019
4271 Clouds 20 1015 82 10000 5.1 140 15:46 03.08.2019
4272 Clouds 20 1015 82 10000 4.6 140 15:26 03.08.2019
4273 Clouds 20 1016 82 10000 4.6 140 14:48 03.08.2019
4274 Clouds 20 1016 77 10000 3.6 140 14:24 03.08.2019
4275 Clouds 20 1016 77 10000 4.1 150 13:57 03.08.2019
4276 Clouds 19 1016 77 10000 4.1 150 13:37 03.08.2019
4277 Clouds 19 1016 77 10000 4.1 150 13:37 03.08.2019
4278 Clouds 19 1016 77 10000 4.1 150 13:19 03.08.2019
4279 Rain 19 1016 77 10000 4.6 150 12:42 03.08.2019
4280 Rain 19 1016 82 10000 3.1 130 12:23 03.08.2019
4281 Rain 18 1016 88 10000 2.1 140 11:55 03.08.2019
4282 Rain 18 1016 88 10000 2.6 130 11:35 03.08.2019
4283 Rain 17 1017 82 10000 2.6 140 10:47 03.08.2019
4284 Rain 16 1017 88 10000 2.1 150 10:25 03.08.2019
4285 Clouds 16 1017 88 9000 2.6 120 09:46 03.08.2019
4286 Clouds 16 1017 93 9000 3.1 100 09:24 03.08.2019
4287 Mist 15 1017 93 5000 3.1 90 08:57 03.08.2019
4288 Mist 15 1017 93 5000 3.1 100 08:25 03.08.2019
4289 Clouds 14 1017 93 10000 2.6 80 07:38 03.08.2019
4290 Clouds 14 1017 93 10000 2.6 80 06:47 03.08.2019
4291 Clouds 14 1017 93 10000 2.6 70 05:59 03.08.2019
4292 Clouds 14 1018 93 10000 2.6 110 02:50 03.08.2019
4293 Clouds 14 1019 87 10000 3.6 100 01:56 03.08.2019
4294 Clouds 14 1019 87 10000 2.6 110 00:57 03.08.2019
4295 Clouds 15 1019 87 10000 2.6 110 00:29 03.08.2019
4296 Clouds 15 1019 93 10000 3.6 90 23:41 02.08.2019
4297 Clouds 15 1019 93 10000 3.6 100 23:20 02.08.2019
4298 Clouds 16 1020 93 10000 3.1 90 22:57 02.08.2019
4299 Clouds 16 1020 93 10000 3.1 90 22:39 02.08.2019
4300 Clouds 17 1019 87 10000 3.6 100 22:20 02.08.2019
4301 Clouds 18 1019 82 10000 3.6 110 21:55 02.08.2019
4302 Clouds 18 1019 77 10000 3.6 110 21:36 02.08.2019
4303 Clouds 19 1019 77 10000 3.6 110 21:18 02.08.2019
4304 Clouds 19 1020 82 10000 3.6 110 20:41 02.08.2019
4305 Clouds 20 1020 77 10000 4.1 110 20:21 02.08.2019
4306 Clouds 20 1020 77 10000 4.1 110 19:49 02.08.2019
4307 Clouds 19 1020 77 10000 4.1 130 19:29 02.08.2019
4308 Clouds 20 1020 77 10000 5.1 80 18:45 02.08.2019
4309 Clouds 20 1020 72 10000 5.7 90 18:27 02.08.2019
4310 Clouds 20 1020 72 10000 5.7 100 17:48 02.08.2019
4311 Clouds 20 1020 72 10000 5.7 90 17:26 02.08.2019
4312 Clouds 20 1020 68 10000 6.2 100 16:59 02.08.2019
4313 Clouds 21 1020 68 10000 6.2 100 16:39 02.08.2019
4314 Clouds 21 1020 68 10000 6.2 100 16:20 02.08.2019
4315 Clouds 21 1020 68 10000 5.7 100 15:45 02.08.2019
4316 Clouds 21 1020 68 10000 5.1 80 15:20 02.08.2019
4317 Clouds 21 1020 68 10000 4.6 100 14:47 02.08.2019
4318 Clouds 21 1020 73 10000 5.1 80 14:19 02.08.2019
4319 Clouds 21 1020 68 10000 3.6 110 13:50 02.08.2019
4320 Clouds 20 1021 68 10000 3.6 100 13:29 02.08.2019
4321 Clouds 20 1021 68 10000 3.6 110 12:47 02.08.2019
4322 Clouds 20 1020 72 10000 3.6 100 12:25 02.08.2019
4323 Clouds 20 1020 72 10000 3.6 100 11:59 02.08.2019
4324 Clouds 20 1020 72 10000 3.6 100 11:40 02.08.2019
4325 Clouds 19 1020 82 10000 3.1 70 11:22 02.08.2019
4326 Clouds 18 1020 82 10000 3.1 80 10:44 02.08.2019
4327 Clouds 18 1021 88 10000 2.6 90 10:24 02.08.2019
4328 Clouds 17 1020 82 10000 3.1 80 09:53 02.08.2019
4329 Clouds 15 1020 93 10000 2.6 40 09:29 02.08.2019
4330 Clouds 14 1020 93 10000 1.5 0 08:54 02.08.2019
4331 Clouds 12 1020 100 10000 2.1 350 08:25 02.08.2019
4332 Fog 11 1020 100 10000 1.5 320 07:54 02.08.2019
4333 Fog 11 1020 93 10000 1 0 07:35 02.08.2019
4334 Clouds 11 1020 100 10000 1 0 06:58 02.08.2019
4335 Clouds 11 1020 100 10000 1.5 0 06:27 02.08.2019
4336 Clouds 11 1020 93 10000 1 320 05:41 02.08.2019
4337 Clouds 12 1021 93 10000 1.5 90 03:32 02.08.2019
4338 Clouds 12 1021 93 10000 2.6 80 02:37 02.08.2019
4339 Clouds 13 1021 100 10000 2.6 80 01:30 02.08.2019
4340 Clouds 14 1020 93 10000 0.5 360 00:22 02.08.2019
4341 Clouds 14 1020 93 10000 1 150 23:44 01.08.2019
4342 Clouds 15 1020 82 10000 1 170 23:23 01.08.2019
4343 Clouds 16 1020 77 10000 1.5 0 22:42 01.08.2019
4344 Clouds 17 1020 72 10000 1 0 22:22 01.08.2019
4345 Clouds 18 1020 68 10000 2.1 110 21:55 01.08.2019
4346 Clouds 19 1020 72 10000 2.6 100 21:37 01.08.2019
4347 Clouds 19 1020 72 10000 2.6 100 21:18 01.08.2019
4348 Clouds 19 1020 68 10000 2.6 100 20:43 01.08.2019
4349 Clouds 20 1020 64 10000 2.6 100 20:22 01.08.2019
4350 Clouds 20 1020 68 10000 3.1 90 19:45 01.08.2019
4351 Clouds 20 1020 64 10000 3.1 110 19:23 01.08.2019
4352 Clouds 20 1020 64 10000 3.1 110 19:23 01.08.2019
4353 Clouds 20 1020 64 10000 2.6 110 18:55 01.08.2019
4354 Clouds 20 1020 64 10000 2.1 100 18:36 01.08.2019
4355 Clouds 20 1020 64 10000 2.1 100 18:18 01.08.2019
4356 Clouds 20 1020 64 10000 3.6 100 17:44 01.08.2019
4357 Clouds 20 1020 63 10000 3.1 110 17:26 01.08.2019
4358 Clouds 20 1020 64 10000 3.1 100 16:44 01.08.2019
4359 Clouds 19 1020 63 10000 3.1 110 16:22 01.08.2019
4360 Clouds 19 1020 60 10000 3.1 50 15:45 01.08.2019
4361 Clouds 19 1020 60 10000 3.1 50 15:20 01.08.2019
4362 Clouds 19 1020 60 10000 3.1 80 14:44 01.08.2019
4363 Clouds 19 1020 56 10000 1.5 0 14:22 01.08.2019
4364 Clouds 19 1020 59 10000 2.1 320 13:59 01.08.2019
4365 Clouds 19 1020 63 10000 3.1 340 13:41 01.08.2019
4366 Clouds 19 1020 63 10000 3.1 340 13:21 01.08.2019
4367 Clouds 18 1020 68 10000 3.1 310 12:52 01.08.2019
4368 Clouds 18 1020 63 10000 3.1 310 12:33 01.08.2019
4369 Clouds 17 1020 67 10000 3.6 310 11:58 01.08.2019
4370 Clouds 17 1020 67 10000 3.6 310 11:40 01.08.2019
4371 Clouds 16 1020 67 10000 3.6 330 11:22 01.08.2019
4372 Clouds 16 1020 72 10000 3.6 320 10:43 01.08.2019
4373 Clouds 15 1020 77 10000 4.1 300 10:25 01.08.2019
4374 Clouds 15 1019 82 10000 3.6 290 09:53 01.08.2019
4375 Clouds 14 1019 87 10000 4.1 300 09:24 01.08.2019
4376 Clouds 13 1019 87 10000 4.1 290 08:58 01.08.2019
4377 Clouds 13 1019 87 10000 4.1 290 08:39 01.08.2019
4378 Clouds 12 1019 93 10000 4.6 280 08:18 01.08.2019
4379 Clouds 12 1019 93 10000 4.1 290 07:45 01.08.2019
4380 Clouds 12 1019 93 10000 3.6 270 07:20 01.08.2019
4381 Clouds 12 1019 100 10000 3.1 280 06:39 01.08.2019
4382 Clouds 13 1019 87 10000 3.6 280 05:37 01.08.2019
4383 Clouds 13 1018 93 10000 4.1 320 02:41 01.08.2019
4384 Clouds 14 1018 93 10000 4.1 300 01:45 01.08.2019
4385 Clouds 15 1017 82 10000 3.6 320 00:37 01.08.2019
4386 Clouds 15 1017 82 10000 3.6 320 00:18 01.08.2019
4387 Clouds 15 1017 87 10000 4.6 300 23:42 31.07.2019
4388 Clouds 16 1017 87 10000 4.6 300 23:42 31.07.2019
4389 Clouds 15 1017 93 10000 2.1 320 23:20 31.07.2019
4390 Clouds 16 1016 87 10000 2.1 320 22:46 31.07.2019
4391 Clouds 17 1016 77 10000 1.5 320 22:28 31.07.2019
4392 Clouds 18 1016 77 10000 2.1 330 21:45 31.07.2019
4393 Clouds 19 1016 77 10000 2.1 320 21:24 31.07.2019
4394 Clouds 19 1015 77 10000 3.1 320 20:51 31.07.2019
4395 Clouds 19 1015 68 10000 3.6 340 20:25 31.07.2019
4396 Clouds 20 1015 64 10000 3.6 310 19:58 31.07.2019
4397 Clouds 20 1015 68 10000 4.1 290 19:39 31.07.2019
4398 Clouds 20 1015 68 10000 4.1 290 19:20 31.07.2019
4399 Clouds 20 1015 68 10000 4.6 320 18:40 31.07.2019
4400 Clouds 20 1015 68 10000 4.6 320 18:40 31.07.2019
4401 Clouds 20 1015 68 10000 4.6 320 18:22 31.07.2019
4402 Clouds 20 1014 68 10000 4.6 300 17:45 31.07.2019
4403 Clouds 19 1015 72 10000 5.1 280 17:20 31.07.2019
4404 Clouds 19 1015 72 10000 5.1 270 16:56 31.07.2019
4405 Clouds 19 1015 72 10000 5.1 270 16:37 31.07.2019
4406 Clouds 19 1015 72 10000 6.2 280 16:18 31.07.2019
4407 Clouds 19 1014 72 10000 6.2 280 15:42 31.07.2019
4408 Clouds 18 1014 72 10000 6.2 280 15:23 31.07.2019
4409 Clouds 19 1014 77 10000 6.7 290 14:42 31.07.2019
4410 Clouds 18 1014 77 10000 7.2 280 14:20 31.07.2019
4411 -273 0 0 0 0 0 13:56 31.07.2019
4412 Clouds 18 1014 77 10000 6.7 300 13:37 31.07.2019
4413 Clouds 18 1014 77 10000 6.7 300 13:19 31.07.2019
4414 Clouds 17 1013 77 10000 6.7 290 12:43 31.07.2019
4415 Clouds 17 1013 77 10000 6.7 290 12:25 31.07.2019
4416 Clouds 15 1013 82 10000 7.2 290 11:41 31.07.2019
4417 Clouds 15 1013 82 10000 7.2 290 11:23 31.07.2019
4418 Clouds 15 1013 87 10000 6.7 290 10:57 31.07.2019
4419 Clouds 15 1013 87 10000 6.7 280 10:39 31.07.2019
4420 Clouds 15 1013 87 10000 6.7 280 10:20 31.07.2019
4421 Clouds 14 1012 87 10000 6.2 270 09:43 31.07.2019
4422 Clouds 14 1012 82 10000 6.7 270 09:24 31.07.2019
4423 Clouds 13 1012 87 10000 5.7 270 08:44 31.07.2019
4424 Clouds 13 1012 87 10000 5.1 270 08:25 31.07.2019
4425 Clouds 13 1012 87 10000 5.7 280 07:53 31.07.2019
4426 Clouds 13 1012 87 10000 5.7 270 07:33 31.07.2019
4427 Clouds 13 1011 87 10000 6.2 270 05:24 31.07.2019
4428 Clouds 13 1011 93 10000 6.2 270 04:21 31.07.2019
4429 Rain 14 1010 93 10000 6.2 290 00:41 31.07.2019
4430 Clouds 15 1009 93 10000 6.2 300 23:51 30.07.2019
4431 Clouds 15 1009 93 10000 6.2 300 23:30 30.07.2019
4432 Rain 15 1009 93 10000 6.7 300 22:59 30.07.2019
4433 Rain 15 1009 93 10000 6.7 300 22:40 30.07.2019
4434 Rain 15 1008 93 10000 6.2 290 22:21 30.07.2019
4435 Rain 16 1008 93 8000 7.2 300 21:38 30.07.2019
4436 Rain 16 1008 93 8000 7.2 300 21:19 30.07.2019
4437 Rain 16 1008 93 8000 5.7 280 20:56 30.07.2019
4438 Rain 16 1008 93 8000 4.6 290 20:38 30.07.2019
4439 Rain 16 1008 93 8000 4.6 290 20:19 30.07.2019
4440 Rain 16 1007 87 6000 5.1 290 19:47 30.07.2019
4441 Rain 16 1007 87 10000 6.2 290 19:28 30.07.2019
4442 Rain 16 1007 87 10000 6.2 290 18:48 30.07.2019
4443 Rain 17 1007 82 10000 5.1 300 18:25 30.07.2019
4444 Rain 17 1007 82 10000 3.1 290 17:58 30.07.2019
4445 Rain 17 1007 82 10000 3.1 290 17:40 30.07.2019
4446 Rain 17 1007 77 10000 5.1 350 17:18 30.07.2019
4447 Rain 17 1007 82 10000 5.1 20 16:44 30.07.2019
4448 Rain 17 1007 88 10000 3.1 340 16:19 30.07.2019
4449 Rain 17 1007 93 8000 3.6 360 15:40 30.07.2019
4450 Rain 17 1007 77 4000 5.1 330 15:22 30.07.2019
4451 Rain 17 1007 77 4000 5.1 330 14:43 30.07.2019
4452 Rain 17 1007 77 10000 5.7 320 14:23 30.07.2019
4453 Rain 17 1007 77 10000 5.1 320 13:56 30.07.2019
4454 Clouds 17 1007 77 10000 4.6 320 13:37 30.07.2019
4455 Clouds 17 1007 77 10000 4.6 320 13:19 30.07.2019
4456 Clouds 17 1006 77 10000 6.2 340 12:43 30.07.2019
4457 Rain 16 1006 82 10000 6.2 350 12:24 30.07.2019
4458 Clouds 16 1007 82 10000 5.7 340 11:46 30.07.2019
4459 Rain 16 1007 87 10000 5.1 340 11:26 30.07.2019
4460 Drizzle 15 1007 87 10000 4.1 340 10:56 30.07.2019
4461 Drizzle 15 1007 87 10000 4.1 340 10:38 30.07.2019
4462 Clouds 15 1006 87 10000 4.6 330 10:20 30.07.2019
4463 Clouds 15 1007 93 10000 4.1 350 09:46 30.07.2019
4464 Clouds 15 1006 93 9000 5.1 320 09:27 30.07.2019
4465 Clouds 14 1006 93 8000 4.1 320 08:39 30.07.2019
4466 Clouds 14 1006 93 8000 4.1 320 08:18 30.07.2019
4467 Clouds 13 1007 93 8000 4.1 320 07:40 30.07.2019
4468 Clouds 13 1006 100 9000 3.6 340 07:22 30.07.2019
4469 Clouds 13 1006 93 9000 4.1 320 06:43 30.07.2019
4470 Clouds 13 1007 93 10000 1.5 330 05:35 30.07.2019
4471 Clouds 13 1007 100 10000 1.5 360 04:29 30.07.2019
4472 Rain 14 1008 93 10000 0.5 360 01:23 30.07.2019
4473 Rain 14 1007 87 10000 2.1 90 00:27 30.07.2019
4474 Rain 14 1007 87 10000 2.1 90 00:27 30.07.2019
4475 Rain 14 1007 82 10000 2.1 90 23:59 29.07.2019
4476 Rain 14 1007 82 10000 2.1 90 23:39 29.07.2019
4477 Rain 15 1007 82 10000 3.1 110 23:20 29.07.2019
4478 Rain 15 1007 82 10000 1.44 177.332 22:55 29.07.2019
4479 Rain 16 1007 72 10000 0.5 360 22:37 29.07.2019
4480 Clouds 16 1007 72 10000 0.5 360 22:18 29.07.2019
4481 Clouds 16 1007 67 10000 1 0 21:41 29.07.2019
4482 Clouds 17 1007 67 10000 1.5 0 21:23 29.07.2019
4483 Clouds 17 1007 77 10000 2.1 130 20:57 29.07.2019
4484 Clouds 17 1007 77 10000 2.1 130 20:38 29.07.2019
4485 Clouds 17 1007 77 10000 2.1 130 20:19 29.07.2019
4486 Clouds 18 1007 68 10000 2.6 130 19:43 29.07.2019
4487 Clouds 18 1007 68 10000 2.6 140 19:23 29.07.2019
4488 Clouds 18 1007 72 10000 3.6 140 18:55 29.07.2019
4489 Clouds 18 1007 72 10000 3.6 140 18:37 29.07.2019
4490 Clouds 18 1007 72 10000 3.6 140 18:18 29.07.2019
4491 Clouds 18 1007 72 10000 3.6 140 17:47 29.07.2019
4492 Clouds 18 1007 72 10000 3.6 140 17:47 29.07.2019
4493 Clouds 18 1007 77 10000 4.1 140 17:27 29.07.2019
4494 Clouds 18 1007 68 10000 5.1 150 16:46 29.07.2019
4495 Clouds 18 1007 68 10000 5.1 150 16:27 29.07.2019
4496 Clouds 19 1007 64 10000 6.7 160 15:54 29.07.2019
4497 Clouds 19 1007 64 10000 6.7 160 15:36 29.07.2019
4498 Clouds 19 1007 68 10000 4.6 150 14:58 29.07.2019
4499 Clouds 19 1007 68 10000 4.6 150 14:39 29.07.2019
4500 Clouds 19 1007 68 10000 4.6 140 14:21 29.07.2019
4501 Clouds 19 1007 59 10000 4.1 150 13:45 29.07.2019
4502 Clouds 19 1007 59 10000 4.1 150 13:45 29.07.2019
4503 Clouds 19 1007 59 10000 2.6 250 13:23 29.07.2019
4504 Clouds 19 1007 59 10000 2.6 220 12:45 29.07.2019
4505 Clouds 19 1007 63 10000 2.1 240 12:26 29.07.2019
4506 Clouds 19 1007 63 10000 2.1 240 12:26 29.07.2019
4507 Clouds 18 1007 68 10000 3.1 260 11:45 29.07.2019
4508 Clouds 17 1007 72 10000 2.6 240 11:24 29.07.2019
4509 Clouds 17 1007 77 10000 3.6 260 10:59 29.07.2019
4510 Clouds 16 1007 82 10000 3.1 260 10:40 29.07.2019
4511 Clouds 16 1007 82 10000 3.1 260 10:21 29.07.2019
4512 Clouds 15 1007 87 10000 2.1 240 09:41 29.07.2019
4513 Clouds 14 1007 87 10000 2.1 240 09:21 29.07.2019
4514 Clouds 14 1007 93 10000 2.6 260 08:42 29.07.2019
4515 Clouds 13 1007 87 10000 3.6 270 08:22 29.07.2019
4516 Clouds 13 1007 87 10000 3.1 260 07:45 29.07.2019
4517 Clouds 13 1007 87 10000 3.1 260 07:24 29.07.2019
4518 Clouds 13 1007 87 10000 2.1 260 05:52 29.07.2019
4519 Clouds 13 1007 87 10000 3.6 270 04:59 29.07.2019
4520 Clouds 13 1008 87 10000 2.6 290 02:43 29.07.2019
4521 Clouds 13 1008 93 10000 1 310 01:47 29.07.2019
4522 Clouds 13 1008 87 10000 2.1 320 01:26 29.07.2019
4523 Clouds 14 1008 93 10000 2.1 310 00:52 29.07.2019
4524 Clouds 14 1008 87 10000 2.6 300 00:23 29.07.2019
4525 Clouds 15 1008 87 10000 3.1 310 23:41 28.07.2019
4526 Clouds 15 1008 82 10000 3.6 320 23:19 28.07.2019
4527 Clouds 16 1008 77 10000 4.1 330 22:42 28.07.2019
4528 Clouds 16 1008 77 10000 4.1 330 22:42 28.07.2019
4529 Clouds 16 1008 77 10000 3.6 350 22:23 28.07.2019
4530 Clouds 17 1008 77 10000 3.1 340 21:50 28.07.2019
4531 Clouds 17 1008 63 10000 3.6 340 21:20 28.07.2019
4532 Clouds 18 1007 63 10000 5.1 350 20:49 28.07.2019
4533 Clouds 18 1007 59 10000 5.1 310 20:30 28.07.2019
4534 Clouds 19 1007 55 10000 5.7 300 19:57 28.07.2019
4535 Clouds 19 1007 55 10000 5.7 300 19:38 28.07.2019
4536 Clouds 19 1007 59 10000 6.2 290 19:20 28.07.2019
4537 Clouds 20 1007 56 10000 6.2 300 18:44 28.07.2019
4538 Clouds 19 1007 59 10000 5.1 320 18:25 28.07.2019
4539 Clouds 19 1007 52 10000 5.1 290 17:43 28.07.2019
4540 Clouds 19 1007 52 10000 5.1 290 17:22 28.07.2019
4541 Clouds 19 1008 55 10000 5.7 320 16:59 28.07.2019
4542 Clouds 19 1008 55 10000 5.7 320 16:40 28.07.2019
4543 Clouds 19 1008 56 10000 5.1 300 16:22 28.07.2019
4544 Clouds 19 1008 52 10000 5.7 300 15:43 28.07.2019
4545 Clouds 19 1008 59 10000 5.7 310 15:24 28.07.2019
4546 Clouds 18 1008 55 10000 7.2 320 14:38 28.07.2019
4547 Clouds 18 1008 55 10000 7.2 310 14:20 28.07.2019
4548 -273 0 0 0 0 0 13:56 28.07.2019
4549 Clouds 18 1009 63 10000 8.2 310 13:37 28.07.2019
4550 Clouds 18 1009 63 10000 8.2 310 13:19 28.07.2019
4551 Clouds 17 1009 59 10000 7.7 310 12:41 28.07.2019
4552 Clouds 17 1009 59 10000 7.7 310 12:41 28.07.2019
4553 Clouds 17 1009 63 10000 7.2 320 12:23 28.07.2019
4554 Clouds 17 1009 63 10000 7.2 320 12:23 28.07.2019
4555 Clouds 17 1009 67 10000 7.2 310 11:48 28.07.2019
4556 Clouds 16 1009 72 10000 7.2 320 11:27 28.07.2019
4557 Clouds 16 1010 77 10000 6.7 300 10:42 28.07.2019
4558 Clouds 15 1010 87 10000 5.7 300 10:23 28.07.2019
4559 Clouds 15 1010 87 10000 5.7 300 10:23 28.07.2019
4560 Clouds 15 1010 87 10000 5.7 300 10:23 28.07.2019
4561 Clouds 15 1009 93 10000 5.7 290 09:57 28.07.2019
4562 Clouds 14 1010 93 10000 6.2 280 09:38 28.07.2019
4563 Clouds 14 1010 93 10000 6.2 280 09:19 28.07.2019
4564 Clouds 14 1010 93 10000 6.2 280 09:19 28.07.2019
4565 Clouds 12 1010 93 10000 5.1 290 08:41 28.07.2019
4566 Clouds 12 1010 93 10000 5.1 290 08:21 28.07.2019
4567 Clouds 12 1010 93 10000 5.1 280 07:39 28.07.2019
4568 Clouds 12 1010 93 10000 5.1 280 06:47 28.07.2019
4569 Clouds 11 1010 100 10000 4.6 290 06:28 28.07.2019
4570 Clouds 12 1010 93 10000 4.6 280 05:18 28.07.2019
4571 Clouds 13 1011 87 10000 4.1 300 02:24 28.07.2019
4572 Clouds 14 1011 81 10000 2.1 340 01:25 28.07.2019
4573 Clouds 14 1011 81 10000 2.6 360 00:49 28.07.2019
4574 Clouds 13 1011 87 10000 2.6 350 00:24 28.07.2019
4575 Clouds 14 1011 87 10000 3.1 350 23:48 27.07.2019
4576 Clouds 15 1011 82 10000 2.1 360 23:26 27.07.2019
4577 Clouds 16 1010 76 10000 3.1 330 22:42 27.07.2019
4578 Clouds 16 1010 72 10000 3.1 350 22:23 27.07.2019
4579 Clouds 17 1010 67 10000 3.1 340 21:44 27.07.2019
4580 Clouds 18 1010 59 10000 4.1 340 21:22 27.07.2019
4581 Clouds 19 1010 55 10000 4.6 340 20:54 27.07.2019
4582 Clouds 19 1010 55 10000 5.1 320 20:30 27.07.2019
4583 Clouds 19 1010 52 10000 5.7 350 19:58 27.07.2019
4584 Clouds 19 1010 52 10000 5.7 350 19:38 27.07.2019
4585 Clouds 19 1010 52 10000 5.7 350 19:19 27.07.2019
4586 Clouds 19 1009 52 10000 6.2 350 18:46 27.07.2019
4587 Clouds 19 1009 56 10000 5.7 350 18:28 27.07.2019
4588 Clouds 19 1010 59 10000 5.7 340 17:49 27.07.2019
4589 Clouds 20 1010 56 10000 5.1 340 17:31 27.07.2019
4590 Clouds 20 1010 52 10000 5.1 340 16:53 27.07.2019
4591 Clouds 20 1010 59 10000 4.6 320 16:34 27.07.2019
4592 Clouds 20 1010 55 10000 5.7 310 15:56 27.07.2019
4593 Clouds 19 1010 55 10000 5.1 310 15:28 27.07.2019
4594 Clouds 19 1010 56 10000 5.1 310 14:53 27.07.2019
4595 Clouds 19 1010 59 10000 5.1 300 14:34 27.07.2019
4596 Clouds 19 1010 63 10000 5.1 300 13:59 27.07.2019
4597 Clouds 18 1010 63 10000 5.1 300 13:41 27.07.2019
4598 Clouds 18 1010 63 10000 5.7 290 13:21 27.07.2019
4599 Clouds 18 1010 67 10000 5.7 290 12:49 27.07.2019
4600 Clouds 17 1010 72 10000 5.1 280 12:26 27.07.2019
4601 Clouds 16 1010 72 10000 5.1 290 11:46 27.07.2019
4602 Clouds 16 1011 82 10000 4.1 280 11:25 27.07.2019
4603 Clouds 15 1011 87 10000 4.1 280 10:57 27.07.2019
4604 Clouds 15 1011 87 10000 4.1 280 10:39 27.07.2019
4605 Clouds 15 1011 87 10000 5.7 280 10:18 27.07.2019
4606 Clouds 14 1011 93 10000 4.1 270 09:40 27.07.2019
4607 Clouds 13 1011 93 10000 4.1 270 09:21 27.07.2019
4608 Clouds 12 1011 93 10000 4.1 270 08:47 27.07.2019
4609 Clouds 12 1011 93 10000 4.1 270 08:26 27.07.2019
4610 Clouds 12 1011 93 10000 3.6 260 07:45 27.07.2019
4611 Clouds 11 1010 93 10000 3.1 260 07:23 27.07.2019
4612 Clouds 11 1010 93 10000 2.6 260 06:55 27.07.2019
4613 Clear 11 1010 93 10000 3.6 270 06:28 27.07.2019
4614 Clear 12 1010 93 10000 3.6 280 05:42 27.07.2019
4615 Clear 12 1010 87 10000 3.1 280 04:54 27.07.2019
4616 Clear 13 1010 87 10000 4.1 280 03:57 27.07.2019
4617 Clouds 13 1010 87 10000 3.6 280 02:44 27.07.2019
4618 Clouds 13 1010 87 10000 3.6 280 02:24 27.07.2019
4619 Clouds 14 1010 87 10000 3.6 280 01:42 27.07.2019
4620 Clouds 14 1010 93 10000 3.1 300 00:57 27.07.2019
4621 Clouds 15 1010 87 10000 3.1 290 00:31 27.07.2019
4622 Clouds 15 1010 87 10000 2.1 270 23:50 26.07.2019
4623 Clouds 15 1009 87 10000 2.1 250 23:26 26.07.2019
4624 Rain 16 1009 93 10000 2.6 260 22:45 26.07.2019
4625 Rain 16 1009 93 10000 2.6 260 22:45 26.07.2019
4626 Clouds 16 1009 87 10000 3.6 270 22:26 26.07.2019
4627 Rain 16 1009 87 10000 2.6 230 21:56 26.07.2019
4628 Rain 16 1009 87 10000 4.1 240 21:37 26.07.2019
4629 Rain 16 1009 87 10000 4.1 240 21:18 26.07.2019
4630 Rain 18 1008 63 10000 4.6 260 20:40 26.07.2019
4631 Rain 19 1008 64 10000 2.6 280 20:21 26.07.2019
4632 Clouds 20 1008 60 10000 2.6 220 19:41 26.07.2019
4633 Clouds 20 1008 64 10000 2.6 250 19:22 26.07.2019
4634 Clouds 20 1008 60 10000 4.1 230 18:45 26.07.2019
4635 Clouds 21 1008 56 10000 4.6 240 18:22 26.07.2019
4636 Clouds 21 1008 56 10000 4.1 240 17:58 26.07.2019
4637 Clouds 21 1008 60 10000 4.1 250 17:38 26.07.2019
4638 Clouds 21 1008 60 10000 4.1 250 17:18 26.07.2019
4639 Clouds 21 1008 60 10000 4.1 250 17:18 26.07.2019
4640 Clouds 21 1008 60 10000 4.1 240 16:55 26.07.2019
4641 Clouds 21 1008 60 10000 4.1 240 16:37 26.07.2019
4642 Clouds 21 1008 60 10000 4.6 240 16:18 26.07.2019
4643 Clouds 21 1007 56 10000 5.7 210 15:45 26.07.2019
4644 Clouds 22 1007 49 10000 6.7 200 15:22 26.07.2019
4645 Clouds 22 1007 49 10000 6.7 200 15:22 26.07.2019
4646 Clouds 21 1007 56 10000 6.2 210 14:46 26.07.2019
4647 Clouds 21 1007 60 10000 5.1 210 14:25 26.07.2019
4648 Clouds 21 1006 60 10000 4.6 200 13:56 26.07.2019
4649 Clouds 20 1006 64 10000 5.1 210 13:36 26.07.2019
4650 Clouds 20 1006 64 10000 5.1 210 13:18 26.07.2019
4651 Clouds 20 1006 64 10000 6.2 210 12:42 26.07.2019
4652 Clouds 20 1006 68 10000 5.1 200 12:18 26.07.2019
4653 Clouds 19 1006 64 10000 7.7 190 11:39 26.07.2019
4654 Clouds 18 1006 64 10000 7.7 190 11:19 26.07.2019
4655 Clouds 18 1006 68 10000 5.7 170 10:47 26.07.2019
4656 Clouds 18 1006 68 10000 3.6 160 10:28 26.07.2019
4657 Clouds 17 1005 77 10000 3.6 150 09:53 26.07.2019
4658 Clouds 18 1005 77 10000 4.1 150 09:34 26.07.2019
4659 Clouds 17 1005 77 10000 5.1 170 08:42 26.07.2019
4660 Rain 17 1005 82 10000 5.1 150 08:21 26.07.2019
4661 Rain 17 1005 82 10000 4.6 150 07:54 26.07.2019
4662 Clouds 17 1005 82 10000 4.6 150 07:27 26.07.2019
4663 Clouds 17 1005 82 10000 5.7 150 06:41 26.07.2019
4664 Clouds 17 1005 77 10000 4.1 140 05:19 26.07.2019
4665 Clouds 17 1005 82 10000 5.1 160 04:21 26.07.2019
4666 Clouds 18 1005 72 10000 4.6 150 02:39 26.07.2019
4667 Clouds 18 1005 72 10000 6.7 170 01:35 26.07.2019
4668 Clouds 18 1005 77 10000 5.1 160 00:43 26.07.2019
4669 Clouds 18 1005 72 10000 7.2 160 23:56 25.07.2019
4670 Clouds 19 1005 77 10000 7.7 160 23:23 25.07.2019
4671 Clouds 19 1005 72 10000 6.2 150 22:55 25.07.2019
4672 Clouds 19 1005 72 10000 5.1 150 22:36 25.07.2019
4673 Clouds 19 1005 72 10000 5.1 150 22:18 25.07.2019
4674 Clouds 20 1005 72 10000 4.6 160 21:42 25.07.2019
4675 Clouds 20 1005 72 10000 6.2 150 21:21 25.07.2019
4676 Clouds 21 1005 68 10000 6.2 160 20:47 25.07.2019
4677 Clouds 21 1005 68 10000 7.7 160 20:22 25.07.2019
4678 Clouds 20 1005 73 10000 7.2 160 19:44 25.07.2019
4679 Clouds 20 1005 73 10000 6.7 160 19:25 25.07.2019
4680 Clouds 20 1005 73 10000 4.6 140 18:56 25.07.2019
4681 Clouds 20 1005 82 10000 5.1 130 18:38 25.07.2019
4682 Clouds 20 1005 82 10000 5.1 130 18:19 25.07.2019
4683 Clouds 21 1005 82 10000 6.2 140 17:40 25.07.2019
4684 Clouds 21 1005 77 10000 5.7 140 17:22 25.07.2019
4685 Clouds 20 1005 82 10000 5.7 140 16:44 25.07.2019
4686 Clouds 20 1006 82 10000 5.1 150 16:26 25.07.2019
4687 Drizzle 21 1005 77 10000 5.7 140 15:54 25.07.2019
4688 Drizzle 21 1005 73 10000 5.7 150 15:21 25.07.2019
4689 Clouds 20 1006 77 10000 6.2 140 14:56 25.07.2019
4690 Clouds 21 1006 68 10000 6.7 140 14:38 25.07.2019
4691 Clouds 21 1006 68 10000 6.7 140 14:18 25.07.2019
4692 Clouds 21 1005 64 10000 6.7 150 13:40 25.07.2019
4693 Clouds 20 1005 72 10000 7.7 150 13:22 25.07.2019
4694 Clouds 19 1006 82 10000 6.2 150 12:35 25.07.2019
4695 Clouds 19 1006 82 10000 5.7 140 11:59 25.07.2019
4696 Clouds 19 1006 82 10000 5.7 140 11:40 25.07.2019
4697 Clouds 18 1006 82 10000 5.1 140 11:22 25.07.2019
4698 Clouds 18 1006 82 10000 4.1 140 10:45 25.07.2019
4699 Clouds 18 1006 88 10000 3.6 120 10:24 25.07.2019
4700 Clouds 18 1007 93 10000 4.1 110 09:47 25.07.2019
4701 Clouds 18 1007 88 10000 3.6 120 09:28 25.07.2019
4702 Clouds 18 1007 88 10000 4.1 150 08:53 25.07.2019
4703 Clouds 18 1007 82 10000 5.1 160 08:33 25.07.2019
4704 Clouds 18 1007 88 10000 5.7 150 07:40 25.07.2019
4705 Clouds 18 1007 88 10000 4.6 150 06:50 25.07.2019
4706 Drizzle 18 1007 88 7000 5.1 150 06:31 25.07.2019
4707 Drizzle 17 1007 93 7000 5.7 150 05:36 25.07.2019
4708 Drizzle 17 1008 100 7000 4.6 120 04:50 25.07.2019
4709 Clouds 17 1009 93 10000 4.6 140 03:24 25.07.2019
4710 Clouds 16 1009 93 10000 4.6 140 01:21 25.07.2019
4711 Clouds 17 1009 82 10000 3.6 110 00:34 25.07.2019
4712 Clouds 18 1010 82 10000 5.7 150 23:56 24.07.2019
4713 Clouds 18 1010 77 10000 6.2 150 23:38 24.07.2019
4714 Clouds 18 1010 77 10000 6.2 150 23:20 24.07.2019
4715 Clouds 18 1009 77 10000 3.1 160 22:44 24.07.2019
4716 Clouds 18 1009 77 10000 4.1 150 22:22 24.07.2019
4717 Clouds 19 1009 60 10000 3.6 150 21:55 24.07.2019
4718 Clouds 18 1009 60 10000 3.6 150 21:37 24.07.2019
4719 Clouds 19 1009 64 10000 2.6 120 21:18 24.07.2019
4720 Clouds 19 1009 64 10000 4.1 100 20:45 24.07.2019
4721 Clouds 20 1009 68 10000 3.6 140 20:26 24.07.2019
4722 Clouds 20 1009 73 10000 3.6 120 19:58 24.07.2019
4723 Clouds 21 1009 68 10000 4.6 140 19:39 24.07.2019
4724 Clouds 21 1009 68 10000 4.6 140 19:19 24.07.2019
4725 Clouds 21 1009 68 10000 4.6 150 18:42 24.07.2019
4726 Clouds 21 1009 64 10000 5.1 150 18:24 24.07.2019
4727 Clouds 22 1009 53 10000 4.1 170 17:47 24.07.2019
4728 Clouds 22 1009 53 10000 5.1 170 17:21 24.07.2019
4729 Clouds 22 1009 53 10000 4.6 140 16:44 24.07.2019
4730 Rain 22 1009 68 10000 4.1 140 16:23 24.07.2019
4731 Clouds 22 1009 53 10000 5.1 140 15:59 24.07.2019
4732 Clouds 22 1009 53 10000 3.6 140 15:36 24.07.2019
4733 Clouds 22 1009 53 10000 3.6 140 15:18 24.07.2019
4734 Clouds 22 1009 56 10000 3.1 230 14:43 24.07.2019
4735 Clouds 22 1010 60 10000 4.1 210 14:19 24.07.2019
4736 Clouds 21 1010 68 10000 4.1 210 13:39 24.07.2019
4737 Clouds 20 1009 68 10000 3.6 210 13:19 24.07.2019
4738 Clouds 20 1009 68 10000 4.1 240 12:51 24.07.2019
4739 Clouds 20 1009 68 10000 4.1 240 12:51 24.07.2019
4740 Clouds 20 1009 68 10000 4.6 240 12:33 24.07.2019
4741 Clouds 19 1009 72 10000 5.1 250 11:40 24.07.2019
4742 Clouds 19 1009 72 10000 5.1 250 11:21 24.07.2019
4743 Clouds 19 1009 72 10000 5.7 210 10:47 24.07.2019
4744 Clouds 19 1009 72 10000 5.1 230 10:26 24.07.2019
4745 Clouds 18 1008 77 10000 2.1 180 09:52 24.07.2019
4746 Clouds 18 1008 82 10000 3.1 140 09:26 24.07.2019
4747 Clouds 17 1008 88 10000 3.1 130 08:58 24.07.2019
4748 Clouds 17 1008 88 10000 3.6 140 08:35 24.07.2019
4749 Clouds 17 1008 82 10000 4.6 150 07:52 24.07.2019
4750 Clouds 16 1008 82 10000 5.7 170 07:31 24.07.2019
4751 Clouds 16 1008 82 10000 5.7 170 07:31 24.07.2019
4752 Clouds 17 1008 82 10000 3.6 110 06:49 24.07.2019
4753 Clouds 17 1008 77 10000 3.6 130 06:23 24.07.2019
4754 Clouds 16 1008 87 10000 2.6 250 04:45 24.07.2019
4755 Clouds 18 1009 82 10000 3.1 250 01:47 24.07.2019
4756 Clouds 18 1010 82 10000 3.6 150 00:57 24.07.2019
4757 Clouds 18 1010 82 10000 4.6 150 00:30 24.07.2019
4758 Clouds 18 1010 82 10000 3.6 140 23:47 23.07.2019
4759 Clouds 17 1010 88 10000 3.1 150 23:26 23.07.2019
4760 Clouds 17 1010 88 10000 4.1 140 22:56 23.07.2019
4761 Clouds 18 1010 82 10000 4.1 140 22:36 23.07.2019
4762 Clouds 18 1010 82 10000 4.1 140 22:18 23.07.2019
4763 Clouds 19 1010 82 10000 3.6 130 21:44 23.07.2019
4764 Clouds 19 1010 77 10000 3.1 140 21:25 23.07.2019
4765 Clouds 21 1011 72 10000 4.1 140 20:49 23.07.2019
4766 Clouds 21 1011 72 10000 3.6 140 20:29 23.07.2019
4767 Clouds 22 1012 72 10000 4.1 150 19:43 23.07.2019
4768 Clouds 22 1012 68 10000 5.7 140 19:24 23.07.2019
4769 Clouds 22 1012 73 10000 3.6 140 18:56 23.07.2019
4770 Clouds 22 1012 73 10000 6.2 150 18:38 23.07.2019
4771 Clouds 22 1012 73 10000 6.2 150 18:19 23.07.2019
4772 Clouds 22 1013 73 10000 5.1 140 17:42 23.07.2019
4773 Clouds 22 1013 68 10000 5.7 140 17:20 23.07.2019
4774 Clouds 23 1013 68 10000 5.7 120 16:42 23.07.2019
4775 Clouds 22 1014 73 10000 4.6 130 16:24 23.07.2019
4776 Clouds 22 1014 68 10000 6.7 130 15:48 23.07.2019
4777 Clouds 22 1014 68 10000 6.7 130 15:48 23.07.2019
4778 Clouds 22 1014 73 10000 6.2 140 15:29 23.07.2019
4779 Clouds 21 1014 68 10000 6.7 140 14:54 23.07.2019
4780 Clouds 21 1015 68 10000 5.1 130 14:36 23.07.2019
4781 Clouds 21 1015 68 10000 5.1 130 14:18 23.07.2019
4782 Clouds 21 1015 68 10000 7.2 150 13:42 23.07.2019
4783 Clouds 21 1015 68 10000 7.2 140 13:23 23.07.2019
4784 Clouds 20 1015 77 10000 6.2 140 12:54 23.07.2019
4785 Clouds 20 1015 77 10000 6.2 150 12:36 23.07.2019
4786 Clouds 20 1015 77 10000 6.2 150 12:18 23.07.2019
4787 Clouds 20 1015 77 10000 5.7 140 11:41 23.07.2019
4788 Clouds 20 1015 77 10000 5.7 140 11:20 23.07.2019
4789 Clouds 19 1016 77 10000 5.1 130 10:43 23.07.2019
4790 Clouds 19 1015 77 10000 6.2 150 10:22 23.07.2019
4791 Clouds 19 1016 77 10000 4.1 140 09:42 23.07.2019
4792 Clouds 18 1016 82 10000 5.1 150 09:20 23.07.2019
4793 Clouds 17 1015 82 10000 3.6 160 08:44 23.07.2019
4794 Clouds 17 1016 88 10000 2.6 150 08:20 23.07.2019
4795 Clouds 16 1016 87 10000 1.5 0 07:57 23.07.2019
4796 Clouds 16 1016 87 10000 0.5 0 07:37 23.07.2019
4797 Clouds 16 1016 87 10000 2.1 80 06:50 23.07.2019
4798 Clouds 17 1016 82 10000 3.1 150 06:31 23.07.2019
4799 Clouds 17 1016 77 10000 3.1 210 03:55 23.07.2019
4800 Clouds 18 1017 82 10000 5.1 190 01:37 23.07.2019
4801 Clouds 19 1017 77 10000 4.1 200 00:37 23.07.2019
4802 Clouds 19 1017 77 10000 4.1 200 00:18 23.07.2019
4803 Clouds 19 1017 77 10000 3.6 210 23:39 22.07.2019
4804 Clouds 19 1017 77 10000 3.1 220 23:19 22.07.2019
4805 Clouds 19 1017 72 10000 5.7 210 22:45 22.07.2019
4806 Clouds 19 1016 72 10000 6.2 210 22:22 22.07.2019
4807 Clouds 20 1016 68 10000 7.7 210 21:44 22.07.2019
4808 Clouds 21 1016 68 10000 7.2 210 21:23 22.07.2019
4809 Clouds 21 1015 64 10000 7.2 200 20:53 22.07.2019
4810 Clouds 22 1015 64 10000 7.7 210 20:33 22.07.2019
4811 Clouds 22 1015 64 10000 7.7 220 19:58 22.07.2019
4812 Clouds 23 1015 64 10000 7.7 220 19:40 22.07.2019
4813 Clouds 23 1015 64 10000 7.2 220 19:20 22.07.2019
4814 Clouds 23 1015 60 10000 7.7 210 18:47 22.07.2019
4815 Clouds 23 1015 60 10000 6.2 220 18:28 22.07.2019
4816 Clouds 24 1015 60 10000 6.7 220 17:57 22.07.2019
4817 Clouds 24 1015 57 10000 6.7 220 17:38 22.07.2019
4818 Clouds 24 1015 57 10000 6.7 220 17:19 22.07.2019
4819 Clouds 24 1015 57 10000 8.2 220 16:40 22.07.2019
4820 Clouds 24 1015 57 10000 6.7 220 16:21 22.07.2019
4821 Clouds 24 1015 57 10000 6.2 220 15:44 22.07.2019
4822 Clouds 24 1015 57 10000 6.2 220 15:20 22.07.2019
4823 Clouds 24 1015 60 10000 6.7 220 14:44 22.07.2019
4824 Clouds 24 1015 69 10000 6.7 230 14:25 22.07.2019
4825 Clouds 23 1015 64 10000 5.1 230 13:52 22.07.2019
4826 Clouds 23 1015 68 10000 5.7 220 13:32 22.07.2019
4827 Clouds 23 1015 64 10000 7.2 220 12:55 22.07.2019
4828 Clouds 22 1015 73 10000 5.7 230 12:32 22.07.2019
4829 Clouds 21 1015 77 10000 6.7 230 11:57 22.07.2019
4830 Clouds 21 1015 77 10000 6.7 230 11:39 22.07.2019
4831 Clouds 21 1014 73 10000 7.2 230 11:20 22.07.2019
4832 Clouds 20 1014 77 10000 6.7 230 10:38 22.07.2019
4833 Clouds 20 1014 77 10000 6.7 230 10:20 22.07.2019
4834 Clouds 20 1013 77 10000 7.2 230 09:40 22.07.2019
4835 Clouds 19 1013 77 10000 7.7 240 09:21 22.07.2019
4836 Clouds 19 1013 77 10000 7.2 240 08:40 22.07.2019
4837 Clouds 19 1012 77 10000 7.2 230 08:22 22.07.2019
4838 Clouds 19 1012 77 10000 7.7 240 07:53 22.07.2019
4839 Clouds 18 1012 77 10000 7.2 230 07:27 22.07.2019
4840 Clouds 19 1011 82 10000 6.7 230 05:30 22.07.2019
4841 Clouds 19 1011 88 10000 7.2 230 03:46 22.07.2019
4842 Clouds 19 1011 88 10000 7.2 220 01:44 22.07.2019
4843 Clouds 19 1011 88 10000 7.2 210 00:50 22.07.2019
4844 Clouds 19 1011 88 10000 7.2 210 00:50 22.07.2019
4845 Clouds 19 1011 88 10000 6.7 210 00:22 22.07.2019
4846 Drizzle 19 1011 88 10000 6.7 210 23:50 21.07.2019
4847 Rain 19 1010 88 10000 6.2 210 22:59 21.07.2019
4848 Rain 19 1010 88 10000 6.2 210 22:41 21.07.2019
4849 Rain 19 1010 88 10000 6.2 210 22:41 21.07.2019
4850 Rain 19 1010 88 10000 7.7 200 22:21 21.07.2019
4851 Rain 18 1010 93 10000 6.7 210 21:55 21.07.2019
4852 Rain 18 1010 93 10000 6.7 200 21:36 21.07.2019
4853 Rain 18 1010 93 10000 6.7 200 21:18 21.07.2019
4854 Rain 18 1010 88 10000 5.7 190 20:41 21.07.2019
4855 Rain 18 1011 88 10000 6.2 190 20:23 21.07.2019
4856 Rain 18 1011 88 10000 5.7 190 19:53 21.07.2019
4857 Rain 17 1011 93 8000 5.1 190 19:29 21.07.2019
4858 Rain 17 1012 93 10000 4.6 200 18:56 21.07.2019
4859 Rain 17 1012 88 10000 5.1 210 18:37 21.07.2019
4860 Rain 17 1012 88 10000 5.1 210 18:19 21.07.2019
4861 Rain 18 1013 82 10000 6.7 200 17:40 21.07.2019
4862 Rain 19 1013 68 10000 7.2 200 17:19 21.07.2019
4863 Clouds 20 1013 68 10000 7.2 200 16:42 21.07.2019
4864 Rain 19 1013 72 10000 6.7 200 16:24 21.07.2019
4865 Clouds 19 1013 72 10000 6.7 200 15:43 21.07.2019
4866 Clouds 19 1013 68 10000 7.7 200 15:22 21.07.2019
4867 Rain 19 1014 72 10000 7.7 190 14:53 21.07.2019
4868 Clouds 19 1014 72 10000 6.7 210 14:25 21.07.2019
4869 Clouds 19 1014 72 10000 7.2 200 13:57 21.07.2019
4870 Clouds 19 1014 72 10000 7.2 200 13:57 21.07.2019
4871 Rain 19 1015 77 10000 5.1 210 13:39 21.07.2019
4872 Rain 18 1015 77 10000 5.1 210 13:19 21.07.2019
4873 Rain 18 1015 77 10000 5.7 200 12:40 21.07.2019
4874 Rain 18 1015 77 10000 5.7 200 12:40 21.07.2019
4875 Clouds 18 1015 72 10000 5.7 200 12:21 21.07.2019
4876 Clouds 18 1015 72 10000 4.1 210 11:45 21.07.2019
4877 Rain 17 1015 77 10000 4.6 220 11:26 21.07.2019
4878 Clouds 17 1015 68 10000 4.1 200 10:47 21.07.2019
4879 Clouds 17 1015 72 10000 4.6 200 10:25 21.07.2019
4880 Clouds 16 1015 77 10000 4.1 200 09:55 21.07.2019
4881 Clouds 16 1015 72 10000 4.1 210 09:35 21.07.2019
4882 Clouds 15 1014 77 10000 3.1 180 08:49 21.07.2019
4883 Clouds 14 1015 87 10000 3.1 180 08:30 21.07.2019
4884 Clouds 13 1014 87 10000 3.1 190 07:56 21.07.2019
4885 Clouds 13 1015 87 10000 3.1 190 07:19 21.07.2019
4886 Clouds 12 1014 87 10000 2.1 200 06:34 21.07.2019
4887 Clouds 13 1014 87 10000 2.1 210 03:51 21.07.2019
4888 Clouds 14 1014 82 10000 2.1 230 01:53 21.07.2019
4889 Clouds 15 1013 72 10000 2.1 220 00:46 21.07.2019
4890 Clouds 15 1013 77 10000 2.6 210 00:21 21.07.2019
4891 Clouds 15 1013 77 10000 2.1 210 23:45 20.07.2019
4892 Clouds 15 1013 72 10000 2.1 220 23:25 20.07.2019
4893 Clouds 16 1013 72 10000 2.1 220 22:55 20.07.2019
4894 Clouds 16 1013 72 10000 2.1 220 22:37 20.07.2019
4895 Clouds 16 1012 72 10000 2.6 230 22:18 20.07.2019
4896 Clouds 16 1012 72 10000 2.6 250 21:40 20.07.2019
4897 Clouds 17 1012 72 10000 4.1 270 21:22 20.07.2019
4898 Clouds 17 1011 67 10000 4.6 270 20:43 20.07.2019
4899 Clouds 17 1011 67 10000 2.6 250 20:21 20.07.2019
4900 Clouds 17 1011 63 10000 2.6 260 19:49 20.07.2019
4901 Clouds 17 1010 63 10000 5.1 270 19:26 20.07.2019
4902 Clouds 17 1010 63 10000 5.7 270 18:46 20.07.2019
4903 Clouds 17 1010 63 10000 6.2 280 18:24 20.07.2019
4904 Clouds 18 1010 55 10000 6.7 280 17:56 20.07.2019
4905 Clouds 18 1009 59 10000 6.7 280 17:26 20.07.2019
4906 Clouds 18 1009 55 10000 6.2 260 16:46 20.07.2019
4907 Clouds 18 1009 52 10000 7.2 270 16:28 20.07.2019
4908 Clouds 18 1008 63 10000 6.7 290 15:59 20.07.2019
4909 Clouds 18 1008 63 10000 6.7 290 15:41 20.07.2019
4910 Clouds 18 1008 59 10000 6.7 290 15:21 20.07.2019
4911 Clouds 17 1008 55 10000 8.2 300 14:49 20.07.2019
4912 Clouds 17 1007 67 10000 8.2 290 14:29 20.07.2019
4913 Clouds 17 1007 68 10000 8.2 280 13:57 20.07.2019
4914 Clouds 16 1006 67 10000 7.7 280 13:37 20.07.2019
4915 Clouds 16 1006 67 10000 7.7 280 13:19 20.07.2019
4916 Clouds 17 1006 72 10000 7.7 290 12:44 20.07.2019
4917 Clouds 17 1006 77 10000 7.7 300 12:18 20.07.2019
4918 Clouds 16 1005 82 10000 7.2 300 11:41 20.07.2019
4919 Clouds 16 1005 82 10000 7.7 290 11:20 20.07.2019
4920 Clouds 15 1004 87 10000 7.7 290 10:41 20.07.2019
4921 Clouds 15 1004 87 10000 6.7 300 10:22 20.07.2019
4922 Drizzle 14 1003 93 10000 6.2 320 09:46 20.07.2019
4923 Rain 14 1003 93 10000 7.2 320 09:24 20.07.2019
4924 Rain 15 1002 93 4000 6.2 320 08:49 20.07.2019
4925 Drizzle 15 1001 93 6000 5.1 310 08:22 20.07.2019
4926 Drizzle 14 1000 93 3500 5.1 280 07:34 20.07.2019
4927 Drizzle 14 999 100 2500 4.6 280 06:46 20.07.2019
4928 Clouds 14 998 100 10000 5.1 270 05:24 20.07.2019
4929 Drizzle 15 998 93 10000 3.1 260 04:31 20.07.2019
4930 Rain 16 998 82 10000 3.6 200 01:30 20.07.2019
4931 Rain 16 998 82 10000 3.6 200 01:30 20.07.2019
4932 Clouds 16 998 82 10000 3.6 200 00:50 20.07.2019
4933 Clouds 16 998 82 10000 4.1 190 00:28 20.07.2019
4934 Clouds 17 999 82 10000 3.1 170 23:56 19.07.2019
4935 Clouds 17 999 77 10000 4.1 180 23:37 19.07.2019
4936 Clouds 17 999 77 10000 4.1 180 23:18 19.07.2019
4937 Clouds 18 999 77 10000 6.2 200 22:40 19.07.2019
4938 Clouds 18 999 77 10000 6.2 210 22:20 19.07.2019
4939 Clouds 18 999 77 10000 5.7 210 21:43 19.07.2019
4940 Clouds 18 999 77 10000 5.7 210 21:43 19.07.2019
4941 Clouds 19 999 77 10000 5.7 210 21:24 19.07.2019
4942 Clouds 19 999 77 10000 5.7 220 20:44 19.07.2019
4943 Clouds 19 999 77 10000 6.2 210 20:25 19.07.2019
4944 Clouds 19 999 77 10000 6.2 220 19:40 19.07.2019
4945 Rain 19 999 88 10000 3.1 230 19:19 19.07.2019
4946 Rain 20 999 77 6000 3.6 160 18:41 19.07.2019
4947 Clouds 20 1000 68 10000 4.1 160 18:19 19.07.2019
4948 Clouds 20 1000 73 10000 3.6 170 17:47 19.07.2019
4949 Clouds 21 1000 73 10000 2.6 130 17:26 19.07.2019
4950 Rain 20 1001 77 10000 3.1 130 16:48 19.07.2019
4951 Rain 20 1001 77 10000 2.6 120 16:25 19.07.2019
4952 Clouds 20 1001 77 10000 2.1 90 15:49 19.07.2019
4953 Clouds 19 1002 82 10000 2.1 100 15:30 19.07.2019
4954 Rain 18 1002 88 10000 2.6 110 14:56 19.07.2019
4955 Rain 18 1002 88 10000 2.6 110 14:38 19.07.2019
4956 Rain 18 1002 82 10000 2.1 90 14:19 19.07.2019
4957 Rain 17 1002 93 10000 2.1 140 13:43 19.07.2019
4958 Rain 17 1002 93 10000 2.1 140 13:43 19.07.2019
4959 Rain 17 1003 93 7000 3.1 130 13:23 19.07.2019
4960 Rain 15 1003 93 4000 4.1 120 12:49 19.07.2019
4961 Drizzle 15 1003 93 4000 4.1 130 12:30 19.07.2019
4962 Drizzle 15 1004 93 4000 3.6 120 11:48 19.07.2019
4963 Drizzle 15 1004 93 3000 3.6 140 11:20 19.07.2019
4964 Drizzle 15 1004 93 10000 3.6 140 10:58 19.07.2019
4965 Drizzle 14 1005 100 10000 3.1 120 10:40 19.07.2019
4966 Rain 14 1005 100 10000 3.1 120 10:20 19.07.2019
4967 Rain 14 1005 93 10000 3.6 110 09:44 19.07.2019
4968 Drizzle 14 1005 93 10000 3.6 110 09:22 19.07.2019
4969 Rain 14 1005 93 9000 3.6 120 08:56 19.07.2019
4970 Rain 14 1005 93 9000 3.6 120 08:56 19.07.2019
4971 Rain 14 1005 93 9000 3.6 120 08:38 19.07.2019
4972 Rain 13 1006 93 10000 3.1 130 07:42 19.07.2019
4973 Rain 13 1006 93 10000 2.6 120 07:23 19.07.2019
4974 Rain 13 1007 82 10000 2.1 160 05:40 19.07.2019
4975 Clouds 14 1009 71 10000 2.1 240 01:59 19.07.2019
4976 Clouds 14 1009 76 10000 2.6 260 00:59 19.07.2019
4977 Clouds 15 1009 72 10000 3.6 240 00:25 19.07.2019
4978 Clouds 15 1009 67 10000 3.1 250 23:42 18.07.2019
4979 Clouds 15 1009 67 10000 3.6 240 23:23 18.07.2019
4980 Clouds 16 1009 67 10000 3.6 250 22:58 18.07.2019
4981 Clouds 16 1009 59 10000 3.6 260 22:39 18.07.2019
4982 Clouds 16 1009 59 10000 3.6 260 22:39 18.07.2019
4983 Clouds 16 1009 59 10000 3.6 260 22:18 18.07.2019
4984 Clouds 17 1008 52 10000 5.7 240 21:40 18.07.2019
4985 Clouds 18 1008 52 10000 5.7 240 21:20 18.07.2019
4986 Clouds 19 1008 52 10000 5.1 250 20:49 18.07.2019
4987 Clouds 19 1008 55 10000 4.6 240 20:27 18.07.2019
4988 Clouds 19 1008 52 10000 4.6 250 19:52 18.07.2019
4989 Clouds 19 1008 55 10000 3.6 240 19:30 18.07.2019
4990 Clouds 18 1008 59 10000 4.6 250 18:57 18.07.2019
4991 Clouds 18 1008 59 10000 6.7 270 18:37 18.07.2019
4992 Clouds 18 1008 59 10000 6.7 270 18:19 18.07.2019
4993 Clouds 19 1008 68 10000 3.1 260 17:42 18.07.2019
4994 Rain 19 1008 63 10000 7.2 270 17:23 18.07.2019
4995 Clouds 20 1008 55 10000 4.6 260 16:53 18.07.2019
4996 Clouds 20 1008 52 10000 5.1 260 16:29 18.07.2019
4997 Clouds 19 1008 56 10000 6.7 260 15:58 18.07.2019
4998 Clouds 19 1008 52 10000 5.7 250 15:37 18.07.2019
4999 Clouds 20 1008 52 10000 5.7 250 15:19 18.07.2019
5000 Clouds 18 1009 68 10000 5.7 260 14:42 18.07.2019
5001 Clouds 18 1009 68 10000 5.7 260 14:23 18.07.2019
5002 Clouds 18 1008 68 10000 6.7 270 13:43 18.07.2019
5003 Clouds 18 1008 63 10000 7.2 270 13:22 18.07.2019
5004 Clouds 17 1008 67 10000 5.1 260 12:48 18.07.2019
5005 Clouds 17 1008 67 10000 5.1 260 12:21 18.07.2019
5006 Clouds 16 1008 72 10000 5.7 270 11:52 18.07.2019
5007 Clouds 16 1008 82 10000 5.7 260 11:33 18.07.2019
5008 Clouds 16 1008 82 10000 5.7 260 11:33 18.07.2019
5009 Drizzle 16 1008 72 10000 5.1 250 10:53 18.07.2019
5010 Drizzle 15 1008 77 10000 4.6 250 10:35 18.07.2019
5011 Clouds 15 1008 77 10000 4.6 250 09:47 18.07.2019
5012 Clouds 14 1008 82 10000 4.6 250 09:24 18.07.2019
5013 Clouds 14 1008 82 10000 3.6 240 08:50 18.07.2019
5014 Clouds 14 1008 82 10000 4.6 240 08:20 18.07.2019
5015 Clouds 13 1008 87 10000 4.1 240 07:48 18.07.2019
5016 Clouds 13 1008 87 10000 4.1 250 07:27 18.07.2019
5017 Clouds 12 1008 93 10000 4.1 250 06:40 18.07.2019
5018 Clouds 13 1008 87 10000 4.6 250 05:36 18.07.2019
5019 Clouds 13 1008 87 10000 2.6 250 03:23 18.07.2019
5020 Clouds 13 1008 93 10000 1.5 0 01:52 18.07.2019
5021 Clouds 13 1008 87 10000 5.7 290 01:18 18.07.2019
5022 Rain 14 1008 93 10000 5.1 290 23:54 17.07.2019
5023 Rain 15 1008 87 10000 5.7 300 23:20 17.07.2019
5024 Clouds 15 1008 93 10000 3.6 300 22:56 17.07.2019
5025 Rain 15 1007 93 10000 4.6 290 22:38 17.07.2019
5026 Rain 16 1007 93 10000 4.6 290 22:19 17.07.2019
5027 Rain 16 1007 93 10000 6.7 290 21:45 17.07.2019
5028 Rain 16 1007 93 10000 8.2 280 21:26 17.07.2019
5029 Drizzle 18 1007 88 10000 3.6 230 20:58 17.07.2019
5030 Rain 18 1007 77 10000 5.1 220 20:39 17.07.2019
5031 Rain 18 1007 77 10000 5.1 210 20:21 17.07.2019
5032 Rain 19 1007 72 10000 7.7 210 19:44 17.07.2019
5033 Rain 19 1007 72 10000 7.7 210 19:23 17.07.2019
5034 Clouds 18 1007 77 10000 5.7 210 18:59 17.07.2019
5035 Clouds 18 1007 77 10000 6.7 210 18:40 17.07.2019
5036 Clouds 18 1007 77 10000 6.7 210 18:20 17.07.2019
5037 Clouds 18 1008 72 10000 5.7 200 17:50 17.07.2019
5038 Clouds 19 1008 72 10000 5.7 200 17:26 17.07.2019
5039 Clouds 18 1009 77 10000 6.7 210 16:55 17.07.2019
5040 Clouds 18 1009 77 10000 5.7 200 16:37 17.07.2019
5041 Clouds 18 1009 82 10000 4.6 200 16:18 17.07.2019
5042 Drizzle 17 1009 88 6000 4.6 200 15:44 17.07.2019
5043 Drizzle 17 1010 87 8000 4.6 200 15:25 17.07.2019
5044 Drizzle 17 1010 87 8000 4.6 200 14:54 17.07.2019
5045 Drizzle 16 1010 87 6000 6.7 200 14:36 17.07.2019
5046 Rain 16 1010 82 10000 4.1 190 14:18 17.07.2019
5047 Rain 16 1010 82 10000 3.6 150 13:40 17.07.2019
5048 Rain 16 1010 82 10000 3.6 150 13:20 17.07.2019
5049 Rain 16 1011 82 10000 4.6 200 12:40 17.07.2019
5050 Clouds 16 1011 87 10000 4.6 200 12:20 17.07.2019
5051 Rain 15 1012 82 10000 4.6 210 11:45 17.07.2019
5052 Rain 15 1012 82 10000 4.6 210 11:45 17.07.2019
5053 Rain 15 1012 82 10000 4.6 210 11:21 17.07.2019
5054 Rain 15 1012 87 10000 4.1 220 10:50 17.07.2019
5055 Rain 15 1012 87 10000 4.1 210 10:29 17.07.2019
5056 Rain 16 1012 77 10000 3.1 210 09:58 17.07.2019
5057 Clouds 15 1012 87 10000 2.1 210 09:39 17.07.2019
5058 Rain 15 1012 82 10000 3.6 210 09:20 17.07.2019
5059 Rain 15 1012 77 10000 3.6 210 08:41 17.07.2019
5060 Rain 15 1012 77 10000 3.6 210 08:21 17.07.2019
5061 Clouds 15 1013 82 10000 2.1 210 07:48 17.07.2019
5062 Clouds 14 1013 82 10000 2.1 210 07:23 17.07.2019
5063 Clouds 14 1013 82 10000 2.1 210 07:23 17.07.2019
5064 Clouds 14 1013 87 10000 2.1 190 06:49 17.07.2019
5065 Clouds 14 1013 87 10000 2.1 190 06:29 17.07.2019
5066 Clouds 14 1014 82 10000 1.5 0 05:47 17.07.2019
5067 Clouds 14 1014 82 10000 1.5 0 05:25 17.07.2019
5068 Clouds 14 1014 77 10000 1.5 0 04:32 17.07.2019
5069 Clouds 15 1015 82 10000 3.6 260 02:52 17.07.2019
5070 Clouds 16 1015 72 10000 2.6 250 01:59 17.07.2019
5071 Clouds 16 1015 72 10000 2.6 260 01:24 17.07.2019
5072 Clouds 17 1016 68 10000 3.6 240 00:44 17.07.2019
5073 Clouds 17 1016 68 10000 3.6 240 00:23 17.07.2019
5074 Clouds 17 1016 77 10000 2.6 220 23:55 16.07.2019
5075 Clouds 18 1016 77 10000 2.6 220 23:28 16.07.2019
5076 Clouds 18 1016 72 10000 2.6 220 22:58 16.07.2019
5077 Clouds 18 1016 68 10000 3.1 230 22:39 16.07.2019
5078 Clouds 19 1016 68 10000 2.6 240 22:19 16.07.2019
5079 Clouds 19 1016 68 10000 2.6 240 22:19 16.07.2019
5080 Clouds 19 1016 64 10000 3.6 220 21:43 16.07.2019
5081 Clouds 20 1016 64 10000 3.1 220 21:20 16.07.2019
5082 Clouds 20 1016 64 10000 3.1 220 20:56 16.07.2019
5083 Clouds 20 1016 60 10000 3.1 220 20:38 16.07.2019
5084 Clouds 20 1016 60 10000 3.1 220 20:19 16.07.2019
5085 Clouds 21 1016 64 10000 2.1 190 19:44 16.07.2019
5086 Clouds 21 1016 64 10000 2.1 190 19:26 16.07.2019
5087 Clouds 21 1017 56 10000 3.1 220 18:45 16.07.2019
5088 Clouds 21 1017 56 10000 3.1 190 18:21 16.07.2019
5089 Clouds 21 1017 56 10000 3.1 190 17:55 16.07.2019
5090 Clouds 21 1017 64 10000 2.1 140 17:36 16.07.2019
5091 Clouds 22 1017 64 10000 2.6 130 16:59 16.07.2019
5092 Clouds 21 1017 68 10000 3.1 150 16:38 16.07.2019
5093 Clouds 21 1018 68 10000 3.6 150 16:18 16.07.2019
5094 Rain 20 1018 68 10000 3.1 160 15:40 16.07.2019
5095 Rain 20 1018 68 10000 3.1 160 15:21 16.07.2019
5096 Clouds 20 1018 68 10000 1.5 0 14:57 16.07.2019
5097 Clouds 20 1018 68 10000 2.1 240 14:38 16.07.2019
5098 Clouds 20 1018 68 10000 2.1 240 14:19 16.07.2019
5099 Clouds 20 1018 68 10000 2.6 300 13:44 16.07.2019
5100 Clouds 20 1018 68 10000 2.6 300 13:20 16.07.2019
5101 Clouds 19 1019 82 10000 3.6 240 12:44 16.07.2019
5102 Clouds 19 1019 88 10000 3.6 250 12:20 16.07.2019
5103 Clouds 19 1019 88 10000 3.6 250 11:55 16.07.2019
5104 Clouds 18 1019 77 10000 3.6 240 11:37 16.07.2019
5105 Clouds 18 1019 77 10000 3.6 240 11:19 16.07.2019
5106 Clouds 19 1019 77 10000 2.1 230 10:45 16.07.2019
5107 Clouds 18 1019 77 10000 3.1 210 10:22 16.07.2019
5108 Clouds 18 1019 77 10000 1.5 0 09:44 16.07.2019
5109 Clouds 17 1019 77 10000 1.5 0 09:22 16.07.2019
5110 Clouds 16 1019 82 10000 1.5 0 08:58 16.07.2019
5111 Clouds 16 1019 82 10000 2.1 190 08:40 16.07.2019
5112 Clouds 16 1019 82 10000 1 0 08:18 16.07.2019
5113 Clouds 16 1019 82 10000 2.1 230 07:41 16.07.2019
5114 Clouds 15 1019 82 10000 2.1 230 07:22 16.07.2019
5115 Clouds 16 1019 82 10000 2.6 220 06:45 16.07.2019
5116 Clouds 15 1019 82 10000 2.6 230 05:59 16.07.2019
5117 Clouds 15 1019 82 10000 2.6 230 05:32 16.07.2019
5118 Clouds 15 1019 82 10000 2.6 250 04:54 16.07.2019
5119 Clouds 16 1019 77 10000 3.1 250 03:52 16.07.2019
5120 Clouds 16 1019 72 10000 3.6 240 02:55 16.07.2019
5121 Clouds 16 1019 63 10000 3.6 240 02:30 16.07.2019
5122 Clouds 17 1020 63 10000 2.1 250 01:41 16.07.2019
5123 Clouds 17 1020 67 10000 1.5 0 00:41 16.07.2019
5124 Clouds 17 1020 63 10000 2.6 220 00:19 16.07.2019
5125 Clouds 17 1020 63 10000 3.1 220 23:44 15.07.2019
5126 Clouds 17 1020 63 10000 3.1 220 23:25 15.07.2019
5127 Clouds 18 1019 63 10000 4.1 230 22:47 15.07.2019
5128 Clouds 18 1019 63 10000 4.1 230 22:22 15.07.2019
5129 Clouds 19 1019 56 10000 4.1 230 21:58 15.07.2019
5130 Clouds 19 1019 52 10000 5.1 220 21:39 15.07.2019
5131 Clouds 19 1019 52 10000 5.1 220 21:39 15.07.2019
5132 Clouds 20 1019 49 10000 5.1 210 21:19 15.07.2019
5133 Clouds 21 1019 49 10000 4.1 220 20:45 15.07.2019
5134 Clouds 21 1019 49 10000 3.1 240 20:24 15.07.2019
5135 Clouds 22 1019 49 10000 3.1 240 19:58 15.07.2019
5136 Clouds 22 1019 53 10000 3.1 230 19:39 15.07.2019
5137 Clouds 22 1019 56 10000 4.1 230 19:19 15.07.2019
5138 Clouds 22 1019 49 10000 2.6 150 18:46 15.07.2019
5139 Clouds 23 1019 49 10000 2.6 150 18:22 15.07.2019
5140 Clouds 23 1020 64 10000 2.6 140 17:58 15.07.2019
5141 Clouds 23 1020 60 10000 3.1 120 17:40 15.07.2019
5142 Clouds 23 1020 60 10000 4.1 110 17:22 15.07.2019
5143 Clouds 22 1020 60 10000 4.1 110 16:58 15.07.2019
5144 Clouds 22 1020 64 10000 3.6 120 16:37 15.07.2019
5145 Clouds 22 1020 60 10000 3.6 140 16:18 15.07.2019
5146 Clouds 22 1021 64 10000 4.1 140 15:41 15.07.2019
5147 Clouds 22 1021 64 10000 4.1 140 15:41 15.07.2019
5148 Clouds 22 1021 64 10000 4.1 140 15:23 15.07.2019
5149 Clouds 22 1021 60 10000 4.1 140 14:59 15.07.2019
5150 Clouds 22 1021 64 10000 4.1 150 14:38 15.07.2019
5151 Clouds 22 1021 64 10000 4.1 150 14:19 15.07.2019
5152 Clouds 21 1021 64 10000 3.1 130 13:47 15.07.2019
5153 Clouds 21 1021 64 10000 2.1 120 13:19 15.07.2019
5154 Clouds 20 1021 68 10000 2.1 230 12:47 15.07.2019
5155 Clouds 19 1021 72 10000 2.1 260 12:27 15.07.2019
5156 Clouds 19 1021 72 10000 2.1 260 11:57 15.07.2019
5157 Clouds 18 1021 72 10000 1 0 11:38 15.07.2019
5158 Clouds 18 1021 77 10000 1.5 0 11:18 15.07.2019
5159 Clouds 17 1021 82 9000 1 0 10:40 15.07.2019
5160 Clouds 16 1021 100 8000 1 0 10:22 15.07.2019
5161 Clouds 15 1021 100 8000 2.1 270 09:42 15.07.2019
5162 Clouds 13 1021 100 7000 2.1 260 09:20 15.07.2019
5163 Mist 12 1021 100 2500 2.1 260 08:45 15.07.2019
5164 Mist 12 1021 100 2500 2.1 260 08:24 15.07.2019
5165 Mist 11 1021 100 3000 1.5 0 07:52 15.07.2019
5166 Mist 10 1021 100 3000 1.5 0 07:30 15.07.2019
5167 Fog 10 1022 100 500 1.5 320 06:40 15.07.2019
5168 Fog 10 1022 100 500 1.5 320 06:20 15.07.2019
5169 Fog 10 1022 93 500 1.5 310 05:42 15.07.2019
5170 Fog 9 1022 100 900 1.5 330 04:45 15.07.2019
5171 Fog 9 1022 100 900 1.5 330 04:23 15.07.2019
5172 Clouds 10 1023 100 10000 1 310 03:23 15.07.2019
5173 Clouds 11 1023 93 10000 1.83 105.838 02:18 15.07.2019
5174 Clouds 11 1023 93 10000 1 0 01:34 15.07.2019
5175 Clouds 12 1023 93 10000 2.1 110 00:53 15.07.2019
5176 Clouds 12 1023 93 10000 2.6 90 00:28 15.07.2019
5177 Clouds 13 1023 87 10000 1.5 120 23:58 14.07.2019
5178 Clouds 13 1023 93 10000 2.6 100 23:40 14.07.2019
5179 Clouds 14 1023 93 10000 2.6 100 23:19 14.07.2019
5180 Clouds 14 1023 87 10000 3.6 90 22:57 14.07.2019
5181 Clouds 15 1024 87 10000 4.1 90 22:38 14.07.2019
5182 Clouds 15 1024 87 10000 4.1 90 22:19 14.07.2019
5183 Clouds 17 1024 82 10000 3.6 90 21:42 14.07.2019
5184 Clouds 17 1024 82 10000 3.6 90 21:19 14.07.2019
5185 Clouds 17 1024 77 10000 2.6 60 20:57 14.07.2019
5186 Clouds 17 1024 77 10000 3.1 60 20:38 14.07.2019
5187 Clouds 18 1024 77 10000 3.6 90 20:19 14.07.2019
5188 Clouds 18 1024 72 10000 3.6 90 19:45 14.07.2019
5189 Clouds 18 1024 72 10000 3.6 90 19:45 14.07.2019
5190 Clouds 18 1024 72 10000 3.6 90 19:27 14.07.2019
5191 Clouds 18 1024 77 10000 3.6 90 18:58 14.07.2019
5192 Clouds 18 1025 77 10000 4.1 90 18:39 14.07.2019
5193 Clouds 18 1024 72 10000 4.1 100 18:21 14.07.2019
5194 Clouds 18 1024 72 10000 4.1 100 18:21 14.07.2019
5195 Clouds 19 1024 72 10000 4.1 100 17:53 14.07.2019
5196 Clouds 19 1025 72 10000 4.6 70 17:22 14.07.2019
5197 Clouds 19 1025 72 10000 4.6 70 17:22 14.07.2019
5198 Clouds 19 1025 72 10000 4.6 70 16:52 14.07.2019
5199 Clouds 19 1025 72 10000 4.6 70 16:24 14.07.2019
5200 Clouds 18 1025 72 10000 4.6 60 15:56 14.07.2019
5201 Clouds 17 1025 77 10000 3.6 80 15:34 14.07.2019
5202 Clouds 17 1025 77 10000 4.1 60 14:55 14.07.2019
5203 Clouds 17 1025 77 10000 4.6 70 14:36 14.07.2019
5204 Clouds 18 1025 68 10000 5.1 70 14:18 14.07.2019
5205 Clouds 17 1025 72 10000 3.6 40 13:44 14.07.2019
5206 Clouds 17 1025 72 10000 4.1 60 13:21 14.07.2019
5207 Clouds 17 1025 72 10000 3.6 50 12:43 14.07.2019
5208 Clouds 17 1025 72 10000 3.6 50 12:22 14.07.2019
5209 Clouds 17 1025 77 10000 4.6 60 11:56 14.07.2019
5210 Clouds 16 1025 72 10000 3.1 30 11:37 14.07.2019
5211 Clouds 16 1025 77 10000 3.1 360 11:19 14.07.2019
5212 Clouds 15 1025 76 10000 3.6 340 10:42 14.07.2019
5213 Clouds 14 1025 76 10000 3.6 340 10:19 14.07.2019
5214 Clouds 14 1025 87 10000 3.6 330 09:44 14.07.2019
5215 Clouds 14 1025 87 10000 3.6 330 09:24 14.07.2019
5216 Clouds 12 1025 93 10000 2.6 290 08:44 14.07.2019
5217 Clouds 10 1025 100 10000 3.1 300 07:58 14.07.2019
5218 Clouds 9 1025 100 10000 2.1 310 07:39 14.07.2019
5219 Fog 9 1025 100 10000 3.1 290 06:57 14.07.2019
5220 Clouds 9 1026 93 10000 2.6 290 05:45 14.07.2019
5221 Clouds 11 1026 93 10000 3.1 330 03:48 14.07.2019
5222 Clouds 11 1026 93 10000 3.1 330 03:30 14.07.2019
5223 Clouds 11 1026 93 10000 4.1 340 02:41 14.07.2019
5224 Clouds 11 1026 93 10000 1.5 0 02:21 14.07.2019
5225 Clear 11 1026 100 10000 2.18 353.983 01:33 14.07.2019
5226 Clouds 12 1026 93 10000 2.18 353.983 00:57 14.07.2019
5227 Clouds 12 1026 87 10000 1 140 00:38 14.07.2019
5228 Clouds 12 1026 87 10000 2.6 70 00:19 14.07.2019
5229 Clouds 13 1026 87 10000 1.5 100 23:44 13.07.2019
5230 Clouds 14 1026 87 10000 1.5 100 23:25 13.07.2019
5231 Clouds 16 1026 72 10000 2.6 90 22:47 13.07.2019
5232 Clouds 17 1026 72 10000 2.6 90 22:26 13.07.2019
5233 Clouds 17 1026 63 10000 3.1 20 21:58 13.07.2019
5234 Clouds 18 1026 63 10000 3.6 40 21:39 13.07.2019
5235 Clouds 18 1026 67 10000 3.6 50 21:19 13.07.2019
5236 Clouds 18 1026 63 10000 4.6 350 20:41 13.07.2019
5237 Clouds 18 1026 63 10000 4.6 350 20:23 13.07.2019
5238 Clouds 18 1026 63 10000 5.1 330 19:43 13.07.2019
5239 Clouds 19 1026 63 10000 5.1 330 19:25 13.07.2019
5240 Clouds 19 1026 63 10000 6.7 320 18:42 13.07.2019
5241 Clouds 19 1026 59 10000 5.1 320 18:20 13.07.2019
5242 Clouds 20 1026 59 10000 5.1 340 17:38 13.07.2019
5243 Clouds 20 1026 59 10000 5.1 340 17:20 13.07.2019
5244 Clouds 19 1026 63 10000 4.6 350 16:46 13.07.2019
5245 Clouds 19 1026 63 10000 4.6 350 16:26 13.07.2019
5246 Clouds 18 1026 63 10000 4.6 330 15:59 13.07.2019
5247 Clouds 18 1026 63 10000 5.1 340 15:40 13.07.2019
5248 Clouds 18 1026 63 10000 5.1 340 15:20 13.07.2019
5249 Clouds 17 1026 63 10000 5.7 330 14:41 13.07.2019
5250 Clouds 17 1026 63 10000 5.7 330 14:21 13.07.2019
5251 Clouds 17 1026 63 10000 6.2 330 13:45 13.07.2019
5252 Clouds 17 1026 63 10000 6.2 330 13:24 13.07.2019
5253 Clouds 15 1026 72 10000 5.7 320 12:42 13.07.2019
5254 Clouds 15 1026 72 10000 5.7 320 12:23 13.07.2019
5255 Clouds 15 1026 76 10000 5.7 320 11:59 13.07.2019
5256 Clouds 15 1026 76 10000 5.7 320 11:38 13.07.2019
5257 Clouds 14 1026 76 10000 5.7 300 11:19 13.07.2019
5258 Clouds 14 1026 76 10000 5.1 320 10:42 13.07.2019
5259 Clouds 14 1026 76 10000 5.1 320 10:23 13.07.2019
5260 Clouds 14 1025 76 10000 5.1 310 09:50 13.07.2019
5261 Clouds 14 1025 76 10000 5.1 310 09:30 13.07.2019
5262 Clouds 13 1025 82 10000 5.1 290 08:57 13.07.2019
5263 Clouds 13 1025 82 10000 4.6 290 08:28 13.07.2019
5264 Clouds 13 1025 82 10000 5.1 290 07:55 13.07.2019
5265 Clouds 13 1025 82 10000 5.1 290 07:29 13.07.2019
5266 Clouds 13 1024 87 10000 4.1 290 06:32 13.07.2019
5267 Clouds 13 1024 87 10000 4.6 290 05:49 13.07.2019
5268 Clouds 13 1024 87 10000 4.6 280 04:41 13.07.2019
5269 Clouds 13 1024 87 10000 4.1 280 04:21 13.07.2019
5270 Clouds 14 1024 82 10000 4.1 300 03:42 13.07.2019
5271 Clouds 14 1024 76 10000 4.1 300 03:18 13.07.2019
5272 Clouds 14 1024 82 10000 4.6 300 01:53 13.07.2019
5273 Clouds 14 1024 76 10000 5.1 290 01:53 13.07.2019
5274 Clouds 14 1024 82 10000 4.6 290 01:21 13.07.2019
5275 Clouds 14 1024 82 10000 4.6 290 01:00 13.07.2019
5276 Clouds 15 1023 77 10000 4.6 290 00:21 13.07.2019
5277 Clouds 15 1023 77 10000 4.6 290 23:55 12.07.2019
5278 Clouds 15 1023 77 10000 4.1 300 23:34 12.07.2019
5279 Clouds 15 1022 72 10000 5.7 300 22:59 12.07.2019
5280 Clouds 15 1022 77 10000 6.7 300 22:41 12.07.2019
5281 Clouds 15 1022 77 10000 6.7 300 22:22 12.07.2019
5282 Clouds 16 1022 72 10000 5.7 300 21:42 12.07.2019
5283 Clouds 16 1022 72 10000 5.7 300 21:42 12.07.2019
5284 Clouds 16 1022 72 10000 5.7 300 21:21 12.07.2019
5285 Clouds 16 1022 72 10000 5.7 300 20:52 12.07.2019
5286 Clouds 17 1021 67 10000 7.7 300 20:23 12.07.2019
5287 Clouds 17 1021 77 10000 7.2 300 19:45 12.07.2019
5288 Clouds 17 1021 77 10000 7.2 300 19:26 12.07.2019
5289 Clouds 17 1021 72 10000 6.7 290 18:58 12.07.2019
5290 Rain 17 1020 72 10000 7.2 290 18:37 12.07.2019
5291 Drizzle 17 1020 82 10000 7.2 290 18:19 12.07.2019
5292 Rain 17 1020 72 10000 6.7 290 17:46 12.07.2019
5293 Rain 17 1020 72 10000 6.7 290 17:27 12.07.2019
5294 Clouds 17 1020 72 10000 6.2 280 16:40 12.07.2019
5295 Rain 17 1020 72 10000 7.2 280 16:20 12.07.2019
5296 Clouds 17 1019 72 10000 6.2 290 15:41 12.07.2019
5297 Clouds 17 1019 72 10000 6.2 290 15:21 12.07.2019
5298 Clouds 17 1020 77 10000 7.2 280 14:55 12.07.2019
5299 Clouds 17 1019 72 10000 7.7 290 14:37 12.07.2019
5300 Rain 17 1019 68 10000 8.2 300 14:19 12.07.2019
5301 Rain 17 1018 72 10000 9.3 290 13:38 12.07.2019
5302 Drizzle 16 1018 72 10000 7.2 300 12:57 12.07.2019
5303 Drizzle 16 1018 72 10000 7.2 300 12:57 12.07.2019
5304 Clouds 16 1018 72 10000 7.2 310 12:38 12.07.2019
5305 Clouds 16 1018 77 10000 6.7 300 12:19 12.07.2019
5306 Clouds 15 1018 77 10000 7.2 300 11:44 12.07.2019
5307 Clouds 15 1018 77 10000 7.2 300 11:20 12.07.2019
5308 Clouds 15 1018 82 10000 7.7 310 10:44 12.07.2019
5309 Clouds 15 1018 82 10000 7.7 310 10:24 12.07.2019
5310 Clouds 14 1017 87 10000 7.7 300 09:54 12.07.2019
5311 Clouds 14 1017 87 10000 7.7 300 09:30 12.07.2019
5312 Clouds 14 1017 87 10000 6.2 290 08:58 12.07.2019
5313 Clouds 14 1017 87 10000 6.7 280 08:39 12.07.2019
5314 Clouds 14 1016 87 10000 6.2 290 08:18 12.07.2019
5315 Clouds 14 1016 87 10000 8.2 290 07:40 12.07.2019
5316 Clouds 14 1015 87 10000 6.2 290 07:22 12.07.2019
5317 Clouds 14 1015 87 10000 6.2 290 06:29 12.07.2019
5318 Drizzle 14 1015 93 10000 5.7 280 05:46 12.07.2019
5319 Clouds 14 1014 93 10000 5.7 280 03:22 12.07.2019
5320 Clouds 15 1013 87 10000 6.2 290 01:41 12.07.2019
5321 Clouds 16 1013 87 10000 5.1 270 00:58 12.07.2019
5322 Clouds 16 1013 82 10000 5.7 270 00:20 12.07.2019
5323 Clouds 16 1013 82 10000 5.7 270 00:20 12.07.2019
5324 Clouds 16 1013 77 10000 5.7 270 23:49 11.07.2019
5325 Clouds 16 1013 77 10000 5.7 270 23:26 11.07.2019
5326 Clouds 17 1012 77 10000 5.1 280 22:55 11.07.2019
5327 Clouds 18 1012 72 10000 6.2 290 22:37 11.07.2019
5328 Clouds 18 1012 72 10000 5.1 280 22:19 11.07.2019
5329 Clouds 18 1011 68 10000 7.7 290 21:40 11.07.2019
5330 Clouds 19 1011 64 10000 6.2 280 21:18 11.07.2019
5331 Clouds 20 1011 60 10000 7.2 280 20:43 11.07.2019
5332 Clouds 20 1011 60 10000 7.2 280 20:24 11.07.2019
5333 Clouds 20 1011 60 10000 7.2 280 20:24 11.07.2019
5334 Clouds 20 1011 56 10000 7.2 280 19:59 11.07.2019
5335 Clouds 20 1011 52 10000 5.7 270 19:40 11.07.2019
5336 Clouds 21 1011 52 10000 5.7 270 19:22 11.07.2019
5337 Clouds 20 1011 64 10000 5.7 280 18:43 11.07.2019
5338 Clouds 21 1011 68 10000 5.1 290 18:25 11.07.2019
5339 Clouds 21 1011 64 10000 5.7 280 17:53 11.07.2019
5340 Clouds 21 1011 64 10000 5.7 280 17:31 11.07.2019
5341 Clouds 21 1011 60 10000 6.2 280 16:58 11.07.2019
5342 Clouds 21 1011 64 10000 5.7 280 16:40 11.07.2019
5343 Clouds 21 1011 68 10000 6.2 290 16:19 11.07.2019
5344 Clouds 21 1011 68 10000 6.2 290 16:19 11.07.2019
5345 Clouds 21 1011 68 10000 6.7 290 15:43 11.07.2019
5346 Clouds 20 1011 68 10000 6.7 290 15:24 11.07.2019
5347 Clouds 20 1011 68 10000 4.6 260 14:46 11.07.2019
5348 Clouds 20 1011 68 10000 4.6 260 14:26 11.07.2019
5349 Clouds 19 1011 72 10000 6.2 270 13:59 11.07.2019
5350 Clouds 19 1011 72 10000 6.2 270 13:59 11.07.2019
5351 Clouds 19 1011 72 10000 6.2 280 13:41 11.07.2019
5352 Clouds 19 1011 72 10000 6.2 280 13:23 11.07.2019
5353 Clouds 18 1011 77 10000 6.7 270 12:38 11.07.2019
5354 Clouds 18 1011 82 10000 5.7 270 12:19 11.07.2019
5355 Rain 17 1011 82 10000 6.7 270 11:45 11.07.2019
5356 Rain 17 1011 82 10000 6.7 270 11:27 11.07.2019
5357 Rain 16 1011 88 10000 6.7 270 10:52 11.07.2019
5358 Drizzle 17 1010 93 3500 5.1 270 10:20 11.07.2019
5359 Rain 17 1010 88 2000 3.6 240 10:20 11.07.2019
5360 Drizzle 17 1010 93 3500 5.1 270 10:20 11.07.2019
5361 Rain 17 1010 88 2000 3.6 240 09:56 11.07.2019
5362 Drizzle 17 1010 88 10000 3.6 230 09:36 11.07.2019
5363 Drizzle 17 1010 88 10000 3.6 230 09:36 11.07.2019
5364 Clouds 17 1010 88 10000 3.6 230 09:18 11.07.2019
5365 Clouds 16 1010 93 10000 3.1 240 08:42 11.07.2019
5366 Clouds 16 1010 87 10000 3.6 230 08:20 11.07.2019
5367 Clouds 16 1010 93 10000 3.6 230 07:45 11.07.2019
5368 Clouds 15 1010 93 10000 3.6 230 07:25 11.07.2019
5369 Clouds 16 1010 93 10000 4.1 220 06:21 11.07.2019
5370 Clouds 16 1011 87 10000 3.1 220 05:33 11.07.2019
5371 Clouds 16 1011 87 10000 2.6 210 04:57 11.07.2019
5372 Clouds 15 1012 93 10000 2.6 200 03:58 11.07.2019
5373 Clouds 15 1012 93 10000 2.6 200 02:31 11.07.2019
5374 Clouds 16 1013 93 10000 2.1 210 00:42 11.07.2019
5375 Clouds 16 1013 88 10000 2.1 220 23:51 10.07.2019
5376 Clouds 16 1013 88 10000 2.1 220 23:28 10.07.2019
5377 Clouds 17 1013 93 10000 2.6 220 22:58 10.07.2019
5378 Clouds 17 1013 93 10000 2.1 240 22:26 10.07.2019
5379 Rain 17 1014 93 10000 3.1 230 21:57 10.07.2019
5380 Rain 17 1014 93 10000 3.1 210 21:39 10.07.2019
5381 Rain 17 1014 93 10000 2.1 240 21:21 10.07.2019
5382 Rain 17 1014 93 10000 2.1 240 20:47 10.07.2019
5383 Rain 17 1014 93 10000 2.1 240 20:26 10.07.2019
5384 Rain 17 1014 93 6000 3.6 260 19:58 10.07.2019
5385 Rain 17 1014 82 7000 2.1 210 19:40 10.07.2019
5386 Rain 18 1014 82 7000 2.1 210 19:20 10.07.2019
5387 Rain 19 1014 72 10000 3.6 150 18:46 10.07.2019
5388 Rain 19 1014 72 10000 3.6 150 18:24 10.07.2019
5389 Rain 19 1015 77 10000 4.1 150 17:49 10.07.2019
5390 Rain 19 1015 77 10000 4.1 150 17:30 10.07.2019
5391 Rain 20 1015 77 10000 3.1 220 16:48 10.07.2019
5392 Rain 20 1015 77 10000 3.1 220 16:21 10.07.2019
5393 Rain 19 1016 77 10000 3.1 260 16:21 10.07.2019
5394 Clouds 20 1016 72 10000 3.1 260 15:47 10.07.2019
5395 Clouds 20 1016 72 10000 3.1 260 15:47 10.07.2019
5396 Clouds 20 1016 72 10000 3.1 260 15:26 10.07.2019
5397 Clouds 19 1016 82 10000 3.1 240 14:55 10.07.2019
5398 Clouds 20 1016 88 10000 3.1 230 14:37 10.07.2019
5399 Drizzle 19 1016 93 6000 3.6 230 14:18 10.07.2019
5400 Rain 18 1016 82 10000 3.6 220 13:36 10.07.2019
5401 Rain 18 1017 82 10000 3.1 230 13:18 10.07.2019
5402 Rain 17 1017 77 10000 3.6 250 12:41 10.07.2019
5403 Rain 17 1017 77 10000 3.6 250 12:21 10.07.2019
5404 Clouds 18 1017 68 10000 3.1 240 11:49 10.07.2019
5405 Clouds 18 1017 68 10000 3.1 240 11:22 10.07.2019
5406 Clouds 18 1017 68 10000 4.1 230 10:58 10.07.2019
5407 Clouds 18 1017 68 10000 4.1 230 10:58 10.07.2019
5408 Clouds 18 1017 68 10000 4.6 230 10:24 10.07.2019
5409 Clouds 17 1017 68 10000 4.6 240 09:57 10.07.2019
5410 Clouds 17 1017 72 10000 5.1 250 09:38 10.07.2019
5411 Clouds 17 1017 72 10000 3.6 240 09:19 10.07.2019
5412 Clouds 16 1017 77 10000 1.5 0 08:48 10.07.2019
5413 Clouds 16 1017 77 10000 1.5 0 08:24 10.07.2019
5414 Clouds 15 1017 77 10000 2.1 190 07:51 10.07.2019
5415 Clouds 15 1017 82 10000 2.6 230 07:23 10.07.2019
5416 Clouds 15 1017 82 10000 2.1 250 06:39 10.07.2019
5417 Clouds 15 1018 82 10000 2.1 230 05:40 10.07.2019
5418 Clouds 14 1018 87 10000 4.1 270 04:31 10.07.2019
5419 Clouds 16 1019 87 10000 2.1 300 02:18 10.07.2019
5420 Clouds 16 1019 87 10000 3.1 300 00:44 10.07.2019
5421 Clouds 17 1019 87 10000 3.1 300 23:42 09.07.2019
5422 Clouds 17 1019 82 10000 2.1 300 23:23 09.07.2019
5423 Clouds 18 1019 82 10000 2.1 300 22:57 09.07.2019
5424 Clouds 19 1019 72 10000 3.6 300 22:37 09.07.2019
5425 Clouds 19 1019 72 10000 3.6 300 22:19 09.07.2019
5426 Clouds 20 1019 64 10000 4.6 290 21:45 09.07.2019
5427 Clouds 21 1019 64 10000 4.6 290 21:25 09.07.2019
5428 Clouds 21 1019 64 10000 6.2 290 20:45 09.07.2019
5429 Clouds 22 1019 64 10000 6.2 290 20:26 09.07.2019
5430 Clouds 22 1019 60 10000 2.1 100 19:45 09.07.2019
5431 Clouds 22 1019 60 10000 2.1 100 19:26 09.07.2019
5432 Clouds 22 1019 68 10000 2.6 100 18:58 09.07.2019
5433 Clouds 22 1019 68 10000 2.6 110 18:36 09.07.2019
5434 Clouds 22 1019 64 10000 3.6 100 18:18 09.07.2019
5435 Clouds 22 1020 68 10000 3.1 130 17:42 09.07.2019
5436 Clouds 22 1020 64 10000 3.6 140 17:21 09.07.2019
5437 Clouds 22 1019 68 10000 3.6 150 16:51 09.07.2019
5438 Clouds 22 1019 68 10000 3.6 150 16:26 09.07.2019
5439 Clouds 22 1020 64 10000 3.6 130 15:57 09.07.2019
5440 Clouds 22 1020 64 10000 3.1 150 15:36 09.07.2019
5441 Clouds 21 1020 64 10000 3.1 260 14:59 09.07.2019
5442 Clouds 21 1020 68 10000 2.6 240 14:40 09.07.2019
5443 Clouds 21 1020 68 10000 2.6 240 14:21 09.07.2019
5444 Clouds 20 1020 68 10000 3.1 220 13:46 09.07.2019
5445 Clouds 20 1020 68 10000 3.1 220 13:28 09.07.2019
5446 Clouds 20 1020 68 10000 3.1 230 12:57 09.07.2019
5447 Clouds 19 1020 72 10000 2.6 240 12:37 09.07.2019
5448 Clouds 19 1020 72 10000 3.1 250 12:18 09.07.2019
5449 Clouds 18 1021 77 10000 3.6 280 11:41 09.07.2019
5450 Clouds 18 1021 77 10000 3.6 280 11:22 09.07.2019
5451 Clouds 17 1021 77 10000 4.1 280 10:58 09.07.2019
5452 Clouds 17 1021 77 10000 4.1 280 10:58 09.07.2019
5453 Clouds 16 1020 77 10000 3.1 260 10:34 09.07.2019
5454 Clouds 16 1021 82 10000 3.1 270 09:56 09.07.2019
5455 Clouds 16 1021 87 10000 3.1 260 09:37 09.07.2019
5456 Clouds 15 1020 87 10000 2.6 250 09:18 09.07.2019
5457 Clouds 15 1020 93 10000 2.6 250 08:41 09.07.2019
5458 Clouds 10 1023 93 10000 4.1 280 04:18 05.07.2019
5459 Clouds 11 1023 93 10000 4.1 280 03:39 05.07.2019
5460 Clouds 11 1023 93 10000 3.1 280 03:19 05.07.2019
5461 Clouds 11 1023 93 10000 3.1 290 02:49 05.07.2019
5462 Clouds 12 1023 93 10000 3.1 300 01:52 05.07.2019
5463 Clouds 13 1023 87 10000 3.1 300 01:28 05.07.2019
5464 Clouds 13 1023 87 10000 3.1 320 00:51 05.07.2019
5465 Clouds 15 1023 82 10000 3.6 310 00:29 05.07.2019
5466 Clouds 15 1023 77 10000 2.6 330 23:38 04.07.2019
5467 Clouds 16 1023 67 10000 3.6 300 23:18 04.07.2019
5468 Clouds 17 1023 67 10000 4.1 300 22:41 04.07.2019
5469 Clouds 17 1023 67 10000 4.1 300 22:20 04.07.2019
5470 Clouds 18 1023 59 10000 4.1 300 21:44 04.07.2019
5471 Clouds 19 1023 59 10000 4.1 300 21:25 04.07.2019
5472 Clouds 19 1023 63 10000 5.7 310 20:58 04.07.2019
5473 Clouds 19 1023 59 10000 6.2 300 20:37 04.07.2019
5474 Clouds 20 1023 56 10000 6.2 290 20:19 04.07.2019
5475 Clouds 20 1023 60 10000 6.7 310 19:41 04.07.2019
5476 Clouds 21 1023 56 10000 6.7 300 19:21 04.07.2019
5477 Clouds 21 1024 56 10000 5.7 290 18:47 04.07.2019
5478 Clouds 21 1024 56 10000 5.7 290 18:28 04.07.2019
5479 Clouds 22 1024 52 10000 6.2 290 17:58 04.07.2019
5480 Clouds 22 1024 52 10000 5.7 290 17:40 04.07.2019
5481 Clouds 22 1024 53 10000 4.1 260 17:18 04.07.2019
5482 Clouds 22 1025 56 10000 4.6 270 15:45 04.07.2019
5483 Clouds 22 1025 56 10000 4.6 270 15:25 04.07.2019
5484 Clouds 21 1025 60 10000 3.1 220 14:59 04.07.2019
5485 Clouds 21 1025 60 10000 3.1 220 14:59 04.07.2019
5486 Clouds 20 1025 64 10000 3.6 260 14:39 04.07.2019
5487 Clouds 20 1025 60 10000 3.6 240 14:19 04.07.2019
5488 Clouds 20 1025 60 10000 3.6 240 13:57 04.07.2019
5489 Clouds 20 1025 60 10000 3.6 240 13:56 04.07.2019
5490 Clouds 20 1026 59 10000 3.6 250 13:38 04.07.2019
5491 Clouds 19 1026 63 10000 3.1 240 13:19 04.07.2019
5492 Clouds 19 1026 63 10000 3.1 240 12:38 04.07.2019
5493 Clouds 18 1026 63 10000 3.1 240 12:19 04.07.2019
5494 Clouds 18 1027 67 10000 3.6 270 11:45 04.07.2019
5495 Clouds 17 1027 72 10000 2.6 220 11:20 04.07.2019
5496 Clouds 17 1027 67 10000 3.6 270 11:20 04.07.2019
5497 Clouds 16 1027 72 10000 1.5 0 10:46 04.07.2019
5498 Clouds 16 1027 72 10000 2.1 200 10:27 04.07.2019
5499 Clouds 15 1027 72 10000 2.1 200 09:57 04.07.2019
5500 Clouds 15 1027 76 10000 1.5 0 09:38 04.07.2019
5501 Clear 14 1027 87 10000 1.5 0 09:19 04.07.2019
5502 Clear 12 1028 100 10000 0.5 0 08:44 04.07.2019
5503 Clear 11 1028 100 10000 1.34 226.396 08:18 04.07.2019
5504 Clear 9 1028 100 10000 1.34 226.396 07:39 04.07.2019
5505 Clear 8 1028 93 10000 1.34 226.396 07:18 04.07.2019
5506 Clear 8 1028 100 10000 0.39 137.399 06:30 04.07.2019
5507 Clouds 8 1028 100 10000 0.5 360 05:41 04.07.2019
5508 Clouds 9 1029 93 10000 0.39 137.399 04:18 04.07.2019
5509 Clouds 9 1029 93 10000 2.1 80 02:23 04.07.2019
5510 Clouds 10 1029 87 10000 3.1 60 01:26 04.07.2019
5511 Clouds 11 1029 81 10000 2.1 90 00:41 04.07.2019
5512 Clouds 12 1029 76 10000 2.1 100 23:52 03.07.2019
5513 Clouds 13 1029 67 10000 3.6 80 23:21 03.07.2019
5514 Clouds 14 1029 67 10000 3.6 80 22:56 03.07.2019
5515 Clouds 14 1029 67 10000 3.6 80 22:56 03.07.2019
5516 Clouds 14 1029 67 10000 2.6 100 22:38 03.07.2019
5517 Clouds 15 1029 62 10000 3.6 80 22:19 03.07.2019
5518 Clouds 15 1029 62 10000 3.6 80 21:54 03.07.2019
5519 Clouds 16 1029 62 10000 3.6 80 21:35 03.07.2019
5520 Clouds 16 1029 63 10000 4.1 80 20:48 03.07.2019
5521 Clouds 16 1029 63 10000 4.1 80 20:29 03.07.2019
5522 Clouds 16 1029 63 10000 4.6 80 19:59 03.07.2019
5523 Clouds 17 1030 63 10000 4.1 80 19:40 03.07.2019
5524 Clouds 17 1029 63 10000 4.6 70 18:58 03.07.2019
5525 Clouds 18 1030 55 10000 4.1 90 18:39 03.07.2019
5526 Clouds 18 1030 55 10000 4.1 90 18:20 03.07.2019
5527 Clouds 18 1030 59 10000 3.6 90 17:49 03.07.2019
5528 Clouds 18 1030 59 10000 3.6 90 17:19 03.07.2019
5529 Clouds 17 1030 59 10000 3.1 80 16:45 03.07.2019
5530 Clouds 17 1030 59 10000 3.1 80 16:45 03.07.2019
5531 Clouds 17 1030 55 10000 3.1 80 16:24 03.07.2019
5532 Clouds 17 1030 55 10000 3.1 80 15:54 03.07.2019
5533 Clouds 17 1030 59 10000 4.1 80 15:36 03.07.2019
5534 Clouds 16 1030 59 10000 4.6 90 15:18 03.07.2019
5535 Clouds 17 1030 55 10000 3.6 80 14:42 03.07.2019
5536 Clouds 17 1030 51 10000 3.1 60 14:20 03.07.2019
5537 Clouds 17 1030 59 10000 4.1 50 13:43 03.07.2019
5538 Clouds 16 1030 59 10000 4.1 50 13:24 03.07.2019
5539 Clouds 16 1030 59 10000 4.1 50 13:24 03.07.2019
5540 Clouds 16 1030 55 10000 4.1 50 12:46 03.07.2019
5541 Clouds 16 1030 59 10000 4.6 50 12:18 03.07.2019
5542 Clouds 15 1030 62 10000 3.1 20 11:43 03.07.2019
5543 Clouds 15 1030 62 10000 3.1 20 11:23 03.07.2019
5544 Clouds 15 1030 71 10000 3.1 30 10:57 03.07.2019
5545 Clouds 14 1030 71 10000 3.1 20 10:36 03.07.2019
5546 Clouds 14 1030 71 10000 4.6 10 10:18 03.07.2019
5547 Clouds 13 1030 81 10000 3.1 360 09:39 03.07.2019
5548 Clouds 12 1030 87 10000 3.1 360 09:20 03.07.2019
5549 Clouds 12 1030 87 10000 3.1 360 08:50 03.07.2019
5550 Clouds 10 1030 93 10000 2.1 320 08:26 03.07.2019
5551 Clouds 7 1030 100 10000 2.6 360 07:40 03.07.2019
5552 Clouds 7 1030 100 10000 2.6 360 07:20 03.07.2019
5553 Clouds 7 1030 100 10000 2.6 350 06:25 03.07.2019
5554 Clouds 7 1029 93 10000 2.1 350 05:32 03.07.2019
5555 Clouds 7 1029 100 10000 1.5 340 04:34 03.07.2019
5556 Clouds 8 1029 93 10000 1 0 03:23 03.07.2019
5557 Clouds 9 1029 93 10000 1.5 0 01:46 03.07.2019
5558 Clouds 10 1029 87 10000 1.5 110 01:21 03.07.2019
5559 Clouds 10 1029 87 10000 1.5 110 01:21 03.07.2019
5560 Clouds 10 1029 87 10000 1.5 110 01:21 03.07.2019
5561 Clouds 10 1029 87 10000 2.6 100 00:42 03.07.2019
5562 Clouds 11 1029 81 10000 3.1 90 23:59 02.07.2019
5563 Clouds 12 1029 81 10000 3.1 90 23:37 02.07.2019
5564 Clouds 13 1028 81 10000 2.6 100 23:19 02.07.2019
5565 Clouds 13 1028 81 10000 2.6 100 22:55 02.07.2019
5566 Clouds 14 1028 76 10000 2.6 110 22:37 02.07.2019
5567 Clouds 15 1028 72 10000 1.5 0 22:18 02.07.2019
5568 Clouds 15 1028 67 10000 2.6 100 21:42 02.07.2019
5569 Clouds 16 1028 67 10000 2.6 100 21:21 02.07.2019
5570 Clouds 16 1028 67 10000 2.6 100 20:57 02.07.2019
5571 Clouds 16 1028 67 10000 1.5 0 20:39 02.07.2019
5572 Clouds 16 1028 67 10000 2.1 130 20:20 02.07.2019
5573 Clouds 16 1028 67 10000 2.1 130 19:42 02.07.2019
5574 Clouds 16 1028 67 10000 3.1 110 19:23 02.07.2019
5575 Clouds 16 1028 67 10000 3.1 110 18:48 02.07.2019
5576 Clouds 17 1028 59 10000 2.1 10 18:19 02.07.2019
5577 Clouds 16 1028 63 10000 2.6 90 17:44 02.07.2019
5578 Clouds 16 1028 63 10000 3.1 340 17:23 02.07.2019
5579 Clouds 16 1028 59 10000 2.1 340 16:53 02.07.2019
5580 Clouds 16 1028 59 10000 2.1 340 16:34 02.07.2019
5581 Clouds 16 1028 72 10000 2.6 340 15:47 02.07.2019
5582 Clouds 15 1028 67 10000 2.6 360 15:27 02.07.2019
5583 Clouds 15 1028 67 10000 2.6 360 14:57 02.07.2019
5584 Clouds 16 1028 67 10000 3.1 320 14:39 02.07.2019
5585 Clouds 15 1028 67 10000 3.6 340 14:20 02.07.2019
5586 Clouds 15 1028 67 10000 4.6 330 13:40 02.07.2019
5587 Clouds 16 1028 63 10000 5.1 320 13:18 02.07.2019
5588 Clouds 15 1028 62 10000 5.7 320 12:44 02.07.2019
5589 Clouds 15 1028 67 10000 5.7 330 12:22 02.07.2019
5590 Clouds 15 1028 67 10000 5.1 320 11:44 02.07.2019
5591 Clouds 15 1028 67 10000 5.1 320 11:23 02.07.2019
5592 Clouds 15 1028 67 10000 5.1 320 10:54 02.07.2019
5593 Clouds 15 1028 71 10000 5.7 320 10:26 02.07.2019
5594 Clouds 14 1027 76 10000 5.1 300 09:51 02.07.2019
5595 Clouds 13 1028 87 10000 4.6 290 09:22 02.07.2019
5596 Clouds 13 1028 87 10000 4.6 290 08:56 02.07.2019
5597 Clouds 12 1027 87 10000 5.1 300 08:36 02.07.2019
5598 Clouds 12 1027 81 10000 3.1 260 07:58 02.07.2019
5599 Clouds 12 1027 81 10000 3.1 260 07:21 02.07.2019
5600 Clouds 12 1027 81 10000 3.1 260 07:21 02.07.2019
5601 Clouds 12 1027 81 10000 2.6 260 06:55 02.07.2019
5602 Clouds 12 1027 81 10000 2.6 260 06:36 02.07.2019
5603 Clear 12 1027 87 10000 3.6 270 05:19 02.07.2019
5604 Clear 10 1027 87 10000 3.1 290 02:30 02.07.2019
5605 Clouds 12 1026 81 10000 3.6 320 00:24 02.07.2019
5606 Clouds 13 1026 81 10000 2.6 310 23:26 01.07.2019
5607 Clouds 15 1025 67 10000 3.1 300 22:52 01.07.2019
5608 Clouds 15 1025 67 10000 3.1 300 22:28 01.07.2019
5609 Clouds 16 1025 63 10000 4.6 320 21:55 01.07.2019
5610 Clouds 16 1025 63 10000 4.6 320 21:36 01.07.2019
5611 Clouds 16 1025 63 10000 5.1 310 21:18 01.07.2019
5612 Clouds 17 1025 59 10000 6.2 320 20:42 01.07.2019
5613 Clouds 17 1024 59 10000 5.7 330 20:20 01.07.2019
5614 Clouds 18 1024 59 10000 5.7 330 19:43 01.07.2019
5615 Clouds 18 1024 59 10000 6.7 320 19:24 01.07.2019
5616 Clouds 18 1024 59 10000 6.7 320 18:56 01.07.2019
5617 Clouds 18 1024 59 10000 6.7 340 18:37 01.07.2019
5618 Clouds 18 1024 59 10000 6.7 340 18:37 01.07.2019
5619 Clouds 18 1023 59 10000 6.2 320 18:19 01.07.2019
5620 Clouds 18 1023 55 10000 6.2 320 17:42 01.07.2019
5621 Clouds 17 1023 55 10000 6.2 320 17:23 01.07.2019
5622 Clouds 18 1023 55 10000 6.7 320 16:48 01.07.2019
5623 Clouds 17 1023 59 10000 6.7 310 16:27 01.07.2019
5624 Clouds 18 1023 59 10000 6.7 320 15:57 01.07.2019
5625 Clouds 18 1022 59 10000 8.2 290 15:38 01.07.2019
5626 Clouds 18 1022 59 10000 8.2 290 15:20 01.07.2019
5627 Clouds 16 1022 67 10000 7.7 300 14:43 01.07.2019
5628 Clouds 16 1022 67 10000 7.2 300 14:20 01.07.2019
5629 Rain 16 1022 72 10000 8.2 290 13:44 01.07.2019
5630 Clouds 15 1021 72 10000 7.7 290 13:23 01.07.2019
5631 Clouds 16 1021 72 10000 7.7 290 12:55 01.07.2019
5632 Clouds 15 1021 76 10000 7.2 300 12:36 01.07.2019
5633 Clouds 15 1021 76 10000 7.2 300 12:18 01.07.2019
5634 Drizzle 15 1020 76 10000 7.7 290 11:43 01.07.2019
5635 Clouds 15 1020 82 10000 8.7 290 11:20 01.07.2019
5636 Clouds 14 1019 87 10000 8.2 280 10:47 01.07.2019
5637 Drizzle 13 1019 87 10000 7.2 270 10:23 01.07.2019
5638 Clouds 14 1019 82 10000 6.2 270 09:46 01.07.2019
5639 Clouds 14 1018 87 10000 6.7 260 09:27 01.07.2019
5640 Clouds 13 1018 82 10000 4.6 260 08:59 01.07.2019
5641 Clouds 13 1018 82 10000 4.6 260 08:37 01.07.2019
5642 Clouds 13 1017 82 10000 6.2 260 07:39 01.07.2019
5643 Clouds 12 1017 87 10000 5.7 260 06:52 01.07.2019
5644 Clouds 12 1016 87 10000 4.6 250 05:39 01.07.2019
5645 Clouds 13 1016 82 10000 5.7 250 01:28 01.07.2019
5646 Clouds 13 1015 76 10000 6.2 250 00:46 01.07.2019
5647 Clouds 13 1015 76 10000 6.2 250 00:24 01.07.2019
5648 Clouds 14 1015 71 10000 5.1 250 23:39 30.06.2019
5649 Clouds 14 1015 71 10000 5.1 250 23:19 30.06.2019
5650 Rain 15 1014 62 10000 5.1 260 22:43 30.06.2019
5651 Rain 15 1014 62 10000 5.1 260 22:20 30.06.2019
5652 Clouds 15 1014 58 10000 8.2 270 21:41 30.06.2019
5653 Clouds 15 1014 59 10000 8.7 260 21:19 30.06.2019
5654 Clouds 16 1014 59 10000 6.7 250 20:55 30.06.2019
5655 Clouds 16 1014 59 10000 8.7 270 20:36 30.06.2019
5656 Clouds 16 1014 59 10000 8.7 270 20:18 30.06.2019
5657 Clouds 16 1014 59 10000 8.7 270 20:18 30.06.2019
5658 Clouds 17 1014 59 10000 6.7 250 19:43 30.06.2019
5659 Clouds 17 1013 67 10000 5.7 250 19:24 30.06.2019
5660 Clouds 18 1013 68 10000 10.3 280 18:26 30.06.2019
5661 Clouds 18 1013 68 10000 5.1 250 17:57 30.06.2019
5662 Rain 18 1013 68 10000 7.2 260 17:38 30.06.2019
5663 Clouds 19 1013 63 10000 8.2 260 17:18 30.06.2019
5664 Clouds 18 1013 63 10000 8.2 260 16:45 30.06.2019
5665 Rain 19 1013 60 10000 7.7 260 16:25 30.06.2019
5666 Rain 18 1013 68 10000 5.1 230 15:37 30.06.2019
5667 Rain 18 1013 68 10000 5.1 230 15:18 30.06.2019
5668 Rain 18 1013 77 10000 5.1 240 14:50 30.06.2019
5669 Rain 17 1013 93 8000 6.2 250 14:30 30.06.2019
5670 Rain 18 1013 72 7000 6.7 250 13:48 30.06.2019
5671 Rain 18 1013 72 10000 6.2 240 13:29 30.06.2019
5672 Rain 18 1013 72 9000 6.7 240 12:52 30.06.2019
5673 Clouds 18 1012 63 10000 6.2 240 12:28 30.06.2019
5674 Clouds 17 1012 63 10000 6.7 250 11:58 30.06.2019
5675 Clouds 17 1012 63 10000 6.7 250 11:38 30.06.2019
5676 Clouds 17 1012 63 10000 6.7 250 11:38 30.06.2019
5677 Clouds 17 1012 63 10000 6.7 250 11:19 30.06.2019
5678 Clouds 17 1012 63 10000 6.2 240 10:44 30.06.2019
5679 Clouds 16 1012 72 10000 5.7 240 10:20 30.06.2019
5680 Drizzle 15 1012 82 10000 6.7 250 09:57 30.06.2019
5681 Rain 15 1011 87 10000 6.2 240 09:37 30.06.2019
5682 Rain 15 1011 87 10000 6.2 240 09:18 30.06.2019
5683 Rain 15 1011 82 10000 5.7 240 08:39 30.06.2019
5684 Clouds 15 1011 82 10000 5.7 250 08:19 30.06.2019
5685 Clouds 15 1011 82 10000 5.1 240 07:40 30.06.2019
5686 Clouds 14 1011 87 10000 4.6 230 07:21 30.06.2019
5687 Clouds 14 1011 82 10000 4.1 230 06:31 30.06.2019
5688 Clouds 14 1011 87 10000 4.1 230 03:27 30.06.2019
5689 Clouds 15 1011 82 10000 4.1 230 01:50 30.06.2019
5690 Clouds 16 1011 72 10000 3.6 230 00:39 30.06.2019
5691 Clouds 16 1011 72 10000 3.6 230 00:19 30.06.2019
5692 Clouds 17 1010 68 10000 3.6 240 23:39 29.06.2019
5693 Clouds 17 1010 68 10000 3.6 240 23:20 29.06.2019
5694 Clouds 18 1010 59 10000 3.6 240 22:42 29.06.2019
5695 Clouds 19 1010 77 10000 2.6 120 22:22 29.06.2019
5696 Clouds 19 1010 77 10000 2.1 170 21:54 29.06.2019
5697 Clouds 19 1011 77 10000 3.1 140 21:24 29.06.2019
5698 Clouds 20 1011 72 10000 3.1 140 20:46 29.06.2019
5699 Clouds 21 1011 68 10000 3.6 150 20:28 29.06.2019
5700 Clouds 21 1011 64 10000 2.6 140 19:55 29.06.2019
5701 Clouds 21 1011 68 10000 2.6 210 19:36 29.06.2019
5702 Clouds 21 1011 68 10000 2.6 210 19:18 29.06.2019
5703 Clouds 20 1012 64 10000 1.5 0 18:44 29.06.2019
5704 Clouds 20 1012 64 10000 1.5 0 18:22 29.06.2019
5705 Clouds 19 1013 72 10000 3.1 160 17:37 29.06.2019
5706 Clouds 19 1013 72 10000 3.1 160 17:19 29.06.2019
5707 Clouds 19 1013 72 10000 2.6 140 16:42 29.06.2019
5708 Clouds 19 1013 72 10000 1.5 0 15:59 29.06.2019
5709 Clouds 19 1014 77 10000 2.1 140 15:31 29.06.2019
5710 Clouds 19 1014 77 10000 2.6 300 14:46 29.06.2019
5711 Clouds 19 1014 77 10000 2.1 250 14:27 29.06.2019
5712 Clouds 19 1014 77 10000 2.1 250 14:27 29.06.2019
5713 Clouds 19 1014 77 10000 2.1 250 14:27 29.06.2019
5714 Clouds 18 1014 63 10000 2.1 250 13:54 29.06.2019
5715 Clouds 18 1014 72 10000 2.1 260 13:27 29.06.2019
5716 Clouds 18 1015 72 10000 2.1 280 12:59 29.06.2019
5717 Clouds 18 1015 72 10000 1.5 0 12:38 29.06.2019
5718 Clouds 18 1015 72 10000 1.5 0 12:20 29.06.2019
5719 Rain 18 1015 82 10000 2.1 270 11:42 29.06.2019
5720 Clouds 17 1016 77 10000 2.1 260 11:23 29.06.2019
5721 Clouds 17 1015 82 10000 2.1 270 10:49 29.06.2019
5722 Clouds 16 1016 82 10000 2.1 260 10:21 29.06.2019
5723 Clouds 15 1016 87 10000 1.5 0 09:55 29.06.2019
5724 Rain 15 1017 87 10000 3.1 240 08:55 29.06.2019
5725 Thunderstorm 14 1017 82 10000 3.1 250 08:30 29.06.2019
5726 Rain 14 1016 82 10000 2.6 230 07:45 29.06.2019
5727 Clouds 14 1017 87 10000 2.1 270 06:49 29.06.2019
5728 Clouds 15 1017 87 10000 2.6 260 06:25 29.06.2019
5729 Clouds 15 1017 88 10000 4.1 260 03:55 29.06.2019
5730 Clouds 16 1017 93 10000 1 0 01:42 29.06.2019
5731 Clouds 17 1018 82 10000 1.5 0 00:41 29.06.2019
5732 Clouds 18 1017 77 10000 3.1 100 23:39 28.06.2019
5733 Clouds 19 1018 68 10000 2.1 80 23:20 28.06.2019
5734 Clouds 19 1018 68 10000 2.6 100 22:47 28.06.2019
5735 Rain 20 1018 64 10000 2.6 140 21:59 28.06.2019
5736 Rain 20 1017 64 10000 3.6 160 21:37 28.06.2019
5737 Rain 20 1017 64 10000 3.6 160 21:18 28.06.2019
5738 Rain 20 1018 64 10000 2.1 110 20:41 28.06.2019
5739 Rain 20 1018 64 10000 2.1 110 20:19 28.06.2019
5740 Rain 20 1018 56 10000 3.6 130 19:38 28.06.2019
5741 Rain 20 1018 56 10000 3.6 130 19:20 28.06.2019
5742 Rain 21 1019 49 10000 4.1 140 18:41 28.06.2019
5743 Rain 21 1019 49 10000 4.1 140 18:21 28.06.2019
5744 Clouds 21 1018 46 10000 5.7 140 17:44 28.06.2019
5745 Clouds 21 1019 43 10000 6.2 140 17:25 28.06.2019
5746 Clear 22 1019 43 10000 6.7 130 16:46 28.06.2019
5747 Clear 22 1019 43 10000 6.2 130 16:19 28.06.2019
5748 Clear 22 1019 40 10000 5.1 140 15:44 28.06.2019
5749 Clear 21 1020 43 10000 5.1 100 15:18 28.06.2019
5750 Clear 21 1020 60 10000 4.6 90 14:40 28.06.2019
5751 Clear 21 1020 60 10000 4.6 80 14:21 28.06.2019
5752 Clear 21 1020 64 10000 4.6 90 13:47 28.06.2019
5753 Clear 20 1021 64 10000 4.1 80 13:28 28.06.2019
5754 Clear 20 1021 60 10000 4.1 80 12:52 28.06.2019
5755 Clear 20 1021 68 10000 3.6 70 12:33 28.06.2019
5756 Clear 19 1021 72 10000 4.1 70 11:40 28.06.2019
5757 Clear 19 1021 72 10000 4.1 70 11:18 28.06.2019
5758 Clear 18 1021 77 10000 4.6 90 10:40 28.06.2019
5759 Clear 17 1021 77 10000 4.6 90 10:18 28.06.2019
5760 Clear 17 1022 77 10000 5.1 80 09:44 28.06.2019
5761 Clear 16 1022 77 10000 4.6 80 09:25 28.06.2019
5762 Clear 16 1022 77 10000 4.6 70 08:43 28.06.2019
5763 Clear 15 1022 77 10000 4.1 60 08:24 28.06.2019
5764 Clear 13 1023 87 10000 3.1 80 07:42 28.06.2019
5765 Clear 13 1023 87 10000 3.6 70 06:54 28.06.2019
5766 Clear 13 1024 87 10000 4.6 90 03:59 28.06.2019
5767 Clear 15 1025 82 10000 4.6 110 00:47 28.06.2019
5768 Clear 15 1025 82 10000 5.1 100 00:19 28.06.2019
5769 Clear 16 1025 77 10000 4.6 100 23:46 27.06.2019
5770 Clear 16 1025 77 10000 6.2 80 23:24 27.06.2019
5771 Clear 17 1025 72 10000 6.7 70 22:44 27.06.2019
5772 Clear 17 1025 72 10000 5.1 90 22:25 27.06.2019
5773 Clear 17 1025 72 10000 5.7 80 21:58 27.06.2019
5774 Clear 17 1025 72 10000 6.7 80 21:39 27.06.2019
5775 Clear 17 1025 72 10000 6.7 80 21:20 27.06.2019
5776 Clear 18 1026 68 10000 7.2 70 20:48 27.06.2019
5777 Clear 18 1026 68 10000 7.2 70 20:30 27.06.2019
5778 Clear 18 1026 68 10000 7.7 80 19:49 27.06.2019
5779 Clear 18 1026 68 10000 7.7 80 19:29 27.06.2019
5780 Clear 17 1027 72 10000 6.7 70 18:52 27.06.2019
5781 Clear 18 1027 63 10000 7.2 80 18:30 27.06.2019
5782 Clear 18 1028 68 10000 7.2 90 17:55 27.06.2019
5783 Clear 18 1028 68 10000 7.7 80 17:36 27.06.2019
5784 Clear 18 1028 68 10000 7.7 80 17:18 27.06.2019
5785 Clear 17 1029 63 10000 8.2 90 16:38 27.06.2019
5786 Clear 18 1029 63 10000 8.2 90 16:18 27.06.2019
5787 Clear 17 1029 67 10000 7.7 70 15:45 27.06.2019
5788 Clear 17 1029 67 10000 7.7 70 15:22 27.06.2019
5789 Clear 17 1029 67 10000 8.2 80 14:46 27.06.2019
5790 Clear 17 1030 63 10000 8.2 80 14:28 27.06.2019
5791 Clear 17 1030 63 10000 8.7 70 13:49 27.06.2019
5792 Clear 17 1030 63 10000 8.2 80 13:31 27.06.2019
5793 Clouds 17 1031 63 10000 7.7 80 12:55 27.06.2019
5794 Clouds 17 1030 67 10000 8.2 70 12:35 27.06.2019
5795 Clouds 17 1031 67 10000 7.7 70 11:59 27.06.2019
5796 Clouds 16 1031 67 10000 8.2 60 11:39 27.06.2019
5797 Clouds 16 1031 67 10000 8.2 60 11:20 27.06.2019
5798 Clouds 16 1031 72 10000 7.2 60 10:45 27.06.2019
5799 Clouds 15 1031 72 10000 7.2 60 10:22 27.06.2019
5800 Clouds 15 1031 77 10000 7.7 70 09:55 27.06.2019
5801 Clouds 15 1031 72 10000 6.7 70 09:22 27.06.2019
5802 Clouds 14 1030 77 10000 6.7 60 08:52 27.06.2019
5803 Clouds 14 1030 76 10000 5.7 60 08:31 27.06.2019
5804 Clouds 14 1030 82 10000 4.1 70 07:57 27.06.2019
5805 Clouds 13 1030 87 10000 5.1 60 07:31 27.06.2019
5806 Clouds 12 1030 93 10000 5.1 60 06:53 27.06.2019
5807 Clouds 12 1030 93 10000 4.6 60 06:24 27.06.2019
5808 Clouds 13 1031 93 10000 6.2 50 02:45 27.06.2019
5809 Clouds 13 1031 87 10000 6.2 50 01:50 27.06.2019
5810 Clouds 13 1031 87 10000 5.1 50 00:58 27.06.2019
5811 Clouds 13 1031 87 10000 5.7 60 00:39 27.06.2019
5812 Clouds 13 1031 87 10000 5.7 60 00:18 27.06.2019
5813 Clouds 13 1031 82 10000 6.2 60 23:40 26.06.2019
5814 Clouds 14 1031 82 10000 6.2 60 23:20 26.06.2019
5815 Clouds 15 1031 82 10000 6.2 50 22:43 26.06.2019
5816 Clouds 15 1031 82 10000 6.2 50 22:25 26.06.2019
5817 Clouds 15 1031 77 10000 6.2 70 21:56 26.06.2019
5818 Clouds 15 1031 77 10000 5.7 60 21:37 26.06.2019
5819 Clouds 15 1031 77 10000 5.7 60 21:19 26.06.2019
5820 Clouds 16 1031 77 10000 5.7 60 20:44 26.06.2019
5821 Clouds 16 1031 77 10000 5.7 60 20:26 26.06.2019
5822 Clouds 16 1031 72 10000 7.2 50 19:49 26.06.2019
5823 Clouds 17 1030 67 10000 6.2 50 19:31 26.06.2019
5824 Clouds 17 1031 72 10000 6.2 50 18:55 26.06.2019
5825 Clouds 17 1031 72 10000 6.2 50 18:55 26.06.2019
5826 Clouds 17 1031 72 10000 6.2 70 18:37 26.06.2019
5827 Clouds 17 1031 72 10000 6.2 70 18:18 26.06.2019
5828 Clouds 18 1031 72 10000 6.7 60 17:41 26.06.2019
5829 Clouds 17 1031 72 10000 6.7 60 17:23 26.06.2019
5830 Clouds 17 1031 77 10000 5.1 60 16:50 26.06.2019
5831 Clouds 17 1031 77 10000 5.7 50 16:28 26.06.2019
5832 Clouds 16 1031 82 10000 6.2 50 15:51 26.06.2019
5833 Clouds 15 1031 77 10000 6.7 50 15:28 26.06.2019
5834 Clouds 16 1031 82 10000 6.2 50 14:42 26.06.2019
5835 Clouds 16 1031 82 10000 6.7 50 14:21 26.06.2019
5836 Clouds 16 1031 82 10000 6.2 40 13:45 26.06.2019
5837 Clouds 16 1031 82 10000 5.7 40 13:21 26.06.2019
5838 Clouds 14 1031 82 10000 6.2 30 12:45 26.06.2019
5839 -273 0 0 0 0 0 12:26 26.06.2019
5840 Clouds 14 1031 82 10000 7.7 30 11:55 26.06.2019
5841 Clouds 15 1031 87 10000 7.7 40 11:24 26.06.2019
5842 Clouds 14 1030 87 10000 7.2 40 10:49 26.06.2019
5843 Clouds 14 1030 82 10000 6.7 40 10:31 26.06.2019
5844 Clouds 14 1030 93 10000 6.2 40 09:51 26.06.2019
5845 Clouds 14 1029 93 10000 6.2 40 09:27 26.06.2019
5846 Clouds 13 1029 93 10000 4.6 30 08:52 26.06.2019
5847 Clouds 13 1029 93 10000 4.6 30 08:21 26.06.2019
5848 Clouds 13 1029 93 10000 4.6 30 07:55 26.06.2019
5849 Clouds 13 1028 93 10000 4.1 20 07:35 26.06.2019
5850 Clouds 12 1028 93 10000 4.1 40 06:32 26.06.2019
5851 Clouds 12 1027 93 10000 3.1 30 01:36 26.06.2019
5852 Clouds 13 1026 87 10000 3.1 60 00:32 26.06.2019
5853 Clouds 14 1026 87 10000 4.1 60 23:49 25.06.2019
5854 Clouds 14 1026 87 10000 4.1 40 23:31 25.06.2019
5855 Clouds 14 1026 87 10000 3.6 40 22:59 25.06.2019
5856 Clouds 15 1025 82 10000 4.1 40 22:41 25.06.2019
5857 Clouds 15 1025 82 10000 4.1 40 22:22 25.06.2019
5858 Clouds 16 1025 87 10000 4.1 40 21:46 25.06.2019
5859 Clouds 16 1025 82 10000 4.6 40 21:24 25.06.2019
5860 Clouds 16 1025 82 10000 4.6 40 20:48 25.06.2019
5861 Clouds 16 1025 82 10000 4.6 40 20:48 25.06.2019
5862 Clouds 16 1025 82 10000 4.6 40 20:48 25.06.2019
5863 Clouds 16 1024 82 10000 4.6 30 20:24 25.06.2019
5864 Clouds 16 1024 87 10000 4.6 40 19:56 25.06.2019
5865 Clouds 16 1024 87 10000 4.6 40 19:56 25.06.2019
5866 Clouds 16 1024 87 10000 4.1 30 19:37 25.06.2019
5867 Clouds 16 1024 87 10000 4.1 30 19:19 25.06.2019
5868 Clouds 17 1024 87 10000 4.6 20 18:41 25.06.2019
5869 Clouds 17 1024 87 10000 4.6 20 18:23 25.06.2019
5870 -273 0 0 0 0 0 17:43 25.06.2019
5871 Clouds 18 1023 82 10000 5.7 30 17:22 25.06.2019
5872 Clouds 18 1023 82 10000 5.7 30 17:22 25.06.2019
5873 Clouds 18 1023 82 10000 5.7 30 17:22 25.06.2019
5874 Clouds 18 1023 82 10000 5.7 30 17:22 25.06.2019
5875 Clouds 17 1023 82 10000 6.7 10 16:43 25.06.2019
5876 Clouds 17 1023 82 10000 6.7 10 16:25 25.06.2019
5877 Clouds 18 1023 77 10000 6.2 30 15:43 25.06.2019
5878 Clouds 18 1022 77 10000 6.2 30 15:25 25.06.2019
5879 Clouds 18 1022 82 10000 5.1 10 14:57 25.06.2019
5880 Clouds 17 1022 82 10000 5.7 20 14:38 25.06.2019
5881 Clouds 17 1022 82 10000 5.7 20 14:20 25.06.2019
5882 Clouds 17 1022 77 10000 6.2 30 13:41 25.06.2019
5883 Clouds 17 1022 82 10000 6.2 40 13:19 25.06.2019
5884 Clouds 17 1022 77 10000 5.1 60 12:41 25.06.2019
5885 Clouds 17 1022 77 10000 5.1 60 12:23 25.06.2019
5886 Clouds 17 1021 72 10000 4.6 10 11:44 25.06.2019
5887 Clouds 17 1021 77 10000 5.1 20 11:22 25.06.2019
5888 Clouds 17 1021 77 10000 4.1 10 10:48 25.06.2019
5889 Clouds 16 1021 82 10000 4.1 10 10:24 25.06.2019
5890 Clouds 16 1021 87 9000 3.1 10 09:59 25.06.2019
5891 Clouds 15 1020 87 9000 3.6 360 09:38 25.06.2019
5892 Clouds 15 1020 87 9000 3.6 360 09:20 25.06.2019
5893 Clouds 15 1021 87 8000 2.6 340 08:50 25.06.2019
5894 Clouds 14 1020 93 6000 2.6 320 08:29 25.06.2019
5895 Clouds 13 1020 93 8000 2.1 20 07:43 25.06.2019
5896 Clouds 13 1020 93 9000 0.5 0 07:23 25.06.2019
5897 Mist 13 1020 93 10000 1.5 0 06:42 25.06.2019
5898 Clouds 13 1020 93 10000 3.1 60 04:30 25.06.2019
5899 Clouds 13 1020 93 10000 1.5 0 02:25 25.06.2019
5900 Clouds 14 1020 93 10000 1 0 00:38 25.06.2019
5901 Clouds 14 1020 93 10000 1 0 00:18 25.06.2019
5902 Clouds 14 1020 93 10000 2.1 130 23:43 24.06.2019
5903 Clouds 15 1019 93 10000 1.5 0 23:25 24.06.2019
5904 Clouds 15 1019 87 10000 1.5 0 22:45 24.06.2019
5905 Clouds 15 1019 93 10000 1.5 0 22:45 24.06.2019
5906 Clouds 16 1019 87 10000 1.5 0 22:19 24.06.2019
5907 Clouds 16 1019 87 10000 2.1 100 21:42 24.06.2019
5908 Clouds 16 1019 82 10000 3.1 100 21:20 24.06.2019
5909 Clouds 17 1018 82 10000 2.6 90 20:59 24.06.2019
5910 Clouds 17 1018 82 10000 3.1 80 20:40 24.06.2019
5911 Clouds 17 1018 82 10000 3.1 80 20:21 24.06.2019
5912 Clouds 17 1018 88 10000 3.1 70 19:46 24.06.2019
5913 Clouds 18 1018 77 10000 3.6 70 19:24 24.06.2019
5914 Clouds 18 1018 82 10000 3.6 70 18:54 24.06.2019
5915 Clouds 17 1017 82 10000 4.6 70 18:30 24.06.2019
5916 Clouds 17 1017 77 10000 4.6 70 17:58 24.06.2019
5917 Clouds 18 1017 77 10000 5.1 40 17:36 24.06.2019
5918 Clouds 18 1017 82 10000 4.1 40 16:56 24.06.2019
5919 Clouds 17 1017 88 10000 3.1 30 16:37 24.06.2019
5920 Clouds 17 1017 88 10000 3.1 30 16:18 24.06.2019
5921 Clouds 16 1017 88 10000 4.6 20 15:39 24.06.2019
5922 Clouds 16 1017 88 10000 4.6 20 15:20 24.06.2019
5923 Rain 17 1016 93 9000 3.6 360 14:34 24.06.2019
5924 Clouds 18 1017 87 9000 3.6 10 13:54 24.06.2019
5925 Clouds 18 1017 87 9000 3.6 10 13:54 24.06.2019
5926 Clouds 18 1016 93 9000 3.1 360 13:31 24.06.2019
5927 Rain 17 1016 93 4000 3.1 350 12:45 24.06.2019
5928 Rain 16 1016 93 8000 2.6 360 12:26 24.06.2019
5929 Rain 16 1016 93 7000 3.1 360 11:58 24.06.2019
5930 Rain 16 1016 93 7000 3.1 360 11:58 24.06.2019
5931 Mist 15 1015 100 3000 2.1 360 11:40 24.06.2019
5932 Mist 15 1015 100 3000 2.1 360 11:20 24.06.2019
5933 -273 0 0 0 0 0 10:47 24.06.2019
5934 Mist 14 1015 93 3500 2.1 40 10:27 24.06.2019
5935 Mist 14 1015 93 3500 2.6 40 09:49 24.06.2019
5936 Mist 14 1015 93 3500 2.6 40 09:22 24.06.2019
5937 Mist 13 1015 100 3500 2.6 40 08:52 24.06.2019
5938 Mist 13 1015 100 2500 3.1 60 08:25 24.06.2019
5939 Mist 13 1015 100 3500 3.1 60 07:45 24.06.2019
5940 Mist 13 1014 100 3000 3.6 60 07:26 24.06.2019
5941 Mist 13 1014 93 3500 3.1 60 06:39 24.06.2019
5942 Mist 13 1014 93 3500 3.1 60 06:19 24.06.2019
5943 Mist 13 1014 93 5000 3.6 40 05:24 24.06.2019
5944 Mist 13 1014 100 4500 5.1 70 04:24 24.06.2019
5945 Drizzle 13 1015 100 8000 5.7 80 02:56 24.06.2019
5946 Rain 13 1015 100 8000 6.2 80 02:20 24.06.2019
5947 Rain 13 1015 100 5000 6.7 70 01:49 24.06.2019
5948 Rain 14 1015 93 4000 7.7 80 01:21 24.06.2019
5949 Rain 14 1015 93 3500 8.2 80 00:39 24.06.2019
5950 Rain 13 1015 93 4000 8.2 80 00:19 24.06.2019
5951 Rain 13 1015 93 4000 6.2 80 23:44 23.06.2019
5952 Rain 13 1015 93 4000 3.1 110 23:22 23.06.2019
5953 Rain 14 1015 93 7000 5.1 100 22:43 23.06.2019
5954 Drizzle 14 1015 93 7000 5.1 100 22:20 23.06.2019
5955 Drizzle 14 1015 93 10000 5.1 100 21:44 23.06.2019
5956 Rain 14 1015 100 9000 4.1 90 21:25 23.06.2019
5957 Rain 14 1015 93 8000 3.1 100 20:58 23.06.2019
5958 Rain 14 1015 93 8000 2.1 140 20:40 23.06.2019
5959 Rain 14 1015 93 8000 2.1 140 20:21 23.06.2019
5960 Rain 14 1016 87 8000 3.6 110 19:43 23.06.2019
5961 Rain 14 1016 87 8000 3.6 110 19:21 23.06.2019
5962 Rain 14 1015 87 10000 4.1 40 18:52 23.06.2019
5963 Rain 14 1015 93 10000 5.7 50 18:22 23.06.2019
5964 Rain 14 1016 87 10000 3.6 50 17:50 23.06.2019
5965 Rain 14 1016 87 10000 3.1 70 17:25 23.06.2019
5966 Rain 15 1016 87 10000 3.6 90 16:55 23.06.2019
5967 Rain 15 1016 77 10000 4.6 90 16:36 23.06.2019
5968 Rain 15 1016 77 10000 4.6 90 16:18 23.06.2019
5969 Clouds 15 1016 77 10000 4.1 100 15:40 23.06.2019
5970 Rain 16 1016 67 10000 5.1 90 15:19 23.06.2019
5971 Rain 16 1016 59 10000 5.1 110 14:40 23.06.2019
5972 Rain 16 1016 59 10000 5.1 110 14:22 23.06.2019
5973 Clouds 16 1016 63 10000 4.6 120 13:56 23.06.2019
5974 Clouds 16 1016 67 10000 4.6 130 13:36 23.06.2019
5975 Clouds 16 1016 67 10000 4.6 130 13:18 23.06.2019
5976 Rain 15 1016 72 10000 3.6 130 12:42 23.06.2019
5977 Rain 15 1016 72 10000 3.6 130 12:21 23.06.2019
5978 Clouds 16 1016 67 10000 3.6 120 11:50 23.06.2019
5979 Clouds 15 1016 67 10000 3.6 140 11:29 23.06.2019
5980 Rain 15 1016 67 10000 3.6 120 10:53 23.06.2019
5981 Rain 14 1016 76 10000 3.6 120 10:22 23.06.2019
5982 Clouds 14 1016 76 10000 4.1 110 09:59 23.06.2019
5983 Clouds 14 1016 82 10000 4.1 110 09:25 23.06.2019
5984 Rain 13 1016 87 10000 4.6 100 08:55 23.06.2019
5985 Rain 13 1016 87 10000 3.6 100 08:37 23.06.2019
5986 Rain 13 1016 87 10000 3.6 100 08:18 23.06.2019
5987 Rain 13 1016 82 10000 3.6 90 07:48 23.06.2019
5988 Clouds 12 1016 87 10000 2.6 80 07:19 23.06.2019
5989 Clouds 12 1016 87 10000 3.1 90 06:53 23.06.2019
5990 Rain 12 1016 87 10000 2.1 110 05:53 23.06.2019
5991 Clouds 12 1017 87 10000 3.1 80 02:52 23.06.2019
5992 Clouds 12 1018 81 10000 1.5 0 01:43 23.06.2019
5993 Clouds 11 1018 81 10000 3.1 100 01:24 23.06.2019
5994 Clouds 12 1018 76 10000 2.6 100 00:34 23.06.2019
5995 Clouds 12 1018 76 10000 2.6 110 23:52 22.06.2019
5996 Clouds 12 1018 81 10000 2.1 110 23:26 22.06.2019
5997 Clouds 12 1018 71 10000 4.1 100 22:47 22.06.2019
5998 Clouds 13 1018 71 10000 4.1 90 22:29 22.06.2019
5999 Clouds 13 1018 66 10000 4.1 90 21:59 22.06.2019
6000 Clouds 14 1018 71 10000 4.1 90 21:36 22.06.2019
6001 Clouds 14 1018 71 10000 4.1 90 21:18 22.06.2019
6002 Clouds 15 1018 62 10000 5.1 100 20:46 22.06.2019
6003 Clouds 15 1018 58 10000 5.1 100 20:24 22.06.2019
6004 Clouds 16 1018 58 10000 5.1 100 19:42 22.06.2019
6005 Clouds 16 1018 58 10000 5.1 100 19:22 22.06.2019
6006 Clouds 16 1018 48 10000 4.1 130 18:44 22.06.2019
6007 Clouds 17 1019 48 10000 5.7 110 18:25 22.06.2019
6008 Clouds 17 1019 51 10000 5.7 110 17:52 22.06.2019
6009 Clouds 17 1019 51 10000 5.7 110 17:31 22.06.2019
6010 Clouds 17 1019 51 10000 5.1 120 16:47 22.06.2019
6011 Clouds 18 1019 42 10000 4.6 130 16:24 22.06.2019
6012 Clouds 18 1019 42 10000 4.6 140 15:49 22.06.2019
6013 Clouds 18 1019 42 10000 4.6 130 15:29 22.06.2019
6014 Clouds 17 1020 44 10000 4.6 120 14:52 22.06.2019
6015 Clouds 17 1020 55 10000 4.6 130 14:33 22.06.2019
6016 Clouds 17 1020 63 10000 5.7 140 13:58 22.06.2019
6017 Clouds 16 1020 63 10000 5.7 140 13:40 22.06.2019
6018 Clear 16 1020 67 10000 5.1 130 13:19 22.06.2019
6019 Clouds 16 1020 67 10000 5.7 150 12:47 22.06.2019
6020 Clouds 16 1020 67 10000 5.7 150 12:29 22.06.2019
6021 Clouds 16 1020 67 10000 4.6 140 11:46 22.06.2019
6022 Clouds 16 1020 67 10000 4.1 140 11:27 22.06.2019
6023 Clouds 16 1020 55 10000 3.1 140 10:47 22.06.2019
6024 Clouds 15 1020 67 10000 2.6 120 10:19 22.06.2019
6025 Clouds 14 1020 67 10000 2.6 100 09:42 22.06.2019
6026 Clouds 12 1020 81 10000 1.5 110 08:58 22.06.2019
6027 Clouds 11 1020 81 10000 1 0 08:40 22.06.2019
6028 Clouds 9 1020 93 10000 1 0 07:56 22.06.2019
6029 Clouds 8 1020 93 10000 0.5 360 07:30 22.06.2019
6030 Clouds 7 1020 93 10000 1 310 06:46 22.06.2019
6031 Clouds 7 1020 93 10000 1 300 04:38 22.06.2019
6032 Clouds 8 1021 93 10000 1.5 0 02:27 22.06.2019
6033 Clouds 10 1021 87 10000 1 0 00:57 22.06.2019
6034 Clouds 11 1021 81 10000 1.5 110 00:31 22.06.2019
6035 Clouds 12 1021 82 10000 1.5 0 23:50 21.06.2019
6036 Clouds 12 1021 82 10000 2.6 140 23:24 21.06.2019
6037 Clouds 12 1020 82 10000 3.1 140 22:58 21.06.2019
6038 Clouds 13 1020 82 10000 3.1 140 22:40 21.06.2019
6039 Clouds 14 1020 71 10000 4.1 130 22:20 21.06.2019
6040 Clouds 14 1020 71 10000 4.6 130 21:40 21.06.2019
6041 Clouds 14 1020 71 10000 4.6 130 21:21 21.06.2019
6042 Clouds 14 1020 67 10000 4.6 130 20:48 21.06.2019
6043 Clouds 15 1020 62 10000 5.1 140 20:26 21.06.2019
6044 Clouds 15 1020 67 10000 4.6 150 19:54 21.06.2019
6045 Clouds 15 1020 62 10000 5.1 150 19:22 21.06.2019
6046 Clouds 15 1020 58 10000 4.6 150 18:41 21.06.2019
6047 Clouds 15 1020 58 10000 4.6 150 18:23 21.06.2019
6048 Clouds 16 1020 62 10000 5.7 150 17:31 21.06.2019
6049 Clouds 16 1020 58 10000 4.6 140 16:59 21.06.2019
6050 Clouds 15 1020 58 10000 3.1 140 16:37 21.06.2019
6051 Clouds 15 1020 58 10000 3.1 140 16:18 21.06.2019
6052 Clouds 15 1020 58 10000 1.5 0 15:37 21.06.2019
6053 Clouds 15 1020 58 10000 1.5 0 15:18 21.06.2019
6054 Clouds 15 1019 51 10000 3.1 310 14:40 21.06.2019
6055 Clouds 15 1019 51 10000 3.1 310 14:21 21.06.2019
6056 Clouds 15 1019 58 10000 3.6 280 13:40 21.06.2019
6057 Clouds 15 1019 58 10000 3.6 280 13:22 21.06.2019
6058 Clouds 14 1019 62 10000 3.6 270 12:51 21.06.2019
6059 Clouds 15 1019 62 10000 4.6 280 12:23 21.06.2019
6060 Clouds 13 1019 71 10000 4.6 280 11:56 21.06.2019
6061 Clouds 14 1019 71 10000 4.6 280 11:37 21.06.2019
6062 Clouds 13 1019 71 10000 4.6 280 11:19 21.06.2019
6063 Clouds 13 1019 71 10000 4.6 280 11:19 21.06.2019
6064 Clouds 12 1018 81 10000 5.1 280 10:44 21.06.2019
6065 Clouds 12 1018 81 10000 5.1 280 10:21 21.06.2019
6066 Clouds 11 1018 76 10000 4.6 260 09:43 21.06.2019
6067 Clouds 11 1018 81 10000 3.6 260 09:23 21.06.2019
6068 Clouds 10 1018 87 10000 5.1 270 08:56 21.06.2019
6069 Clouds 10 1018 87 10000 5.1 270 08:56 21.06.2019
6070 Clouds 9 1017 87 10000 3.1 260 08:37 21.06.2019
6071 Clouds 9 1017 87 10000 3.1 260 08:19 21.06.2019
6072 Clouds 8 1017 93 10000 3.1 250 07:44 21.06.2019
6073 Clouds 7 1017 93 10000 2.6 250 07:19 21.06.2019
6074 Clouds 7 1016 87 10000 2.6 240 06:29 21.06.2019
6075 Clouds 7 1016 93 10000 3.1 250 05:48 21.06.2019
6076 Clear 7 1016 93 10000 2.6 240 04:48 21.06.2019
6077 Clear 8 1015 87 10000 3.1 250 03:48 21.06.2019
6078 Clear 8 1015 87 10000 3.6 260 03:28 21.06.2019
6079 Clouds 9 1015 81 10000 3.6 260 02:34 21.06.2019
6080 Clouds 10 1014 76 10000 2.6 250 01:32 21.06.2019
6081 Clouds 10 1014 81 10000 3.6 270 00:36 21.06.2019
6082 Clouds 10 1014 87 10000 2.6 270 23:57 20.06.2019
6083 Clouds 10 1013 81 10000 1.5 0 23:39 20.06.2019
6084 Clouds 10 1013 81 10000 1.5 0 23:19 20.06.2019
6085 Clouds 12 1013 76 10000 3.6 290 22:41 20.06.2019
6086 Clouds 12 1013 76 10000 3.6 290 22:23 20.06.2019
6087 Clouds 12 1013 76 10000 3.6 290 22:23 20.06.2019
6088 Clouds 13 1013 71 10000 3.6 310 21:56 20.06.2019
6089 Clouds 14 1012 67 10000 3.6 290 21:37 20.06.2019
6090 Clouds 14 1012 67 10000 3.6 290 21:19 20.06.2019
6091 Rain 14 1012 71 10000 2.1 270 20:41 20.06.2019
6092 Rain 14 1012 82 10000 5.1 300 20:23 20.06.2019
6093 Rain 14 1012 66 10000 2.6 260 19:45 20.06.2019
6094 Rain 14 1012 76 10000 2.6 250 19:19 20.06.2019
6095 Rain 14 1012 66 10000 4.1 260 18:58 20.06.2019
6096 Rain 14 1012 72 10000 3.1 270 18:40 20.06.2019
6097 Rain 15 1012 72 10000 3.1 270 18:21 20.06.2019
6098 Rain 14 1012 76 10000 5.1 300 17:46 20.06.2019
6099 Rain 14 1012 76 10000 5.1 300 17:27 20.06.2019
6100 Clouds 15 1011 51 10000 3.6 250 16:44 20.06.2019
6101 Clouds 16 1011 51 10000 3.6 250 16:19 20.06.2019
6102 Rain 16 1011 51 10000 2.6 240 15:56 20.06.2019
6103 Clouds 16 1011 62 10000 4.1 260 15:38 20.06.2019
6104 Clouds 15 1011 62 10000 4.1 260 15:18 20.06.2019
6105 Clouds 15 1011 51 10000 4.6 230 14:43 20.06.2019
6106 Rain 14 1011 58 10000 5.7 270 14:21 20.06.2019
6107 Clouds 14 1011 58 10000 5.7 270 13:40 20.06.2019
6108 Clouds 14 1011 58 10000 5.7 270 13:19 20.06.2019
6109 Clouds 14 1011 62 10000 5.7 280 12:44 20.06.2019
6110 Clouds 13 1011 62 10000 5.7 280 12:23 20.06.2019
6111 Clouds 13 1010 66 10000 4.6 280 11:45 20.06.2019
6112 Clouds 13 1010 66 10000 5.7 270 11:24 20.06.2019
6113 Clouds 13 1010 76 10000 5.1 260 10:47 20.06.2019
6114 Clouds 13 1010 76 10000 5.1 260 10:47 20.06.2019
6115 Clouds 12 1010 76 10000 6.2 270 10:25 20.06.2019
6116 Clouds 12 1010 76 10000 6.7 270 09:59 20.06.2019
6117 Clouds 11 1010 81 10000 6.2 270 09:40 20.06.2019
6118 Clouds 11 1010 81 10000 6.2 270 09:21 20.06.2019
6119 Clouds 11 1010 87 10000 5.7 260 08:45 20.06.2019
6120 -273 0 0 0 0 0 08:27 20.06.2019
6121 Clouds 9 1009 87 10000 4.1 250 07:53 20.06.2019
6122 Clouds 9 1009 87 10000 3.6 250 07:27 20.06.2019
6123 Clouds 9 1009 87 10000 3.6 240 06:27 20.06.2019
6124 Clouds 10 1009 87 10000 4.1 250 04:53 20.06.2019
6125 Clouds 10 1008 81 10000 3.6 250 02:29 20.06.2019
6126 Clouds 11 1008 81 10000 3.1 240 00:34 20.06.2019
6127 Rain 12 1008 81 10000 4.1 240 23:49 19.06.2019
6128 Rain 12 1008 76 10000 2.6 230 23:30 19.06.2019
6129 Rain 12 1008 76 10000 3.1 230 22:57 19.06.2019
6130 Rain 12 1008 87 10000 3.1 220 22:39 19.06.2019
6131 Rain 12 1008 87 10000 3.1 220 22:18 19.06.2019
6132 Rain 13 1008 87 10000 3.1 210 21:42 19.06.2019
6133 Rain 13 1008 87 10000 2.6 210 21:23 19.06.2019
6134 Rain 13 1007 67 10000 3.1 230 20:42 19.06.2019
6135 Rain 14 1007 67 10000 3.1 230 20:21 19.06.2019
6136 Rain 15 1007 76 10000 2.6 320 19:51 19.06.2019
6137 Rain 15 1008 82 10000 3.1 280 19:29 19.06.2019
6138 Rain 15 1008 71 5000 4.6 260 18:57 19.06.2019
6139 Rain 16 1008 67 10000 4.1 300 18:28 19.06.2019
6140 Rain 16 1008 59 10000 3.6 250 17:53 19.06.2019
6141 Rain 16 1008 59 10000 3.6 250 17:53 19.06.2019
6142 Rain 16 1008 59 10000 3.6 240 17:33 19.06.2019
6143 Rain 16 1008 63 10000 6.2 280 16:57 19.06.2019
6144 Rain 15 1008 67 10000 5.1 280 16:38 19.06.2019
6145 Rain 16 1008 67 10000 5.1 280 16:20 19.06.2019
6146 Rain 17 1008 63 10000 3.1 240 15:47 19.06.2019
6147 Rain 17 1008 63 10000 4.1 250 15:25 19.06.2019
6148 Drizzle 16 1009 63 10000 6.2 280 14:48 19.06.2019
6149 Clouds 17 1009 59 10000 5.1 270 14:29 19.06.2019
6150 Rain 17 1009 63 10000 5.1 280 13:56 19.06.2019
6151 Clouds 17 1008 62 10000 4.1 260 13:37 19.06.2019
6152 Clouds 17 1008 62 10000 4.1 260 13:19 19.06.2019
6153 Clouds 16 1008 63 10000 4.1 260 12:42 19.06.2019
6154 Clouds 15 1009 62 10000 5.1 270 12:20 19.06.2019
6155 Clouds 15 1009 67 10000 5.7 280 11:43 19.06.2019
6156 Clouds 15 1009 67 10000 5.7 280 11:24 19.06.2019
6157 Clouds 14 1009 71 10000 5.1 270 10:51 19.06.2019
6158 Clouds 13 1009 71 10000 4.6 270 10:32 19.06.2019
6159 Clouds 13 1009 76 10000 3.1 250 09:59 19.06.2019
6160 Clouds 13 1009 81 10000 3.6 260 09:39 19.06.2019
6161 Clouds 12 1009 81 10000 3.6 260 09:19 19.06.2019
6162 Clouds 11 1010 93 10000 3.6 260 08:48 19.06.2019
6163 Clouds 11 1009 93 10000 3.6 270 08:27 19.06.2019
6164 Clouds 11 1009 93 10000 3.1 270 07:46 19.06.2019
6165 Clouds 10 1009 87 10000 3.6 270 07:23 19.06.2019
6166 Clouds 11 1009 93 10000 4.1 280 06:44 19.06.2019
6167 Clouds 11 1009 81 10000 4.6 270 06:22 19.06.2019
6168 Clouds 11 1009 81 10000 4.6 280 05:41 19.06.2019
6169 Clouds 12 1009 81 10000 2.6 260 04:18 19.06.2019
6170 Clouds 12 1009 76 10000 3.1 270 03:18 19.06.2019
6171 Clouds 12 1010 76 10000 2.1 260 01:48 19.06.2019
6172 Clouds 13 1010 76 10000 2.1 250 00:57 19.06.2019
6173 Clouds 13 1010 71 10000 1.5 0 00:39 19.06.2019
6174 Clouds 13 1010 71 10000 1.5 0 00:19 19.06.2019
6175 Clouds 13 1010 87 10000 0.5 0 23:46 18.06.2019
6176 Clouds 13 1010 87 10000 1.5 100 23:25 18.06.2019
6177 Clouds 15 1010 76 10000 1.5 110 22:43 18.06.2019
6178 Clouds 15 1010 77 10000 1.5 0 22:24 18.06.2019
6179 Clouds 15 1010 77 10000 2.1 140 21:56 18.06.2019
6180 Clouds 15 1010 77 10000 2.6 140 21:37 18.06.2019
6181 Clouds 15 1010 77 10000 2.6 140 21:19 18.06.2019
6182 Clouds 16 1010 77 10000 3.1 140 20:42 18.06.2019
6183 Clouds 16 1011 72 10000 4.1 140 20:23 18.06.2019
6184 Clouds 17 1011 72 10000 4.1 130 19:41 18.06.2019
6185 Clouds 17 1011 67 10000 4.1 140 19:23 18.06.2019
6186 Clouds 17 1011 63 10000 4.1 140 18:56 18.06.2019
6187 Clouds 17 1011 67 10000 4.1 140 18:26 18.06.2019
6188 Clouds 17 1011 63 10000 4.6 140 17:59 18.06.2019
6189 Clouds 17 1011 67 10000 4.6 140 17:38 18.06.2019
6190 Clouds 17 1011 67 10000 4.6 140 17:19 18.06.2019
6191 Clouds 18 1012 63 10000 3.6 140 16:42 18.06.2019
6192 Clouds 18 1012 67 10000 4.6 140 16:22 18.06.2019
6193 Clouds 17 1012 59 10000 3.6 130 15:43 18.06.2019
6194 Clouds 17 1012 59 10000 3.6 130 15:23 18.06.2019
6195 Clouds 18 1012 63 10000 3.1 140 14:58 18.06.2019
6196 Clouds 17 1012 59 10000 2.6 220 14:39 18.06.2019
6197 Clouds 17 1012 59 10000 2.6 220 14:19 18.06.2019
6198 Clouds 17 1012 59 10000 4.1 210 13:52 18.06.2019
6199 Clouds 18 1012 51 10000 3.6 260 13:31 18.06.2019
6200 Clouds 16 1012 63 10000 3.6 230 12:47 18.06.2019
6201 Clouds 16 1013 59 10000 3.1 250 12:29 18.06.2019
6202 Clouds 15 1013 71 10000 4.6 210 11:56 18.06.2019
6203 Clouds 15 1013 71 10000 3.1 250 11:38 18.06.2019
6204 Clouds 14 1013 71 10000 3.1 250 11:20 18.06.2019
6205 Clouds 14 1013 76 10000 3.6 260 10:43 18.06.2019
6206 Clouds 14 1013 76 10000 3.6 260 10:22 18.06.2019
6207 Clouds 13 1013 81 10000 3.6 240 09:52 18.06.2019
6208 Clouds 12 1013 81 10000 4.1 250 09:25 18.06.2019
6209 Clouds 12 1013 87 10000 4.1 240 08:58 18.06.2019
6210 Clouds 12 1013 87 10000 4.1 240 08:58 18.06.2019
6211 Clouds 11 1013 81 10000 2.6 230 08:39 18.06.2019
6212 Clouds 11 1013 81 10000 2.6 230 08:20 18.06.2019
6213 Clouds 9 1013 93 10000 2.1 210 07:27 18.06.2019
6214 Clouds 7 1013 93 10000 2.1 190 06:57 18.06.2019
6215 Clouds 9 1012 87 10000 2.1 220 05:27 18.06.2019
6216 Clouds 9 1012 87 10000 2.1 220 05:27 18.06.2019
6217 Clouds 9 1012 81 10000 3.1 250 04:22 18.06.2019
6218 Clouds 11 1013 76 10000 1 0 02:50 18.06.2019
6219 Clouds 12 1013 76 10000 2.6 250 01:28 18.06.2019
6220 Clouds 12 1012 81 10000 1.5 0 00:58 18.06.2019
6221 Clouds 12 1012 71 10000 3.1 260 00:39 18.06.2019
6222 Clouds 12 1012 71 10000 3.1 260 00:21 18.06.2019
6223 Clouds 13 1012 67 10000 2.1 260 23:38 17.06.2019
6224 Clouds 14 1012 67 10000 2.1 260 23:19 17.06.2019
6225 Clouds 14 1012 67 10000 2.6 270 22:41 17.06.2019
6226 Clouds 15 1012 62 10000 3.1 240 22:21 17.06.2019
6227 Clouds 15 1011 59 10000 3.1 230 21:46 17.06.2019
6228 Clouds 15 1011 59 10000 4.6 260 21:24 17.06.2019
6229 Clouds 16 1011 55 10000 4.1 250 20:44 17.06.2019
6230 Clouds 16 1011 63 10000 4.6 250 20:26 17.06.2019
6231 Clouds 16 1011 55 10000 3.6 250 19:58 17.06.2019
6232 Clouds 16 1011 55 10000 5.1 240 19:40 17.06.2019
6233 Clouds 17 1011 52 10000 5.1 240 19:21 17.06.2019
6234 Clouds 17 1011 55 10000 4.6 240 18:40 17.06.2019
6235 Clouds 18 1011 55 10000 4.6 240 18:18 17.06.2019
6236 Clouds 17 1011 59 10000 5.7 250 17:59 17.06.2019
6237 Clouds 17 1011 59 10000 5.7 250 17:39 17.06.2019
6238 Clouds 17 1011 59 10000 5.1 240 17:21 17.06.2019
6239 Rain 17 1011 63 10000 4.6 250 16:43 17.06.2019
6240 Rain 17 1011 76 10000 5.1 250 16:24 17.06.2019
6241 Rain 17 1011 76 10000 5.1 250 15:55 17.06.2019
6242 Clouds 17 1011 67 10000 4.1 230 15:36 17.06.2019
6243 Rain 16 1011 76 10000 5.1 220 15:18 17.06.2019
6244 Rain 16 1011 76 10000 5.1 220 15:18 17.06.2019
6245 Rain 15 1010 67 10000 6.2 230 14:42 17.06.2019
6246 Rain 15 1010 67 10000 6.2 230 14:22 17.06.2019
6247 Rain 16 1010 62 10000 6.2 220 13:47 17.06.2019
6248 Rain 15 1010 62 10000 6.7 210 13:22 17.06.2019
6249 Clouds 16 1010 62 10000 6.2 210 12:48 17.06.2019
6250 Clouds 16 1010 62 10000 6.2 210 12:30 17.06.2019
6251 Clouds 15 1010 67 10000 4.6 220 11:45 17.06.2019
6252 Clouds 15 1010 67 10000 4.6 220 11:26 17.06.2019
6253 Clouds 14 1010 71 10000 5.1 230 10:57 17.06.2019
6254 Clouds 14 1010 76 10000 5.7 230 10:39 17.06.2019
6255 Clouds 14 1010 76 10000 5.7 230 10:21 17.06.2019
6256 Clouds 13 1010 81 10000 4.6 220 09:39 17.06.2019
6257 Clouds 12 1010 76 10000 5.1 210 09:20 17.06.2019
6258 Clouds 12 1010 76 10000 5.1 210 08:41 17.06.2019
6259 Clouds 11 1010 87 10000 4.1 210 08:23 17.06.2019
6260 Clouds 10 1009 81 10000 4.1 210 07:40 17.06.2019
6261 Clouds 10 1009 87 10000 2.6 210 07:21 17.06.2019
6262 Clouds 10 1009 87 10000 3.1 210 06:34 17.06.2019
6263 Clouds 10 1009 87 10000 3.6 210 05:44 17.06.2019
6264 Clouds 9 1009 87 10000 3.6 210 04:34 17.06.2019
6265 Clouds 10 1009 87 10000 3.1 210 03:35 17.06.2019
6266 Clouds 10 1009 87 10000 2.1 210 02:58 17.06.2019
6267 Clouds 10 1009 87 10000 2.6 220 02:39 17.06.2019
6268 Rain 10 1009 87 10000 3.6 210 01:41 17.06.2019
6269 Rain 11 1008 87 10000 2.6 220 00:59 17.06.2019
6270 Clouds 11 1008 81 10000 3.1 230 00:41 17.06.2019
6271 Rain 12 1008 81 10000 3.1 230 00:21 17.06.2019
6272 Rain 12 1007 93 10000 2.6 210 23:40 16.06.2019
6273 Rain 12 1007 93 10000 2.6 210 23:21 16.06.2019
6274 Rain 13 1007 87 10000 3.1 190 22:47 16.06.2019
6275 Rain 12 1006 93 10000 3.6 200 22:21 16.06.2019
6276 Rain 12 1006 93 10000 3.6 200 21:59 16.06.2019
6277 Rain 13 1006 87 10000 4.6 220 21:40 16.06.2019
6278 Rain 13 1006 87 10000 4.6 220 21:40 16.06.2019
6279 Rain 13 1006 87 10000 4.6 220 21:22 16.06.2019
6280 Rain 14 1006 77 10000 7.2 190 20:56 16.06.2019
6281 Rain 14 1006 77 10000 5.1 160 20:37 16.06.2019
6282 Rain 14 1006 77 10000 5.1 160 20:37 16.06.2019
6283 Rain 15 1006 67 10000 5.7 170 20:18 16.06.2019
6284 Rain 14 1006 72 10000 6.7 160 19:41 16.06.2019
6285 Rain 15 1007 72 10000 7.7 160 19:22 16.06.2019
6286 Rain 14 1007 72 10000 7.7 160 18:58 16.06.2019
6287 Rain 14 1007 63 10000 6.7 170 18:39 16.06.2019
6288 Rain 15 1007 59 10000 3.1 170 18:20 16.06.2019
6289 Clouds 15 1008 77 10000 3.6 110 17:46 16.06.2019
6290 Clouds 16 1008 67 10000 4.1 130 17:22 16.06.2019
6291 Clouds 16 1008 72 10000 4.1 130 16:57 16.06.2019
6292 Clouds 16 1008 72 10000 4.1 130 16:57 16.06.2019
6293 Clouds 16 1008 72 10000 4.1 130 16:38 16.06.2019
6294 Clouds 16 1008 72 10000 4.1 130 16:20 16.06.2019
6295 Clouds 16 1008 59 10000 2.1 160 15:42 16.06.2019
6296 Clouds 17 1008 59 10000 2.1 160 15:24 16.06.2019
6297 Clouds 16 1009 62 10000 3.1 130 14:44 16.06.2019
6298 Rain 15 1008 67 10000 2.1 120 14:23 16.06.2019
6299 Rain 15 1009 62 10000 1.5 0 13:52 16.06.2019
6300 Rain 14 1009 62 10000 1.5 0 13:27 16.06.2019
6301 Rain 14 1009 62 10000 2.6 140 12:58 16.06.2019
6302 Rain 14 1009 67 10000 2.1 120 12:38 16.06.2019
6303 Rain 14 1009 62 10000 2.6 110 12:19 16.06.2019
6304 Rain 13 1009 62 10000 1.5 0 11:45 16.06.2019
6305 Clouds 12 1009 62 10000 3.1 170 11:20 16.06.2019
6306 Clouds 12 1009 71 10000 2.6 200 10:45 16.06.2019
6307 Clouds 12 1009 71 10000 2.6 200 10:21 16.06.2019
6308 Clouds 11 1009 76 10000 2.1 210 09:48 16.06.2019
6309 Clouds 11 1009 76 10000 2.1 210 09:26 16.06.2019
6310 Clouds 10 1009 81 10000 2.1 190 08:59 16.06.2019
6311 Clouds 9 1009 81 10000 1.5 220 08:38 16.06.2019
6312 Clouds 8 1009 87 10000 1.5 180 08:18 16.06.2019
6313 Clouds 8 1009 93 10000 2.1 200 07:44 16.06.2019
6314 Clouds 7 1009 87 10000 1.5 0 06:59 16.06.2019
6315 Clouds 8 1009 87 10000 1.5 0 06:37 16.06.2019
6316 Clouds 7 1009 87 10000 3.1 210 05:47 16.06.2019
6317 Clouds 7 1009 87 10000 2.1 200 04:49 16.06.2019
6318 Clouds 7 1009 87 10000 2.6 210 03:57 16.06.2019
6319 Clouds 8 1009 81 10000 3.1 190 03:32 16.06.2019
6320 Clouds 8 1009 81 10000 2.6 210 02:31 16.06.2019
6321 Clouds 9 1009 81 10000 1 0 01:44 16.06.2019
6322 Clouds 9 1009 81 10000 1 0 01:26 16.06.2019
6323 Clouds 10 1009 87 10000 1.5 0 00:40 16.06.2019
6324 Clouds 10 1009 87 10000 1.5 0 00:21 16.06.2019
6325 Clouds 10 1009 76 10000 1.5 0 23:44 15.06.2019
6326 Clouds 11 1009 76 10000 1.5 0 23:25 15.06.2019
6327 Rain 11 1008 81 10000 2.6 250 22:50 15.06.2019
6328 Rain 11 1008 76 10000 2.6 260 22:27 15.06.2019
6329 Rain 11 1008 81 10000 5.7 260 21:50 15.06.2019
6330 Rain 11 1008 81 10000 5.7 260 21:29 15.06.2019
6331 Rain 13 1008 71 10000 4.1 260 20:59 15.06.2019
6332 Rain 13 1008 58 10000 3.1 260 20:41 15.06.2019
6333 Rain 14 1008 54 10000 2.6 250 20:22 15.06.2019
6334 Rain 14 1008 54 10000 3.6 240 19:42 15.06.2019
6335 Rain 14 1008 54 10000 3.6 240 19:23 15.06.2019
6336 Clouds 14 1008 54 10000 3.1 230 18:41 15.06.2019
6337 Clouds 14 1007 54 10000 4.6 260 18:21 15.06.2019
6338 Clouds 15 1007 51 10000 3.6 240 17:43 15.06.2019
6339 Clouds 15 1007 51 10000 3.6 240 17:23 15.06.2019
6340 Clouds 15 1007 51 10000 3.6 250 16:48 15.06.2019
6341 Clouds 15 1007 62 10000 3.1 230 16:20 15.06.2019
6342 Clouds 15 1007 58 10000 4.6 250 15:44 15.06.2019
6343 Clouds 15 1007 58 10000 4.6 250 15:24 15.06.2019
6344 Clouds 15 1007 58 10000 3.1 240 14:44 15.06.2019
6345 Clouds 14 1007 58 10000 4.1 230 14:19 15.06.2019
6346 Clouds 15 1007 58 10000 4.1 230 13:58 15.06.2019
6347 Clouds 14 1007 71 10000 3.6 230 13:40 15.06.2019
6348 Clouds 14 1007 81 10000 4.1 230 13:19 15.06.2019
6349 Clouds 14 1006 81 10000 4.6 250 12:49 15.06.2019
6350 Rain 12 1006 87 10000 5.1 240 12:26 15.06.2019
6351 Drizzle 12 1006 81 10000 4.6 260 11:52 15.06.2019
6352 Drizzle 11 1006 81 10000 4.6 260 11:32 15.06.2019
6353 Clouds 12 1005 87 10000 5.7 280 10:49 15.06.2019
6354 Rain 11 1005 87 10000 5.7 280 10:27 15.06.2019
6355 Rain 11 1005 93 10000 5.7 280 09:59 15.06.2019
6356 Rain 10 1005 93 10000 5.7 290 09:39 15.06.2019
6357 Clouds 9 1004 100 10000 5.7 300 09:20 15.06.2019
6358 Drizzle 9 1004 93 9000 5.1 310 08:44 15.06.2019
6359 Drizzle 9 1004 93 9000 5.1 310 08:25 15.06.2019
6360 Rain 8 1004 93 6000 4.6 330 07:38 15.06.2019
6361 Rain 8 1004 93 6000 4.6 330 07:38 15.06.2019
6362 Rain 9 1004 93 8000 3.6 340 07:20 15.06.2019
6363 Rain 9 1004 93 8000 3.1 360 06:38 15.06.2019
6364 Rain 9 1005 100 10000 1 40 05:46 15.06.2019
6365 Rain 9 1005 100 10000 2.1 70 05:18 15.06.2019
6366 Rain 9 1005 100 10000 2.1 70 04:31 15.06.2019
6367 Rain 9 1005 100 10000 1.5 90 03:33 15.06.2019
6368 Rain 9 1005 100 10000 1.5 90 03:33 15.06.2019
6369 Rain 9 1005 93 10000 0.88 126.047 02:47 15.06.2019
6370 Rain 9 1005 93 10000 0.5 0 01:59 15.06.2019
6371 Rain 9 1005 93 10000 1 0 01:27 15.06.2019
6372 Rain 10 1005 87 10000 0.5 0 00:43 15.06.2019
6373 Rain 10 1005 87 10000 0.5 0 00:25 15.06.2019
6374 Rain 10 1005 93 10000 1.5 0 23:51 14.06.2019
6375 Rain 10 1005 93 10000 1.5 0 23:21 14.06.2019
6376 Rain 10 1004 87 10000 2.1 180 22:42 14.06.2019
6377 Rain 11 1004 81 10000 2.6 170 22:21 14.06.2019
6378 Rain 11 1004 76 10000 3.1 200 21:49 14.06.2019
6379 Rain 12 1004 76 10000 3.1 200 21:29 14.06.2019
6380 Rain 12 1004 76 10000 2.6 200 20:58 14.06.2019
6381 Rain 12 1004 81 10000 1.5 0 20:39 14.06.2019
6382 Rain 13 1004 71 10000 2.1 230 20:18 14.06.2019
6383 Clouds 14 1003 71 10000 4.6 230 19:42 14.06.2019
6384 Clouds 14 1003 71 10000 4.6 230 19:22 14.06.2019
6385 Rain 14 1003 71 10000 3.6 220 18:54 14.06.2019
6386 Rain 14 1003 67 10000 5.7 150 18:36 14.06.2019
6387 Rain 14 1003 82 10000 6.2 160 18:18 14.06.2019
6388 Rain 14 1003 82 10000 4.6 150 17:45 14.06.2019
6389 Rain 13 1003 82 10000 4.6 150 17:23 14.06.2019
6390 Rain 13 1003 87 10000 5.7 150 16:53 14.06.2019
6391 Rain 12 1003 87 10000 5.7 140 16:24 14.06.2019
6392 Rain 12 1003 87 10000 5.7 140 16:24 14.06.2019
6393 Rain 12 1003 87 10000 5.7 140 16:24 14.06.2019
6394 Rain 12 1003 93 10000 5.1 140 15:59 14.06.2019
6395 Rain 12 1003 93 10000 5.1 140 15:59 14.06.2019
6396 Rain 12 1004 87 10000 3.6 140 15:39 14.06.2019
6397 Rain 12 1004 87 10000 5.7 160 15:20 14.06.2019
6398 Rain 12 1004 87 10000 4.1 140 14:48 14.06.2019
6399 Rain 12 1004 87 10000 4.1 140 14:29 14.06.2019
6400 Rain 12 1004 87 10000 4.1 140 14:29 14.06.2019
6401 Clouds 12 1004 81 10000 3.1 150 13:47 14.06.2019
6402 Clouds 12 1004 81 10000 3.1 150 13:28 14.06.2019
6403 Rain 12 1004 71 10000 2.6 190 12:59 14.06.2019
6404 Rain 12 1004 71 10000 2.6 190 12:59 14.06.2019
6405 Rain 12 1004 71 10000 2.6 190 12:59 14.06.2019
6406 Clouds 12 1004 66 10000 2.6 150 12:39 14.06.2019
6407 Clouds 12 1004 66 10000 2.6 150 12:39 14.06.2019
6408 Clouds 11 1004 71 10000 2.1 150 12:21 14.06.2019
6409 Clouds 11 1004 71 10000 2.1 150 12:21 14.06.2019
6410 Clouds 11 1004 76 10000 2.6 130 11:42 14.06.2019
6411 Clouds 11 1004 76 10000 2.6 130 11:42 14.06.2019
6412 Clouds 10 1004 76 10000 2.6 130 11:23 14.06.2019
6413 Clouds 10 1004 71 10000 2.1 140 10:48 14.06.2019
6414 Clouds 10 1004 81 10000 2.1 150 10:21 14.06.2019
6415 Clouds 10 1004 81 10000 2.1 150 09:55 14.06.2019
6416 Clouds 10 1004 81 10000 2.1 210 09:34 14.06.2019
6417 Clouds 8 1004 93 10000 2.6 250 08:49 14.06.2019
6418 Clouds 8 1004 93 10000 1.5 0 08:21 14.06.2019
6419 Clouds 7 1004 93 10000 1.5 0 07:55 14.06.2019
6420 Clouds 7 1004 100 10000 2.1 240 07:24 14.06.2019
6421 Clouds 6 1004 93 10000 2.1 230 06:55 14.06.2019
6422 Clouds 6 1004 93 10000 2.6 220 06:20 14.06.2019
6423 Clouds 6 1004 93 10000 1.5 0 05:47 14.06.2019
6424 Clouds 7 1004 93 10000 2.1 220 04:54 14.06.2019
6425 Clouds 7 1004 93 10000 3.1 260 04:27 14.06.2019
6426 Clouds 8 1004 87 10000 2.1 250 03:39 14.06.2019
6427 Clouds 8 1004 87 10000 2.1 250 03:21 14.06.2019
6428 Clouds 8 1005 93 10000 2.1 240 02:36 14.06.2019
6429 Rain 8 1005 87 10000 1.5 0 01:47 14.06.2019
6430 Rain 9 1005 87 10000 1.5 270 00:37 14.06.2019
6431 Clouds 9 1005 71 10000 1.5 0 00:19 14.06.2019
6432 Clouds 9 1005 71 10000 1.5 0 23:49 13.06.2019
6433 Clouds 9 1005 71 10000 1.5 0 23:25 13.06.2019
6434 Clouds 10 1005 71 10000 2.1 260 22:41 13.06.2019
6435 Clouds 10 1005 76 10000 3.6 290 22:22 13.06.2019
6436 Clouds 10 1005 76 10000 3.6 290 21:59 13.06.2019
6437 Clouds 10 1005 71 10000 3.6 300 21:37 13.06.2019
6438 Clouds 10 1005 71 10000 4.1 290 21:18 13.06.2019
6439 Clouds 10 1005 71 10000 4.1 290 21:18 13.06.2019
6440 Clouds 10 1005 71 10000 4.6 300 20:44 13.06.2019
6441 Clouds 11 1005 71 10000 5.1 310 20:20 13.06.2019
6442 Clouds 11 1005 76 10000 7.2 310 19:43 13.06.2019
6443 Clouds 11 1005 76 10000 7.2 310 19:25 13.06.2019
6444 Clouds 11 1005 71 10000 5.7 300 18:59 13.06.2019
6445 Clouds 11 1005 66 10000 5.1 300 18:41 13.06.2019
6446 Clouds 12 1005 66 10000 5.1 300 18:22 13.06.2019
6447 Clouds 11 1005 76 10000 5.7 300 17:45 13.06.2019
6448 Clouds 11 1005 76 10000 5.7 300 17:22 13.06.2019
6449 Clouds 11 1006 76 10000 4.1 310 16:59 13.06.2019
6450 Clouds 10 1006 81 10000 6.7 310 16:40 13.06.2019
6451 Drizzle 10 1006 81 10000 5.7 320 16:20 13.06.2019
6452 Clouds 11 1006 81 10000 5.7 320 15:41 13.06.2019
6453 Clouds 10 1006 87 10000 6.2 320 15:22 13.06.2019
6454 Drizzle 11 1006 87 10000 4.6 310 14:50 13.06.2019
6455 Drizzle 10 1006 87 10000 4.6 310 14:31 13.06.2019
6456 Drizzle 11 1006 81 10000 6.7 320 13:55 13.06.2019
6457 Clouds 10 1006 87 10000 5.1 330 13:37 13.06.2019
6458 Clouds 10 1007 87 10000 4.6 330 13:19 13.06.2019
6459 Clouds 10 1007 87 10000 4.6 330 12:40 13.06.2019
6460 Clouds 10 1007 87 10000 5.1 350 12:21 13.06.2019
6461 Clouds 10 1007 87 10000 5.1 350 11:45 13.06.2019
6462 Clouds 10 1007 87 10000 5.1 350 11:26 13.06.2019
6463 Clouds 10 1007 93 10000 5.7 340 10:49 13.06.2019
6464 Clouds 10 1007 93 10000 5.7 340 10:30 13.06.2019
6465 Rain 10 1007 93 10000 5.1 350 09:55 13.06.2019
6466 Rain 10 1007 93 10000 5.1 350 09:55 13.06.2019
6467 Rain 10 1007 93 10000 5.1 350 09:55 13.06.2019
6468 Rain 10 1007 100 10000 5.7 360 09:36 13.06.2019
6469 Rain 10 1007 93 7000 5.7 360 09:18 13.06.2019
6470 Rain 10 1007 93 6000 6.2 360 08:43 13.06.2019
6471 Rain 10 1007 93 6000 6.2 360 08:22 13.06.2019
6472 Rain 10 1007 93 10000 4.6 340 07:41 13.06.2019
6473 Rain 10 1007 93 10000 4.6 340 07:22 13.06.2019
6474 Rain 10 1007 93 8000 5.7 360 06:45 13.06.2019
6475 Rain 10 1008 93 10000 5.1 360 06:22 13.06.2019
6476 Rain 10 1008 93 10000 5.1 360 05:52 13.06.2019
6477 Rain 10 1008 93 9000 4.6 350 05:34 13.06.2019
6478 Drizzle 10 1009 93 10000 6.2 360 03:50 13.06.2019
6479 Rain 10 1009 93 10000 5.1 350 02:22 13.06.2019
6480 Rain 10 1011 93 7000 7.2 360 00:44 13.06.2019
6481 Drizzle 10 1011 93 7000 6.2 350 23:38 12.06.2019
6482 Drizzle 10 1012 93 7000 5.1 350 23:20 12.06.2019
6483 Drizzle 10 1012 93 8000 5.1 340 22:41 12.06.2019
6484 Drizzle 10 1012 93 8000 6.7 350 22:22 12.06.2019
6485 Drizzle 11 1012 87 8000 5.1 340 21:47 12.06.2019
6486 Drizzle 11 1012 87 8000 5.1 340 21:29 12.06.2019
6487 Clouds 11 1013 81 10000 4.6 340 20:50 12.06.2019
6488 Clouds 11 1013 81 10000 4.6 340 20:31 12.06.2019
6489 Drizzle 11 1013 87 10000 5.7 340 19:59 12.06.2019
6490 Drizzle 11 1013 87 10000 6.2 350 19:41 12.06.2019
6491 Rain 11 1013 87 8000 7.2 350 19:22 12.06.2019
6492 Rain 11 1014 87 8000 6.7 350 18:51 12.06.2019
6493 Rain 11 1014 87 8000 6.7 350 18:29 12.06.2019
6494 Rain 11 1014 87 8000 6.7 350 18:29 12.06.2019
6495 Rain 10 1014 87 8000 6.7 10 17:58 12.06.2019
6496 Rain 11 1014 87 7000 6.7 10 17:39 12.06.2019
6497 Rain 10 1014 93 7000 4.6 10 17:18 12.06.2019
6498 Rain 10 1015 93 4000 5.7 360 16:40 12.06.2019
6499 Rain 10 1015 93 4000 6.2 10 16:22 12.06.2019
6500 Rain 10 1015 93 4000 6.7 20 15:47 12.06.2019
6501 Rain 10 1015 93 4000 6.7 20 15:29 12.06.2019
6502 Rain 10 1015 93 3000 7.7 30 14:42 12.06.2019
6503 Rain 10 1015 93 3000 7.7 30 14:22 12.06.2019
6504 Rain 10 1016 81 10000 7.7 20 13:42 12.06.2019
6505 Rain 10 1016 93 10000 7.7 10 13:20 12.06.2019
6506 Rain 10 1016 93 10000 7.7 10 12:56 12.06.2019
6507 Rain 10 1016 93 10000 6.7 10 12:38 12.06.2019
6508 -273 0 0 0 0 0 12:19 12.06.2019
6509 Rain 10 1016 87 10000 6.2 10 12:19 12.06.2019
6510 Rain 10 1016 87 10000 7.2 10 11:45 12.06.2019
6511 Rain 10 1016 87 10000 7.2 10 11:27 12.06.2019
6512 Rain 10 1016 87 10000 6.7 10 10:50 12.06.2019
6513 Rain 10 1016 87 10000 7.7 10 10:26 12.06.2019
6514 Rain 10 1016 81 10000 7.7 20 09:45 12.06.2019
6515 Rain 10 1016 81 10000 7.7 20 09:23 12.06.2019
6516 Rain 10 1017 81 10000 6.2 10 08:55 12.06.2019
6517 Rain 10 1017 81 10000 5.7 10 08:21 12.06.2019
6518 Clouds 10 1017 87 10000 4.1 350 07:45 12.06.2019
6519 Clouds 10 1017 87 10000 4.1 340 06:54 12.06.2019
6520 Rain 10 1018 81 10000 4.6 350 05:27 12.06.2019
6521 Rain 11 1018 81 10000 4.6 350 04:54 12.06.2019
6522 Clouds 10 1020 81 10000 4.6 330 01:44 12.06.2019
6523 Clouds 11 1020 81 10000 3.1 340 00:40 12.06.2019
6524 Clouds 11 1020 71 10000 3.6 360 23:48 11.06.2019
6525 Clouds 11 1020 71 10000 3.6 360 23:30 11.06.2019
6526 Clouds 12 1020 71 10000 5.7 30 22:44 11.06.2019
6527 Clouds 12 1020 71 10000 5.7 40 22:21 11.06.2019
6528 Clouds 12 1020 71 10000 5.7 40 21:58 11.06.2019
6529 Clouds 12 1020 71 10000 5.1 50 21:39 11.06.2019
6530 Clouds 13 1020 71 10000 5.1 40 21:20 11.06.2019
6531 Clouds 13 1020 71 10000 5.1 40 21:20 11.06.2019
6532 Clouds 13 1020 71 10000 5.1 40 21:20 11.06.2019
6533 Clouds 13 1020 66 10000 4.6 20 20:49 11.06.2019
6534 Clouds 13 1020 66 10000 4.6 20 20:26 11.06.2019
6535 Clouds 14 1020 67 10000 5.7 60 19:56 11.06.2019
6536 -273 0 0 0 0 0 19:38 11.06.2019
6537 Clouds 13 1020 67 10000 5.7 60 19:38 11.06.2019
6538 Clouds 14 1020 67 10000 5.7 50 18:59 11.06.2019
6539 Clouds 14 1021 58 10000 6.7 70 18:58 11.06.2019
6540 Clouds 14 1021 71 10000 6.2 40 18:23 11.06.2019
6541 Clouds 14 1021 62 10000 6.7 50 17:57 11.06.2019
6542 Clouds 14 1021 62 10000 6.7 50 17:39 11.06.2019
6543 Clouds 14 1021 62 10000 6.2 40 17:19 11.06.2019
6544 Clouds 14 1021 62 10000 6.2 40 16:42 11.06.2019
6545 Clouds 14 1021 71 10000 5.7 20 16:23 11.06.2019
6546 Clouds 14 1021 71 10000 6.2 40 15:43 11.06.2019
6547 Clouds 14 1021 71 10000 6.2 40 15:25 11.06.2019
6548 Clouds 14 1021 67 10000 5.7 30 14:54 11.06.2019
6549 Clouds 14 1021 67 10000 5.7 30 14:23 11.06.2019
6550 Clouds 14 1021 62 10000 6.2 30 13:58 11.06.2019
6551 Clouds 14 1021 67 10000 7.2 20 13:37 11.06.2019
6552 Clouds 13 1022 71 10000 6.7 20 13:19 11.06.2019
6553 Clouds 13 1021 71 10000 6.2 10 12:41 11.06.2019
6554 Clouds 13 1022 71 10000 7.2 30 12:21 11.06.2019
6555 Clouds 13 1022 62 10000 7.2 20 11:41 11.06.2019
6556 Clouds 13 1022 76 10000 6.7 20 11:21 11.06.2019
6557 Clouds 12 1022 81 10000 6.7 360 10:50 11.06.2019
6558 Clouds 12 1022 81 10000 6.7 360 10:26 11.06.2019
6559 Clouds 11 1022 81 10000 6.7 350 09:51 11.06.2019
6560 Clouds 11 1022 81 10000 6.7 350 09:25 11.06.2019
6561 Clouds 10 1022 81 10000 6.2 360 08:49 11.06.2019
6562 Clouds 10 1022 81 10000 6.2 360 08:30 11.06.2019
6563 Clouds 9 1021 87 10000 6.2 340 07:57 11.06.2019
6564 Clouds 9 1021 93 10000 5.7 340 07:31 11.06.2019
6565 Clouds 8 1021 93 10000 6.2 340 06:52 11.06.2019
6566 Clouds 8 1021 93 10000 6.2 340 06:52 11.06.2019
6567 Clouds 8 1021 87 10000 6.7 350 05:20 11.06.2019
6568 Clouds 8 1021 87 10000 6.2 340 04:27 11.06.2019
6569 Clouds 9 1021 81 10000 5.7 330 01:53 11.06.2019
6570 Clouds 10 1021 81 10000 5.7 340 00:49 11.06.2019
6571 Clouds 10 1021 81 10000 5.7 340 00:23 11.06.2019
6572 Clouds 11 1021 76 10000 4.6 340 23:44 10.06.2019
6573 Clouds 12 1021 76 10000 3.1 350 23:19 10.06.2019
6574 Clouds 12 1021 71 10000 3.6 10 22:42 10.06.2019
6575 Clouds 12 1021 71 10000 3.6 10 22:24 10.06.2019
6576 Clouds 14 1020 62 10000 4.6 20 21:41 10.06.2019
6577 Clouds 14 1020 62 10000 4.6 20 21:23 10.06.2019
6578 Clouds 14 1020 67 10000 4.6 10 20:59 10.06.2019
6579 Clouds 14 1020 62 10000 5.7 10 20:40 10.06.2019
6580 Clouds 14 1020 58 10000 5.1 20 20:21 10.06.2019
6581 Clouds 15 1019 58 10000 5.1 10 19:43 10.06.2019
6582 Clouds 15 1019 62 10000 4.6 30 19:22 10.06.2019
6583 Clouds 15 1019 58 10000 5.1 50 18:56 10.06.2019
6584 Clouds 15 1019 58 10000 5.1 50 18:38 10.06.2019
6585 Clouds 15 1019 67 10000 5.1 50 18:19 10.06.2019
6586 Clouds 15 1019 67 10000 5.1 50 17:43 10.06.2019
6587 Clouds 14 1019 67 10000 5.1 50 17:23 10.06.2019
6588 Clouds 14 1019 67 10000 5.1 60 16:48 10.06.2019
6589 Clouds 15 1019 67 10000 5.1 60 16:30 10.06.2019
6590 Clouds 15 1019 76 10000 5.1 60 15:57 10.06.2019
6591 Clouds 14 1019 76 10000 5.1 70 15:38 10.06.2019
6592 Clouds 14 1019 71 10000 5.1 50 15:19 10.06.2019
6593 Rain 14 1019 76 10000 5.1 70 14:41 10.06.2019
6594 Rain 14 1019 76 10000 4.6 30 14:22 10.06.2019
6595 Rain 13 1019 81 10000 4.1 30 13:45 10.06.2019
6596 Clouds 13 1019 81 10000 4.6 20 13:23 10.06.2019
6597 Clouds 13 1019 81 10000 4.1 360 12:48 10.06.2019
6598 Clouds 12 1019 81 10000 4.1 360 12:29 10.06.2019
6599 Clouds 12 1019 71 10000 2.6 310 11:52 10.06.2019
6600 Clouds 12 1018 81 10000 3.1 340 11:30 10.06.2019
6601 Clouds 11 1018 87 10000 2.6 320 10:58 10.06.2019
6602 Clouds 11 1018 87 10000 2.6 320 10:38 10.06.2019
6603 Clouds 11 1018 87 10000 2.1 300 10:18 10.06.2019
6604 Clouds 11 1018 87 10000 1.5 0 09:48 10.06.2019
6605 Clouds 10 1018 87 10000 1.5 0 09:29 10.06.2019
6606 Clouds 10 1018 87 10000 2.6 280 08:48 10.06.2019
6607 Clouds 10 1018 87 10000 2.6 280 08:26 10.06.2019
6608 Clouds 9 1017 93 10000 2.1 260 07:40 10.06.2019
6609 Clouds 8 1017 93 10000 1.5 270 04:42 10.06.2019
6610 Clouds 9 1018 87 10000 1.5 0 02:29 10.06.2019
6611 Clouds 9 1018 93 10000 1.5 270 01:49 10.06.2019
6612 Clouds 9 1018 93 10000 1.51 300.639 00:59 10.06.2019
6613 Clouds 8 1018 87 10000 2.1 270 00:36 10.06.2019
6614 Clouds 10 1018 87 10000 1 0 23:46 09.06.2019
6615 Clouds 10 1017 87 10000 1.5 0 23:21 09.06.2019
6616 Clouds 10 1017 87 10000 2.6 270 22:45 09.06.2019
6617 Clouds 10 1017 87 10000 2.6 270 22:26 09.06.2019
6618 Clouds 11 1017 81 10000 2.6 200 21:47 09.06.2019
6619 Clouds 11 1017 81 10000 2.6 200 21:28 09.06.2019
6620 Rain 11 1017 81 10000 3.1 190 20:58 09.06.2019
6621 Rain 11 1017 87 10000 3.1 200 20:40 09.06.2019
6622 Rain 11 1018 87 10000 3.6 220 20:21 09.06.2019
6623 Rain 11 1017 81 10000 4.1 210 19:42 09.06.2019
6624 Rain 11 1017 71 10000 5.7 150 19:18 09.06.2019
6625 Rain 11 1017 58 10000 6.2 140 18:43 09.06.2019
6626 Rain 12 1017 58 10000 6.2 140 18:24 09.06.2019
6627 Clouds 14 1017 55 10000 3.1 130 17:50 09.06.2019
6628 Clouds 14 1017 55 10000 3.1 130 17:30 09.06.2019
6629 Clouds 15 1017 58 10000 3.1 200 16:58 09.06.2019
6630 Clouds 15 1017 58 10000 3.1 200 16:58 09.06.2019
6631 Clouds 15 1017 58 10000 2.6 240 16:39 09.06.2019
6632 Rain 14 1017 66 10000 9.3 270 16:20 09.06.2019
6633 Rain 14 1017 66 10000 9.3 270 16:20 09.06.2019
6634 Clouds 13 1017 51 10000 5.1 210 15:49 09.06.2019
6635 Clouds 14 1017 51 10000 5.1 210 15:28 09.06.2019
6636 Rain 14 1017 58 10000 3.1 190 14:51 09.06.2019
6637 Rain 14 1017 58 10000 3.1 190 14:51 09.06.2019
6638 Rain 15 1017 58 10000 3.1 190 14:33 09.06.2019
6639 Clouds 14 1017 54 10000 3.6 220 13:57 09.06.2019
6640 Clouds 14 1017 54 10000 4.1 200 13:39 09.06.2019
6641 Clouds 14 1018 54 10000 4.1 220 12:55 09.06.2019
6642 Clouds 14 1018 58 10000 3.6 230 12:34 09.06.2019
6643 Clouds 13 1018 71 10000 4.1 230 11:51 09.06.2019
6644 Clouds 13 1018 71 10000 4.1 230 11:30 09.06.2019
6645 -273 0 0 0 0 0 10:58 09.06.2019
6646 Clouds 13 1018 71 10000 4.1 220 10:58 09.06.2019
6647 Clouds 13 1018 71 10000 4.1 230 10:38 09.06.2019
6648 Clouds 12 1018 76 10000 4.1 230 10:19 09.06.2019
6649 Clouds 12 1018 76 10000 4.1 230 10:19 09.06.2019
6650 Clouds 12 1017 76 10000 3.6 230 09:38 09.06.2019
6651 Clouds 11 1017 81 10000 3.6 240 09:19 09.06.2019
6652 Clouds 11 1017 81 10000 3.6 240 09:19 09.06.2019
6653 Clouds 10 1017 81 10000 3.6 240 08:44 09.06.2019
6654 Clouds 9 1017 87 10000 4.1 240 07:52 09.06.2019
6655 Clouds 8 1016 87 10000 5.7 250 06:44 09.06.2019
6656 Clouds 8 1016 87 10000 5.7 250 05:55 09.06.2019
6657 Clouds 8 1016 81 10000 4.1 240 02:55 09.06.2019
6658 Clouds 9 1016 76 10000 5.1 250 01:37 09.06.2019
6659 Clouds 9 1016 71 10000 4.1 240 01:19 09.06.2019
6660 Clouds 10 1016 76 10000 4.1 240 00:29 09.06.2019
6661 Clouds 10 1016 71 10000 4.6 250 23:41 08.06.2019
6662 Clouds 11 1015 81 10000 5.1 270 23:22 08.06.2019
6663 Clouds 11 1015 76 10000 4.1 280 22:45 08.06.2019
6664 Rain 11 1015 76 10000 7.2 280 22:26 08.06.2019
6665 Rain 12 1015 76 10000 7.2 280 21:58 08.06.2019
6666 Clouds 12 1014 71 10000 8.7 270 21:39 08.06.2019
6667 Clouds 12 1014 66 10000 7.2 270 21:20 08.06.2019
6668 Clouds 13 1014 66 10000 8.2 270 20:43 08.06.2019
6669 Clouds 13 1014 66 10000 8.2 270 20:24 08.06.2019
6670 Clouds 14 1013 58 10000 8.2 270 19:44 08.06.2019
6671 Clouds 14 1013 54 10000 9.3 270 19:23 08.06.2019
6672 Clouds 15 1013 54 10000 9.3 270 18:59 08.06.2019
6673 Clouds 14 1